<?xml version='1.0' encoding='UTF-8'?><gpx version="1.1" creator="JPX - https://github.com/jenetics/jpx" xmlns="http://www.topografix.com/GPX/1/1"><trk><trkseg><trkpt lat="43.69084840751746" lon="10.89703632744679"><ele>30.0</ele><time>2026-05-01T13:38:28Z</time></trkpt><trkpt lat="43.690917700333735" lon="10.896911848493623"><ele>30.0</ele><time>2026-05-01T13:39:29Z</time></trkpt><trkpt lat="43.69094732000695" lon="10.896824664689719"><ele>30.0</ele><time>2026-05-01T13:39:30Z</time></trkpt><trkpt lat="43.69100398325981" lon="10.896682062481593"><ele>30.0</ele><time>2026-05-01T13:39:32Z</time></trkpt><trkpt lat="43.691035216183536" lon="10.896588953571309"><ele>30.0</ele><time>2026-05-01T13:39:33Z</time></trkpt><trkpt lat="43.69107019573618" lon="10.896501872273172"><ele>30.0</ele><time>2026-05-01T13:39:34Z</time></trkpt><trkpt lat="43.69113187098159" lon="10.896370202867255"><ele>30.0</ele><time>2026-05-01T13:39:36Z</time></trkpt><trkpt lat="43.691171732809316" lon="10.896299945217176"><ele>30.0</ele><time>2026-05-01T13:39:37Z</time></trkpt><trkpt lat="43.69126330248256" lon="10.896215709821261"><ele>30.0</ele><time>2026-05-01T13:39:39Z</time></trkpt><trkpt lat="43.69133464717457" lon="10.896224860207102"><ele>30.0</ele><time>2026-05-01T13:39:41.001Z</time></trkpt><trkpt lat="43.69143968500373" lon="10.89620869112085"><ele>30.0</ele><time>2026-05-01T13:39:45.001Z</time></trkpt><trkpt lat="43.69148102994872" lon="10.896115182393444"><ele>30.0</ele><time>2026-05-01T13:39:46.001Z</time></trkpt><trkpt lat="43.69151231314914" lon="10.89601124785597"><ele>29.6</ele><time>2026-05-01T13:39:47.001Z</time></trkpt><trkpt lat="43.69155246563027" lon="10.895909300267437"><ele>29.2</ele><time>2026-05-01T13:39:48.001Z</time></trkpt><trkpt lat="43.69159657920167" lon="10.895796921285653"><ele>28.799999999999997</ele><time>2026-05-01T13:39:49.001Z</time></trkpt><trkpt lat="43.69164939063545" lon="10.895675771033549"><ele>28.4</ele><time>2026-05-01T13:39:50.001Z</time></trkpt><trkpt lat="43.69170740370907" lon="10.895543078615118"><ele>28.0</ele><time>2026-05-01T13:39:51.001Z</time></trkpt><trkpt lat="43.69176517825506" lon="10.895412278999904"><ele>28.0</ele><time>2026-05-01T13:39:52.001Z</time></trkpt><trkpt lat="43.69182330149335" lon="10.895272866334166"><ele>28.0</ele><time>2026-05-01T13:39:53.001Z</time></trkpt><trkpt lat="43.69188377281284" lon="10.895128569189316"><ele>28.0</ele><time>2026-05-01T13:39:54.001Z</time></trkpt><trkpt lat="43.69194444742728" lon="10.894977840154366"><ele>28.0</ele><time>2026-05-01T13:39:55.001Z</time></trkpt><trkpt lat="43.69200194633374" lon="10.894820617543159"><ele>27.5</ele><time>2026-05-01T13:39:56.001Z</time></trkpt><trkpt lat="43.692053569301535" lon="10.894655215701897"><ele>27.0</ele><time>2026-05-01T13:39:57.001Z</time></trkpt><trkpt lat="43.692093309790835" lon="10.89448910770076"><ele>26.5</ele><time>2026-05-01T13:39:58.001Z</time></trkpt><trkpt lat="43.692117202354495" lon="10.894310780207885"><ele>26.0</ele><time>2026-05-01T13:39:59.001Z</time></trkpt><trkpt lat="43.692125785429184" lon="10.894126773505688"><ele>25.75</ele><time>2026-05-01T13:40:00.001Z</time></trkpt><trkpt lat="43.692120678805544" lon="10.893939140441114"><ele>25.5</ele><time>2026-05-01T13:40:01.001Z</time></trkpt><trkpt lat="43.692100923966" lon="10.893750212694954"><ele>25.25</ele><time>2026-05-01T13:40:02.001Z</time></trkpt><trkpt lat="43.69206534025114" lon="10.893560851672888"><ele>25.0</ele><time>2026-05-01T13:40:03.001Z</time></trkpt><trkpt lat="43.69201668864615" lon="10.893375736375097"><ele>25.5</ele><time>2026-05-01T13:40:04.001Z</time></trkpt><trkpt lat="43.69196611759332" lon="10.893189606803686"><ele>26.0</ele><time>2026-05-01T13:40:05.001Z</time></trkpt><trkpt lat="43.6919146451365" lon="10.893003697951833"><ele>26.5</ele><time>2026-05-01T13:40:06.001Z</time></trkpt><trkpt lat="43.691864215198144" lon="10.892813762063037"><ele>27.0</ele><time>2026-05-01T13:40:07Z</time></trkpt><trkpt lat="43.6918148045246" lon="10.892621357669398"><ele>28.0</ele><time>2026-05-01T13:40:08Z</time></trkpt><trkpt lat="43.69176204270483" lon="10.892423555266118"><ele>29.0</ele><time>2026-05-01T13:40:09Z</time></trkpt><trkpt lat="43.69170886233614" lon="10.892222652068794"><ele>30.0</ele><time>2026-05-01T13:40:10Z</time></trkpt><trkpt lat="43.691654082436436" lon="10.892015420895149"><ele>30.0</ele><time>2026-05-01T13:40:11Z</time></trkpt><trkpt lat="43.691601976001365" lon="10.891812060756143"><ele>30.0</ele><time>2026-05-01T13:40:12Z</time></trkpt><trkpt lat="43.6915483190024" lon="10.89160437012208"><ele>30.0</ele><time>2026-05-01T13:40:13Z</time></trkpt><trkpt lat="43.69149358921779" lon="10.891392954315087"><ele>30.0</ele><time>2026-05-01T13:40:14Z</time></trkpt><trkpt lat="43.69143843728814" lon="10.891177932515461"><ele>30.0</ele><time>2026-05-01T13:40:15Z</time></trkpt><trkpt lat="43.69138338872695" lon="10.890962309968847"><ele>30.0</ele><time>2026-05-01T13:40:16Z</time></trkpt><trkpt lat="43.69132805401413" lon="10.890743541034425"><ele>30.0</ele><time>2026-05-01T13:40:17Z</time></trkpt><trkpt lat="43.69126771466354" lon="10.89052554762477"><ele>30.0</ele><time>2026-05-01T13:40:18Z</time></trkpt><trkpt lat="43.69120577852266" lon="10.890306070485265"><ele>30.0</ele><time>2026-05-01T13:40:19Z</time></trkpt><trkpt lat="43.691143953751286" lon="10.890083481246442"><ele>30.666666666666664</ele><time>2026-05-01T13:40:20Z</time></trkpt><trkpt lat="43.6910861547781" lon="10.889859441149259"><ele>31.333333333333332</ele><time>2026-05-01T13:40:21Z</time></trkpt><trkpt lat="43.6910349789294" lon="10.88963345934474"><ele>32.0</ele><time>2026-05-01T13:40:22Z</time></trkpt><trkpt lat="43.69097759493178" lon="10.889403331307562"><ele>31.666666666666664</ele><time>2026-05-01T13:40:23Z</time></trkpt><trkpt lat="43.69091351041666" lon="10.889178544050644"><ele>31.333333333333336</ele><time>2026-05-01T13:40:24Z</time></trkpt><trkpt lat="43.69085043803921" lon="10.88895047935256"><ele>31.0</ele><time>2026-05-01T13:40:25Z</time></trkpt><trkpt lat="43.69078797492563" lon="10.88872366869772"><ele>31.0</ele><time>2026-05-01T13:40:26Z</time></trkpt><trkpt lat="43.69072818954145" lon="10.888499236845146"><ele>31.0</ele><time>2026-05-01T13:40:27Z</time></trkpt><trkpt lat="43.69067284005775" lon="10.888275767627338"><ele>31.0</ele><time>2026-05-01T13:40:28Z</time></trkpt><trkpt lat="43.690621329474055" lon="10.88805598135295"><ele>31.0</ele><time>2026-05-01T13:40:29Z</time></trkpt><trkpt lat="43.690578648139365" lon="10.887847582794453"><ele>31.0</ele><time>2026-05-01T13:40:30Z</time></trkpt><trkpt lat="43.690558485088744" lon="10.88763377266498"><ele>31.0</ele><time>2026-05-01T13:40:31Z</time></trkpt><trkpt lat="43.69055460499174" lon="10.887413782721369"><ele>31.0</ele><time>2026-05-01T13:40:32Z</time></trkpt><trkpt lat="43.69056684856233" lon="10.887194043697557"><ele>31.0</ele><time>2026-05-01T13:40:33Z</time></trkpt><trkpt lat="43.69060612617405" lon="10.886977238065958"><ele>31.0</ele><time>2026-05-01T13:40:34Z</time></trkpt><trkpt lat="43.69063840061855" lon="10.886754739394052"><ele>31.0</ele><time>2026-05-01T13:40:35Z</time></trkpt><trkpt lat="43.69065746074208" lon="10.886525398052532"><ele>31.0</ele><time>2026-05-01T13:40:36Z</time></trkpt><trkpt lat="43.69070258686973" lon="10.886297680793318"><ele>31.0</ele><time>2026-05-01T13:40:37Z</time></trkpt><trkpt lat="43.69074545047921" lon="10.886079174527792"><ele>31.333333333333336</ele><time>2026-05-01T13:40:38Z</time></trkpt><trkpt lat="43.69080962798115" lon="10.885872584586616"><ele>31.666666666666664</ele><time>2026-05-01T13:40:39Z</time></trkpt><trkpt lat="43.69089588296417" lon="10.885680402726164"><ele>32.0</ele><time>2026-05-01T13:40:40Z</time></trkpt><trkpt lat="43.69099628494739" lon="10.885491309512249"><ele>31.0</ele><time>2026-05-01T13:40:41Z</time></trkpt><trkpt lat="43.69109432106117" lon="10.885300058675556"><ele>30.0</ele><time>2026-05-01T13:40:42Z</time></trkpt><trkpt lat="43.691188549821014" lon="10.88510489735045"><ele>29.0</ele><time>2026-05-01T13:40:43Z</time></trkpt><trkpt lat="43.69126416900943" lon="10.884900860408578"><ele>29.0</ele><time>2026-05-01T13:40:44Z</time></trkpt><trkpt lat="43.691317621304684" lon="10.884680470660085"><ele>29.0</ele><time>2026-05-01T13:40:45Z</time></trkpt><trkpt lat="43.69134938263212" lon="10.884451304065912"><ele>29.0</ele><time>2026-05-01T13:40:46Z</time></trkpt><trkpt lat="43.69136988849242" lon="10.88422049842117"><ele>29.0</ele><time>2026-05-01T13:40:47Z</time></trkpt><trkpt lat="43.6913919271292" lon="10.883987484801695"><ele>29.0</ele><time>2026-05-01T13:40:48Z</time></trkpt><trkpt lat="43.69141804304197" lon="10.883753367355572"><ele>29.0</ele><time>2026-05-01T13:40:49Z</time></trkpt><trkpt lat="43.69144609999458" lon="10.883515071910585"><ele>29.666666666666664</ele><time>2026-05-01T13:40:50Z</time></trkpt><trkpt lat="43.69147376388105" lon="10.883272166000596"><ele>30.333333333333336</ele><time>2026-05-01T13:40:51Z</time></trkpt><trkpt lat="43.691500142628534" lon="10.883026890123366"><ele>31.0</ele><time>2026-05-01T13:40:52Z</time></trkpt><trkpt lat="43.691528438156006" lon="10.88278370570671"><ele>31.333333333333336</ele><time>2026-05-01T13:40:53Z</time></trkpt><trkpt lat="43.691558108141635" lon="10.882537149684662"><ele>31.666666666666664</ele><time>2026-05-01T13:40:54Z</time></trkpt><trkpt lat="43.69158627194807" lon="10.882294564290977"><ele>32.0</ele><time>2026-05-01T13:40:55Z</time></trkpt><trkpt lat="43.69161460100194" lon="10.882053029351036"><ele>32.0</ele><time>2026-05-01T13:40:56Z</time></trkpt><trkpt lat="43.6916446684706" lon="10.88180517639444"><ele>32.0</ele><time>2026-05-01T13:40:57Z</time></trkpt><trkpt lat="43.69167438464955" lon="10.881556329727895"><ele>32.0</ele><time>2026-05-01T13:40:58Z</time></trkpt><trkpt lat="43.69170113198166" lon="10.881308724215362"><ele>31.333333333333332</ele><time>2026-05-01T13:40:59Z</time></trkpt><trkpt lat="43.69173142408095" lon="10.881054422989967"><ele>30.666666666666664</ele><time>2026-05-01T13:41:00Z</time></trkpt><trkpt lat="43.691764004007304" lon="10.880793010866151"><ele>30.0</ele><time>2026-05-01T13:41:01Z</time></trkpt><trkpt lat="43.69179816580332" lon="10.880528717541907"><ele>30.0</ele><time>2026-05-01T13:41:02Z</time></trkpt><trkpt lat="43.69182997777853" lon="10.88026239394585"><ele>30.0</ele><time>2026-05-01T13:41:03Z</time></trkpt><trkpt lat="43.69186525386874" lon="10.879989702099598"><ele>30.0</ele><time>2026-05-01T13:41:04Z</time></trkpt><trkpt lat="43.69190013389858" lon="10.879731171545885"><ele>29.333333333333336</ele><time>2026-05-01T13:41:05Z</time></trkpt><trkpt lat="43.69193512671164" lon="10.87947302281247"><ele>28.666666666666668</ele><time>2026-05-01T13:41:06Z</time></trkpt><trkpt lat="43.69196780924996" lon="10.879210263084051"><ele>28.0</ele><time>2026-05-01T13:41:07Z</time></trkpt><trkpt lat="43.69200164992744" lon="10.87897568376464"><ele>28.0</ele><time>2026-05-01T13:41:08Z</time></trkpt><trkpt lat="43.69203320863006" lon="10.878741479449484"><ele>28.0</ele><time>2026-05-01T13:41:09Z</time></trkpt><trkpt lat="43.692061803964904" lon="10.878524615785379"><ele>28.0</ele><time>2026-05-01T13:41:10Z</time></trkpt><trkpt lat="43.692091341688936" lon="10.87832291427853"><ele>28.0</ele><time>2026-05-01T13:41:11Z</time></trkpt><trkpt lat="43.692112607271056" lon="10.878110134886676"><ele>28.0</ele><time>2026-05-01T13:41:12Z</time></trkpt><trkpt lat="43.69209769682312" lon="10.877896783991078"><ele>28.0</ele><time>2026-05-01T13:41:13Z</time></trkpt><trkpt lat="43.69205135588962" lon="10.877685769907986"><ele>28.333333333333336</ele><time>2026-05-01T13:41:14Z</time></trkpt><trkpt lat="43.691986207485094" lon="10.877474732080868"><ele>28.666666666666664</ele><time>2026-05-01T13:41:15Z</time></trkpt><trkpt lat="43.69191778402933" lon="10.877262670108754"><ele>29.0</ele><time>2026-05-01T13:41:16Z</time></trkpt><trkpt lat="43.691871559800894" lon="10.87703247681958"><ele>29.0</ele><time>2026-05-01T13:41:17Z</time></trkpt><trkpt lat="43.69181234256703" lon="10.876812536609473"><ele>29.0</ele><time>2026-05-01T13:41:18Z</time></trkpt><trkpt lat="43.69175233639319" lon="10.876579462478109"><ele>29.0</ele><time>2026-05-01T13:41:19Z</time></trkpt><trkpt lat="43.69169394095561" lon="10.876344970762869"><ele>29.0</ele><time>2026-05-01T13:41:20Z</time></trkpt><trkpt lat="43.69163955398679" lon="10.876108923155979"><ele>29.0</ele><time>2026-05-01T13:41:21Z</time></trkpt><trkpt lat="43.69157397775417" lon="10.875885053776326"><ele>29.0</ele><time>2026-05-01T13:41:22Z</time></trkpt><trkpt lat="43.69152478385911" lon="10.875650662152726"><ele>28.666666666666664</ele><time>2026-05-01T13:41:23Z</time></trkpt><trkpt lat="43.691478814297206" lon="10.875411068942515"><ele>28.333333333333336</ele><time>2026-05-01T13:41:24Z</time></trkpt><trkpt lat="43.691437516099406" lon="10.87516961669776"><ele>28.0</ele><time>2026-05-01T13:41:25Z</time></trkpt><trkpt lat="43.691429817213354" lon="10.874928668985145"><ele>28.0</ele><time>2026-05-01T13:41:26Z</time></trkpt><trkpt lat="43.69142775064517" lon="10.874691679272544"><ele>28.0</ele><time>2026-05-01T13:41:27Z</time></trkpt><trkpt lat="43.69143441149498" lon="10.874445364356882"><ele>28.0</ele><time>2026-05-01T13:41:28Z</time></trkpt><trkpt lat="43.69144387960502" lon="10.87419807913302"><ele>28.333333333333336</ele><time>2026-05-01T13:41:29Z</time></trkpt><trkpt lat="43.69144201869742" lon="10.873946640555578"><ele>28.666666666666664</ele><time>2026-05-01T13:41:30Z</time></trkpt><trkpt lat="43.69148010501032" lon="10.873697995412737"><ele>29.0</ele><time>2026-05-01T13:41:31Z</time></trkpt><trkpt lat="43.691513633603876" lon="10.873449331304663"><ele>29.666666666666664</ele><time>2026-05-01T13:41:32Z</time></trkpt><trkpt lat="43.691545975826166" lon="10.87319441070879"><ele>30.333333333333336</ele><time>2026-05-01T13:41:33Z</time></trkpt><trkpt lat="43.691548852288506" lon="10.872935813931049"><ele>31.0</ele><time>2026-05-01T13:41:34Z</time></trkpt><trkpt lat="43.69156553514875" lon="10.872670525682375"><ele>30.666666666666668</ele><time>2026-05-01T13:41:35Z</time></trkpt><trkpt lat="43.69157740383844" lon="10.872401919275973"><ele>30.333333333333336</ele><time>2026-05-01T13:41:36Z</time></trkpt><trkpt lat="43.69158640817485" lon="10.872147057042136"><ele>30.0</ele><time>2026-05-01T13:41:37Z</time></trkpt><trkpt lat="43.69159807003607" lon="10.871893882561219"><ele>30.0</ele><time>2026-05-01T13:41:38Z</time></trkpt><trkpt lat="43.69160710761675" lon="10.871642890104164"><ele>30.0</ele><time>2026-05-01T13:41:39Z</time></trkpt><trkpt lat="43.6916193107984" lon="10.871388658731586"><ele>30.0</ele><time>2026-05-01T13:41:40Z</time></trkpt><trkpt lat="43.69163330098824" lon="10.871152254598721"><ele>30.0</ele><time>2026-05-01T13:41:41Z</time></trkpt><trkpt lat="43.691649182844245" lon="10.870914393953795"><ele>30.0</ele><time>2026-05-01T13:41:42Z</time></trkpt><trkpt lat="43.69166627339505" lon="10.870669742230744"><ele>30.0</ele><time>2026-05-01T13:41:43Z</time></trkpt><trkpt lat="43.69168505090699" lon="10.870418335598966"><ele>30.0</ele><time>2026-05-01T13:41:44Z</time></trkpt><trkpt lat="43.691697303238264" lon="10.870165565902173"><ele>30.0</ele><time>2026-05-01T13:41:45Z</time></trkpt><trkpt lat="43.69170996911213" lon="10.869909823246768"><ele>30.0</ele><time>2026-05-01T13:41:46Z</time></trkpt><trkpt lat="43.691724037563425" lon="10.869664159930515"><ele>30.333333333333336</ele><time>2026-05-01T13:41:47Z</time></trkpt><trkpt lat="43.69173830255111" lon="10.869428210841882"><ele>30.666666666666668</ele><time>2026-05-01T13:41:48Z</time></trkpt><trkpt lat="43.69175168732146" lon="10.869191587104941"><ele>31.0</ele><time>2026-05-01T13:41:49Z</time></trkpt><trkpt lat="43.691765795283814" lon="10.868949598213119"><ele>31.0</ele><time>2026-05-01T13:41:50Z</time></trkpt><trkpt lat="43.69177840248728" lon="10.868703127229864"><ele>31.0</ele><time>2026-05-01T13:41:51Z</time></trkpt><trkpt lat="43.69178885835484" lon="10.868456922598483"><ele>31.0</ele><time>2026-05-01T13:41:52Z</time></trkpt><trkpt lat="43.69179650414084" lon="10.868217117627168"><ele>31.0</ele><time>2026-05-01T13:41:53Z</time></trkpt><trkpt lat="43.691805643794126" lon="10.867995262694953"><ele>31.0</ele><time>2026-05-01T13:41:54Z</time></trkpt><trkpt lat="43.691815440999086" lon="10.867778892865589"><ele>31.0</ele><time>2026-05-01T13:41:55Z</time></trkpt><trkpt lat="43.69182582897874" lon="10.867561178162921"><ele>30.666666666666668</ele><time>2026-05-01T13:41:56Z</time></trkpt><trkpt lat="43.69185272062947" lon="10.867347656093008"><ele>30.333333333333336</ele><time>2026-05-01T13:41:57Z</time></trkpt><trkpt lat="43.69186343300674" lon="10.86713254973685"><ele>30.0</ele><time>2026-05-01T13:41:58Z</time></trkpt><trkpt lat="43.69187354064647" lon="10.8669322552998"><ele>30.0</ele><time>2026-05-01T13:41:59Z</time></trkpt><trkpt lat="43.69188265029159" lon="10.86675173766562"><ele>30.0</ele><time>2026-05-01T13:42:00Z</time></trkpt><trkpt lat="43.69189014225263" lon="10.866606987483522"><ele>30.0</ele><time>2026-05-01T13:42:01Z</time></trkpt><trkpt lat="43.69188197390328" lon="10.866483717188327"><ele>30.0</ele><time>2026-05-01T13:42:02Z</time></trkpt><trkpt lat="43.691895076750306" lon="10.866364863186053"><ele>30.0</ele><time>2026-05-01T13:42:03Z</time></trkpt><trkpt lat="43.69190085620933" lon="10.866247122594713"><ele>30.0</ele><time>2026-05-01T13:42:04Z</time></trkpt><trkpt lat="43.69190467337325" lon="10.866123827310235"><ele>30.0</ele><time>2026-05-01T13:42:05Z</time></trkpt><trkpt lat="43.69191716437956" lon="10.865982576361311"><ele>30.0</ele><time>2026-05-01T13:42:06Z</time></trkpt><trkpt lat="43.69192678301501" lon="10.86584597983337"><ele>30.0</ele><time>2026-05-01T13:42:07Z</time></trkpt><trkpt lat="43.69193568998709" lon="10.865730860664105"><ele>30.0</ele><time>2026-05-01T13:42:08Z</time></trkpt><trkpt lat="43.691941778698386" lon="10.865623576016642"><ele>29.6</ele><time>2026-05-01T13:42:09Z</time></trkpt><trkpt lat="43.691948757394535" lon="10.865503045211263"><ele>29.2</ele><time>2026-05-01T13:42:10Z</time></trkpt><trkpt lat="43.69195647903991" lon="10.865371872686158"><ele>28.799999999999997</ele><time>2026-05-01T13:42:11Z</time></trkpt><trkpt lat="43.691967809395486" lon="10.865224851640303"><ele>28.4</ele><time>2026-05-01T13:42:12Z</time></trkpt><trkpt lat="43.69197900445287" lon="10.865088761172707"><ele>28.0</ele><time>2026-05-01T13:42:13Z</time></trkpt><trkpt lat="43.69198289649092" lon="10.86497314154832"><ele>28.000000000000004</ele><time>2026-05-01T13:42:14Z</time></trkpt><trkpt lat="43.691986493439344" lon="10.864857351484824"><ele>28.0</ele><time>2026-05-01T13:42:15Z</time></trkpt><trkpt lat="43.6919881768355" lon="10.86474967036487"><ele>28.0</ele><time>2026-05-01T13:42:16Z</time></trkpt><trkpt lat="43.69199725696121" lon="10.86464601643253"><ele>28.0</ele><time>2026-05-01T13:42:17Z</time></trkpt><trkpt lat="43.692002271738616" lon="10.86453929033644"><ele>28.000000000000004</ele><time>2026-05-01T13:42:18Z</time></trkpt><trkpt lat="43.69200592331768" lon="10.86443504625195"><ele>28.0</ele><time>2026-05-01T13:42:19Z</time></trkpt><trkpt lat="43.69201014236783" lon="10.864339853971225"><ele>28.4</ele><time>2026-05-01T13:42:20Z</time></trkpt><trkpt lat="43.69201528131725" lon="10.864249207745758"><ele>28.799999999999997</ele><time>2026-05-01T13:42:21Z</time></trkpt><trkpt lat="43.69202342577217" lon="10.864083075426356"><ele>29.2</ele><time>2026-05-01T13:42:23Z</time></trkpt><trkpt lat="43.692040476632" lon="10.86394097652364"><ele>29.6</ele><time>2026-05-01T13:42:25Z</time></trkpt><trkpt lat="43.69204671882505" lon="10.86380586814284"><ele>30.0</ele><time>2026-05-01T13:42:27Z</time></trkpt><trkpt lat="43.69206001272435" lon="10.863673284722818"><ele>30.0</ele><time>2026-05-01T13:42:29Z</time></trkpt><trkpt lat="43.69207417431938" lon="10.863545793438352"><ele>30.0</ele><time>2026-05-01T13:42:31Z</time></trkpt><trkpt lat="43.692090600430134" lon="10.863449148209877"><ele>30.0</ele><time>2026-05-01T13:42:33Z</time></trkpt><trkpt lat="43.69211614649602" lon="10.863317772967095"><ele>30.0</ele><time>2026-05-01T13:42:35Z</time></trkpt><trkpt lat="43.69212361148947" lon="10.863217987861747"><ele>30.0</ele><time>2026-05-01T13:42:36Z</time></trkpt><trkpt lat="43.692131627837895" lon="10.863092271230439"><ele>30.0</ele><time>2026-05-01T13:42:37Z</time></trkpt><trkpt lat="43.692147022639034" lon="10.862946075756781"><ele>30.0</ele><time>2026-05-01T13:42:38Z</time></trkpt><trkpt lat="43.69216376603031" lon="10.862786323098526"><ele>30.0</ele><time>2026-05-01T13:42:39Z</time></trkpt><trkpt lat="43.69218163832107" lon="10.862613460087454"><ele>30.0</ele><time>2026-05-01T13:42:40Z</time></trkpt><trkpt lat="43.69219509938143" lon="10.862416776591472"><ele>30.0</ele><time>2026-05-01T13:42:41Z</time></trkpt><trkpt lat="43.692210424324294" lon="10.862206827776209"><ele>30.0</ele><time>2026-05-01T13:42:42Z</time></trkpt><trkpt lat="43.692226258121615" lon="10.861981412973327"><ele>30.0</ele><time>2026-05-01T13:42:43Z</time></trkpt><trkpt lat="43.69224262889242" lon="10.861739551231953"><ele>30.0</ele><time>2026-05-01T13:42:44Z</time></trkpt><trkpt lat="43.69225943660205" lon="10.861497727078783"><ele>29.666666666666664</ele><time>2026-05-01T13:42:45Z</time></trkpt><trkpt lat="43.692277057208955" lon="10.861243816364155"><ele>29.333333333333332</ele><time>2026-05-01T13:42:46Z</time></trkpt><trkpt lat="43.69229338625546" lon="10.860973376101905"><ele>29.0</ele><time>2026-05-01T13:42:47Z</time></trkpt><trkpt lat="43.69230611941408" lon="10.86070361530214"><ele>28.666666666666664</ele><time>2026-05-01T13:42:48Z</time></trkpt><trkpt lat="43.692320755044705" lon="10.860424169295435"><ele>28.333333333333336</ele><time>2026-05-01T13:42:49Z</time></trkpt><trkpt lat="43.6923382605762" lon="10.860154399227834"><ele>28.0</ele><time>2026-05-01T13:42:50Z</time></trkpt><trkpt lat="43.69235453759185" lon="10.859880493933378"><ele>28.0</ele><time>2026-05-01T13:42:51Z</time></trkpt><trkpt lat="43.69237158224503" lon="10.85960036365522"><ele>28.0</ele><time>2026-05-01T13:42:52Z</time></trkpt><trkpt lat="43.692389046451964" lon="10.859311890632574"><ele>28.0</ele><time>2026-05-01T13:42:53Z</time></trkpt><trkpt lat="43.69240787514017" lon="10.85902216575802"><ele>28.0</ele><time>2026-05-01T13:42:54Z</time></trkpt><trkpt lat="43.69241809380696" lon="10.858741359577595"><ele>28.0</ele><time>2026-05-01T13:42:55Z</time></trkpt><trkpt lat="43.692441744400526" lon="10.858442193843116"><ele>28.0</ele><time>2026-05-01T13:42:56Z</time></trkpt><trkpt lat="43.69245930416118" lon="10.858139597795478"><ele>28.0</ele><time>2026-05-01T13:42:57Z</time></trkpt><trkpt lat="43.6924761936586" lon="10.857834940490802"><ele>28.0</ele><time>2026-05-01T13:42:58Z</time></trkpt><trkpt lat="43.69249467273877" lon="10.85753171756427"><ele>28.0</ele><time>2026-05-01T13:42:59Z</time></trkpt><trkpt lat="43.6925121803736" lon="10.857231316134547"><ele>27.666666666666668</ele><time>2026-05-01T13:43:00Z</time></trkpt><trkpt lat="43.69253035505981" lon="10.856942635640268"><ele>27.333333333333336</ele><time>2026-05-01T13:43:01Z</time></trkpt><trkpt lat="43.692549162282376" lon="10.85664761957264"><ele>27.0</ele><time>2026-05-01T13:43:02Z</time></trkpt><trkpt lat="43.69256895213696" lon="10.856358285070483"><ele>26.666666666666664</ele><time>2026-05-01T13:43:03Z</time></trkpt><trkpt lat="43.692590104271765" lon="10.85606378402096"><ele>26.333333333333332</ele><time>2026-05-01T13:43:04Z</time></trkpt><trkpt lat="43.69260878460815" lon="10.855768367218612"><ele>26.0</ele><time>2026-05-01T13:43:05Z</time></trkpt><trkpt lat="43.6926254377883" lon="10.855481350417765"><ele>26.0</ele><time>2026-05-01T13:43:06Z</time></trkpt><trkpt lat="43.69264135183726" lon="10.855188106630871"><ele>26.0</ele><time>2026-05-01T13:43:07Z</time></trkpt><trkpt lat="43.69266278547548" lon="10.85489459514385"><ele>26.0</ele><time>2026-05-01T13:43:08Z</time></trkpt><trkpt lat="43.69268202865358" lon="10.854605143847753"><ele>25.666666666666664</ele><time>2026-05-01T13:43:09Z</time></trkpt><trkpt lat="43.692701155739655" lon="10.854312960153623"><ele>25.333333333333336</ele><time>2026-05-01T13:43:10Z</time></trkpt><trkpt lat="43.692719205046124" lon="10.854024847345867"><ele>25.0</ele><time>2026-05-01T13:43:11Z</time></trkpt><trkpt lat="43.69273918018389" lon="10.85373525978031"><ele>25.333333333333336</ele><time>2026-05-01T13:43:12Z</time></trkpt><trkpt lat="43.692756636749756" lon="10.853444076961091"><ele>25.666666666666664</ele><time>2026-05-01T13:43:13Z</time></trkpt><trkpt lat="43.69277586531335" lon="10.853151292933552"><ele>26.0</ele><time>2026-05-01T13:43:14Z</time></trkpt><trkpt lat="43.69279317185225" lon="10.852864423866261"><ele>26.333333333333332</ele><time>2026-05-01T13:43:15Z</time></trkpt><trkpt lat="43.6928078332807" lon="10.852573202542345"><ele>26.666666666666664</ele><time>2026-05-01T13:43:16Z</time></trkpt><trkpt lat="43.69282564945888" lon="10.85228387970883"><ele>27.0</ele><time>2026-05-01T13:43:17Z</time></trkpt><trkpt lat="43.69284141783" lon="10.851993792106471"><ele>26.666666666666664</ele><time>2026-05-01T13:43:18Z</time></trkpt><trkpt lat="43.692856438741664" lon="10.851707450299534"><ele>26.333333333333332</ele><time>2026-05-01T13:43:19Z</time></trkpt><trkpt lat="43.69287193700908" lon="10.85140750697333"><ele>26.0</ele><time>2026-05-01T13:43:20Z</time></trkpt><trkpt lat="43.69288725876741" lon="10.851115036928517"><ele>26.0</ele><time>2026-05-01T13:43:21Z</time></trkpt><trkpt lat="43.69290417847531" lon="10.850817519045565"><ele>26.0</ele><time>2026-05-01T13:43:22Z</time></trkpt><trkpt lat="43.69292279751003" lon="10.850536060233472"><ele>26.0</ele><time>2026-05-01T13:43:23Z</time></trkpt><trkpt lat="43.69293971015857" lon="10.850254616720063"><ele>25.333333333333332</ele><time>2026-05-01T13:43:24Z</time></trkpt><trkpt lat="43.69295884402188" lon="10.849975698325057"><ele>24.666666666666664</ele><time>2026-05-01T13:43:25Z</time></trkpt><trkpt lat="43.69297956627034" lon="10.84969188919691"><ele>24.0</ele><time>2026-05-01T13:43:26Z</time></trkpt><trkpt lat="43.69299808064939" lon="10.849410111838962"><ele>24.333333333333336</ele><time>2026-05-01T13:43:27Z</time></trkpt><trkpt lat="43.69301953942248" lon="10.849127244754905"><ele>24.666666666666668</ele><time>2026-05-01T13:43:28Z</time></trkpt><trkpt lat="43.693032915796884" lon="10.848845670695422"><ele>25.0</ele><time>2026-05-01T13:43:29Z</time></trkpt><trkpt lat="43.69305053754047" lon="10.848567458928327"><ele>25.333333333333336</ele><time>2026-05-01T13:43:30Z</time></trkpt><trkpt lat="43.69306639935744" lon="10.848292010443426"><ele>25.666666666666664</ele><time>2026-05-01T13:43:31Z</time></trkpt><trkpt lat="43.69307910947557" lon="10.848020197323853"><ele>26.0</ele><time>2026-05-01T13:43:32Z</time></trkpt><trkpt lat="43.693093401411495" lon="10.847747749386055"><ele>26.0</ele><time>2026-05-01T13:43:33Z</time></trkpt><trkpt lat="43.69310962928576" lon="10.847474436163669"><ele>26.0</ele><time>2026-05-01T13:43:34Z</time></trkpt><trkpt lat="43.69312343642264" lon="10.847214299832721"><ele>26.0</ele><time>2026-05-01T13:43:35Z</time></trkpt><trkpt lat="43.69313784044468" lon="10.846967505863251"><ele>25.666666666666664</ele><time>2026-05-01T13:43:36Z</time></trkpt><trkpt lat="43.69315020829066" lon="10.846718499400753"><ele>25.333333333333336</ele><time>2026-05-01T13:43:37Z</time></trkpt><trkpt lat="43.69316395209183" lon="10.8464837927333"><ele>25.0</ele><time>2026-05-01T13:43:38Z</time></trkpt><trkpt lat="43.69317979114382" lon="10.84623865225748"><ele>25.0</ele><time>2026-05-01T13:43:39Z</time></trkpt><trkpt lat="43.69319248332661" lon="10.845991142746758"><ele>25.0</ele><time>2026-05-01T13:43:40Z</time></trkpt><trkpt lat="43.693208070402065" lon="10.845741523554029"><ele>25.0</ele><time>2026-05-01T13:43:41Z</time></trkpt><trkpt lat="43.693223954343644" lon="10.8454960994187"><ele>25.333333333333336</ele><time>2026-05-01T13:43:42Z</time></trkpt><trkpt lat="43.69323877746772" lon="10.845260708898136"><ele>25.666666666666664</ele><time>2026-05-01T13:43:43Z</time></trkpt><trkpt lat="43.693254339343994" lon="10.845029157793396"><ele>26.0</ele><time>2026-05-01T13:43:44Z</time></trkpt><trkpt lat="43.69326732140504" lon="10.844796828039964"><ele>26.333333333333332</ele><time>2026-05-01T13:43:45Z</time></trkpt><trkpt lat="43.69327813569635" lon="10.844578976167503"><ele>26.666666666666664</ele><time>2026-05-01T13:43:46Z</time></trkpt><trkpt lat="43.69328735071143" lon="10.844370936131282"><ele>27.0</ele><time>2026-05-01T13:43:47Z</time></trkpt><trkpt lat="43.69329628939048" lon="10.844175710420469"><ele>27.0</ele><time>2026-05-01T13:43:48Z</time></trkpt><trkpt lat="43.69330596467998" lon="10.843985614487897"><ele>27.0</ele><time>2026-05-01T13:43:49Z</time></trkpt><trkpt lat="43.69331286215737" lon="10.843809684349777"><ele>27.0</ele><time>2026-05-01T13:43:50Z</time></trkpt><trkpt lat="43.693322628376905" lon="10.84363508756951"><ele>27.0</ele><time>2026-05-01T13:43:51Z</time></trkpt><trkpt lat="43.69333204402275" lon="10.843459186647381"><ele>27.0</ele><time>2026-05-01T13:43:52Z</time></trkpt><trkpt lat="43.69333773030782" lon="10.843294741020548"><ele>27.000000000000004</ele><time>2026-05-01T13:43:53Z</time></trkpt><trkpt lat="43.69334353733537" lon="10.843139146305505"><ele>27.000000000000004</ele><time>2026-05-01T13:43:54Z</time></trkpt><trkpt lat="43.693349428311" lon="10.84299374657799"><ele>27.0</ele><time>2026-05-01T13:43:55Z</time></trkpt><trkpt lat="43.693356744117644" lon="10.842854563946567"><ele>27.0</ele><time>2026-05-01T13:43:56Z</time></trkpt><trkpt lat="43.69336341725703" lon="10.842723735298986"><ele>27.166666666666668</ele><time>2026-05-01T13:43:57Z</time></trkpt><trkpt lat="43.693369154884444" lon="10.84259952098778"><ele>27.333333333333336</ele><time>2026-05-01T13:43:58Z</time></trkpt><trkpt lat="43.69337315912302" lon="10.842481982851945"><ele>27.5</ele><time>2026-05-01T13:43:59Z</time></trkpt><trkpt lat="43.693376483129654" lon="10.842371358405305"><ele>27.666666666666668</ele><time>2026-05-01T13:44:00Z</time></trkpt><trkpt lat="43.69338047926176" lon="10.842270375430365"><ele>27.833333333333336</ele><time>2026-05-01T13:44:01Z</time></trkpt><trkpt lat="43.693383307947954" lon="10.84217837795779"><ele>28.0</ele><time>2026-05-01T13:44:02Z</time></trkpt><trkpt lat="43.69338353968424" lon="10.842031883716173"><ele>28.000000000000004</ele><time>2026-05-01T13:44:04Z</time></trkpt><trkpt lat="43.693389493700295" lon="10.841906570385346"><ele>28.0</ele><time>2026-05-01T13:44:06Z</time></trkpt><trkpt lat="43.69338747297165" lon="10.841809865492205"><ele>28.0</ele><time>2026-05-01T13:44:08Z</time></trkpt><trkpt lat="43.69341042976812" lon="10.841704033346058"><ele>28.0</ele><time>2026-05-01T13:44:11Z</time></trkpt><trkpt lat="43.693395742593985" lon="10.84161116635226"><ele>28.000000000000004</ele><time>2026-05-01T13:44:29Z</time></trkpt><trkpt lat="43.69339916294811" lon="10.841433761318205"><ele>28.0</ele><time>2026-05-01T13:44:31Z</time></trkpt><trkpt lat="43.693396799436066" lon="10.841327099755045"><ele>28.0</ele><time>2026-05-01T13:44:32Z</time></trkpt><trkpt lat="43.69338955850229" lon="10.841228479095742"><ele>27.999999999999996</ele><time>2026-05-01T13:44:33Z</time></trkpt><trkpt lat="43.69338146219327" lon="10.841135717549085"><ele>27.999999999999996</ele><time>2026-05-01T13:44:34Z</time></trkpt><trkpt lat="43.69335700486277" lon="10.841015766102771"><ele>28.0</ele><time>2026-05-01T13:44:35Z</time></trkpt><trkpt lat="43.69331298718643" lon="10.840874229400862"><ele>28.0</ele><time>2026-05-01T13:44:36Z</time></trkpt><trkpt lat="43.6932662938323" lon="10.840717172014672"><ele>28.0</ele><time>2026-05-01T13:44:37Z</time></trkpt><trkpt lat="43.69321975869802" lon="10.840552412549503"><ele>28.0</ele><time>2026-05-01T13:44:38Z</time></trkpt><trkpt lat="43.69316763598229" lon="10.840376800545885"><ele>28.0</ele><time>2026-05-01T13:44:39Z</time></trkpt><trkpt lat="43.69311287529071" lon="10.840189633597397"><ele>28.0</ele><time>2026-05-01T13:44:40Z</time></trkpt><trkpt lat="43.69305577242825" lon="10.839995034571444"><ele>27.666666666666668</ele><time>2026-05-01T13:44:41Z</time></trkpt><trkpt lat="43.69299961652169" lon="10.83980090656117"><ele>27.333333333333336</ele><time>2026-05-01T13:44:42Z</time></trkpt><trkpt lat="43.69293745606723" lon="10.839603232777778"><ele>27.0</ele><time>2026-05-01T13:44:43Z</time></trkpt><trkpt lat="43.69287549422604" lon="10.839401055066016"><ele>27.0</ele><time>2026-05-01T13:44:44Z</time></trkpt><trkpt lat="43.692813275641626" lon="10.839190026237347"><ele>27.0</ele><time>2026-05-01T13:44:45Z</time></trkpt><trkpt lat="43.69274916501271" lon="10.838971424843141"><ele>27.0</ele><time>2026-05-01T13:44:46Z</time></trkpt><trkpt lat="43.69268587608058" lon="10.838753065249126"><ele>27.0</ele><time>2026-05-01T13:44:47Z</time></trkpt><trkpt lat="43.69262144293376" lon="10.838533412532406"><ele>27.0</ele><time>2026-05-01T13:44:48Z</time></trkpt><trkpt lat="43.692554315271856" lon="10.838303772394484"><ele>27.0</ele><time>2026-05-01T13:44:49Z</time></trkpt><trkpt lat="43.69248767706312" lon="10.838083194440413"><ele>27.0</ele><time>2026-05-01T13:44:50Z</time></trkpt><trkpt lat="43.692421849240915" lon="10.83785064472195"><ele>27.0</ele><time>2026-05-01T13:44:51Z</time></trkpt><trkpt lat="43.6923494996375" lon="10.837620251764035"><ele>27.0</ele><time>2026-05-01T13:44:52Z</time></trkpt><trkpt lat="43.692279835265865" lon="10.837378742633994"><ele>27.0</ele><time>2026-05-01T13:44:53Z</time></trkpt><trkpt lat="43.69221040084254" lon="10.837134399185606"><ele>27.0</ele><time>2026-05-01T13:44:54Z</time></trkpt><trkpt lat="43.692136613128675" lon="10.836889731884368"><ele>27.0</ele><time>2026-05-01T13:44:55Z</time></trkpt><trkpt lat="43.69206343277527" lon="10.836650582256805"><ele>26.666666666666664</ele><time>2026-05-01T13:44:56Z</time></trkpt><trkpt lat="43.69199724187475" lon="10.836425279719345"><ele>26.333333333333332</ele><time>2026-05-01T13:44:57Z</time></trkpt><trkpt lat="43.69193057539644" lon="10.836207401984575"><ele>26.0</ele><time>2026-05-01T13:44:58Z</time></trkpt><trkpt lat="43.69185723234476" lon="10.835972532977703"><ele>25.666666666666664</ele><time>2026-05-01T13:44:59Z</time></trkpt><trkpt lat="43.69178658129539" lon="10.835728980387598"><ele>25.333333333333336</ele><time>2026-05-01T13:45:00Z</time></trkpt><trkpt lat="43.6917137765331" lon="10.835479022804089"><ele>25.0</ele><time>2026-05-01T13:45:01Z</time></trkpt><trkpt lat="43.69163954918005" lon="10.83522952265958"><ele>24.333333333333336</ele><time>2026-05-01T13:45:02Z</time></trkpt><trkpt lat="43.69156650308204" lon="10.834976120035511"><ele>23.666666666666668</ele><time>2026-05-01T13:45:03Z</time></trkpt><trkpt lat="43.691507380666835" lon="10.834737576840954"><ele>23.0</ele><time>2026-05-01T13:45:04Z</time></trkpt><trkpt lat="43.691419431428336" lon="10.834503049062699"><ele>23.333333333333336</ele><time>2026-05-01T13:45:05Z</time></trkpt><trkpt lat="43.691351426146994" lon="10.83426909727898"><ele>23.666666666666668</ele><time>2026-05-01T13:45:06Z</time></trkpt><trkpt lat="43.6912873350278" lon="10.834051532720284"><ele>24.0</ele><time>2026-05-01T13:45:07Z</time></trkpt><trkpt lat="43.69122465637018" lon="10.83385188269272"><ele>24.0</ele><time>2026-05-01T13:45:08Z</time></trkpt><trkpt lat="43.6911641546607" lon="10.833661382968995"><ele>24.0</ele><time>2026-05-01T13:45:09Z</time></trkpt><trkpt lat="43.69113066807088" lon="10.833471386686814"><ele>24.0</ele><time>2026-05-01T13:45:10Z</time></trkpt><trkpt lat="43.691078909972425" lon="10.833330110309237"><ele>24.0</ele><time>2026-05-01T13:45:11Z</time></trkpt><trkpt lat="43.69106068185578" lon="10.83319202822753"><ele>24.166666666666668</ele><time>2026-05-01T13:45:12Z</time></trkpt><trkpt lat="43.69105118817889" lon="10.83307559332984"><ele>24.333333333333336</ele><time>2026-05-01T13:45:13Z</time></trkpt><trkpt lat="43.69106276594744" lon="10.832957472613337"><ele>24.5</ele><time>2026-05-01T13:45:14Z</time></trkpt><trkpt lat="43.691085600544476" lon="10.832850520306156"><ele>24.666666666666668</ele><time>2026-05-01T13:45:15Z</time></trkpt><trkpt lat="43.69108488203761" lon="10.8327515039592"><ele>24.833333333333336</ele><time>2026-05-01T13:45:16Z</time></trkpt><trkpt lat="43.691019749327545" lon="10.832659381154768"><ele>25.0</ele><time>2026-05-01T13:45:17Z</time></trkpt><trkpt lat="43.69094338184641" lon="10.83259440896915"><ele>25.0</ele><time>2026-05-01T13:45:18Z</time></trkpt><trkpt lat="43.690864780753685" lon="10.832501483103211"><ele>25.0</ele><time>2026-05-01T13:45:19Z</time></trkpt><trkpt lat="43.69079903872224" lon="10.832385508841035"><ele>25.0</ele><time>2026-05-01T13:45:20Z</time></trkpt><trkpt lat="43.69074575968991" lon="10.832236897251397"><ele>25.0</ele><time>2026-05-01T13:45:21Z</time></trkpt><trkpt lat="43.690704990243475" lon="10.832085770631632"><ele>25.0</ele><time>2026-05-01T13:45:22Z</time></trkpt><trkpt lat="43.690658859646405" lon="10.831932472657106"><ele>25.25</ele><time>2026-05-01T13:45:23Z</time></trkpt><trkpt lat="43.69060744022573" lon="10.831771812290665"><ele>25.5</ele><time>2026-05-01T13:45:24Z</time></trkpt><trkpt lat="43.69055808793533" lon="10.831595820797673"><ele>25.75</ele><time>2026-05-01T13:45:25Z</time></trkpt><trkpt lat="43.69050657596562" lon="10.83140653081533"><ele>26.0</ele><time>2026-05-01T13:45:26Z</time></trkpt><trkpt lat="43.69045018221185" lon="10.831215773414606"><ele>26.0</ele><time>2026-05-01T13:45:27Z</time></trkpt><trkpt lat="43.69039437157608" lon="10.831017215529567"><ele>26.0</ele><time>2026-05-01T13:45:28Z</time></trkpt><trkpt lat="43.69034407587948" lon="10.830829030866088"><ele>26.0</ele><time>2026-05-01T13:45:29Z</time></trkpt><trkpt lat="43.6902854893706" lon="10.830635222877902"><ele>26.333333333333332</ele><time>2026-05-01T13:45:30Z</time></trkpt><trkpt lat="43.690221598707154" lon="10.83043533470555"><ele>26.666666666666664</ele><time>2026-05-01T13:45:31Z</time></trkpt><trkpt lat="43.690158020823155" lon="10.830229001923575"><ele>27.0</ele><time>2026-05-01T13:45:32Z</time></trkpt><trkpt lat="43.69009480454225" lon="10.830014284891543"><ele>27.0</ele><time>2026-05-01T13:45:33Z</time></trkpt><trkpt lat="43.69003265046277" lon="10.829798593042307"><ele>27.0</ele><time>2026-05-01T13:45:34Z</time></trkpt><trkpt lat="43.68996816059072" lon="10.829575573707048"><ele>27.0</ele><time>2026-05-01T13:45:35Z</time></trkpt><trkpt lat="43.689902377396834" lon="10.829349176726932"><ele>26.666666666666664</ele><time>2026-05-01T13:45:36Z</time></trkpt><trkpt lat="43.68983829119973" lon="10.82911821219516"><ele>26.333333333333332</ele><time>2026-05-01T13:45:37Z</time></trkpt><trkpt lat="43.68977513898174" lon="10.828877579405386"><ele>26.0</ele><time>2026-05-01T13:45:38Z</time></trkpt><trkpt lat="43.68970717646081" lon="10.828633299845556"><ele>25.666666666666664</ele><time>2026-05-01T13:45:39Z</time></trkpt><trkpt lat="43.68963578136344" lon="10.828390748397961"><ele>25.333333333333336</ele><time>2026-05-01T13:45:40Z</time></trkpt><trkpt lat="43.689563044013646" lon="10.82814716325979"><ele>25.0</ele><time>2026-05-01T13:45:41Z</time></trkpt><trkpt lat="43.68949220328273" lon="10.827908945663049"><ele>25.0</ele><time>2026-05-01T13:45:42Z</time></trkpt><trkpt lat="43.68941008841354" lon="10.82767429584207"><ele>25.0</ele><time>2026-05-01T13:45:43Z</time></trkpt><trkpt lat="43.6893430329673" lon="10.827430541439353"><ele>25.0</ele><time>2026-05-01T13:45:44Z</time></trkpt><trkpt lat="43.68927320635971" lon="10.827175854448011"><ele>25.0</ele><time>2026-05-01T13:45:45Z</time></trkpt><trkpt lat="43.68919871715257" lon="10.826914186423961"><ele>25.0</ele><time>2026-05-01T13:45:46Z</time></trkpt><trkpt lat="43.68911894861803" lon="10.82665310151286"><ele>25.0</ele><time>2026-05-01T13:45:47Z</time></trkpt><trkpt lat="43.689039690138785" lon="10.826386200502977"><ele>25.333333333333336</ele><time>2026-05-01T13:45:48Z</time></trkpt><trkpt lat="43.68897273476502" lon="10.8261084757642"><ele>25.666666666666664</ele><time>2026-05-01T13:45:49Z</time></trkpt><trkpt lat="43.688878343009954" lon="10.82584416941221"><ele>26.0</ele><time>2026-05-01T13:45:50Z</time></trkpt><trkpt lat="43.68880034773149" lon="10.825565791966262"><ele>26.0</ele><time>2026-05-01T13:45:51Z</time></trkpt><trkpt lat="43.68871407633052" lon="10.825291284689447"><ele>26.0</ele><time>2026-05-01T13:45:52Z</time></trkpt><trkpt lat="43.68863738302838" lon="10.82500522997953"><ele>26.0</ele><time>2026-05-01T13:45:53Z</time></trkpt><trkpt lat="43.68855334476777" lon="10.824723485394726"><ele>25.666666666666664</ele><time>2026-05-01T13:45:54Z</time></trkpt><trkpt lat="43.688470908357395" lon="10.8244510520541"><ele>25.333333333333336</ele><time>2026-05-01T13:45:55Z</time></trkpt><trkpt lat="43.68840885136574" lon="10.824189988904418"><ele>25.0</ele><time>2026-05-01T13:45:56Z</time></trkpt><trkpt lat="43.688328617391655" lon="10.8239227145632"><ele>25.0</ele><time>2026-05-01T13:45:57Z</time></trkpt><trkpt lat="43.688228871796305" lon="10.823668193039643"><ele>25.0</ele><time>2026-05-01T13:45:58Z</time></trkpt><trkpt lat="43.68814423977412" lon="10.823403028185668"><ele>25.0</ele><time>2026-05-01T13:45:59Z</time></trkpt><trkpt lat="43.68806163727677" lon="10.823149891958437"><ele>26.333333333333336</ele><time>2026-05-01T13:46:00Z</time></trkpt><trkpt lat="43.68799080127259" lon="10.822913084300769"><ele>27.666666666666664</ele><time>2026-05-01T13:46:01Z</time></trkpt><trkpt lat="43.687946431881926" lon="10.822675459820847"><ele>29.0</ele><time>2026-05-01T13:46:02Z</time></trkpt><trkpt lat="43.687889414755176" lon="10.822451857519365"><ele>29.0</ele><time>2026-05-01T13:46:03Z</time></trkpt><trkpt lat="43.68783666209039" lon="10.82221540243768"><ele>29.0</ele><time>2026-05-01T13:46:04Z</time></trkpt><trkpt lat="43.687792421748476" lon="10.82197113232873"><ele>29.0</ele><time>2026-05-01T13:46:05Z</time></trkpt><trkpt lat="43.6877556922537" lon="10.821724422842523"><ele>29.333333333333332</ele><time>2026-05-01T13:46:06Z</time></trkpt><trkpt lat="43.6877063186668" lon="10.821472808565849"><ele>29.666666666666664</ele><time>2026-05-01T13:46:07Z</time></trkpt><trkpt lat="43.68768639548731" lon="10.821230576726979"><ele>30.0</ele><time>2026-05-01T13:46:08Z</time></trkpt><trkpt lat="43.687706608580555" lon="10.820987286546087"><ele>29.666666666666664</ele><time>2026-05-01T13:46:09Z</time></trkpt><trkpt lat="43.68772235479413" lon="10.820752995706496"><ele>29.333333333333332</ele><time>2026-05-01T13:46:10Z</time></trkpt><trkpt lat="43.687739848435726" lon="10.820533370233903"><ele>29.0</ele><time>2026-05-01T13:46:11Z</time></trkpt><trkpt lat="43.68773890581969" lon="10.820322769589998"><ele>28.25</ele><time>2026-05-01T13:46:12Z</time></trkpt><trkpt lat="43.68776565424586" lon="10.820128769581778"><ele>27.5</ele><time>2026-05-01T13:46:13Z</time></trkpt><trkpt lat="43.68776432076321" lon="10.819936161555415"><ele>26.75</ele><time>2026-05-01T13:46:14Z</time></trkpt><trkpt lat="43.68777700873467" lon="10.819754038664986"><ele>26.0</ele><time>2026-05-01T13:46:15Z</time></trkpt><trkpt lat="43.68778631324073" lon="10.81958023379414"><ele>26.0</ele><time>2026-05-01T13:46:16Z</time></trkpt><trkpt lat="43.68779986329331" lon="10.81941233986034"><ele>26.0</ele><time>2026-05-01T13:46:17Z</time></trkpt><trkpt lat="43.687808781835734" lon="10.819252252584283"><ele>26.0</ele><time>2026-05-01T13:46:18Z</time></trkpt><trkpt lat="43.687816311992336" lon="10.819106567754629"><ele>26.0</ele><time>2026-05-01T13:46:19Z</time></trkpt><trkpt lat="43.687831246327825" lon="10.81895667268094"><ele>26.4</ele><time>2026-05-01T13:46:20Z</time></trkpt><trkpt lat="43.68784017699209" lon="10.818813498922944"><ele>26.8</ele><time>2026-05-01T13:46:21Z</time></trkpt><trkpt lat="43.6878579768259" lon="10.818683190950377"><ele>27.199999999999996</ele><time>2026-05-01T13:46:22Z</time></trkpt><trkpt lat="43.68786952708687" lon="10.818548663014745"><ele>27.599999999999998</ele><time>2026-05-01T13:46:23Z</time></trkpt><trkpt lat="43.68788578426499" lon="10.81843970429717"><ele>28.0</ele><time>2026-05-01T13:46:24Z</time></trkpt><trkpt lat="43.687897529614794" lon="10.818327092189273"><ele>28.0</ele><time>2026-05-01T13:46:25Z</time></trkpt><trkpt lat="43.68791104932661" lon="10.818199934037152"><ele>27.999999999999996</ele><time>2026-05-01T13:46:26Z</time></trkpt><trkpt lat="43.68792756142782" lon="10.818061418699761"><ele>27.999999999999996</ele><time>2026-05-01T13:46:27Z</time></trkpt><trkpt lat="43.687942423945834" lon="10.817931589744793"><ele>28.0</ele><time>2026-05-01T13:46:28Z</time></trkpt><trkpt lat="43.68795238800889" lon="10.817813427363395"><ele>28.0</ele><time>2026-05-01T13:46:29Z</time></trkpt><trkpt lat="43.68795912484929" lon="10.817688196369076"><ele>28.0</ele><time>2026-05-01T13:46:30Z</time></trkpt><trkpt lat="43.687968087082304" lon="10.817569871218573"><ele>27.999999999999996</ele><time>2026-05-01T13:46:31Z</time></trkpt><trkpt lat="43.687978357285196" lon="10.817454026437998"><ele>27.999999999999996</ele><time>2026-05-01T13:46:32Z</time></trkpt><trkpt lat="43.687986175581614" lon="10.817322106145227"><ele>28.0</ele><time>2026-05-01T13:46:33Z</time></trkpt><trkpt lat="43.687996847518725" lon="10.817165774971006"><ele>28.0</ele><time>2026-05-01T13:46:34Z</time></trkpt><trkpt lat="43.68802100689911" lon="10.817011413494276"><ele>28.0</ele><time>2026-05-01T13:46:35Z</time></trkpt><trkpt lat="43.68802276572469" lon="10.816881070107216"><ele>27.999999999999996</ele><time>2026-05-01T13:46:36Z</time></trkpt><trkpt lat="43.68801700507423" lon="10.816732665166262"><ele>27.999999999999996</ele><time>2026-05-01T13:46:37Z</time></trkpt><trkpt lat="43.68802047180781" lon="10.816589627843701"><ele>28.0</ele><time>2026-05-01T13:46:38Z</time></trkpt><trkpt lat="43.688021928511475" lon="10.816457424210792"><ele>28.0</ele><time>2026-05-01T13:46:39Z</time></trkpt><trkpt lat="43.688021549756186" lon="10.81631489260841"><ele>28.2</ele><time>2026-05-01T13:46:40Z</time></trkpt><trkpt lat="43.68802382403699" lon="10.816162503167332"><ele>28.4</ele><time>2026-05-01T13:46:41Z</time></trkpt><trkpt lat="43.688023578236574" lon="10.816010871143954"><ele>28.599999999999998</ele><time>2026-05-01T13:46:42Z</time></trkpt><trkpt lat="43.68802903277728" lon="10.815862858518278"><ele>28.799999999999997</ele><time>2026-05-01T13:46:43Z</time></trkpt><trkpt lat="43.68803447030508" lon="10.815708431299829"><ele>29.0</ele><time>2026-05-01T13:46:44Z</time></trkpt><trkpt lat="43.68804064180622" lon="10.815546908111573"><ele>29.25</ele><time>2026-05-01T13:46:45Z</time></trkpt><trkpt lat="43.68804259720196" lon="10.815371608021973"><ele>29.5</ele><time>2026-05-01T13:46:46Z</time></trkpt><trkpt lat="43.688042944795185" lon="10.815193586316484"><ele>29.75</ele><time>2026-05-01T13:46:47Z</time></trkpt><trkpt lat="43.68804382963425" lon="10.81502601877307"><ele>30.0</ele><time>2026-05-01T13:46:48Z</time></trkpt><trkpt lat="43.68804623756895" lon="10.814852218488669"><ele>29.25</ele><time>2026-05-01T13:46:49Z</time></trkpt><trkpt lat="43.68804844940185" lon="10.814671871401833"><ele>28.5</ele><time>2026-05-01T13:46:50Z</time></trkpt><trkpt lat="43.688049663443294" lon="10.814490190572727"><ele>27.75</ele><time>2026-05-01T13:46:51Z</time></trkpt><trkpt lat="43.68805107788093" lon="10.814318368843097"><ele>27.0</ele><time>2026-05-01T13:46:52Z</time></trkpt><trkpt lat="43.688054780622316" lon="10.8141397266983"><ele>26.5</ele><time>2026-05-01T13:46:53Z</time></trkpt><trkpt lat="43.68805631197419" lon="10.813958545384095"><ele>26.0</ele><time>2026-05-01T13:46:54Z</time></trkpt><trkpt lat="43.68805552512704" lon="10.813773388487986"><ele>25.5</ele><time>2026-05-01T13:46:55Z</time></trkpt><trkpt lat="43.68805980420418" lon="10.813592012369448"><ele>25.0</ele><time>2026-05-01T13:46:56Z</time></trkpt><trkpt lat="43.68806498338456" lon="10.813400285724635"><ele>25.0</ele><time>2026-05-01T13:46:57Z</time></trkpt><trkpt lat="43.68806095576385" lon="10.813217935778885"><ele>25.0</ele><time>2026-05-01T13:46:58Z</time></trkpt><trkpt lat="43.6880604701598" lon="10.813029299751761"><ele>25.0</ele><time>2026-05-01T13:46:59Z</time></trkpt><trkpt lat="43.688061146804536" lon="10.812850590467109"><ele>25.0</ele><time>2026-05-01T13:47:00Z</time></trkpt><trkpt lat="43.688063982837285" lon="10.812679854210554"><ele>24.25</ele><time>2026-05-01T13:47:01Z</time></trkpt><trkpt lat="43.688065430176" lon="10.812517096483473"><ele>23.5</ele><time>2026-05-01T13:47:02Z</time></trkpt><trkpt lat="43.68806737021173" lon="10.812339277933688"><ele>22.75</ele><time>2026-05-01T13:47:03Z</time></trkpt><trkpt lat="43.6880659591705" lon="10.812155811116533"><ele>22.0</ele><time>2026-05-01T13:47:04Z</time></trkpt><trkpt lat="43.688067026945546" lon="10.811984246363908"><ele>22.25</ele><time>2026-05-01T13:47:05Z</time></trkpt><trkpt lat="43.688069992400315" lon="10.81180948205816"><ele>22.5</ele><time>2026-05-01T13:47:06Z</time></trkpt><trkpt lat="43.688071685276405" lon="10.811649782166386"><ele>22.75</ele><time>2026-05-01T13:47:07Z</time></trkpt><trkpt lat="43.68807432422156" lon="10.811488653212443"><ele>23.0</ele><time>2026-05-01T13:47:08Z</time></trkpt><trkpt lat="43.688079874848746" lon="10.811319708561728"><ele>23.0</ele><time>2026-05-01T13:47:09Z</time></trkpt><trkpt lat="43.68808241552224" lon="10.81115048475707"><ele>23.0</ele><time>2026-05-01T13:47:10Z</time></trkpt><trkpt lat="43.688084627758656" lon="10.810986341342161"><ele>23.0</ele><time>2026-05-01T13:47:11Z</time></trkpt><trkpt lat="43.688087125834414" lon="10.810822550188092"><ele>23.0</ele><time>2026-05-01T13:47:12Z</time></trkpt><trkpt lat="43.68808789012086" lon="10.810657176903419"><ele>23.75</ele><time>2026-05-01T13:47:13Z</time></trkpt><trkpt lat="43.6880849911341" lon="10.810489600001786"><ele>24.5</ele><time>2026-05-01T13:47:14Z</time></trkpt><trkpt lat="43.68808837209232" lon="10.810320476263659"><ele>25.25</ele><time>2026-05-01T13:47:15Z</time></trkpt><trkpt lat="43.688088006194256" lon="10.810148173574367"><ele>26.0</ele><time>2026-05-01T13:47:16Z</time></trkpt><trkpt lat="43.68809195370341" lon="10.809976098092637"><ele>26.0</ele><time>2026-05-01T13:47:17Z</time></trkpt><trkpt lat="43.68809437020918" lon="10.809802139486603"><ele>26.0</ele><time>2026-05-01T13:47:18Z</time></trkpt><trkpt lat="43.68809974657871" lon="10.809626616614844"><ele>26.0</ele><time>2026-05-01T13:47:19Z</time></trkpt><trkpt lat="43.688101963004726" lon="10.809457978301976"><ele>26.0</ele><time>2026-05-01T13:47:20Z</time></trkpt><trkpt lat="43.68810702165108" lon="10.809291555508914"><ele>26.0</ele><time>2026-05-01T13:47:21Z</time></trkpt><trkpt lat="43.68811060732455" lon="10.809125296769576"><ele>26.0</ele><time>2026-05-01T13:47:22Z</time></trkpt><trkpt lat="43.688110085574735" lon="10.808970404628647"><ele>26.0</ele><time>2026-05-01T13:47:23Z</time></trkpt><trkpt lat="43.68811323745223" lon="10.80881937128659"><ele>26.0</ele><time>2026-05-01T13:47:24Z</time></trkpt><trkpt lat="43.688117911188" lon="10.808665014624676"><ele>26.0</ele><time>2026-05-01T13:47:25Z</time></trkpt><trkpt lat="43.68812002442245" lon="10.808515035616516"><ele>26.0</ele><time>2026-05-01T13:47:26Z</time></trkpt><trkpt lat="43.68812290475356" lon="10.808375076913967"><ele>26.0</ele><time>2026-05-01T13:47:27Z</time></trkpt><trkpt lat="43.688124573502094" lon="10.808242460217166"><ele>26.0</ele><time>2026-05-01T13:47:28Z</time></trkpt><trkpt lat="43.6881273492525" lon="10.808123456561555"><ele>26.0</ele><time>2026-05-01T13:47:29Z</time></trkpt><trkpt lat="43.688130202538346" lon="10.807993449624748"><ele>26.0</ele><time>2026-05-01T13:47:30Z</time></trkpt><trkpt lat="43.688130135602265" lon="10.807847456488544"><ele>26.0</ele><time>2026-05-01T13:47:31Z</time></trkpt><trkpt lat="43.68814335087628" lon="10.807685365114699"><ele>26.0</ele><time>2026-05-01T13:47:32Z</time></trkpt><trkpt lat="43.68814749277807" lon="10.80750503144489"><ele>26.0</ele><time>2026-05-01T13:47:33Z</time></trkpt><trkpt lat="43.688151853970105" lon="10.80731578577344"><ele>25.333333333333332</ele><time>2026-05-01T13:47:34Z</time></trkpt><trkpt lat="43.688140361429156" lon="10.807112660004469"><ele>24.666666666666664</ele><time>2026-05-01T13:47:35Z</time></trkpt><trkpt lat="43.68815325284961" lon="10.806900210593335"><ele>24.0</ele><time>2026-05-01T13:47:36Z</time></trkpt><trkpt lat="43.688161442326695" lon="10.806692751041817"><ele>24.0</ele><time>2026-05-01T13:47:37Z</time></trkpt><trkpt lat="43.68816764183786" lon="10.80649441624316"><ele>24.0</ele><time>2026-05-01T13:47:38Z</time></trkpt><trkpt lat="43.68817253527147" lon="10.806317260949562"><ele>24.0</ele><time>2026-05-01T13:47:39Z</time></trkpt><trkpt lat="43.68817719799255" lon="10.806152428249524"><ele>24.0</ele><time>2026-05-01T13:47:40Z</time></trkpt><trkpt lat="43.68818000119577" lon="10.805994492950006"><ele>24.2</ele><time>2026-05-01T13:47:41Z</time></trkpt><trkpt lat="43.68818440841831" lon="10.805846742379426"><ele>24.4</ele><time>2026-05-01T13:47:42Z</time></trkpt><trkpt lat="43.68818820134731" lon="10.805725950512503"><ele>24.6</ele><time>2026-05-01T13:47:43Z</time></trkpt><trkpt lat="43.68819602861527" lon="10.805557879812891"><ele>24.8</ele><time>2026-05-01T13:47:45Z</time></trkpt><trkpt lat="43.6882020393541" lon="10.805408997542465"><ele>25.0</ele><time>2026-05-01T13:47:47Z</time></trkpt><trkpt lat="43.68822851912612" lon="10.80530141484202"><ele>25.0</ele><time>2026-05-01T13:47:49Z</time></trkpt><trkpt lat="43.68828175977847" lon="10.805193326621254"><ele>25.0</ele><time>2026-05-01T13:47:52Z</time></trkpt><trkpt lat="43.68836467031249" lon="10.80509858737739"><ele>25.0</ele><time>2026-05-01T13:47:54Z</time></trkpt><trkpt lat="43.68849710413277" lon="10.805132466519959"><ele>25.0</ele><time>2026-05-01T13:47:55Z</time></trkpt><trkpt lat="43.688601081661794" lon="10.805156215114119"><ele>25.0</ele><time>2026-05-01T13:47:56Z</time></trkpt><trkpt lat="43.68870909791903" lon="10.80519293604686"><ele>25.25</ele><time>2026-05-01T13:47:57Z</time></trkpt><trkpt lat="43.688823492018294" lon="10.805229155413544"><ele>25.5</ele><time>2026-05-01T13:47:58Z</time></trkpt><trkpt lat="43.688948367173126" lon="10.805268156888829"><ele>25.75</ele><time>2026-05-01T13:47:59Z</time></trkpt><trkpt lat="43.689067079627904" lon="10.805298411331352"><ele>26.0</ele><time>2026-05-01T13:48:00Z</time></trkpt><trkpt lat="43.689196447256975" lon="10.805315813346917"><ele>26.0</ele><time>2026-05-01T13:48:01Z</time></trkpt><trkpt lat="43.68932524225162" lon="10.80529968142055"><ele>26.0</ele><time>2026-05-01T13:48:02Z</time></trkpt><trkpt lat="43.68945272064292" lon="10.805247482910314"><ele>26.0</ele><time>2026-05-01T13:48:03Z</time></trkpt><trkpt lat="43.689577575285526" lon="10.805168269234576"><ele>26.0</ele><time>2026-05-01T13:48:04Z</time></trkpt><trkpt lat="43.68969172747225" lon="10.805060750798692"><ele>25.5</ele><time>2026-05-01T13:48:05Z</time></trkpt><trkpt lat="43.68978760250739" lon="10.804917454673266"><ele>25.0</ele><time>2026-05-01T13:48:06Z</time></trkpt><trkpt lat="43.689856458541726" lon="10.804734647119634"><ele>24.5</ele><time>2026-05-01T13:48:07Z</time></trkpt><trkpt lat="43.6898997596355" lon="10.804522711800123"><ele>24.0</ele><time>2026-05-01T13:48:08Z</time></trkpt><trkpt lat="43.68992882689629" lon="10.804308237043392"><ele>23.666666666666668</ele><time>2026-05-01T13:48:09Z</time></trkpt><trkpt lat="43.689944745132664" lon="10.804083353234141"><ele>23.333333333333336</ele><time>2026-05-01T13:48:10Z</time></trkpt><trkpt lat="43.689952303245335" lon="10.80384578293161"><ele>23.0</ele><time>2026-05-01T13:48:11Z</time></trkpt><trkpt lat="43.68996046716146" lon="10.803603782658296"><ele>22.666666666666668</ele><time>2026-05-01T13:48:12Z</time></trkpt><trkpt lat="43.68997474470703" lon="10.803357416074553"><ele>22.333333333333332</ele><time>2026-05-01T13:48:13Z</time></trkpt><trkpt lat="43.68998853229844" lon="10.803127944734408"><ele>22.0</ele><time>2026-05-01T13:48:14Z</time></trkpt><trkpt lat="43.69001177883566" lon="10.80290260582573"><ele>22.0</ele><time>2026-05-01T13:48:15Z</time></trkpt><trkpt lat="43.690057443436196" lon="10.802674642802458"><ele>22.0</ele><time>2026-05-01T13:48:16Z</time></trkpt><trkpt lat="43.6901095314301" lon="10.80244052886206"><ele>22.0</ele><time>2026-05-01T13:48:17Z</time></trkpt><trkpt lat="43.6901724178298" lon="10.80220733269085"><ele>22.0</ele><time>2026-05-01T13:48:18Z</time></trkpt><trkpt lat="43.69024409181396" lon="10.801973207551434"><ele>22.0</ele><time>2026-05-01T13:48:19Z</time></trkpt><trkpt lat="43.690317059003" lon="10.801732718801963"><ele>22.0</ele><time>2026-05-01T13:48:20Z</time></trkpt><trkpt lat="43.69037952927324" lon="10.801498284594956"><ele>22.0</ele><time>2026-05-01T13:48:21Z</time></trkpt><trkpt lat="43.69043166553575" lon="10.80125383220747"><ele>22.0</ele><time>2026-05-01T13:48:22Z</time></trkpt><trkpt lat="43.690464568477644" lon="10.800997384326712"><ele>22.0</ele><time>2026-05-01T13:48:23Z</time></trkpt><trkpt lat="43.69048267775891" lon="10.800734895219405"><ele>22.0</ele><time>2026-05-01T13:48:24Z</time></trkpt><trkpt lat="43.69047979060855" lon="10.800471514967215"><ele>22.0</ele><time>2026-05-01T13:48:25Z</time></trkpt><trkpt lat="43.69045896362431" lon="10.800205251702195"><ele>22.0</ele><time>2026-05-01T13:48:26Z</time></trkpt><trkpt lat="43.69043192729288" lon="10.799933533525406"><ele>22.0</ele><time>2026-05-01T13:48:27Z</time></trkpt><trkpt lat="43.690404812838636" lon="10.79967088736385"><ele>22.0</ele><time>2026-05-01T13:48:28Z</time></trkpt><trkpt lat="43.69037516539007" lon="10.799404592063093"><ele>22.0</ele><time>2026-05-01T13:48:29Z</time></trkpt><trkpt lat="43.69034457980179" lon="10.79913146549983"><ele>22.0</ele><time>2026-05-01T13:48:30Z</time></trkpt><trkpt lat="43.690314310805846" lon="10.798853121270534"><ele>22.0</ele><time>2026-05-01T13:48:31Z</time></trkpt><trkpt lat="43.69028791975822" lon="10.798568311327546"><ele>22.0</ele><time>2026-05-01T13:48:32Z</time></trkpt><trkpt lat="43.690261578665094" lon="10.798282807988906"><ele>22.0</ele><time>2026-05-01T13:48:33Z</time></trkpt><trkpt lat="43.69023442685297" lon="10.797997967489128"><ele>22.0</ele><time>2026-05-01T13:48:34Z</time></trkpt><trkpt lat="43.690208857783574" lon="10.79771921265693"><ele>22.0</ele><time>2026-05-01T13:48:35Z</time></trkpt><trkpt lat="43.69018485056027" lon="10.797432288418943"><ele>22.0</ele><time>2026-05-01T13:48:36Z</time></trkpt><trkpt lat="43.69016024085318" lon="10.79715289400765"><ele>22.0</ele><time>2026-05-01T13:48:37Z</time></trkpt><trkpt lat="43.69017285066905" lon="10.796871824126521"><ele>22.0</ele><time>2026-05-01T13:48:38Z</time></trkpt><trkpt lat="43.690162943394384" lon="10.796580055583775"><ele>22.0</ele><time>2026-05-01T13:48:39Z</time></trkpt><trkpt lat="43.690172342328445" lon="10.796296631254792"><ele>22.0</ele><time>2026-05-01T13:48:40Z</time></trkpt><trkpt lat="43.690186542383195" lon="10.796014986695523"><ele>22.0</ele><time>2026-05-01T13:48:41Z</time></trkpt><trkpt lat="43.690206468527485" lon="10.795731498520432"><ele>22.0</ele><time>2026-05-01T13:48:42Z</time></trkpt><trkpt lat="43.69023319212879" lon="10.795446927327305"><ele>22.0</ele><time>2026-05-01T13:48:43Z</time></trkpt><trkpt lat="43.690262663133545" lon="10.795163348505698"><ele>22.0</ele><time>2026-05-01T13:48:44Z</time></trkpt><trkpt lat="43.690295805408454" lon="10.794879436144358"><ele>22.0</ele><time>2026-05-01T13:48:45Z</time></trkpt><trkpt lat="43.69033610936633" lon="10.794595022694557"><ele>22.0</ele><time>2026-05-01T13:48:46Z</time></trkpt><trkpt lat="43.690377316989135" lon="10.794312897209139"><ele>22.0</ele><time>2026-05-01T13:48:47Z</time></trkpt><trkpt lat="43.69041929545935" lon="10.794027291403577"><ele>22.0</ele><time>2026-05-01T13:48:48Z</time></trkpt><trkpt lat="43.69046194451373" lon="10.793741299969742"><ele>22.0</ele><time>2026-05-01T13:48:49Z</time></trkpt><trkpt lat="43.690505903536234" lon="10.793452229674763"><ele>22.0</ele><time>2026-05-01T13:48:50Z</time></trkpt><trkpt lat="43.69054989280323" lon="10.793170434641116"><ele>22.0</ele><time>2026-05-01T13:48:51Z</time></trkpt><trkpt lat="43.690590944082416" lon="10.792884301785604"><ele>22.0</ele><time>2026-05-01T13:48:52Z</time></trkpt><trkpt lat="43.690631411432534" lon="10.792605989308383"><ele>22.0</ele><time>2026-05-01T13:48:53Z</time></trkpt><trkpt lat="43.690670208284665" lon="10.792341993475457"><ele>21.333333333333332</ele><time>2026-05-01T13:48:54Z</time></trkpt><trkpt lat="43.69070622009592" lon="10.79209194515129"><ele>20.666666666666668</ele><time>2026-05-01T13:48:55Z</time></trkpt><trkpt lat="43.690741734827775" lon="10.791855290535102"><ele>20.0</ele><time>2026-05-01T13:48:56Z</time></trkpt><trkpt lat="43.69077695234707" lon="10.79163771972575"><ele>20.0</ele><time>2026-05-01T13:48:57Z</time></trkpt><trkpt lat="43.69081395250149" lon="10.791446823062458"><ele>20.0</ele><time>2026-05-01T13:48:58Z</time></trkpt><trkpt lat="43.690852009942624" lon="10.791288536144247"><ele>20.0</ele><time>2026-05-01T13:48:59Z</time></trkpt><trkpt lat="43.69090863144599" lon="10.7911503474428"><ele>20.0</ele><time>2026-05-01T13:49:00Z</time></trkpt><trkpt lat="43.69098239522293" lon="10.7910472150494"><ele>20.0</ele><time>2026-05-01T13:49:01Z</time></trkpt><trkpt lat="43.69106371208952" lon="10.790964984950788"><ele>20.0</ele><time>2026-05-01T13:49:02Z</time></trkpt><trkpt lat="43.6911528004623" lon="10.790882734237979"><ele>20.0</ele><time>2026-05-01T13:49:03Z</time></trkpt><trkpt lat="43.69122204522638" lon="10.79080168070448"><ele>20.0</ele><time>2026-05-01T13:49:04Z</time></trkpt><trkpt lat="43.69127282130362" lon="10.790702634993934"><ele>20.0</ele><time>2026-05-01T13:49:05Z</time></trkpt><trkpt lat="43.691309408289584" lon="10.79058432469642"><ele>20.0</ele><time>2026-05-01T13:49:06Z</time></trkpt><trkpt lat="43.691324162950956" lon="10.790452409707028"><ele>20.0</ele><time>2026-05-01T13:49:07Z</time></trkpt><trkpt lat="43.69131092742902" lon="10.790319005931202"><ele>20.0</ele><time>2026-05-01T13:49:08Z</time></trkpt><trkpt lat="43.69127854463582" lon="10.79019082562496"><ele>20.0</ele><time>2026-05-01T13:49:09Z</time></trkpt><trkpt lat="43.69122720580591" lon="10.790061492501035"><ele>20.0</ele><time>2026-05-01T13:49:10Z</time></trkpt><trkpt lat="43.69117986921238" lon="10.789918780462642"><ele>20.0</ele><time>2026-05-01T13:49:11Z</time></trkpt><trkpt lat="43.69113423985161" lon="10.789759666977325"><ele>20.0</ele><time>2026-05-01T13:49:12Z</time></trkpt><trkpt lat="43.69113790644853" lon="10.789555087044956"><ele>20.0</ele><time>2026-05-01T13:49:13Z</time></trkpt><trkpt lat="43.691136648683525" lon="10.789345334805732"><ele>20.0</ele><time>2026-05-01T13:49:14Z</time></trkpt><trkpt lat="43.691151123609814" lon="10.78913990192693"><ele>20.0</ele><time>2026-05-01T13:49:15Z</time></trkpt><trkpt lat="43.69117112609458" lon="10.78893024595342"><ele>20.0</ele><time>2026-05-01T13:49:16Z</time></trkpt><trkpt lat="43.69118131645593" lon="10.7887123664876"><ele>20.0</ele><time>2026-05-01T13:49:17Z</time></trkpt><trkpt lat="43.69117383379387" lon="10.788491916299938"><ele>20.333333333333336</ele><time>2026-05-01T13:49:18Z</time></trkpt><trkpt lat="43.69114657265663" lon="10.788268393728885"><ele>20.666666666666668</ele><time>2026-05-01T13:49:19Z</time></trkpt><trkpt lat="43.69110110689853" lon="10.788045020797147"><ele>21.0</ele><time>2026-05-01T13:49:20Z</time></trkpt><trkpt lat="43.691034768600424" lon="10.787826567941192"><ele>21.333333333333332</ele><time>2026-05-01T13:49:21Z</time></trkpt><trkpt lat="43.69094342125223" lon="10.787625654834427"><ele>21.666666666666664</ele><time>2026-05-01T13:49:22Z</time></trkpt><trkpt lat="43.69083836740209" lon="10.787429407783458"><ele>22.0</ele><time>2026-05-01T13:49:23Z</time></trkpt><trkpt lat="43.69072345235053" lon="10.787242351845453"><ele>22.0</ele><time>2026-05-01T13:49:24Z</time></trkpt><trkpt lat="43.69061140067049" lon="10.787055879111499"><ele>22.0</ele><time>2026-05-01T13:49:25Z</time></trkpt><trkpt lat="43.6905060580584" lon="10.786876019107158"><ele>22.0</ele><time>2026-05-01T13:49:26Z</time></trkpt><trkpt lat="43.69040109957245" lon="10.786695037534358"><ele>22.25</ele><time>2026-05-01T13:49:27Z</time></trkpt><trkpt lat="43.69030799335069" lon="10.786530506335422"><ele>22.5</ele><time>2026-05-01T13:49:28Z</time></trkpt><trkpt lat="43.69022473291237" lon="10.786374151431653"><ele>22.75</ele><time>2026-05-01T13:49:29Z</time></trkpt><trkpt lat="43.69015979556881" lon="10.786230374585065"><ele>23.0</ele><time>2026-05-01T13:49:30Z</time></trkpt><trkpt lat="43.69011205515942" lon="10.786099795115437"><ele>22.799999999999997</ele><time>2026-05-01T13:49:31Z</time></trkpt><trkpt lat="43.690075944729266" lon="10.785974819237259"><ele>22.6</ele><time>2026-05-01T13:49:32Z</time></trkpt><trkpt lat="43.69005666458459" lon="10.785853311990953"><ele>22.4</ele><time>2026-05-01T13:49:33Z</time></trkpt><trkpt lat="43.69002900104473" lon="10.785746863649935"><ele>22.200000000000003</ele><time>2026-05-01T13:49:34Z</time></trkpt><trkpt lat="43.69008082570802" lon="10.78558758045092"><ele>22.0</ele><time>2026-05-01T13:49:35Z</time></trkpt><trkpt lat="43.69008108466094" lon="10.785457260973233"><ele>22.0</ele><time>2026-05-01T13:49:36Z</time></trkpt><trkpt lat="43.69004659727575" lon="10.785323701399355"><ele>22.0</ele><time>2026-05-01T13:49:37Z</time></trkpt><trkpt lat="43.68998148088458" lon="10.78520342353269"><ele>22.0</ele><time>2026-05-01T13:49:38Z</time></trkpt><trkpt lat="43.68990344775643" lon="10.785099991840967"><ele>22.0</ele><time>2026-05-01T13:49:39Z</time></trkpt><trkpt lat="43.68983573820152" lon="10.784980686482845"><ele>22.0</ele><time>2026-05-01T13:49:40Z</time></trkpt><trkpt lat="43.68978527096817" lon="10.784839815170827"><ele>22.0</ele><time>2026-05-01T13:49:41Z</time></trkpt><trkpt lat="43.68974751833371" lon="10.784690361991812"><ele>22.0</ele><time>2026-05-01T13:49:42Z</time></trkpt><trkpt lat="43.68973185252006" lon="10.784524503672944"><ele>22.0</ele><time>2026-05-01T13:49:43Z</time></trkpt><trkpt lat="43.689762495873175" lon="10.784348649635797"><ele>22.0</ele><time>2026-05-01T13:49:44Z</time></trkpt><trkpt lat="43.6897878896623" lon="10.784165251806604"><ele>22.0</ele><time>2026-05-01T13:49:45Z</time></trkpt><trkpt lat="43.689803324376186" lon="10.78396808713185"><ele>22.0</ele><time>2026-05-01T13:49:46Z</time></trkpt><trkpt lat="43.68983805692517" lon="10.783761155602503"><ele>22.0</ele><time>2026-05-01T13:49:47Z</time></trkpt><trkpt lat="43.68987340639068" lon="10.783540076138225"><ele>22.0</ele><time>2026-05-01T13:49:48Z</time></trkpt><trkpt lat="43.689909689315705" lon="10.783310013040785"><ele>22.0</ele><time>2026-05-01T13:49:49Z</time></trkpt><trkpt lat="43.6899455491171" lon="10.783072773678937"><ele>22.0</ele><time>2026-05-01T13:49:50Z</time></trkpt><trkpt lat="43.68998084164665" lon="10.782837428535094"><ele>22.0</ele><time>2026-05-01T13:49:51Z</time></trkpt><trkpt lat="43.69001571960712" lon="10.782596549221104"><ele>22.0</ele><time>2026-05-01T13:49:52Z</time></trkpt><trkpt lat="43.690048985550305" lon="10.782349800603138"><ele>22.0</ele><time>2026-05-01T13:49:53Z</time></trkpt><trkpt lat="43.690085369671515" lon="10.782098666323382"><ele>22.0</ele><time>2026-05-01T13:49:54Z</time></trkpt><trkpt lat="43.6901148569636" lon="10.781831647233266"><ele>22.0</ele><time>2026-05-01T13:49:55Z</time></trkpt><trkpt lat="43.69014747964077" lon="10.781585643725478"><ele>22.0</ele><time>2026-05-01T13:49:56Z</time></trkpt><trkpt lat="43.69019903144255" lon="10.781323972437802"><ele>22.0</ele><time>2026-05-01T13:49:57Z</time></trkpt><trkpt lat="43.69023725230018" lon="10.78106153000406"><ele>22.0</ele><time>2026-05-01T13:49:58Z</time></trkpt><trkpt lat="43.69027440873463" lon="10.780800909923057"><ele>22.0</ele><time>2026-05-01T13:49:59Z</time></trkpt><trkpt lat="43.69031155055141" lon="10.780536761626784"><ele>21.333333333333332</ele><time>2026-05-01T13:50:00Z</time></trkpt><trkpt lat="43.69034658924887" lon="10.780269144982254"><ele>20.666666666666668</ele><time>2026-05-01T13:50:01Z</time></trkpt><trkpt lat="43.69037861947896" lon="10.779993910191676"><ele>20.0</ele><time>2026-05-01T13:50:02Z</time></trkpt><trkpt lat="43.69041062194286" lon="10.779716918042075"><ele>20.0</ele><time>2026-05-01T13:50:03Z</time></trkpt><trkpt lat="43.6904438587003" lon="10.779438121861322"><ele>20.0</ele><time>2026-05-01T13:50:04Z</time></trkpt><trkpt lat="43.6904796152262" lon="10.77915522296659"><ele>20.0</ele><time>2026-05-01T13:50:05Z</time></trkpt><trkpt lat="43.690520326635614" lon="10.778873909482726"><ele>20.0</ele><time>2026-05-01T13:50:06Z</time></trkpt><trkpt lat="43.69056180881611" lon="10.778586899476482"><ele>20.0</ele><time>2026-05-01T13:50:07Z</time></trkpt><trkpt lat="43.690603943339916" lon="10.778301311032793"><ele>20.0</ele><time>2026-05-01T13:50:08Z</time></trkpt><trkpt lat="43.69064541734818" lon="10.778016155068748"><ele>20.0</ele><time>2026-05-01T13:50:09Z</time></trkpt><trkpt lat="43.69068668022997" lon="10.777725762831897"><ele>20.0</ele><time>2026-05-01T13:50:10Z</time></trkpt><trkpt lat="43.69072471286106" lon="10.777430340274433"><ele>20.0</ele><time>2026-05-01T13:50:11Z</time></trkpt><trkpt lat="43.69076469393746" lon="10.777133694348684"><ele>19.666666666666668</ele><time>2026-05-01T13:50:12Z</time></trkpt><trkpt lat="43.690806580455536" lon="10.776838392744393"><ele>19.333333333333332</ele><time>2026-05-01T13:50:13Z</time></trkpt><trkpt lat="43.69084779166134" lon="10.77654262094965"><ele>19.0</ele><time>2026-05-01T13:50:14Z</time></trkpt><trkpt lat="43.690886414521685" lon="10.776247398682944"><ele>18.666666666666664</ele><time>2026-05-01T13:50:15Z</time></trkpt><trkpt lat="43.690925056674" lon="10.77595070010716"><ele>18.333333333333332</ele><time>2026-05-01T13:50:16Z</time></trkpt><trkpt lat="43.690965739983014" lon="10.775654423158842"><ele>18.0</ele><time>2026-05-01T13:50:17Z</time></trkpt><trkpt lat="43.691011123598166" lon="10.775357870452147"><ele>18.333333333333332</ele><time>2026-05-01T13:50:18Z</time></trkpt><trkpt lat="43.69105671125677" lon="10.775061940905248"><ele>18.666666666666664</ele><time>2026-05-01T13:50:19Z</time></trkpt><trkpt lat="43.69109871213794" lon="10.774765673342362"><ele>19.0</ele><time>2026-05-01T13:50:20Z</time></trkpt><trkpt lat="43.691139290063646" lon="10.77446669471473"><ele>17.666666666666664</ele><time>2026-05-01T13:50:21Z</time></trkpt><trkpt lat="43.69117719418534" lon="10.774167616055372"><ele>16.333333333333332</ele><time>2026-05-01T13:50:22Z</time></trkpt><trkpt lat="43.69121762911243" lon="10.77387107709947"><ele>15.0</ele><time>2026-05-01T13:50:23Z</time></trkpt><trkpt lat="43.69125913771791" lon="10.773570672504245"><ele>15.333333333333332</ele><time>2026-05-01T13:50:24Z</time></trkpt><trkpt lat="43.69130172963493" lon="10.773273756248278"><ele>15.666666666666666</ele><time>2026-05-01T13:50:25Z</time></trkpt><trkpt lat="43.69134459407741" lon="10.772973714768801"><ele>16.0</ele><time>2026-05-01T13:50:26Z</time></trkpt><trkpt lat="43.69138460746291" lon="10.772677145325568"><ele>17.0</ele><time>2026-05-01T13:50:27Z</time></trkpt><trkpt lat="43.69142499999398" lon="10.772382469544887"><ele>18.0</ele><time>2026-05-01T13:50:28Z</time></trkpt><trkpt lat="43.691463637354495" lon="10.772088855689693"><ele>19.0</ele><time>2026-05-01T13:50:29Z</time></trkpt><trkpt lat="43.69150474674485" lon="10.771792178677392"><ele>19.333333333333332</ele><time>2026-05-01T13:50:30Z</time></trkpt><trkpt lat="43.69154629300674" lon="10.771499776989637"><ele>19.666666666666668</ele><time>2026-05-01T13:50:31Z</time></trkpt><trkpt lat="43.691584482029775" lon="10.771219658542767"><ele>20.0</ele><time>2026-05-01T13:50:32Z</time></trkpt><trkpt lat="43.69162325414853" lon="10.770948479992306"><ele>20.0</ele><time>2026-05-01T13:50:33Z</time></trkpt><trkpt lat="43.69166323491337" lon="10.770676074704658"><ele>20.0</ele><time>2026-05-01T13:50:34Z</time></trkpt><trkpt lat="43.691701942399895" lon="10.770397261603865"><ele>20.0</ele><time>2026-05-01T13:50:35Z</time></trkpt><trkpt lat="43.6917438717077" lon="10.770130823411247"><ele>20.0</ele><time>2026-05-01T13:50:36Z</time></trkpt><trkpt lat="43.69178253642246" lon="10.769875783401432"><ele>20.0</ele><time>2026-05-01T13:50:37Z</time></trkpt><trkpt lat="43.69181951843865" lon="10.76962248710274"><ele>20.0</ele><time>2026-05-01T13:50:38Z</time></trkpt><trkpt lat="43.69185420518566" lon="10.76936349414447"><ele>20.333333333333336</ele><time>2026-05-01T13:50:39Z</time></trkpt><trkpt lat="43.691887685241795" lon="10.769120206088358"><ele>20.666666666666668</ele><time>2026-05-01T13:50:40Z</time></trkpt><trkpt lat="43.69192246469303" lon="10.768895154925287"><ele>21.0</ele><time>2026-05-01T13:50:41Z</time></trkpt><trkpt lat="43.69195595544682" lon="10.768684430682748"><ele>19.75</ele><time>2026-05-01T13:50:42Z</time></trkpt><trkpt lat="43.691983326414835" lon="10.768473872725497"><ele>18.5</ele><time>2026-05-01T13:50:43Z</time></trkpt><trkpt lat="43.69201040401167" lon="10.76827259967409"><ele>17.25</ele><time>2026-05-01T13:50:44Z</time></trkpt><trkpt lat="43.69203537631696" lon="10.76807926495823"><ele>16.0</ele><time>2026-05-01T13:50:45Z</time></trkpt><trkpt lat="43.69205723505457" lon="10.767892782190502"><ele>16.0</ele><time>2026-05-01T13:50:46Z</time></trkpt><trkpt lat="43.692080336364235" lon="10.767716786227247"><ele>16.0</ele><time>2026-05-01T13:50:47Z</time></trkpt><trkpt lat="43.692104595596774" lon="10.767541254751714"><ele>16.0</ele><time>2026-05-01T13:50:48Z</time></trkpt><trkpt lat="43.69212630158876" lon="10.767373351456097"><ele>16.0</ele><time>2026-05-01T13:50:49Z</time></trkpt><trkpt lat="43.69214896714526" lon="10.767214142356288"><ele>16.400000000000002</ele><time>2026-05-01T13:50:50Z</time></trkpt><trkpt lat="43.69216885013957" lon="10.767061835588796"><ele>16.8</ele><time>2026-05-01T13:50:51Z</time></trkpt><trkpt lat="43.692185628675134" lon="10.766913072275761"><ele>17.200000000000003</ele><time>2026-05-01T13:50:52Z</time></trkpt><trkpt lat="43.692205599182685" lon="10.766775245282895"><ele>17.6</ele><time>2026-05-01T13:50:53Z</time></trkpt><trkpt lat="43.692227285065854" lon="10.766640230173584"><ele>18.0</ele><time>2026-05-01T13:50:54Z</time></trkpt><trkpt lat="43.69224624748887" lon="10.766507785912532"><ele>18.166666666666668</ele><time>2026-05-01T13:50:55Z</time></trkpt><trkpt lat="43.69226531393299" lon="10.76639086932128"><ele>18.333333333333332</ele><time>2026-05-01T13:50:56Z</time></trkpt><trkpt lat="43.692281978352035" lon="10.766293717075495"><ele>18.5</ele><time>2026-05-01T13:50:57Z</time></trkpt><trkpt lat="43.69229741326539" lon="10.766196569924505"><ele>18.666666666666664</ele><time>2026-05-01T13:50:58Z</time></trkpt><trkpt lat="43.69231184219895" lon="10.766088451761265"><ele>18.833333333333332</ele><time>2026-05-01T13:50:59Z</time></trkpt><trkpt lat="43.692328475830784" lon="10.765973277110048"><ele>19.0</ele><time>2026-05-01T13:51:00Z</time></trkpt><trkpt lat="43.6923516270946" lon="10.765850030855868"><ele>19.333333333333332</ele><time>2026-05-01T13:51:01Z</time></trkpt><trkpt lat="43.692377815343924" lon="10.765712038185914"><ele>19.666666666666664</ele><time>2026-05-01T13:51:02Z</time></trkpt><trkpt lat="43.692398837579816" lon="10.765590940793249"><ele>20.0</ele><time>2026-05-01T13:51:03Z</time></trkpt><trkpt lat="43.692416836152034" lon="10.765488236197406"><ele>20.333333333333332</ele><time>2026-05-01T13:51:04Z</time></trkpt><trkpt lat="43.69246692104572" lon="10.765372182089433"><ele>20.666666666666668</ele><time>2026-05-01T13:51:06Z</time></trkpt><trkpt lat="43.692394666226676" lon="10.765354142276152"><ele>21.0</ele><time>2026-05-01T13:51:12Z</time></trkpt><trkpt lat="43.69236769066731" lon="10.76550291810749"><ele>21.0</ele><time>2026-05-01T13:51:14Z</time></trkpt><trkpt lat="43.692343238801485" lon="10.765696168618296"><ele>21.0</ele><time>2026-05-01T13:51:15Z</time></trkpt><trkpt lat="43.69233007337031" lon="10.76582155955564"><ele>21.0</ele><time>2026-05-01T13:51:16Z</time></trkpt><trkpt lat="43.692311398134365" lon="10.765937650220012"><ele>21.0</ele><time>2026-05-01T13:51:17Z</time></trkpt><trkpt lat="43.692298376095984" lon="10.766046505139697"><ele>21.0</ele><time>2026-05-01T13:51:18Z</time></trkpt><trkpt lat="43.692283355229044" lon="10.766135968903384"><ele>20.6</ele><time>2026-05-01T13:51:19Z</time></trkpt><trkpt lat="43.69228844203353" lon="10.766273897176193"><ele>20.200000000000003</ele><time>2026-05-01T13:51:21Z</time></trkpt><trkpt lat="43.692400593193604" lon="10.766332713989014"><ele>19.799999999999997</ele><time>2026-05-01T13:51:23Z</time></trkpt><trkpt lat="43.6924728792939" lon="10.766339829685794"><ele>19.4</ele><time>2026-05-01T13:51:24Z</time></trkpt><trkpt lat="43.69255656919883" lon="10.766357148285602"><ele>19.0</ele><time>2026-05-01T13:51:25Z</time></trkpt><trkpt lat="43.69264509591919" lon="10.766371378474455"><ele>19.0</ele><time>2026-05-01T13:51:26Z</time></trkpt><trkpt lat="43.692729798026456" lon="10.766351246442165"><ele>19.0</ele><time>2026-05-01T13:51:27Z</time></trkpt><trkpt lat="43.692823457882334" lon="10.766284042945879"><ele>19.0</ele><time>2026-05-01T13:51:28Z</time></trkpt><trkpt lat="43.692913031622126" lon="10.766189686705076"><ele>19.0</ele><time>2026-05-01T13:51:29Z</time></trkpt><trkpt lat="43.69299066917354" lon="10.766095576869336"><ele>19.0</ele><time>2026-05-01T13:51:30Z</time></trkpt><trkpt lat="43.69306785392118" lon="10.766006199546"><ele>18.8</ele><time>2026-05-01T13:51:31Z</time></trkpt><trkpt lat="43.693147388768345" lon="10.76592548264228"><ele>18.599999999999998</ele><time>2026-05-01T13:51:32Z</time></trkpt><trkpt lat="43.69323983485255" lon="10.765842276860157"><ele>18.4</ele><time>2026-05-01T13:51:33Z</time></trkpt><trkpt lat="43.693322413989" lon="10.765763987186672"><ele>18.2</ele><time>2026-05-01T13:51:34Z</time></trkpt><trkpt lat="43.69338100081915" lon="10.765713794865633"><ele>18.0</ele><time>2026-05-01T13:51:35Z</time></trkpt><trkpt lat="43.693456184783386" lon="10.765658241920184"><ele>18.0</ele><time>2026-05-01T13:51:37Z</time></trkpt><trkpt lat="43.693510216894424" lon="10.765578130228421"><ele>18.0</ele><time>2026-05-01T13:51:40Z</time></trkpt><trkpt lat="43.69349620664883" lon="10.765486671153287"><ele>18.0</ele><time>2026-05-01T13:51:42Z</time></trkpt><trkpt lat="43.69344378795314" lon="10.765435757623791"><ele>18.0</ele><time>2026-05-01T13:51:43Z</time></trkpt><trkpt lat="43.693372381306226" lon="10.765380721529233"><ele>18.0</ele><time>2026-05-01T13:51:44Z</time></trkpt><trkpt lat="43.693290232294075" lon="10.765308808411845"><ele>18.0</ele><time>2026-05-01T13:51:45Z</time></trkpt><trkpt lat="43.69320309436841" lon="10.765231290089616"><ele>18.0</ele><time>2026-05-01T13:51:46Z</time></trkpt><trkpt lat="43.69312754937505" lon="10.765134446387249"><ele>18.0</ele><time>2026-05-01T13:51:47Z</time></trkpt><trkpt lat="43.69303733032947" lon="10.76504386158117"><ele>18.0</ele><time>2026-05-01T13:51:48Z</time></trkpt><trkpt lat="43.69294495893271" lon="10.76494779839712"><ele>18.0</ele><time>2026-05-01T13:51:49Z</time></trkpt><trkpt lat="43.692864043320306" lon="10.764863648690108"><ele>18.0</ele><time>2026-05-01T13:51:50Z</time></trkpt><trkpt lat="43.69277999337421" lon="10.764779861420077"><ele>18.0</ele><time>2026-05-01T13:51:51Z</time></trkpt><trkpt lat="43.69269051896009" lon="10.764724165212776"><ele>18.0</ele><time>2026-05-01T13:51:52Z</time></trkpt><trkpt lat="43.69260837205573" lon="10.764636337442404"><ele>18.0</ele><time>2026-05-01T13:51:53Z</time></trkpt><trkpt lat="43.69252848090556" lon="10.764521568079086"><ele>18.0</ele><time>2026-05-01T13:51:54Z</time></trkpt><trkpt lat="43.692459086758234" lon="10.764376919666702"><ele>18.0</ele><time>2026-05-01T13:51:55Z</time></trkpt><trkpt lat="43.69239040018238" lon="10.764223361270835"><ele>18.0</ele><time>2026-05-01T13:51:56Z</time></trkpt><trkpt lat="43.69231246102369" lon="10.764062702517785"><ele>18.0</ele><time>2026-05-01T13:51:57Z</time></trkpt><trkpt lat="43.692236760713" lon="10.763898551548998"><ele>18.0</ele><time>2026-05-01T13:51:58Z</time></trkpt><trkpt lat="43.69216415667478" lon="10.763730380144038"><ele>18.0</ele><time>2026-05-01T13:51:59Z</time></trkpt><trkpt lat="43.692090122022236" lon="10.763560760540933"><ele>16.5</ele><time>2026-05-01T13:52:00Z</time></trkpt><trkpt lat="43.69201302234606" lon="10.763384822820498"><ele>15.0</ele><time>2026-05-01T13:52:01Z</time></trkpt><trkpt lat="43.69193828351574" lon="10.763203752090938"><ele>13.5</ele><time>2026-05-01T13:52:02Z</time></trkpt><trkpt lat="43.691859460836454" lon="10.763030131097196"><ele>12.0</ele><time>2026-05-01T13:52:03Z</time></trkpt><trkpt lat="43.69178718568235" lon="10.76286479149412"><ele>14.25</ele><time>2026-05-01T13:52:04Z</time></trkpt><trkpt lat="43.69172047357531" lon="10.762716695064347"><ele>16.5</ele><time>2026-05-01T13:52:04.999Z</time></trkpt><trkpt lat="43.69166009752367" lon="10.762574614507225"><ele>18.75</ele><time>2026-05-01T13:52:05.999Z</time></trkpt><trkpt lat="43.69161104759791" lon="10.762440699623317"><ele>21.0</ele><time>2026-05-01T13:52:06.999Z</time></trkpt><trkpt lat="43.69155941684532" lon="10.762297503198049"><ele>21.0</ele><time>2026-05-01T13:52:07.999Z</time></trkpt><trkpt lat="43.69152131068692" lon="10.762152871147356"><ele>21.0</ele><time>2026-05-01T13:52:08.999Z</time></trkpt><trkpt lat="43.691484841996406" lon="10.762011010338346"><ele>21.0</ele><time>2026-05-01T13:52:09.999Z</time></trkpt><trkpt lat="43.69144676166118" lon="10.761872355105696"><ele>21.0</ele><time>2026-05-01T13:52:10.999Z</time></trkpt><trkpt lat="43.691403359081676" lon="10.761759707538813"><ele>21.0</ele><time>2026-05-01T13:52:11.999Z</time></trkpt><trkpt lat="43.69135307286809" lon="10.761678627886436"><ele>20.5</ele><time>2026-05-01T13:52:12.999Z</time></trkpt><trkpt lat="43.69128517688824" lon="10.761623623406667"><ele>20.0</ele><time>2026-05-01T13:52:13.999Z</time></trkpt><trkpt lat="43.691220246615764" lon="10.761548129842513"><ele>19.5</ele><time>2026-05-01T13:52:14.999Z</time></trkpt><trkpt lat="43.69114001564002" lon="10.761495442567579"><ele>19.0</ele><time>2026-05-01T13:52:16Z</time></trkpt><trkpt lat="43.69106407251912" lon="10.761443108932108"><ele>18.5</ele><time>2026-05-01T13:52:17Z</time></trkpt><trkpt lat="43.69100621605793" lon="10.761397482188336"><ele>18.0</ele><time>2026-05-01T13:52:18Z</time></trkpt><trkpt lat="43.69095776079195" lon="10.761260645006606"><ele>17.6</ele><time>2026-05-01T13:52:20Z</time></trkpt><trkpt lat="43.69093935933826" lon="10.761176757843634"><ele>17.200000000000003</ele><time>2026-05-01T13:52:21Z</time></trkpt><trkpt lat="43.69090440520596" lon="10.761013400923746"><ele>16.8</ele><time>2026-05-01T13:52:23Z</time></trkpt><trkpt lat="43.69098898870084" lon="10.760872666648307"><ele>16.400000000000002</ele><time>2026-05-01T13:52:25Z</time></trkpt><trkpt lat="43.691068350634225" lon="10.760843671088974"><ele>16.0</ele><time>2026-05-01T13:52:26Z</time></trkpt><trkpt lat="43.691147828311045" lon="10.760821408004986"><ele>16.0</ele><time>2026-05-01T13:52:27Z</time></trkpt><trkpt lat="43.691247194363875" lon="10.76074545713817"><ele>16.0</ele><time>2026-05-01T13:52:29Z</time></trkpt><trkpt lat="43.69125411527598" lon="10.76063821799539"><ele>16.0</ele><time>2026-05-01T13:52:30Z</time></trkpt><trkpt lat="43.69123814089336" lon="10.760528339165413"><ele>16.0</ele><time>2026-05-01T13:52:31Z</time></trkpt><trkpt lat="43.69121604926546" lon="10.760411145688005"><ele>16.0</ele><time>2026-05-01T13:52:32Z</time></trkpt><trkpt lat="43.691201508662274" lon="10.760278693024816"><ele>15.5</ele><time>2026-05-01T13:52:33Z</time></trkpt><trkpt lat="43.691198250949014" lon="10.76011683755131"><ele>15.0</ele><time>2026-05-01T13:52:34Z</time></trkpt><trkpt lat="43.691198968335904" lon="10.759947712072709"><ele>14.5</ele><time>2026-05-01T13:52:35Z</time></trkpt><trkpt lat="43.691199283547114" lon="10.759769908130085"><ele>14.0</ele><time>2026-05-01T13:52:36Z</time></trkpt><trkpt lat="43.69120313962124" lon="10.759581760468029"><ele>14.0</ele><time>2026-05-01T13:52:37Z</time></trkpt><trkpt lat="43.69120960894932" lon="10.759392225980259"><ele>14.0</ele><time>2026-05-01T13:52:38Z</time></trkpt><trkpt lat="43.691216133196704" lon="10.759200748422183"><ele>14.0</ele><time>2026-05-01T13:52:39Z</time></trkpt><trkpt lat="43.69122271340456" lon="10.75901054047023"><ele>14.0</ele><time>2026-05-01T13:52:40Z</time></trkpt><trkpt lat="43.69123048182042" lon="10.758826838656875"><ele>14.25</ele><time>2026-05-01T13:52:41Z</time></trkpt><trkpt lat="43.69123932859763" lon="10.758646504623249"><ele>14.5</ele><time>2026-05-01T13:52:42Z</time></trkpt><trkpt lat="43.691252394114436" lon="10.75846019610686"><ele>14.75</ele><time>2026-05-01T13:52:43Z</time></trkpt><trkpt lat="43.691278263032856" lon="10.758287343151299"><ele>15.0</ele><time>2026-05-01T13:52:44Z</time></trkpt><trkpt lat="43.6913302961975" lon="10.758116849182205"><ele>16.0</ele><time>2026-05-01T13:52:45Z</time></trkpt><trkpt lat="43.69140084084109" lon="10.757949339235234"><ele>17.0</ele><time>2026-05-01T13:52:46Z</time></trkpt><trkpt lat="43.691485078750176" lon="10.7577953103816"><ele>18.0</ele><time>2026-05-01T13:52:47Z</time></trkpt><trkpt lat="43.69156627307163" lon="10.757657610546518"><ele>19.0</ele><time>2026-05-01T13:52:48Z</time></trkpt><trkpt lat="43.69162430214341" lon="10.757493013302604"><ele>19.0</ele><time>2026-05-01T13:52:49Z</time></trkpt><trkpt lat="43.69166730353155" lon="10.757296043102418"><ele>19.0</ele><time>2026-05-01T13:52:50Z</time></trkpt><trkpt lat="43.69170052508768" lon="10.75708241618298"><ele>19.0</ele><time>2026-05-01T13:52:51Z</time></trkpt><trkpt lat="43.69173946272299" lon="10.756856031628118"><ele>19.333333333333332</ele><time>2026-05-01T13:52:52Z</time></trkpt><trkpt lat="43.69177864091839" lon="10.756620662988627"><ele>19.666666666666668</ele><time>2026-05-01T13:52:53Z</time></trkpt><trkpt lat="43.691817298922196" lon="10.756374267524611"><ele>20.0</ele><time>2026-05-01T13:52:54Z</time></trkpt><trkpt lat="43.69185676405068" lon="10.756128062666605"><ele>20.333333333333336</ele><time>2026-05-01T13:52:55Z</time></trkpt><trkpt lat="43.6918950606312" lon="10.755882220352703"><ele>20.666666666666668</ele><time>2026-05-01T13:52:56Z</time></trkpt><trkpt lat="43.691933689842124" lon="10.755630148787274"><ele>21.0</ele><time>2026-05-01T13:52:57Z</time></trkpt><trkpt lat="43.691979960142355" lon="10.755378168067162"><ele>19.0</ele><time>2026-05-01T13:52:58Z</time></trkpt><trkpt lat="43.69203614033555" lon="10.755121844846808"><ele>17.0</ele><time>2026-05-01T13:52:59Z</time></trkpt><trkpt lat="43.69209514600171" lon="10.754880350095815"><ele>15.0</ele><time>2026-05-01T13:53:00Z</time></trkpt><trkpt lat="43.69215472731971" lon="10.75464789940525"><ele>15.0</ele><time>2026-05-01T13:53:01Z</time></trkpt><trkpt lat="43.69221250819496" lon="10.75441356432568"><ele>15.0</ele><time>2026-05-01T13:53:02Z</time></trkpt><trkpt lat="43.692274621753015" lon="10.754183765104775"><ele>15.0</ele><time>2026-05-01T13:53:03Z</time></trkpt><trkpt lat="43.692335189470214" lon="10.753953198705428"><ele>16.0</ele><time>2026-05-01T13:53:04Z</time></trkpt><trkpt lat="43.69239610570764" lon="10.753721677402154"><ele>17.0</ele><time>2026-05-01T13:53:05Z</time></trkpt><trkpt lat="43.69245574134693" lon="10.753490874854394"><ele>18.0</ele><time>2026-05-01T13:53:06Z</time></trkpt><trkpt lat="43.692512686289305" lon="10.753257002830113"><ele>18.666666666666668</ele><time>2026-05-01T13:53:07Z</time></trkpt><trkpt lat="43.6925642591838" lon="10.753020505090909"><ele>19.333333333333336</ele><time>2026-05-01T13:53:08Z</time></trkpt><trkpt lat="43.69260810124798" lon="10.752781544694473"><ele>20.0</ele><time>2026-05-01T13:53:09Z</time></trkpt><trkpt lat="43.69264236377442" lon="10.75254024920924"><ele>20.0</ele><time>2026-05-01T13:53:10Z</time></trkpt><trkpt lat="43.69266765772248" lon="10.752299812926225"><ele>20.0</ele><time>2026-05-01T13:53:11Z</time></trkpt><trkpt lat="43.692686264388676" lon="10.752058911748858"><ele>20.0</ele><time>2026-05-01T13:53:12Z</time></trkpt><trkpt lat="43.692693166207675" lon="10.751815034319907"><ele>20.0</ele><time>2026-05-01T13:53:13Z</time></trkpt><trkpt lat="43.692693285165646" lon="10.751570164163692"><ele>20.0</ele><time>2026-05-01T13:53:14Z</time></trkpt><trkpt lat="43.692703231293066" lon="10.751323684912297"><ele>20.0</ele><time>2026-05-01T13:53:15Z</time></trkpt><trkpt lat="43.69272297808043" lon="10.751078621350471"><ele>18.666666666666668</ele><time>2026-05-01T13:53:16Z</time></trkpt><trkpt lat="43.69275760064885" lon="10.75083488795682"><ele>17.333333333333332</ele><time>2026-05-01T13:53:17Z</time></trkpt><trkpt lat="43.69279502019089" lon="10.750594323436303"><ele>16.0</ele><time>2026-05-01T13:53:18Z</time></trkpt><trkpt lat="43.69281912464455" lon="10.750349368042524"><ele>15.333333333333332</ele><time>2026-05-01T13:53:19Z</time></trkpt><trkpt lat="43.69283493096391" lon="10.750101418906622"><ele>14.666666666666668</ele><time>2026-05-01T13:53:20Z</time></trkpt><trkpt lat="43.69284724556298" lon="10.749874436529176"><ele>14.0</ele><time>2026-05-01T13:53:21Z</time></trkpt><trkpt lat="43.69286688118802" lon="10.749653199851043"><ele>14.0</ele><time>2026-05-01T13:53:22Z</time></trkpt><trkpt lat="43.69288366195982" lon="10.749443221672347"><ele>14.0</ele><time>2026-05-01T13:53:23Z</time></trkpt><trkpt lat="43.69289513903492" lon="10.74925067466457"><ele>14.0</ele><time>2026-05-01T13:53:24Z</time></trkpt><trkpt lat="43.69291428928009" lon="10.749090838976043"><ele>14.0</ele><time>2026-05-01T13:53:25Z</time></trkpt><trkpt lat="43.69292868303247" lon="10.748960768719314"><ele>14.399999999999999</ele><time>2026-05-01T13:53:26Z</time></trkpt><trkpt lat="43.69293630757714" lon="10.748856654574437"><ele>14.799999999999999</ele><time>2026-05-01T13:53:27Z</time></trkpt><trkpt lat="43.69296607879513" lon="10.74871156762692"><ele>15.200000000000001</ele><time>2026-05-01T13:53:29Z</time></trkpt><trkpt lat="43.69297901155321" lon="10.748606081131316"><ele>15.600000000000001</ele><time>2026-05-01T13:53:32Z</time></trkpt><trkpt lat="43.69310974458565" lon="10.748549577385269"><ele>16.0</ele><time>2026-05-01T13:53:35Z</time></trkpt><trkpt lat="43.693183807868834" lon="10.748573567571086"><ele>16.0</ele><time>2026-05-01T13:53:36Z</time></trkpt><trkpt lat="43.693264914768726" lon="10.74857031164042"><ele>16.0</ele><time>2026-05-01T13:53:37Z</time></trkpt><trkpt lat="43.69336047041712" lon="10.748569991549171"><ele>16.0</ele><time>2026-05-01T13:53:38Z</time></trkpt><trkpt lat="43.69347534113943" lon="10.748571816251285"><ele>16.0</ele><time>2026-05-01T13:53:39Z</time></trkpt><trkpt lat="43.69359911060869" lon="10.748572099996858"><ele>16.0</ele><time>2026-05-01T13:53:40Z</time></trkpt><trkpt lat="43.69372978830843" lon="10.748568923127095"><ele>14.5</ele><time>2026-05-01T13:53:41Z</time></trkpt><trkpt lat="43.69386223732894" lon="10.748567266766875"><ele>13.0</ele><time>2026-05-01T13:53:41.999Z</time></trkpt><trkpt lat="43.693994713963" lon="10.748570784628138"><ele>11.5</ele><time>2026-05-01T13:53:42.999Z</time></trkpt><trkpt lat="43.69411005585429" lon="10.748573644014604"><ele>10.0</ele><time>2026-05-01T13:53:43.999Z</time></trkpt><trkpt lat="43.694224903704566" lon="10.748580176076898"><ele>10.0</ele><time>2026-05-01T13:53:44.999Z</time></trkpt><trkpt lat="43.694334478629074" lon="10.748586198150896"><ele>10.0</ele><time>2026-05-01T13:53:45.999Z</time></trkpt><trkpt lat="43.69443098841815" lon="10.748590773220176"><ele>10.0</ele><time>2026-05-01T13:53:46.999Z</time></trkpt><trkpt lat="43.69451983273822" lon="10.748591446354919"><ele>10.0</ele><time>2026-05-01T13:53:47.999Z</time></trkpt><trkpt lat="43.694600333112994" lon="10.748594465449223"><ele>10.0</ele><time>2026-05-01T13:53:48.999Z</time></trkpt><trkpt lat="43.694666899491175" lon="10.748599624136377"><ele>10.0</ele><time>2026-05-01T13:53:49.999Z</time></trkpt><trkpt lat="43.69478211206741" lon="10.748650573624527"><ele>11.333333333333334</ele><time>2026-05-01T13:53:51.999Z</time></trkpt><trkpt lat="43.69484261784138" lon="10.748687928813833"><ele>12.666666666666668</ele><time>2026-05-01T13:53:52.999Z</time></trkpt><trkpt lat="43.694907189245114" lon="10.748706021424217"><ele>14.0</ele><time>2026-05-01T13:53:53.999Z</time></trkpt><trkpt lat="43.69501363639146" lon="10.748642638352019"><ele>15.333333333333334</ele><time>2026-05-01T13:53:55.999Z</time></trkpt><trkpt lat="43.6950425455757" lon="10.748554992899244"><ele>16.666666666666668</ele><time>2026-05-01T13:53:56.999Z</time></trkpt><trkpt lat="43.69504395072908" lon="10.748441576104401"><ele>18.0</ele><time>2026-05-01T13:53:57.999Z</time></trkpt><trkpt lat="43.69502102232695" lon="10.748349602077727"><ele>18.166666666666668</ele><time>2026-05-01T13:53:58.999Z</time></trkpt><trkpt lat="43.69498407543248" lon="10.74825627880382"><ele>18.333333333333332</ele><time>2026-05-01T13:53:59.999Z</time></trkpt><trkpt lat="43.69495754891491" lon="10.748148672207373"><ele>18.5</ele><time>2026-05-01T13:54:00.999Z</time></trkpt><trkpt lat="43.69494955970926" lon="10.748019620301815"><ele>18.666666666666664</ele><time>2026-05-01T13:54:01.999Z</time></trkpt><trkpt lat="43.69495588354845" lon="10.747891537907561"><ele>18.833333333333332</ele><time>2026-05-01T13:54:02.999Z</time></trkpt><trkpt lat="43.69496421534643" lon="10.74776423600542"><ele>19.0</ele><time>2026-05-01T13:54:03.999Z</time></trkpt><trkpt lat="43.694970614178445" lon="10.74761571967968"><ele>19.25</ele><time>2026-05-01T13:54:04.999Z</time></trkpt><trkpt lat="43.694976613564585" lon="10.747462482188062"><ele>19.5</ele><time>2026-05-01T13:54:05.999Z</time></trkpt><trkpt lat="43.69498336794231" lon="10.747297481733932"><ele>19.75</ele><time>2026-05-01T13:54:06.999Z</time></trkpt><trkpt lat="43.694992406951705" lon="10.747122737508715"><ele>20.0</ele><time>2026-05-01T13:54:07.999Z</time></trkpt><trkpt lat="43.695003081469736" lon="10.746945422832077"><ele>20.2</ele><time>2026-05-01T13:54:08.999Z</time></trkpt><trkpt lat="43.69501090421627" lon="10.746785799247828"><ele>20.4</ele><time>2026-05-01T13:54:09.999Z</time></trkpt><trkpt lat="43.69501573310441" lon="10.746627076855287"><ele>20.6</ele><time>2026-05-01T13:54:10.999Z</time></trkpt><trkpt lat="43.695019708850744" lon="10.746485497074694"><ele>20.8</ele><time>2026-05-01T13:54:11.999Z</time></trkpt><trkpt lat="43.695029768515816" lon="10.74634471449852"><ele>21.0</ele><time>2026-05-01T13:54:12.999Z</time></trkpt><trkpt lat="43.69504810357817" lon="10.746198247137194"><ele>21.0</ele><time>2026-05-01T13:54:13.999Z</time></trkpt><trkpt lat="43.69505206878758" lon="10.74605182368252"><ele>21.0</ele><time>2026-05-01T13:54:14.999Z</time></trkpt><trkpt lat="43.695093359445686" lon="10.745903497255043"><ele>21.0</ele><time>2026-05-01T13:54:15.999Z</time></trkpt><trkpt lat="43.695183209131464" lon="10.74577159164551"><ele>21.0</ele><time>2026-05-01T13:54:16.999Z</time></trkpt><trkpt lat="43.69529956488742" lon="10.745673209539241"><ele>20.75</ele><time>2026-05-01T13:54:17.999Z</time></trkpt><trkpt lat="43.69541689738631" lon="10.745561251745348"><ele>20.5</ele><time>2026-05-01T13:54:18.999Z</time></trkpt><trkpt lat="43.695525154689335" lon="10.74546157514227"><ele>20.25</ele><time>2026-05-01T13:54:19.999Z</time></trkpt><trkpt lat="43.69564120623168" lon="10.745355789536767"><ele>20.0</ele><time>2026-05-01T13:54:20.999Z</time></trkpt><trkpt lat="43.69574619419931" lon="10.74525639440635"><ele>20.0</ele><time>2026-05-01T13:54:22Z</time></trkpt><trkpt lat="43.695860116300864" lon="10.745154521268137"><ele>20.0</ele><time>2026-05-01T13:54:23Z</time></trkpt><trkpt lat="43.695976437539215" lon="10.745055193265605"><ele>20.0</ele><time>2026-05-01T13:54:24Z</time></trkpt><trkpt lat="43.696090533547164" lon="10.744956102134942"><ele>20.0</ele><time>2026-05-01T13:54:25Z</time></trkpt><trkpt lat="43.696200273604596" lon="10.74485663596453"><ele>20.0</ele><time>2026-05-01T13:54:26Z</time></trkpt><trkpt lat="43.696317862503186" lon="10.744758338474442"><ele>20.0</ele><time>2026-05-01T13:54:27Z</time></trkpt><trkpt lat="43.696431953317116" lon="10.744661519637903"><ele>20.0</ele><time>2026-05-01T13:54:28Z</time></trkpt><trkpt lat="43.69654659825441" lon="10.744557207041332"><ele>20.0</ele><time>2026-05-01T13:54:29Z</time></trkpt><trkpt lat="43.696658768306776" lon="10.744455139881348"><ele>19.75</ele><time>2026-05-01T13:54:30Z</time></trkpt><trkpt lat="43.69677444125019" lon="10.744350832568761"><ele>19.5</ele><time>2026-05-01T13:54:31Z</time></trkpt><trkpt lat="43.69689233975466" lon="10.744247497193351"><ele>19.25</ele><time>2026-05-01T13:54:32Z</time></trkpt><trkpt lat="43.697011595513864" lon="10.744145847204704"><ele>19.0</ele><time>2026-05-01T13:54:33Z</time></trkpt><trkpt lat="43.69713132870721" lon="10.744044165288955"><ele>18.75</ele><time>2026-05-01T13:54:34Z</time></trkpt><trkpt lat="43.697247081487276" lon="10.743945139766053"><ele>18.5</ele><time>2026-05-01T13:54:35Z</time></trkpt><trkpt lat="43.69736240298921" lon="10.743843455245498"><ele>18.25</ele><time>2026-05-01T13:54:36Z</time></trkpt><trkpt lat="43.69747493857753" lon="10.743749537155201"><ele>18.0</ele><time>2026-05-01T13:54:37Z</time></trkpt><trkpt lat="43.69759184192023" lon="10.743652660069017"><ele>18.0</ele><time>2026-05-01T13:54:38Z</time></trkpt><trkpt lat="43.69770702385799" lon="10.743560563194997"><ele>18.0</ele><time>2026-05-01T13:54:39Z</time></trkpt><trkpt lat="43.69780850630542" lon="10.74347002276384"><ele>18.0</ele><time>2026-05-01T13:54:40Z</time></trkpt><trkpt lat="43.69790775028914" lon="10.743386791880713"><ele>18.0</ele><time>2026-05-01T13:54:41Z</time></trkpt><trkpt lat="43.69800831447064" lon="10.743310220781"><ele>18.25</ele><time>2026-05-01T13:54:42Z</time></trkpt><trkpt lat="43.69811657044554" lon="10.74322392331212"><ele>18.5</ele><time>2026-05-01T13:54:43Z</time></trkpt><trkpt lat="43.69822958540716" lon="10.743114856367058"><ele>18.75</ele><time>2026-05-01T13:54:44Z</time></trkpt><trkpt lat="43.69834737825501" lon="10.742986832091711"><ele>19.0</ele><time>2026-05-01T13:54:45Z</time></trkpt><trkpt lat="43.69847464394896" lon="10.742867555219089"><ele>19.0</ele><time>2026-05-01T13:54:46Z</time></trkpt><trkpt lat="43.69859594830544" lon="10.74276987010564"><ele>19.0</ele><time>2026-05-01T13:54:47Z</time></trkpt><trkpt lat="43.69871868441735" lon="10.742674805085782"><ele>19.0</ele><time>2026-05-01T13:54:48Z</time></trkpt><trkpt lat="43.69882812519331" lon="10.742584479055472"><ele>19.0</ele><time>2026-05-01T13:54:49Z</time></trkpt><trkpt lat="43.6989297674548" lon="10.742501260554818"><ele>18.75</ele><time>2026-05-01T13:54:50Z</time></trkpt><trkpt lat="43.69901691663601" lon="10.742418610327034"><ele>18.5</ele><time>2026-05-01T13:54:51Z</time></trkpt><trkpt lat="43.69909033250215" lon="10.742355384655653"><ele>18.25</ele><time>2026-05-01T13:54:52Z</time></trkpt><trkpt lat="43.69898779049019" lon="10.742208550202694"><ele>18.0</ele><time>2026-05-01T13:54:53Z</time></trkpt><trkpt lat="43.69910916333294" lon="10.742102294643804"><ele>18.0</ele><time>2026-05-01T13:54:54Z</time></trkpt><trkpt lat="43.69909233524891" lon="10.742017188773126"><ele>18.0</ele><time>2026-05-01T13:54:56Z</time></trkpt><trkpt lat="43.69907379569759" lon="10.741848101059704"><ele>18.0</ele><time>2026-05-01T13:55:47Z</time></trkpt><trkpt lat="43.69906409037461" lon="10.741732844336575"><ele>18.0</ele><time>2026-05-01T13:55:48Z</time></trkpt><trkpt lat="43.69905372981721" lon="10.741603563634888"><ele>18.0</ele><time>2026-05-01T13:55:49Z</time></trkpt><trkpt lat="43.69904293950513" lon="10.741452001887353"><ele>18.0</ele><time>2026-05-01T13:55:50Z</time></trkpt><trkpt lat="43.699031836003556" lon="10.741287366362199"><ele>18.0</ele><time>2026-05-01T13:55:51Z</time></trkpt><trkpt lat="43.699021132032925" lon="10.74111753625512"><ele>18.0</ele><time>2026-05-01T13:55:52Z</time></trkpt><trkpt lat="43.69900976662599" lon="10.740933733230762"><ele>18.0</ele><time>2026-05-01T13:55:53Z</time></trkpt><trkpt lat="43.698996925505625" lon="10.740739364363234"><ele>18.0</ele><time>2026-05-01T13:55:54Z</time></trkpt><trkpt lat="43.69898173261959" lon="10.740537757620029"><ele>18.0</ele><time>2026-05-01T13:55:55Z</time></trkpt><trkpt lat="43.698968599078555" lon="10.740335071191529"><ele>18.0</ele><time>2026-05-01T13:55:55.999Z</time></trkpt><trkpt lat="43.698956220606554" lon="10.74012681029901"><ele>18.0</ele><time>2026-05-01T13:55:56.999Z</time></trkpt><trkpt lat="43.698942213831955" lon="10.73991852549112"><ele>17.666666666666668</ele><time>2026-05-01T13:55:57.999Z</time></trkpt><trkpt lat="43.69892950450192" lon="10.73970061828329"><ele>17.333333333333336</ele><time>2026-05-01T13:55:58.999Z</time></trkpt><trkpt lat="43.698915657059224" lon="10.73948096658796"><ele>17.0</ele><time>2026-05-01T13:55:59.999Z</time></trkpt><trkpt lat="43.698903634276526" lon="10.739252507224077"><ele>17.0</ele><time>2026-05-01T13:56:00.999Z</time></trkpt><trkpt lat="43.69888847919737" lon="10.739020119618607"><ele>17.0</ele><time>2026-05-01T13:56:01.999Z</time></trkpt><trkpt lat="43.69887032637821" lon="10.738784087046879"><ele>17.0</ele><time>2026-05-01T13:56:02.999Z</time></trkpt><trkpt lat="43.69885564718193" lon="10.73854890374584"><ele>16.666666666666668</ele><time>2026-05-01T13:56:03.999Z</time></trkpt><trkpt lat="43.6988395535111" lon="10.73830474540776"><ele>16.333333333333332</ele><time>2026-05-01T13:56:04.999Z</time></trkpt><trkpt lat="43.69881956896666" lon="10.738055991680156"><ele>16.0</ele><time>2026-05-01T13:56:05.999Z</time></trkpt><trkpt lat="43.6988024888652" lon="10.7378083774004"><ele>16.666666666666664</ele><time>2026-05-01T13:56:06.999Z</time></trkpt><trkpt lat="43.6987894111846" lon="10.737555823782284"><ele>17.333333333333332</ele><time>2026-05-01T13:56:07.999Z</time></trkpt><trkpt lat="43.69877216412802" lon="10.73729993678793"><ele>18.0</ele><time>2026-05-01T13:56:08.999Z</time></trkpt><trkpt lat="43.69875406326629" lon="10.737039908169647"><ele>18.0</ele><time>2026-05-01T13:56:09.999Z</time></trkpt><trkpt lat="43.69873652358625" lon="10.73677607105328"><ele>18.0</ele><time>2026-05-01T13:56:10.999Z</time></trkpt><trkpt lat="43.69873407068313" lon="10.736511067285788"><ele>18.0</ele><time>2026-05-01T13:56:11.999Z</time></trkpt><trkpt lat="43.69871726147543" lon="10.736247365741"><ele>18.0</ele><time>2026-05-01T13:56:12.999Z</time></trkpt><trkpt lat="43.69870060717783" lon="10.735986094379724"><ele>18.0</ele><time>2026-05-01T13:56:13.999Z</time></trkpt><trkpt lat="43.69868390319052" lon="10.735724043405568"><ele>18.0</ele><time>2026-05-01T13:56:14.999Z</time></trkpt><trkpt lat="43.698653237508886" lon="10.73546430590873"><ele>17.0</ele><time>2026-05-01T13:56:15.999Z</time></trkpt><trkpt lat="43.69863803812983" lon="10.7352063959195"><ele>16.0</ele><time>2026-05-01T13:56:16.999Z</time></trkpt><trkpt lat="43.698621485234895" lon="10.734948852444695"><ele>15.0</ele><time>2026-05-01T13:56:17.999Z</time></trkpt><trkpt lat="43.69860469920891" lon="10.734688186598463"><ele>15.0</ele><time>2026-05-01T13:56:18.999Z</time></trkpt><trkpt lat="43.698588654858334" lon="10.734425063206839"><ele>15.0</ele><time>2026-05-01T13:56:19.999Z</time></trkpt><trkpt lat="43.6985737468085" lon="10.734164779763002"><ele>15.0</ele><time>2026-05-01T13:56:20.999Z</time></trkpt><trkpt lat="43.69855866125661" lon="10.733905777608664"><ele>15.666666666666668</ele><time>2026-05-01T13:56:21.999Z</time></trkpt><trkpt lat="43.69854255263625" lon="10.73364618867849"><ele>16.333333333333336</ele><time>2026-05-01T13:56:22.999Z</time></trkpt><trkpt lat="43.698527049650046" lon="10.733383876882256"><ele>17.0</ele><time>2026-05-01T13:56:23.999Z</time></trkpt><trkpt lat="43.69851245241551" lon="10.733113161877185"><ele>17.0</ele><time>2026-05-01T13:56:24.999Z</time></trkpt><trkpt lat="43.698496531406185" lon="10.732842751693394"><ele>17.0</ele><time>2026-05-01T13:56:25.999Z</time></trkpt><trkpt lat="43.698478209983094" lon="10.73257599170283"><ele>17.0</ele><time>2026-05-01T13:56:26.999Z</time></trkpt><trkpt lat="43.69846327029905" lon="10.732314068668861"><ele>17.0</ele><time>2026-05-01T13:56:28Z</time></trkpt><trkpt lat="43.69844619014284" lon="10.732044248541005"><ele>17.0</ele><time>2026-05-01T13:56:29Z</time></trkpt><trkpt lat="43.698425511861124" lon="10.731777060157603"><ele>17.0</ele><time>2026-05-01T13:56:30Z</time></trkpt><trkpt lat="43.69839149261241" lon="10.731518884452319"><ele>17.0</ele><time>2026-05-01T13:56:31Z</time></trkpt><trkpt lat="43.69835758137618" lon="10.731254110685779"><ele>17.0</ele><time>2026-05-01T13:56:32Z</time></trkpt><trkpt lat="43.69832126226478" lon="10.73098249417896"><ele>17.0</ele><time>2026-05-01T13:56:33Z</time></trkpt><trkpt lat="43.698283023156954" lon="10.730712529469896"><ele>16.666666666666668</ele><time>2026-05-01T13:56:34Z</time></trkpt><trkpt lat="43.69824542160746" lon="10.730437229248684"><ele>16.333333333333332</ele><time>2026-05-01T13:56:35Z</time></trkpt><trkpt lat="43.69820643231559" lon="10.730160815311436"><ele>16.0</ele><time>2026-05-01T13:56:36Z</time></trkpt><trkpt lat="43.69816734597444" lon="10.729884163587831"><ele>15.666666666666666</ele><time>2026-05-01T13:56:37Z</time></trkpt><trkpt lat="43.69812878680197" lon="10.729607929752172"><ele>15.333333333333332</ele><time>2026-05-01T13:56:38Z</time></trkpt><trkpt lat="43.698088612414104" lon="10.729328094371747"><ele>15.0</ele><time>2026-05-01T13:56:39Z</time></trkpt><trkpt lat="43.698047621509474" lon="10.729047769812079"><ele>15.0</ele><time>2026-05-01T13:56:40Z</time></trkpt><trkpt lat="43.69800580618103" lon="10.728765574505644"><ele>15.0</ele><time>2026-05-01T13:56:41Z</time></trkpt><trkpt lat="43.697970027792294" lon="10.728488101632314"><ele>15.0</ele><time>2026-05-01T13:56:42Z</time></trkpt><trkpt lat="43.69793065219072" lon="10.728207702512387"><ele>15.0</ele><time>2026-05-01T13:56:43Z</time></trkpt><trkpt lat="43.697888442635325" lon="10.727924801018835"><ele>15.0</ele><time>2026-05-01T13:56:44Z</time></trkpt><trkpt lat="43.69784607630791" lon="10.727643235382404"><ele>15.0</ele><time>2026-05-01T13:56:45Z</time></trkpt><trkpt lat="43.69780532899782" lon="10.72736129629588"><ele>15.0</ele><time>2026-05-01T13:56:46Z</time></trkpt><trkpt lat="43.69776571987704" lon="10.72708055490472"><ele>15.0</ele><time>2026-05-01T13:56:47Z</time></trkpt><trkpt lat="43.697726242801004" lon="10.726799674902788"><ele>15.0</ele><time>2026-05-01T13:56:48Z</time></trkpt><trkpt lat="43.69768444861504" lon="10.726516871785572"><ele>15.0</ele><time>2026-05-01T13:56:49Z</time></trkpt><trkpt lat="43.69764056707805" lon="10.726230386760417"><ele>15.0</ele><time>2026-05-01T13:56:50Z</time></trkpt><trkpt lat="43.697598759093566" lon="10.725943824836085"><ele>15.0</ele><time>2026-05-01T13:56:51Z</time></trkpt><trkpt lat="43.69755906617679" lon="10.725652577443746"><ele>15.0</ele><time>2026-05-01T13:56:52Z</time></trkpt><trkpt lat="43.697516341458694" lon="10.72536557059443"><ele>15.0</ele><time>2026-05-01T13:56:53Z</time></trkpt><trkpt lat="43.69747178075788" lon="10.725076045144498"><ele>15.0</ele><time>2026-05-01T13:56:54Z</time></trkpt><trkpt lat="43.69742662375899" lon="10.724782815335008"><ele>15.0</ele><time>2026-05-01T13:56:55Z</time></trkpt><trkpt lat="43.697383384612834" lon="10.724486553759776"><ele>15.0</ele><time>2026-05-01T13:56:56Z</time></trkpt><trkpt lat="43.697339029151415" lon="10.72419860724258"><ele>15.0</ele><time>2026-05-01T13:56:57Z</time></trkpt><trkpt lat="43.69729258348412" lon="10.723906926234509"><ele>15.0</ele><time>2026-05-01T13:56:58Z</time></trkpt><trkpt lat="43.69724647770397" lon="10.723610198642923"><ele>15.0</ele><time>2026-05-01T13:56:59Z</time></trkpt><trkpt lat="43.69720290495583" lon="10.723312792418364"><ele>15.0</ele><time>2026-05-01T13:57:00Z</time></trkpt><trkpt lat="43.69715961860907" lon="10.723013841447916"><ele>14.666666666666668</ele><time>2026-05-01T13:57:01Z</time></trkpt><trkpt lat="43.69711257793864" lon="10.722716648582505"><ele>14.333333333333334</ele><time>2026-05-01T13:57:02Z</time></trkpt><trkpt lat="43.69708356013123" lon="10.722417702625151"><ele>14.0</ele><time>2026-05-01T13:57:03Z</time></trkpt><trkpt lat="43.69702351192913" lon="10.72212653374762"><ele>14.0</ele><time>2026-05-01T13:57:04Z</time></trkpt><trkpt lat="43.696979055751335" lon="10.72182815847085"><ele>14.0</ele><time>2026-05-01T13:57:05Z</time></trkpt><trkpt lat="43.69693651813424" lon="10.721533024048032"><ele>14.0</ele><time>2026-05-01T13:57:06Z</time></trkpt><trkpt lat="43.696891841681435" lon="10.721239227095912"><ele>14.666666666666668</ele><time>2026-05-01T13:57:07Z</time></trkpt><trkpt lat="43.696847768381886" lon="10.72094180349668"><ele>15.333333333333332</ele><time>2026-05-01T13:57:08Z</time></trkpt><trkpt lat="43.69680336084931" lon="10.72064150596089"><ele>16.0</ele><time>2026-05-01T13:57:09Z</time></trkpt><trkpt lat="43.6967593399153" lon="10.720343019716637"><ele>16.0</ele><time>2026-05-01T13:57:10Z</time></trkpt><trkpt lat="43.696716877880135" lon="10.720045229655103"><ele>16.0</ele><time>2026-05-01T13:57:11Z</time></trkpt><trkpt lat="43.696672271156714" lon="10.719744992599967"><ele>16.0</ele><time>2026-05-01T13:57:12Z</time></trkpt><trkpt lat="43.69662842083608" lon="10.719444497494226"><ele>16.0</ele><time>2026-05-01T13:57:13Z</time></trkpt><trkpt lat="43.69658351841915" lon="10.719144765532157"><ele>16.0</ele><time>2026-05-01T13:57:14Z</time></trkpt><trkpt lat="43.69654192867764" lon="10.71884488417637"><ele>16.0</ele><time>2026-05-01T13:57:15Z</time></trkpt><trkpt lat="43.69649745013851" lon="10.718543893978715"><ele>16.0</ele><time>2026-05-01T13:57:16Z</time></trkpt><trkpt lat="43.69645383073852" lon="10.718244966578169"><ele>16.0</ele><time>2026-05-01T13:57:17Z</time></trkpt><trkpt lat="43.69640640536471" lon="10.71794618787728"><ele>16.0</ele><time>2026-05-01T13:57:18Z</time></trkpt><trkpt lat="43.69636080305273" lon="10.717645634824995"><ele>15.666666666666666</ele><time>2026-05-01T13:57:19Z</time></trkpt><trkpt lat="43.696314532243235" lon="10.71734893602706"><ele>15.333333333333332</ele><time>2026-05-01T13:57:20Z</time></trkpt><trkpt lat="43.69627088925501" lon="10.717051182771131"><ele>15.0</ele><time>2026-05-01T13:57:21Z</time></trkpt><trkpt lat="43.69622967832819" lon="10.716757088296388"><ele>14.333333333333332</ele><time>2026-05-01T13:57:22Z</time></trkpt><trkpt lat="43.696190998629866" lon="10.716454642083157"><ele>13.666666666666666</ele><time>2026-05-01T13:57:23Z</time></trkpt><trkpt lat="43.69614961912128" lon="10.716158870663179"><ele>13.0</ele><time>2026-05-01T13:57:24Z</time></trkpt><trkpt lat="43.696106767238945" lon="10.715862019982032"><ele>13.333333333333332</ele><time>2026-05-01T13:57:25Z</time></trkpt><trkpt lat="43.69606114984333" lon="10.715567527597983"><ele>13.666666666666668</ele><time>2026-05-01T13:57:26Z</time></trkpt><trkpt lat="43.696014825866975" lon="10.715270984326274"><ele>14.0</ele><time>2026-05-01T13:57:27Z</time></trkpt><trkpt lat="43.69597061422594" lon="10.714976443808773"><ele>14.333333333333334</ele><time>2026-05-01T13:57:28Z</time></trkpt><trkpt lat="43.69593064965671" lon="10.71468171132492"><ele>14.666666666666668</ele><time>2026-05-01T13:57:29Z</time></trkpt><trkpt lat="43.695886275835925" lon="10.714385402426528"><ele>15.0</ele><time>2026-05-01T13:57:30Z</time></trkpt><trkpt lat="43.69584052459236" lon="10.714093066416972"><ele>15.0</ele><time>2026-05-01T13:57:31Z</time></trkpt><trkpt lat="43.69579679804444" lon="10.713803154937928"><ele>15.0</ele><time>2026-05-01T13:57:32Z</time></trkpt><trkpt lat="43.69575229462972" lon="10.713505557904446"><ele>15.0</ele><time>2026-05-01T13:57:33Z</time></trkpt><trkpt lat="43.69570815320877" lon="10.713210116858164"><ele>15.0</ele><time>2026-05-01T13:57:34Z</time></trkpt><trkpt lat="43.695664499326526" lon="10.712914928619298"><ele>15.0</ele><time>2026-05-01T13:57:35Z</time></trkpt><trkpt lat="43.695621825939234" lon="10.712618916962619"><ele>15.0</ele><time>2026-05-01T13:57:36Z</time></trkpt><trkpt lat="43.69557933856024" lon="10.7123259032493"><ele>15.0</ele><time>2026-05-01T13:57:37Z</time></trkpt><trkpt lat="43.69553570372693" lon="10.712024211547803"><ele>15.0</ele><time>2026-05-01T13:57:38Z</time></trkpt><trkpt lat="43.69549204926022" lon="10.711727335852501"><ele>15.0</ele><time>2026-05-01T13:57:39Z</time></trkpt><trkpt lat="43.69544883383978" lon="10.711422546305647"><ele>15.0</ele><time>2026-05-01T13:57:40Z</time></trkpt><trkpt lat="43.695402356897034" lon="10.711121510033209"><ele>15.0</ele><time>2026-05-01T13:57:41Z</time></trkpt><trkpt lat="43.695355787350685" lon="10.710816898246886"><ele>15.0</ele><time>2026-05-01T13:57:42Z</time></trkpt><trkpt lat="43.69531027851822" lon="10.710517317135944"><ele>14.5</ele><time>2026-05-01T13:57:43Z</time></trkpt><trkpt lat="43.695264262684006" lon="10.710215709580648"><ele>14.0</ele><time>2026-05-01T13:57:44Z</time></trkpt><trkpt lat="43.695219769496305" lon="10.709908064787976"><ele>14.5</ele><time>2026-05-01T13:57:45Z</time></trkpt><trkpt lat="43.695177367557314" lon="10.709601611453508"><ele>15.0</ele><time>2026-05-01T13:57:46Z</time></trkpt><trkpt lat="43.69513503744151" lon="10.709295595471444"><ele>15.0</ele><time>2026-05-01T13:57:47Z</time></trkpt><trkpt lat="43.69509151369783" lon="10.708990625000155"><ele>15.0</ele><time>2026-05-01T13:57:48Z</time></trkpt><trkpt lat="43.695051851550055" lon="10.708707540735256"><ele>15.0</ele><time>2026-05-01T13:57:49Z</time></trkpt><trkpt lat="43.695012190235246" lon="10.708441044800885"><ele>15.0</ele><time>2026-05-01T13:57:50Z</time></trkpt><trkpt lat="43.69497671220838" lon="10.708202374517194"><ele>15.0</ele><time>2026-05-01T13:57:51Z</time></trkpt><trkpt lat="43.694948723547625" lon="10.707994889521467"><ele>15.0</ele><time>2026-05-01T13:57:52Z</time></trkpt><trkpt lat="43.69492446565182" lon="10.707815373860104"><ele>14.833333333333334</ele><time>2026-05-01T13:57:53Z</time></trkpt><trkpt lat="43.69490647165086" lon="10.707671237642812"><ele>14.666666666666668</ele><time>2026-05-01T13:57:54Z</time></trkpt><trkpt lat="43.69489401624908" lon="10.70755496419885"><ele>14.5</ele><time>2026-05-01T13:57:55Z</time></trkpt><trkpt lat="43.694891386222544" lon="10.707457233706373"><ele>14.333333333333334</ele><time>2026-05-01T13:57:56Z</time></trkpt><trkpt lat="43.69490615478116" lon="10.70735549043904"><ele>14.166666666666668</ele><time>2026-05-01T13:57:57Z</time></trkpt><trkpt lat="43.69491872501623" lon="10.707235927816798"><ele>14.0</ele><time>2026-05-01T13:57:58Z</time></trkpt><trkpt lat="43.69490264226371" lon="10.70709982969027"><ele>14.0</ele><time>2026-05-01T13:57:59Z</time></trkpt><trkpt lat="43.694846598315806" lon="10.706963985700858"><ele>14.0</ele><time>2026-05-01T13:58:00Z</time></trkpt><trkpt lat="43.69478097407369" lon="10.706826217488176"><ele>14.0</ele><time>2026-05-01T13:58:01Z</time></trkpt><trkpt lat="43.69473405281256" lon="10.706669080224609"><ele>14.0</ele><time>2026-05-01T13:58:02Z</time></trkpt><trkpt lat="43.69470840542805" lon="10.706501472136527"><ele>14.25</ele><time>2026-05-01T13:58:03Z</time></trkpt><trkpt lat="43.69467812687302" lon="10.70632836304812"><ele>14.5</ele><time>2026-05-01T13:58:04Z</time></trkpt><trkpt lat="43.69464531834221" lon="10.706145483433339"><ele>14.75</ele><time>2026-05-01T13:58:05Z</time></trkpt><trkpt lat="43.69461902983394" lon="10.70595212203446"><ele>15.0</ele><time>2026-05-01T13:58:06Z</time></trkpt><trkpt lat="43.69459692589939" lon="10.70575098552326"><ele>15.0</ele><time>2026-05-01T13:58:07Z</time></trkpt><trkpt lat="43.69456875360491" lon="10.705550965017261"><ele>15.0</ele><time>2026-05-01T13:58:08Z</time></trkpt><trkpt lat="43.69453662564289" lon="10.70534736761796"><ele>15.0</ele><time>2026-05-01T13:58:09Z</time></trkpt><trkpt lat="43.69450551848874" lon="10.705143051248498"><ele>15.0</ele><time>2026-05-01T13:58:10Z</time></trkpt><trkpt lat="43.694477614345914" lon="10.704928676298303"><ele>15.0</ele><time>2026-05-01T13:58:11Z</time></trkpt><trkpt lat="43.694451277975695" lon="10.704717294683936"><ele>15.0</ele><time>2026-05-01T13:58:12Z</time></trkpt><trkpt lat="43.69442621624766" lon="10.704520725460686"><ele>15.0</ele><time>2026-05-01T13:58:13Z</time></trkpt><trkpt lat="43.69442522479427" lon="10.704316930233313"><ele>15.0</ele><time>2026-05-01T13:58:14Z</time></trkpt><trkpt lat="43.69440458031307" lon="10.704106064346156"><ele>15.0</ele><time>2026-05-01T13:58:15Z</time></trkpt><trkpt lat="43.69441662308992" lon="10.703891114441864"><ele>15.0</ele><time>2026-05-01T13:58:16Z</time></trkpt><trkpt lat="43.694435476583344" lon="10.703689600791575"><ele>15.0</ele><time>2026-05-01T13:58:17Z</time></trkpt><trkpt lat="43.69445474012627" lon="10.703498170295624"><ele>15.0</ele><time>2026-05-01T13:58:18Z</time></trkpt><trkpt lat="43.694469805921315" lon="10.703320414415966"><ele>15.0</ele><time>2026-05-01T13:58:19Z</time></trkpt><trkpt lat="43.69447894047192" lon="10.703153207698499"><ele>15.0</ele><time>2026-05-01T13:58:20Z</time></trkpt><trkpt lat="43.69448142093155" lon="10.702982113136342"><ele>15.0</ele><time>2026-05-01T13:58:21Z</time></trkpt><trkpt lat="43.69446361703051" lon="10.702798491534052"><ele>15.0</ele><time>2026-05-01T13:58:22Z</time></trkpt><trkpt lat="43.69441973883411" lon="10.702617157864202"><ele>15.25</ele><time>2026-05-01T13:58:23Z</time></trkpt><trkpt lat="43.69436350228647" lon="10.702458203320798"><ele>15.5</ele><time>2026-05-01T13:58:24Z</time></trkpt><trkpt lat="43.694315368219684" lon="10.702311594067368"><ele>15.75</ele><time>2026-05-01T13:58:25Z</time></trkpt><trkpt lat="43.6942737539336" lon="10.702175800936336"><ele>16.0</ele><time>2026-05-01T13:58:26Z</time></trkpt><trkpt lat="43.694230843900634" lon="10.7020430523675"><ele>16.2</ele><time>2026-05-01T13:58:27Z</time></trkpt><trkpt lat="43.69420415893148" lon="10.701906974911804"><ele>16.400000000000002</ele><time>2026-05-01T13:58:28Z</time></trkpt><trkpt lat="43.69414661846394" lon="10.701787569892552"><ele>16.6</ele><time>2026-05-01T13:58:29Z</time></trkpt><trkpt lat="43.69411711950131" lon="10.701666840612484"><ele>16.8</ele><time>2026-05-01T13:58:30Z</time></trkpt><trkpt lat="43.69402837145094" lon="10.701591856260661"><ele>17.0</ele><time>2026-05-01T13:58:31Z</time></trkpt><trkpt lat="43.69407566554637" lon="10.70144521264707"><ele>17.0</ele><time>2026-05-01T13:58:32Z</time></trkpt><trkpt lat="43.69409078084041" lon="10.701336552982811"><ele>17.0</ele><time>2026-05-01T13:58:33Z</time></trkpt><trkpt lat="43.69411225703632" lon="10.701248869106111"><ele>17.0</ele><time>2026-05-01T13:58:34Z</time></trkpt><trkpt lat="43.69405821308657" lon="10.701131894491139"><ele>17.0</ele><time>2026-05-01T13:58:36Z</time></trkpt><trkpt lat="43.69398673615033" lon="10.70109221425485"><ele>17.0</ele><time>2026-05-01T13:58:37Z</time></trkpt><trkpt lat="43.693885917952684" lon="10.701011533999688"><ele>17.0</ele><time>2026-05-01T13:58:39Z</time></trkpt><trkpt lat="43.69383023078452" lon="10.700844086179213"><ele>16.75</ele><time>2026-05-01T13:58:41Z</time></trkpt><trkpt lat="43.69378249989476" lon="10.700709906508287"><ele>16.5</ele><time>2026-05-01T13:58:42Z</time></trkpt><trkpt lat="43.69373139734535" lon="10.700544571366224"><ele>16.25</ele><time>2026-05-01T13:58:43Z</time></trkpt><trkpt lat="43.69367789910552" lon="10.700380565014052"><ele>16.0</ele><time>2026-05-01T13:58:44Z</time></trkpt><trkpt lat="43.69364519988861" lon="10.700193738293123"><ele>16.0</ele><time>2026-05-01T13:58:45Z</time></trkpt><trkpt lat="43.69358401682837" lon="10.70000628804942"><ele>16.0</ele><time>2026-05-01T13:58:46Z</time></trkpt><trkpt lat="43.69352359120196" lon="10.699807211754761"><ele>16.0</ele><time>2026-05-01T13:58:47Z</time></trkpt><trkpt lat="43.69344444238051" lon="10.6996134022457"><ele>16.0</ele><time>2026-05-01T13:58:48Z</time></trkpt><trkpt lat="43.69338135298799" lon="10.699412225229652"><ele>16.0</ele><time>2026-05-01T13:58:49Z</time></trkpt><trkpt lat="43.69331587020968" lon="10.699210540776438"><ele>16.0</ele><time>2026-05-01T13:58:50Z</time></trkpt><trkpt lat="43.69325450420466" lon="10.699007933092156"><ele>16.0</ele><time>2026-05-01T13:58:51Z</time></trkpt><trkpt lat="43.69319243076801" lon="10.698804616876126"><ele>16.0</ele><time>2026-05-01T13:58:52Z</time></trkpt><trkpt lat="43.69312794278134" lon="10.69860675050894"><ele>16.0</ele><time>2026-05-01T13:58:53Z</time></trkpt><trkpt lat="43.693068774602054" lon="10.698425169117419"><ele>15.75</ele><time>2026-05-01T13:58:54Z</time></trkpt><trkpt lat="43.69301182469091" lon="10.698244761058682"><ele>15.5</ele><time>2026-05-01T13:58:55Z</time></trkpt><trkpt lat="43.69295482093319" lon="10.698064824180342"><ele>15.25</ele><time>2026-05-01T13:58:56Z</time></trkpt><trkpt lat="43.69290007795419" lon="10.697886533705189"><ele>15.0</ele><time>2026-05-01T13:58:57Z</time></trkpt><trkpt lat="43.69284627211305" lon="10.6977198583932"><ele>15.0</ele><time>2026-05-01T13:58:58Z</time></trkpt><trkpt lat="43.69279321745593" lon="10.697557935394137"><ele>15.0</ele><time>2026-05-01T13:58:59Z</time></trkpt><trkpt lat="43.69274140907406" lon="10.697395309413967"><ele>15.0</ele><time>2026-05-01T13:59:00Z</time></trkpt><trkpt lat="43.69268747261865" lon="10.697229439305186"><ele>15.0</ele><time>2026-05-01T13:59:01Z</time></trkpt><trkpt lat="43.6926320180007" lon="10.69706109475922"><ele>14.5</ele><time>2026-05-01T13:59:02Z</time></trkpt><trkpt lat="43.692576875523685" lon="10.69689409325137"><ele>14.0</ele><time>2026-05-01T13:59:03Z</time></trkpt><trkpt lat="43.692523294803365" lon="10.696727508644159"><ele>13.5</ele><time>2026-05-01T13:59:04Z</time></trkpt><trkpt lat="43.69246987645388" lon="10.696559346252409"><ele>13.0</ele><time>2026-05-01T13:59:05Z</time></trkpt><trkpt lat="43.69241489450234" lon="10.696386175294169"><ele>13.0</ele><time>2026-05-01T13:59:06Z</time></trkpt><trkpt lat="43.69235822129271" lon="10.696208219659376"><ele>13.0</ele><time>2026-05-01T13:59:07Z</time></trkpt><trkpt lat="43.692296367193585" lon="10.696022174838767"><ele>13.0</ele><time>2026-05-01T13:59:08Z</time></trkpt><trkpt lat="43.69223282001518" lon="10.695828861217873"><ele>13.0</ele><time>2026-05-01T13:59:09Z</time></trkpt><trkpt lat="43.69216727555731" lon="10.695630555222294"><ele>13.0</ele><time>2026-05-01T13:59:10Z</time></trkpt><trkpt lat="43.69210198773037" lon="10.69542558419558"><ele>13.0</ele><time>2026-05-01T13:59:11Z</time></trkpt><trkpt lat="43.6920366651013" lon="10.69521946149189"><ele>13.0</ele><time>2026-05-01T13:59:12Z</time></trkpt><trkpt lat="43.691970557176134" lon="10.695008346948377"><ele>13.333333333333332</ele><time>2026-05-01T13:59:13Z</time></trkpt><trkpt lat="43.691902671863154" lon="10.694795084191325"><ele>13.666666666666668</ele><time>2026-05-01T13:59:14Z</time></trkpt><trkpt lat="43.6918355799748" lon="10.694582808464107"><ele>14.0</ele><time>2026-05-01T13:59:15Z</time></trkpt><trkpt lat="43.6917677877815" lon="10.694375237772926"><ele>14.333333333333334</ele><time>2026-05-01T13:59:16Z</time></trkpt><trkpt lat="43.691695341213986" lon="10.694171535209357"><ele>14.666666666666668</ele><time>2026-05-01T13:59:17Z</time></trkpt><trkpt lat="43.69162740987805" lon="10.693968988436009"><ele>15.0</ele><time>2026-05-01T13:59:18Z</time></trkpt><trkpt lat="43.691560509507354" lon="10.693761333211386"><ele>15.0</ele><time>2026-05-01T13:59:19Z</time></trkpt><trkpt lat="43.69149394352618" lon="10.693556155492507"><ele>15.0</ele><time>2026-05-01T13:59:20Z</time></trkpt><trkpt lat="43.69142957905364" lon="10.693361164456434"><ele>15.0</ele><time>2026-05-01T13:59:21Z</time></trkpt><trkpt lat="43.6913679235776" lon="10.693176429131547"><ele>15.0</ele><time>2026-05-01T13:59:22Z</time></trkpt><trkpt lat="43.69130902652531" lon="10.69299284856669"><ele>15.0</ele><time>2026-05-01T13:59:23Z</time></trkpt><trkpt lat="43.691251267359064" lon="10.692814567941545"><ele>15.0</ele><time>2026-05-01T13:59:24Z</time></trkpt><trkpt lat="43.69119031774461" lon="10.692633091418728"><ele>15.0</ele><time>2026-05-01T13:59:25Z</time></trkpt><trkpt lat="43.69112868515638" lon="10.692441915157751"><ele>14.666666666666668</ele><time>2026-05-01T13:59:26Z</time></trkpt><trkpt lat="43.691061116560185" lon="10.692241090951365"><ele>14.333333333333334</ele><time>2026-05-01T13:59:27Z</time></trkpt><trkpt lat="43.69100642530385" lon="10.692024785513823"><ele>14.0</ele><time>2026-05-01T13:59:28Z</time></trkpt><trkpt lat="43.69092496439521" lon="10.691819049541518"><ele>14.0</ele><time>2026-05-01T13:59:29Z</time></trkpt><trkpt lat="43.69085704768978" lon="10.691600448359372"><ele>14.0</ele><time>2026-05-01T13:59:30Z</time></trkpt><trkpt lat="43.6907863348966" lon="10.691377802720528"><ele>14.0</ele><time>2026-05-01T13:59:31Z</time></trkpt><trkpt lat="43.69071409369611" lon="10.691153707211273"><ele>14.333333333333334</ele><time>2026-05-01T13:59:32Z</time></trkpt><trkpt lat="43.69063999717478" lon="10.690926214004916"><ele>14.666666666666668</ele><time>2026-05-01T13:59:33Z</time></trkpt><trkpt lat="43.69056572006228" lon="10.690699059221135"><ele>15.0</ele><time>2026-05-01T13:59:34Z</time></trkpt><trkpt lat="43.69049132980731" lon="10.690470365527817"><ele>15.333333333333332</ele><time>2026-05-01T13:59:35Z</time></trkpt><trkpt lat="43.69041586327025" lon="10.690236609166352"><ele>15.666666666666666</ele><time>2026-05-01T13:59:36Z</time></trkpt><trkpt lat="43.690340059502574" lon="10.690001125343079"><ele>16.0</ele><time>2026-05-01T13:59:37Z</time></trkpt><trkpt lat="43.690263776427244" lon="10.689763896762235"><ele>15.333333333333332</ele><time>2026-05-01T13:59:38Z</time></trkpt><trkpt lat="43.690184825035836" lon="10.689523886269502"><ele>14.666666666666668</ele><time>2026-05-01T13:59:39Z</time></trkpt><trkpt lat="43.69010624472879" lon="10.689281100102372"><ele>14.0</ele><time>2026-05-01T13:59:40Z</time></trkpt><trkpt lat="43.69002463732458" lon="10.689034563067008"><ele>14.0</ele><time>2026-05-01T13:59:41Z</time></trkpt><trkpt lat="43.68994643773664" lon="10.688792234200784"><ele>14.0</ele><time>2026-05-01T13:59:42Z</time></trkpt><trkpt lat="43.689866371672935" lon="10.68854808309074"><ele>14.0</ele><time>2026-05-01T13:59:43Z</time></trkpt><trkpt lat="43.68978710055262" lon="10.688304716140305"><ele>14.333333333333334</ele><time>2026-05-01T13:59:44Z</time></trkpt><trkpt lat="43.68970838719532" lon="10.688060326202153"><ele>14.666666666666668</ele><time>2026-05-01T13:59:45Z</time></trkpt><trkpt lat="43.68962911776685" lon="10.687814601989237"><ele>15.0</ele><time>2026-05-01T13:59:46Z</time></trkpt><trkpt lat="43.68954770189788" lon="10.687567931545614"><ele>15.0</ele><time>2026-05-01T13:59:47Z</time></trkpt><trkpt lat="43.689465463046" lon="10.687325387955866"><ele>15.0</ele><time>2026-05-01T13:59:48Z</time></trkpt><trkpt lat="43.68938545270182" lon="10.687077993750876"><ele>15.0</ele><time>2026-05-01T13:59:49Z</time></trkpt><trkpt lat="43.68930544127879" lon="10.686830722563185"><ele>14.333333333333332</ele><time>2026-05-01T13:59:50Z</time></trkpt><trkpt lat="43.68923044244956" lon="10.686579456110628"><ele>13.666666666666666</ele><time>2026-05-01T13:59:51Z</time></trkpt><trkpt lat="43.6891581257996" lon="10.686326376849113"><ele>13.0</ele><time>2026-05-01T13:59:52Z</time></trkpt><trkpt lat="43.68908976510699" lon="10.686062130676216"><ele>12.666666666666666</ele><time>2026-05-01T13:59:53Z</time></trkpt><trkpt lat="43.68902559548968" lon="10.685799751869862"><ele>12.333333333333332</ele><time>2026-05-01T13:59:54Z</time></trkpt><trkpt lat="43.688962981850494" lon="10.685533170298541"><ele>12.0</ele><time>2026-05-01T13:59:55Z</time></trkpt><trkpt lat="43.688900895535674" lon="10.685263945132524"><ele>12.0</ele><time>2026-05-01T13:59:56Z</time></trkpt><trkpt lat="43.68883766804177" lon="10.684992260917165"><ele>12.0</ele><time>2026-05-01T13:59:57Z</time></trkpt><trkpt lat="43.68877401236972" lon="10.684718520881306"><ele>12.0</ele><time>2026-05-01T13:59:58Z</time></trkpt><trkpt lat="43.68870973523049" lon="10.684440239445822"><ele>12.0</ele><time>2026-05-01T13:59:59Z</time></trkpt><trkpt lat="43.68864555762571" lon="10.684159820649995"><ele>12.0</ele><time>2026-05-01T14:00:00Z</time></trkpt><trkpt lat="43.68857934070693" lon="10.68387568108281"><ele>12.0</ele><time>2026-05-01T14:00:01Z</time></trkpt><trkpt lat="43.688514040492386" lon="10.683592775669043"><ele>12.333333333333332</ele><time>2026-05-01T14:00:02Z</time></trkpt><trkpt lat="43.68845085106537" lon="10.683313780602113"><ele>12.666666666666666</ele><time>2026-05-01T14:00:03Z</time></trkpt><trkpt lat="43.68838514390032" lon="10.683030805636312"><ele>13.0</ele><time>2026-05-01T14:00:04Z</time></trkpt><trkpt lat="43.688321667764505" lon="10.68275172178382"><ele>13.0</ele><time>2026-05-01T14:00:05Z</time></trkpt><trkpt lat="43.68825714948963" lon="10.682470485707253"><ele>13.0</ele><time>2026-05-01T14:00:06Z</time></trkpt><trkpt lat="43.68819387467899" lon="10.682186680659353"><ele>13.0</ele><time>2026-05-01T14:00:07Z</time></trkpt><trkpt lat="43.688127466118885" lon="10.6818974126624"><ele>12.666666666666666</ele><time>2026-05-01T14:00:08Z</time></trkpt><trkpt lat="43.68806096918867" lon="10.681610188142754"><ele>12.333333333333332</ele><time>2026-05-01T14:00:09Z</time></trkpt><trkpt lat="43.687993789067576" lon="10.681325714756007"><ele>12.0</ele><time>2026-05-01T14:00:10Z</time></trkpt><trkpt lat="43.68792487186234" lon="10.681037859688598"><ele>12.0</ele><time>2026-05-01T14:00:11Z</time></trkpt><trkpt lat="43.6878595341248" lon="10.680752240258357"><ele>12.0</ele><time>2026-05-01T14:00:12Z</time></trkpt><trkpt lat="43.68779464213756" lon="10.680463398352583"><ele>12.0</ele><time>2026-05-01T14:00:13Z</time></trkpt><trkpt lat="43.687730584966594" lon="10.680173404883023"><ele>12.333333333333332</ele><time>2026-05-01T14:00:14Z</time></trkpt><trkpt lat="43.68766568597148" lon="10.679886172518332"><ele>12.666666666666666</ele><time>2026-05-01T14:00:15Z</time></trkpt><trkpt lat="43.687599311008675" lon="10.679600491186699"><ele>13.0</ele><time>2026-05-01T14:00:16Z</time></trkpt><trkpt lat="43.68752974507653" lon="10.679311884000969"><ele>13.333333333333332</ele><time>2026-05-01T14:00:17Z</time></trkpt><trkpt lat="43.68746141572167" lon="10.67902281808865"><ele>13.666666666666668</ele><time>2026-05-01T14:00:18Z</time></trkpt><trkpt lat="43.687394317067465" lon="10.678731936214158"><ele>14.0</ele><time>2026-05-01T14:00:19Z</time></trkpt><trkpt lat="43.68732772134347" lon="10.678439829925535"><ele>14.0</ele><time>2026-05-01T14:00:20Z</time></trkpt><trkpt lat="43.68726043529256" lon="10.678147019245847"><ele>14.0</ele><time>2026-05-01T14:00:21Z</time></trkpt><trkpt lat="43.68719252233292" lon="10.677853030546945"><ele>14.0</ele><time>2026-05-01T14:00:22Z</time></trkpt><trkpt lat="43.68712434009117" lon="10.677558672854728"><ele>14.0</ele><time>2026-05-01T14:00:23Z</time></trkpt><trkpt lat="43.687056658267245" lon="10.677263233857921"><ele>14.0</ele><time>2026-05-01T14:00:24Z</time></trkpt><trkpt lat="43.68698893216147" lon="10.676970469714933"><ele>14.0</ele><time>2026-05-01T14:00:25Z</time></trkpt><trkpt lat="43.68692125843983" lon="10.67667796458705"><ele>14.0</ele><time>2026-05-01T14:00:26Z</time></trkpt><trkpt lat="43.6868538308326" lon="10.676384905827078"><ele>14.0</ele><time>2026-05-01T14:00:27Z</time></trkpt><trkpt lat="43.68678852575543" lon="10.676090127226823"><ele>14.0</ele><time>2026-05-01T14:00:28Z</time></trkpt><trkpt lat="43.68672182502377" lon="10.67579394649203"><ele>14.333333333333334</ele><time>2026-05-01T14:00:29Z</time></trkpt><trkpt lat="43.68665382769315" lon="10.67549803996729"><ele>14.666666666666668</ele><time>2026-05-01T14:00:30Z</time></trkpt><trkpt lat="43.68658620765563" lon="10.675204256864506"><ele>15.0</ele><time>2026-05-01T14:00:31Z</time></trkpt><trkpt lat="43.68651609177612" lon="10.674910966678903"><ele>15.0</ele><time>2026-05-01T14:00:32Z</time></trkpt><trkpt lat="43.68644600418472" lon="10.674617598807497"><ele>15.0</ele><time>2026-05-01T14:00:33Z</time></trkpt><trkpt lat="43.68637738186871" lon="10.674321255619638"><ele>15.0</ele><time>2026-05-01T14:00:34Z</time></trkpt><trkpt lat="43.68630951760715" lon="10.674021615136896"><ele>15.0</ele><time>2026-05-01T14:00:35Z</time></trkpt><trkpt lat="43.6862438094176" lon="10.673725108494748"><ele>15.0</ele><time>2026-05-01T14:00:36Z</time></trkpt><trkpt lat="43.686177977139245" lon="10.673427601259649"><ele>15.0</ele><time>2026-05-01T14:00:37Z</time></trkpt><trkpt lat="43.686110985973855" lon="10.67313366522158"><ele>15.0</ele><time>2026-05-01T14:00:38Z</time></trkpt><trkpt lat="43.686044121023976" lon="10.672836923048669"><ele>15.0</ele><time>2026-05-01T14:00:39Z</time></trkpt><trkpt lat="43.68597546918893" lon="10.672541922799416"><ele>15.0</ele><time>2026-05-01T14:00:40Z</time></trkpt><trkpt lat="43.68590665067685" lon="10.672247372591068"><ele>15.0</ele><time>2026-05-01T14:00:41Z</time></trkpt><trkpt lat="43.68584011214972" lon="10.67195160198606"><ele>15.0</ele><time>2026-05-01T14:00:42Z</time></trkpt><trkpt lat="43.6857750043803" lon="10.671656176709945"><ele>15.0</ele><time>2026-05-01T14:00:43Z</time></trkpt><trkpt lat="43.68571004750845" lon="10.671362935101707"><ele>14.666666666666668</ele><time>2026-05-01T14:00:44Z</time></trkpt><trkpt lat="43.68564144190799" lon="10.671069704291584"><ele>14.333333333333334</ele><time>2026-05-01T14:00:45Z</time></trkpt><trkpt lat="43.68557099614107" lon="10.670778917612333"><ele>14.0</ele><time>2026-05-01T14:00:46Z</time></trkpt><trkpt lat="43.68550269695474" lon="10.670485998323548"><ele>14.0</ele><time>2026-05-01T14:00:47Z</time></trkpt><trkpt lat="43.68543460403697" lon="10.67019273573029"><ele>14.0</ele><time>2026-05-01T14:00:48Z</time></trkpt><trkpt lat="43.68536883499889" lon="10.669903785576082"><ele>14.0</ele><time>2026-05-01T14:00:49Z</time></trkpt><trkpt lat="43.68530031817192" lon="10.669612298228289"><ele>14.666666666666668</ele><time>2026-05-01T14:00:50Z</time></trkpt><trkpt lat="43.68523339194715" lon="10.66932174659549"><ele>15.333333333333332</ele><time>2026-05-01T14:00:51Z</time></trkpt><trkpt lat="43.68516576351917" lon="10.669028404010206"><ele>16.0</ele><time>2026-05-01T14:00:52Z</time></trkpt><trkpt lat="43.685102751134345" lon="10.66874585389194"><ele>16.0</ele><time>2026-05-01T14:00:53Z</time></trkpt><trkpt lat="43.68504269932308" lon="10.668476547483946"><ele>16.0</ele><time>2026-05-01T14:00:54Z</time></trkpt><trkpt lat="43.6849861860437" lon="10.668221729084024"><ele>16.0</ele><time>2026-05-01T14:00:55Z</time></trkpt><trkpt lat="43.68492888419431" lon="10.667982870113637"><ele>15.333333333333332</ele><time>2026-05-01T14:00:56Z</time></trkpt><trkpt lat="43.68487340994113" lon="10.667753891600555"><ele>14.666666666666668</ele><time>2026-05-01T14:00:57Z</time></trkpt><trkpt lat="43.68482132081419" lon="10.667536140212771"><ele>14.0</ele><time>2026-05-01T14:00:58Z</time></trkpt><trkpt lat="43.68477312888126" lon="10.667334459530077"><ele>14.0</ele><time>2026-05-01T14:00:59Z</time></trkpt><trkpt lat="43.68472943327816" lon="10.667139349932013"><ele>14.0</ele><time>2026-05-01T14:01:00Z</time></trkpt><trkpt lat="43.68468638364849" lon="10.666951221371122"><ele>14.0</ele><time>2026-05-01T14:01:01Z</time></trkpt><trkpt lat="43.68464670865589" lon="10.666768807896364"><ele>14.0</ele><time>2026-05-01T14:01:02Z</time></trkpt><trkpt lat="43.684607201673934" lon="10.666594326654998"><ele>14.25</ele><time>2026-05-01T14:01:03Z</time></trkpt><trkpt lat="43.68457118491831" lon="10.666428034032569"><ele>14.5</ele><time>2026-05-01T14:01:04Z</time></trkpt><trkpt lat="43.68453303976322" lon="10.666271215335886"><ele>14.75</ele><time>2026-05-01T14:01:05Z</time></trkpt><trkpt lat="43.684488440998585" lon="10.666128494554481"><ele>15.0</ele><time>2026-05-01T14:01:06Z</time></trkpt><trkpt lat="43.684460128071194" lon="10.665994679982314"><ele>15.166666666666666</ele><time>2026-05-01T14:01:07Z</time></trkpt><trkpt lat="43.68443472504338" lon="10.665867599035066"><ele>15.333333333333332</ele><time>2026-05-01T14:01:08Z</time></trkpt><trkpt lat="43.6844153959771" lon="10.665761601244283"><ele>15.5</ele><time>2026-05-01T14:01:09Z</time></trkpt><trkpt lat="43.68439235563072" lon="10.665660565737122"><ele>15.666666666666666</ele><time>2026-05-01T14:01:10Z</time></trkpt><trkpt lat="43.68438737526328" lon="10.665563764984269"><ele>15.833333333333332</ele><time>2026-05-01T14:01:11Z</time></trkpt><trkpt lat="43.68442301679526" lon="10.665473882529694"><ele>16.0</ele><time>2026-05-01T14:01:12Z</time></trkpt><trkpt lat="43.684482154638594" lon="10.665388256384977"><ele>16.0</ele><time>2026-05-01T14:01:13Z</time></trkpt><trkpt lat="43.68455765495247" lon="10.66530841918762"><ele>16.0</ele><time>2026-05-01T14:01:14Z</time></trkpt><trkpt lat="43.68463452399981" lon="10.665222217627885"><ele>16.0</ele><time>2026-05-01T14:01:15Z</time></trkpt><trkpt lat="43.68470775106219" lon="10.665131903705499"><ele>16.0</ele><time>2026-05-01T14:01:16Z</time></trkpt><trkpt lat="43.68477413660652" lon="10.665047916057672"><ele>16.0</ele><time>2026-05-01T14:01:17Z</time></trkpt><trkpt lat="43.68482239256475" lon="10.664947162751426"><ele>16.0</ele><time>2026-05-01T14:01:18Z</time></trkpt><trkpt lat="43.68484760325863" lon="10.664818184179515"><ele>16.0</ele><time>2026-05-01T14:01:19Z</time></trkpt><trkpt lat="43.68484382818123" lon="10.664663786418743"><ele>16.0</ele><time>2026-05-01T14:01:20Z</time></trkpt><trkpt lat="43.68482051684143" lon="10.664494928170186"><ele>16.0</ele><time>2026-05-01T14:01:21Z</time></trkpt><trkpt lat="43.68478641284617" lon="10.664313887785827"><ele>16.25</ele><time>2026-05-01T14:01:22Z</time></trkpt><trkpt lat="43.68476624167702" lon="10.66411711231215"><ele>16.5</ele><time>2026-05-01T14:01:23Z</time></trkpt><trkpt lat="43.684737392596965" lon="10.663917769916674"><ele>16.75</ele><time>2026-05-01T14:01:24Z</time></trkpt><trkpt lat="43.68471199251961" lon="10.663711155751834"><ele>17.0</ele><time>2026-05-01T14:01:25Z</time></trkpt><trkpt lat="43.684698249007305" lon="10.663489276181652"><ele>17.0</ele><time>2026-05-01T14:01:26Z</time></trkpt><trkpt lat="43.684682967391716" lon="10.663265920402651"><ele>17.0</ele><time>2026-05-01T14:01:27Z</time></trkpt><trkpt lat="43.68466417438185" lon="10.6630420464023"><ele>17.0</ele><time>2026-05-01T14:01:28Z</time></trkpt><trkpt lat="43.68464421392712" lon="10.662812655683135"><ele>17.333333333333336</ele><time>2026-05-01T14:01:29Z</time></trkpt><trkpt lat="43.68463041536815" lon="10.662575723575015"><ele>17.666666666666668</ele><time>2026-05-01T14:01:30Z</time></trkpt><trkpt lat="43.684612278490235" lon="10.662333087876757"><ele>18.0</ele><time>2026-05-01T14:01:31Z</time></trkpt><trkpt lat="43.6845985062131" lon="10.66208910563827"><ele>18.0</ele><time>2026-05-01T14:01:32Z</time></trkpt><trkpt lat="43.68458539454435" lon="10.661839937533514"><ele>18.0</ele><time>2026-05-01T14:01:33Z</time></trkpt><trkpt lat="43.68456777255993" lon="10.661591480171944"><ele>18.0</ele><time>2026-05-01T14:01:34Z</time></trkpt><trkpt lat="43.684551756840385" lon="10.6613338870376"><ele>17.666666666666668</ele><time>2026-05-01T14:01:35Z</time></trkpt><trkpt lat="43.684533555619375" lon="10.661073514136449"><ele>17.333333333333336</ele><time>2026-05-01T14:01:36Z</time></trkpt><trkpt lat="43.68451566594619" lon="10.660804104131117"><ele>17.0</ele><time>2026-05-01T14:01:37Z</time></trkpt><trkpt lat="43.68449889431916" lon="10.660548311235662"><ele>17.0</ele><time>2026-05-01T14:01:38Z</time></trkpt><trkpt lat="43.6844800299853" lon="10.66029373911408"><ele>17.0</ele><time>2026-05-01T14:01:39Z</time></trkpt><trkpt lat="43.6844604781449" lon="10.660037847701627"><ele>17.0</ele><time>2026-05-01T14:01:40Z</time></trkpt><trkpt lat="43.684443828885975" lon="10.659784347149875"><ele>17.0</ele><time>2026-05-01T14:01:41Z</time></trkpt><trkpt lat="43.68443032474489" lon="10.659529160438236"><ele>17.0</ele><time>2026-05-01T14:01:42Z</time></trkpt><trkpt lat="43.684417706050475" lon="10.659273383319338"><ele>17.0</ele><time>2026-05-01T14:01:43Z</time></trkpt><trkpt lat="43.684401119230145" lon="10.659031535991677"><ele>17.0</ele><time>2026-05-01T14:01:44Z</time></trkpt><trkpt lat="43.684384859582565" lon="10.658785709740581"><ele>17.0</ele><time>2026-05-01T14:01:45Z</time></trkpt><trkpt lat="43.684378657491855" lon="10.658547238377396"><ele>17.0</ele><time>2026-05-01T14:01:46Z</time></trkpt><trkpt lat="43.68437745628861" lon="10.658305373084445"><ele>17.0</ele><time>2026-05-01T14:01:47Z</time></trkpt><trkpt lat="43.684371789225565" lon="10.658077860152451"><ele>17.0</ele><time>2026-05-01T14:01:48Z</time></trkpt><trkpt lat="43.684362476565866" lon="10.657852781449163"><ele>17.0</ele><time>2026-05-01T14:01:49Z</time></trkpt><trkpt lat="43.68435789065445" lon="10.657636236293026"><ele>17.0</ele><time>2026-05-01T14:01:50Z</time></trkpt><trkpt lat="43.684360472935815" lon="10.657415092232286"><ele>17.0</ele><time>2026-05-01T14:01:51Z</time></trkpt><trkpt lat="43.684371104019284" lon="10.657184725019821"><ele>17.0</ele><time>2026-05-01T14:01:52Z</time></trkpt><trkpt lat="43.68440193273285" lon="10.656959699782636"><ele>17.333333333333336</ele><time>2026-05-01T14:01:53Z</time></trkpt><trkpt lat="43.6844477358945" lon="10.656753107985914"><ele>17.666666666666668</ele><time>2026-05-01T14:01:54Z</time></trkpt><trkpt lat="43.68450818540279" lon="10.656545626741929"><ele>18.0</ele><time>2026-05-01T14:01:55Z</time></trkpt><trkpt lat="43.6845654121541" lon="10.656345127001432"><ele>18.0</ele><time>2026-05-01T14:01:56Z</time></trkpt><trkpt lat="43.68461455791172" lon="10.65614994544967"><ele>18.0</ele><time>2026-05-01T14:01:57Z</time></trkpt><trkpt lat="43.68464184337798" lon="10.655937226799303"><ele>18.0</ele><time>2026-05-01T14:01:58Z</time></trkpt><trkpt lat="43.684645219147036" lon="10.655721354627014"><ele>19.25</ele><time>2026-05-01T14:01:59Z</time></trkpt><trkpt lat="43.68463068390878" lon="10.655509926848282"><ele>20.5</ele><time>2026-05-01T14:02:00Z</time></trkpt><trkpt lat="43.68460808503255" lon="10.655315838615968"><ele>21.75</ele><time>2026-05-01T14:02:01Z</time></trkpt><trkpt lat="43.68458646205316" lon="10.655131519268085"><ele>23.0</ele><time>2026-05-01T14:02:02Z</time></trkpt><trkpt lat="43.68457889169974" lon="10.654938752075019"><ele>25.0</ele><time>2026-05-01T14:02:03Z</time></trkpt><trkpt lat="43.68459540172962" lon="10.654740166152239"><ele>27.0</ele><time>2026-05-01T14:02:04Z</time></trkpt><trkpt lat="43.684630452288005" lon="10.654540616817942"><ele>29.0</ele><time>2026-05-01T14:02:05Z</time></trkpt><trkpt lat="43.68465911382492" lon="10.654335897258894"><ele>31.0</ele><time>2026-05-01T14:02:06Z</time></trkpt><trkpt lat="43.684674420707545" lon="10.65411972281521"><ele>33.333333333333336</ele><time>2026-05-01T14:02:07Z</time></trkpt><trkpt lat="43.6846711072416" lon="10.653896821646324"><ele>35.666666666666664</ele><time>2026-05-01T14:02:08Z</time></trkpt><trkpt lat="43.68465363197575" lon="10.653671448159047"><ele>38.0</ele><time>2026-05-01T14:02:09Z</time></trkpt><trkpt lat="43.684622984745786" lon="10.653467205377703"><ele>38.0</ele><time>2026-05-01T14:02:10Z</time></trkpt><trkpt lat="43.68457677606228" lon="10.653278927931343"><ele>38.0</ele><time>2026-05-01T14:02:11Z</time></trkpt><trkpt lat="43.684518972074095" lon="10.653096447497623"><ele>38.0</ele><time>2026-05-01T14:02:12Z</time></trkpt><trkpt lat="43.68445076706539" lon="10.652912550836277"><ele>38.0</ele><time>2026-05-01T14:02:13Z</time></trkpt><trkpt lat="43.68437120486081" lon="10.652735503911176"><ele>30.666666666666664</ele><time>2026-05-01T14:02:14Z</time></trkpt><trkpt lat="43.684286158138185" lon="10.652559499611035"><ele>23.333333333333332</ele><time>2026-05-01T14:02:15Z</time></trkpt><trkpt lat="43.6842025224955" lon="10.652382510889375"><ele>16.0</ele><time>2026-05-01T14:02:16Z</time></trkpt><trkpt lat="43.68411822147655" lon="10.65220464553201"><ele>16.0</ele><time>2026-05-01T14:02:17Z</time></trkpt><trkpt lat="43.684028760111076" lon="10.652028374827365"><ele>16.0</ele><time>2026-05-01T14:02:18Z</time></trkpt><trkpt lat="43.68393879654659" lon="10.651846628888157"><ele>16.0</ele><time>2026-05-01T14:02:19Z</time></trkpt><trkpt lat="43.68385193084685" lon="10.651659838151955"><ele>16.666666666666664</ele><time>2026-05-01T14:02:20Z</time></trkpt><trkpt lat="43.683760434470045" lon="10.651473346642247"><ele>17.333333333333332</ele><time>2026-05-01T14:02:21Z</time></trkpt><trkpt lat="43.68367180446575" lon="10.651286991978788"><ele>18.0</ele><time>2026-05-01T14:02:22Z</time></trkpt><trkpt lat="43.68358539905321" lon="10.651101044706946"><ele>18.0</ele><time>2026-05-01T14:02:23Z</time></trkpt><trkpt lat="43.68349695470106" lon="10.650911041158198"><ele>18.0</ele><time>2026-05-01T14:02:24Z</time></trkpt><trkpt lat="43.683407496485785" lon="10.650714583470704"><ele>18.0</ele><time>2026-05-01T14:02:25Z</time></trkpt><trkpt lat="43.6833170922093" lon="10.650514717674202"><ele>18.0</ele><time>2026-05-01T14:02:26Z</time></trkpt><trkpt lat="43.68322630775948" lon="10.650311233218906"><ele>18.0</ele><time>2026-05-01T14:02:27Z</time></trkpt><trkpt lat="43.68313419432603" lon="10.650110950493978"><ele>18.0</ele><time>2026-05-01T14:02:28Z</time></trkpt><trkpt lat="43.68304079358037" lon="10.649919972985625"><ele>19.0</ele><time>2026-05-01T14:02:29Z</time></trkpt><trkpt lat="43.682946192428965" lon="10.64973076418604"><ele>20.0</ele><time>2026-05-01T14:02:30Z</time></trkpt><trkpt lat="43.68285140292151" lon="10.649558845316811"><ele>21.0</ele><time>2026-05-01T14:02:31Z</time></trkpt><trkpt lat="43.682752150062335" lon="10.649402760427359"><ele>21.0</ele><time>2026-05-01T14:02:32Z</time></trkpt><trkpt lat="43.682657464962" lon="10.649256480319576"><ele>21.0</ele><time>2026-05-01T14:02:33Z</time></trkpt><trkpt lat="43.68256096568177" lon="10.649105815263441"><ele>21.0</ele><time>2026-05-01T14:02:34Z</time></trkpt><trkpt lat="43.682461118268144" lon="10.64897174065402"><ele>21.0</ele><time>2026-05-01T14:02:35Z</time></trkpt><trkpt lat="43.68236085053815" lon="10.648847524837258"><ele>21.0</ele><time>2026-05-01T14:02:36Z</time></trkpt><trkpt lat="43.682268595001375" lon="10.64872336031246"><ele>21.0</ele><time>2026-05-01T14:02:37Z</time></trkpt><trkpt lat="43.68217710634975" lon="10.648613911920341"><ele>21.0</ele><time>2026-05-01T14:02:38Z</time></trkpt><trkpt lat="43.6820887510371" lon="10.648506066768721"><ele>21.0</ele><time>2026-05-01T14:02:39Z</time></trkpt><trkpt lat="43.68200253527351" lon="10.648404825198973"><ele>20.0</ele><time>2026-05-01T14:02:40Z</time></trkpt><trkpt lat="43.68191989069455" lon="10.64830928431617"><ele>19.0</ele><time>2026-05-01T14:02:41Z</time></trkpt><trkpt lat="43.68184062115187" lon="10.648218725492177"><ele>18.0</ele><time>2026-05-01T14:02:42Z</time></trkpt><trkpt lat="43.681764090950715" lon="10.648131200332317"><ele>17.0</ele><time>2026-05-01T14:02:43Z</time></trkpt><trkpt lat="43.681693967713116" lon="10.648047352356084"><ele>16.0</ele><time>2026-05-01T14:02:44Z</time></trkpt><trkpt lat="43.681633947141265" lon="10.64795727802907"><ele>16.0</ele><time>2026-05-01T14:02:45Z</time></trkpt><trkpt lat="43.68158904478068" lon="10.64784686989961"><ele>16.0</ele><time>2026-05-01T14:02:46Z</time></trkpt><trkpt lat="43.681550034474746" lon="10.647724353661454"><ele>16.0</ele><time>2026-05-01T14:02:47Z</time></trkpt><trkpt lat="43.68152267152675" lon="10.647585052795664"><ele>16.0</ele><time>2026-05-01T14:02:48Z</time></trkpt><trkpt lat="43.68150003835325" lon="10.64743285139685"><ele>16.0</ele><time>2026-05-01T14:02:49Z</time></trkpt><trkpt lat="43.68147889011634" lon="10.647271507659212"><ele>19.0</ele><time>2026-05-01T14:02:50Z</time></trkpt><trkpt lat="43.681456284113985" lon="10.64712211655326"><ele>22.0</ele><time>2026-05-01T14:02:51Z</time></trkpt><trkpt lat="43.68143550278697" lon="10.646979682257317"><ele>25.0</ele><time>2026-05-01T14:02:52Z</time></trkpt><trkpt lat="43.68141434410064" lon="10.646836649593737"><ele>28.0</ele><time>2026-05-01T14:02:53Z</time></trkpt><trkpt lat="43.681391067459266" lon="10.646689109652616"><ele>31.0</ele><time>2026-05-01T14:02:54Z</time></trkpt><trkpt lat="43.68137161844641" lon="10.646553655544306"><ele>32.333333333333336</ele><time>2026-05-01T14:02:55Z</time></trkpt><trkpt lat="43.68135214548351" lon="10.646424009194153"><ele>33.66666666666667</ele><time>2026-05-01T14:02:56Z</time></trkpt><trkpt lat="43.68133420200529" lon="10.646305484071725"><ele>35.0</ele><time>2026-05-01T14:02:57Z</time></trkpt><trkpt lat="43.68131695885594" lon="10.646196639330563"><ele>36.333333333333336</ele><time>2026-05-01T14:02:58Z</time></trkpt><trkpt lat="43.68130195817615" lon="10.646096290719205"><ele>37.666666666666664</ele><time>2026-05-01T14:02:59Z</time></trkpt><trkpt lat="43.68129076444638" lon="10.646006172117886"><ele>39.0</ele><time>2026-05-01T14:03:00Z</time></trkpt><trkpt lat="43.68126926922426" lon="10.645856121443135"><ele>40.5</ele><time>2026-05-01T14:03:02Z</time></trkpt><trkpt lat="43.68125377808865" lon="10.64575568539279"><ele>42.0</ele><time>2026-05-01T14:03:04Z</time></trkpt><trkpt lat="43.68123364708931" lon="10.645645555737127"><ele>43.5</ele><time>2026-05-01T14:04:47.999Z</time></trkpt><trkpt lat="43.6812213087718" lon="10.645559287226408"><ele>45.0</ele><time>2026-05-01T14:04:48.999Z</time></trkpt><trkpt lat="43.68120648824339" lon="10.645455663259852"><ele>46.5</ele><time>2026-05-01T14:04:49.999Z</time></trkpt><trkpt lat="43.6811898089059" lon="10.64534220904804"><ele>48.0</ele><time>2026-05-01T14:04:50.999Z</time></trkpt><trkpt lat="43.68117211691745" lon="10.645224794425486"><ele>48.2</ele><time>2026-05-01T14:04:52.001Z</time></trkpt><trkpt lat="43.68113770384323" lon="10.645103174339049"><ele>48.4</ele><time>2026-05-01T14:04:53.001Z</time></trkpt><trkpt lat="43.68111545188765" lon="10.644965019336363"><ele>48.6</ele><time>2026-05-01T14:04:54.001Z</time></trkpt><trkpt lat="43.681090724811064" lon="10.644817537041465"><ele>48.800000000000004</ele><time>2026-05-01T14:04:55.001Z</time></trkpt><trkpt lat="43.681042311186744" lon="10.644672092883807"><ele>49.0</ele><time>2026-05-01T14:04:56.001Z</time></trkpt><trkpt lat="43.68099885867089" lon="10.644525976945225"><ele>44.0</ele><time>2026-05-01T14:04:57.001Z</time></trkpt><trkpt lat="43.68094652634448" lon="10.644378691858101"><ele>39.0</ele><time>2026-05-01T14:04:58.001Z</time></trkpt><trkpt lat="43.68087994063503" lon="10.644226083589421"><ele>34.0</ele><time>2026-05-01T14:04:59.001Z</time></trkpt><trkpt lat="43.68080967343866" lon="10.644069374665326"><ele>29.0</ele><time>2026-05-01T14:05:00.001Z</time></trkpt><trkpt lat="43.68074053307385" lon="10.643902298542667"><ele>29.0</ele><time>2026-05-01T14:05:01.001Z</time></trkpt><trkpt lat="43.68066824344425" lon="10.643727436365051"><ele>29.0</ele><time>2026-05-01T14:05:02.001Z</time></trkpt><trkpt lat="43.68059209635823" lon="10.643545657182633"><ele>29.0</ele><time>2026-05-01T14:05:03.001Z</time></trkpt><trkpt lat="43.680506477623624" lon="10.643371805046499"><ele>30.333333333333332</ele><time>2026-05-01T14:05:04.001Z</time></trkpt><trkpt lat="43.680392419235744" lon="10.643209650943671"><ele>31.666666666666664</ele><time>2026-05-01T14:05:05.001Z</time></trkpt><trkpt lat="43.68027918930671" lon="10.643043232339787"><ele>33.0</ele><time>2026-05-01T14:05:06.001Z</time></trkpt><trkpt lat="43.680165018309566" lon="10.64288000353986"><ele>33.666666666666664</ele><time>2026-05-01T14:05:07.001Z</time></trkpt><trkpt lat="43.680058227399584" lon="10.642706213240041"><ele>34.33333333333333</ele><time>2026-05-01T14:05:08.001Z</time></trkpt><trkpt lat="43.67994867799916" lon="10.642533856247178"><ele>35.0</ele><time>2026-05-01T14:05:09.001Z</time></trkpt><trkpt lat="43.679843083895165" lon="10.642352390815251"><ele>35.0</ele><time>2026-05-01T14:05:10Z</time></trkpt><trkpt lat="43.67973492704864" lon="10.642168410869285"><ele>35.0</ele><time>2026-05-01T14:05:11Z</time></trkpt><trkpt lat="43.67962282829108" lon="10.641985708376161"><ele>35.0</ele><time>2026-05-01T14:05:12Z</time></trkpt><trkpt lat="43.67950415055378" lon="10.641798331989653"><ele>32.0</ele><time>2026-05-01T14:05:13Z</time></trkpt><trkpt lat="43.67939823858085" lon="10.641619119293493"><ele>29.0</ele><time>2026-05-01T14:05:14Z</time></trkpt><trkpt lat="43.67929574681223" lon="10.641459584121739"><ele>26.0</ele><time>2026-05-01T14:05:15Z</time></trkpt><trkpt lat="43.67919739178341" lon="10.641298154169375"><ele>29.666666666666664</ele><time>2026-05-01T14:05:16Z</time></trkpt><trkpt lat="43.67909648475848" lon="10.64113208260514"><ele>33.333333333333336</ele><time>2026-05-01T14:05:17Z</time></trkpt><trkpt lat="43.67899441092465" lon="10.640967640268531"><ele>37.0</ele><time>2026-05-01T14:05:18Z</time></trkpt><trkpt lat="43.67890272426117" lon="10.640817911509062"><ele>37.0</ele><time>2026-05-01T14:05:19Z</time></trkpt><trkpt lat="43.67881660352225" lon="10.640682507426085"><ele>37.0</ele><time>2026-05-01T14:05:20Z</time></trkpt><trkpt lat="43.678742256099326" lon="10.640549358556347"><ele>37.0</ele><time>2026-05-01T14:05:21Z</time></trkpt><trkpt lat="43.678673796274495" lon="10.640424646056456"><ele>37.0</ele><time>2026-05-01T14:05:22Z</time></trkpt><trkpt lat="43.67862387980395" lon="10.640291694613612"><ele>38.0</ele><time>2026-05-01T14:05:23Z</time></trkpt><trkpt lat="43.67859894233548" lon="10.640151609560684"><ele>39.0</ele><time>2026-05-01T14:05:24Z</time></trkpt><trkpt lat="43.67859759029445" lon="10.640018168453032"><ele>40.0</ele><time>2026-05-01T14:05:25Z</time></trkpt><trkpt lat="43.678619237497315" lon="10.63989425574127"><ele>41.0</ele><time>2026-05-01T14:05:26Z</time></trkpt><trkpt lat="43.678659446580454" lon="10.639754116986895"><ele>42.0</ele><time>2026-05-01T14:05:27Z</time></trkpt><trkpt lat="43.67870561860705" lon="10.639598789790448"><ele>40.25</ele><time>2026-05-01T14:05:28Z</time></trkpt><trkpt lat="43.67875789668596" lon="10.639424364637012"><ele>38.5</ele><time>2026-05-01T14:05:29Z</time></trkpt><trkpt lat="43.678810080325945" lon="10.63924232129772"><ele>36.75</ele><time>2026-05-01T14:05:30Z</time></trkpt><trkpt lat="43.67886551633356" lon="10.639061599129947"><ele>35.0</ele><time>2026-05-01T14:05:31Z</time></trkpt><trkpt lat="43.67892367307572" lon="10.638869528855885"><ele>35.0</ele><time>2026-05-01T14:05:32Z</time></trkpt><trkpt lat="43.678984346332044" lon="10.638674703730112"><ele>35.0</ele><time>2026-05-01T14:05:33Z</time></trkpt><trkpt lat="43.67903919368674" lon="10.63849422372165"><ele>35.0</ele><time>2026-05-01T14:05:34Z</time></trkpt><trkpt lat="43.67908421496183" lon="10.638320112518556"><ele>35.0</ele><time>2026-05-01T14:05:35Z</time></trkpt><trkpt lat="43.67914288844626" lon="10.638144295242805"><ele>33.0</ele><time>2026-05-01T14:05:36Z</time></trkpt><trkpt lat="43.67919874864212" lon="10.637960470709293"><ele>31.0</ele><time>2026-05-01T14:05:37Z</time></trkpt><trkpt lat="43.6792543055646" lon="10.637787700679526"><ele>29.0</ele><time>2026-05-01T14:05:38Z</time></trkpt><trkpt lat="43.67929887925199" lon="10.637627077498166"><ele>27.0</ele><time>2026-05-01T14:05:39Z</time></trkpt><trkpt lat="43.67934642806481" lon="10.637470567661785"><ele>26.75</ele><time>2026-05-01T14:05:40Z</time></trkpt><trkpt lat="43.67938695549665" lon="10.637321673105408"><ele>26.5</ele><time>2026-05-01T14:05:41Z</time></trkpt><trkpt lat="43.679419218554074" lon="10.637155296708295"><ele>26.25</ele><time>2026-05-01T14:05:42Z</time></trkpt><trkpt lat="43.679429502727345" lon="10.636974497960438"><ele>26.0</ele><time>2026-05-01T14:05:43Z</time></trkpt><trkpt lat="43.67942670345852" lon="10.636781965055297"><ele>25.333333333333332</ele><time>2026-05-01T14:05:44Z</time></trkpt><trkpt lat="43.67941152289772" lon="10.636580151829596"><ele>24.666666666666664</ele><time>2026-05-01T14:05:45Z</time></trkpt><trkpt lat="43.679396843852246" lon="10.636376829950647"><ele>24.0</ele><time>2026-05-01T14:05:46Z</time></trkpt><trkpt lat="43.67938437608054" lon="10.636160999930754"><ele>23.0</ele><time>2026-05-01T14:05:47Z</time></trkpt><trkpt lat="43.679370306454196" lon="10.635938261290645"><ele>22.0</ele><time>2026-05-01T14:05:48Z</time></trkpt><trkpt lat="43.67935695369875" lon="10.635722069377726"><ele>21.0</ele><time>2026-05-01T14:05:49Z</time></trkpt><trkpt lat="43.67934540660294" lon="10.63552491208652"><ele>21.0</ele><time>2026-05-01T14:05:50Z</time></trkpt><trkpt lat="43.679328905538654" lon="10.635316049427146"><ele>21.0</ele><time>2026-05-01T14:05:51Z</time></trkpt><trkpt lat="43.67931211291064" lon="10.635104306993503"><ele>21.0</ele><time>2026-05-01T14:05:52Z</time></trkpt><trkpt lat="43.679294523203204" lon="10.634905924618309"><ele>20.25</ele><time>2026-05-01T14:05:53Z</time></trkpt><trkpt lat="43.679277334611264" lon="10.634708130157168"><ele>19.5</ele><time>2026-05-01T14:05:54Z</time></trkpt><trkpt lat="43.679263245032175" lon="10.634506441412949"><ele>18.75</ele><time>2026-05-01T14:05:55Z</time></trkpt><trkpt lat="43.67925071121232" lon="10.63430738112131"><ele>18.0</ele><time>2026-05-01T14:05:56Z</time></trkpt><trkpt lat="43.679239230884164" lon="10.634124245698567"><ele>17.75</ele><time>2026-05-01T14:05:57Z</time></trkpt><trkpt lat="43.679230791791504" lon="10.633949280578918"><ele>17.5</ele><time>2026-05-01T14:05:58Z</time></trkpt><trkpt lat="43.679221449194344" lon="10.633785811484856"><ele>17.25</ele><time>2026-05-01T14:05:59Z</time></trkpt><trkpt lat="43.6792170003954" lon="10.633632277255053"><ele>17.0</ele><time>2026-05-01T14:06:00Z</time></trkpt><trkpt lat="43.679215214138026" lon="10.633484593454966"><ele>16.8</ele><time>2026-05-01T14:06:01Z</time></trkpt><trkpt lat="43.679216527181666" lon="10.633349253275716"><ele>16.6</ele><time>2026-05-01T14:06:02Z</time></trkpt><trkpt lat="43.679220877839754" lon="10.633237289738638"><ele>16.400000000000002</ele><time>2026-05-01T14:06:03Z</time></trkpt><trkpt lat="43.67922306748337" lon="10.633144794869576"><ele>16.2</ele><time>2026-05-01T14:06:04Z</time></trkpt><trkpt lat="43.67923625649858" lon="10.633001019836133"><ele>16.0</ele><time>2026-05-01T14:06:06Z</time></trkpt><trkpt lat="43.679289755710165" lon="10.632852629625978"><ele>15.833333333333332</ele><time>2026-05-01T14:06:08Z</time></trkpt><trkpt lat="43.679328438664065" lon="10.632768386371648"><ele>15.666666666666666</ele><time>2026-05-01T14:06:09Z</time></trkpt><trkpt lat="43.67936799332747" lon="10.632675467560563"><ele>15.5</ele><time>2026-05-01T14:06:10Z</time></trkpt><trkpt lat="43.679401677404805" lon="10.63256890518704"><ele>15.333333333333332</ele><time>2026-05-01T14:06:11Z</time></trkpt><trkpt lat="43.67943405120038" lon="10.632452927810627"><ele>15.166666666666666</ele><time>2026-05-01T14:06:12Z</time></trkpt><trkpt lat="43.67948104175855" lon="10.632335477024991"><ele>15.0</ele><time>2026-05-01T14:06:13Z</time></trkpt><trkpt lat="43.67954314238629" lon="10.632211343990837"><ele>15.75</ele><time>2026-05-01T14:06:14Z</time></trkpt><trkpt lat="43.67961838923435" lon="10.632073629610572"><ele>16.5</ele><time>2026-05-01T14:06:15Z</time></trkpt><trkpt lat="43.67970109119208" lon="10.631921728171204"><ele>17.25</ele><time>2026-05-01T14:06:16Z</time></trkpt><trkpt lat="43.67979124577285" lon="10.63175659637986"><ele>18.0</ele><time>2026-05-01T14:06:17Z</time></trkpt><trkpt lat="43.67988498371922" lon="10.631586189545274"><ele>15.666666666666666</ele><time>2026-05-01T14:06:18Z</time></trkpt><trkpt lat="43.67998239452675" lon="10.63140834682748"><ele>13.333333333333332</ele><time>2026-05-01T14:06:19Z</time></trkpt><trkpt lat="43.68008001246714" lon="10.631228359474687"><ele>11.0</ele><time>2026-05-01T14:06:20Z</time></trkpt><trkpt lat="43.68018088570671" lon="10.631045125560943"><ele>12.666666666666666</ele><time>2026-05-01T14:06:21Z</time></trkpt><trkpt lat="43.68028477451321" lon="10.630854639238036"><ele>14.333333333333332</ele><time>2026-05-01T14:06:22Z</time></trkpt><trkpt lat="43.68038634346997" lon="10.630663399306114"><ele>16.0</ele><time>2026-05-01T14:06:23Z</time></trkpt><trkpt lat="43.68048961370584" lon="10.630472975325445"><ele>16.333333333333332</ele><time>2026-05-01T14:06:24Z</time></trkpt><trkpt lat="43.68059419429056" lon="10.630279907851044"><ele>16.666666666666668</ele><time>2026-05-01T14:06:25Z</time></trkpt><trkpt lat="43.680698756409384" lon="10.630084311462861"><ele>17.0</ele><time>2026-05-01T14:06:26Z</time></trkpt><trkpt lat="43.68080214830765" lon="10.629888441721157"><ele>17.0</ele><time>2026-05-01T14:06:27Z</time></trkpt><trkpt lat="43.68091105450939" lon="10.629689850286791"><ele>17.0</ele><time>2026-05-01T14:06:28Z</time></trkpt><trkpt lat="43.68101988489455" lon="10.629488769808784"><ele>17.0</ele><time>2026-05-01T14:06:29Z</time></trkpt><trkpt lat="43.68113212519645" lon="10.629285188126783"><ele>16.333333333333336</ele><time>2026-05-01T14:06:30Z</time></trkpt><trkpt lat="43.68124373888237" lon="10.629075489256165"><ele>15.666666666666668</ele><time>2026-05-01T14:06:31Z</time></trkpt><trkpt lat="43.68135464341022" lon="10.628865363336194"><ele>15.0</ele><time>2026-05-01T14:06:32Z</time></trkpt><trkpt lat="43.681466538766806" lon="10.628656148545755"><ele>16.0</ele><time>2026-05-01T14:06:33Z</time></trkpt><trkpt lat="43.681575687139066" lon="10.628452820897586"><ele>17.0</ele><time>2026-05-01T14:06:34Z</time></trkpt><trkpt lat="43.68167412530254" lon="10.62826418738923"><ele>18.0</ele><time>2026-05-01T14:06:35Z</time></trkpt><trkpt lat="43.68177551547955" lon="10.628071416132917"><ele>18.0</ele><time>2026-05-01T14:06:36Z</time></trkpt><trkpt lat="43.68187780792167" lon="10.627887117568143"><ele>18.0</ele><time>2026-05-01T14:06:37Z</time></trkpt><trkpt lat="43.68197265455204" lon="10.627717334699287"><ele>18.0</ele><time>2026-05-01T14:06:38Z</time></trkpt><trkpt lat="43.68206469869996" lon="10.627546599160038"><ele>21.0</ele><time>2026-05-01T14:06:39Z</time></trkpt><trkpt lat="43.68215766508222" lon="10.627378407028905"><ele>24.0</ele><time>2026-05-01T14:06:40Z</time></trkpt><trkpt lat="43.68224512595383" lon="10.627220922381976"><ele>27.0</ele><time>2026-05-01T14:06:41Z</time></trkpt><trkpt lat="43.682329020554285" lon="10.62706766376308"><ele>30.0</ele><time>2026-05-01T14:06:42Z</time></trkpt><trkpt lat="43.68240658455419" lon="10.626920634590807"><ele>30.0</ele><time>2026-05-01T14:06:43Z</time></trkpt><trkpt lat="43.682476500908095" lon="10.626788358922834"><ele>30.0</ele><time>2026-05-01T14:06:44Z</time></trkpt><trkpt lat="43.68254334593909" lon="10.62666108667541"><ele>30.0</ele><time>2026-05-01T14:06:45Z</time></trkpt><trkpt lat="43.68261501564404" lon="10.626534462943916"><ele>30.0</ele><time>2026-05-01T14:06:46Z</time></trkpt><trkpt lat="43.68268299126322" lon="10.626406820389178"><ele>30.0</ele><time>2026-05-01T14:06:47Z</time></trkpt><trkpt lat="43.68275318020031" lon="10.626280742432714"><ele>30.0</ele><time>2026-05-01T14:06:48Z</time></trkpt><trkpt lat="43.68282255409279" lon="10.62615297148278"><ele>30.0</ele><time>2026-05-01T14:06:49Z</time></trkpt><trkpt lat="43.68289450983648" lon="10.626024444442013"><ele>30.0</ele><time>2026-05-01T14:06:50Z</time></trkpt><trkpt lat="43.68296179949302" lon="10.625908024788004"><ele>30.0</ele><time>2026-05-01T14:06:51Z</time></trkpt><trkpt lat="43.68302789861413" lon="10.625798515747748"><ele>30.0</ele><time>2026-05-01T14:06:52Z</time></trkpt><trkpt lat="43.68309358559405" lon="10.625699786195105"><ele>30.0</ele><time>2026-05-01T14:06:53Z</time></trkpt><trkpt lat="43.68315289509498" lon="10.62561600490924"><ele>30.0</ele><time>2026-05-01T14:06:54Z</time></trkpt><trkpt lat="43.68321475708775" lon="10.625537644348178"><ele>30.0</ele><time>2026-05-01T14:06:55Z</time></trkpt><trkpt lat="43.68327530631149" lon="10.625470937012421"><ele>30.0</ele><time>2026-05-01T14:06:56Z</time></trkpt><trkpt lat="43.68333196178666" lon="10.625420453374224"><ele>30.0</ele><time>2026-05-01T14:06:57Z</time></trkpt><trkpt lat="43.68341528049402" lon="10.625354570020171"><ele>30.0</ele><time>2026-05-01T14:06:59Z</time></trkpt><trkpt lat="43.6834959768845" lon="10.625306234628233"><ele>30.0</ele><time>2026-05-01T14:07:01Z</time></trkpt><trkpt lat="43.68360065267273" lon="10.62528029550186"><ele>30.0</ele><time>2026-05-01T14:07:03Z</time></trkpt><trkpt lat="43.683698953726115" lon="10.625232400159234"><ele>30.0</ele><time>2026-05-01T14:07:05Z</time></trkpt><trkpt lat="43.683750694818144" lon="10.625168008101724"><ele>28.166666666666668</ele><time>2026-05-01T14:07:06Z</time></trkpt><trkpt lat="43.683787439737735" lon="10.625075469512499"><ele>26.333333333333332</ele><time>2026-05-01T14:07:07Z</time></trkpt><trkpt lat="43.68380374644521" lon="10.62498165133567"><ele>24.5</ele><time>2026-05-01T14:07:08Z</time></trkpt><trkpt lat="43.683801495475315" lon="10.624877403722275"><ele>22.666666666666664</ele><time>2026-05-01T14:07:09Z</time></trkpt><trkpt lat="43.68378174811099" lon="10.62476538738577"><ele>20.833333333333332</ele><time>2026-05-01T14:07:10Z</time></trkpt><trkpt lat="43.68375419740265" lon="10.624647942754603"><ele>19.0</ele><time>2026-05-01T14:07:11Z</time></trkpt><trkpt lat="43.6837396616351" lon="10.62452325748397"><ele>18.0</ele><time>2026-05-01T14:07:12Z</time></trkpt><trkpt lat="43.68374253506823" lon="10.624393936522392"><ele>17.0</ele><time>2026-05-01T14:07:13Z</time></trkpt><trkpt lat="43.683763668575565" lon="10.62424848002623"><ele>16.0</ele><time>2026-05-01T14:07:14Z</time></trkpt><trkpt lat="43.68379838249571" lon="10.624083048278303"><ele>15.0</ele><time>2026-05-01T14:07:15Z</time></trkpt><trkpt lat="43.68384127287669" lon="10.6239036961132"><ele>15.0</ele><time>2026-05-01T14:07:16Z</time></trkpt><trkpt lat="43.68388408889035" lon="10.623720125762569"><ele>15.0</ele><time>2026-05-01T14:07:17Z</time></trkpt><trkpt lat="43.68393002639802" lon="10.623516857362475"><ele>15.0</ele><time>2026-05-01T14:07:18Z</time></trkpt><trkpt lat="43.68398643198448" lon="10.623311755962375"><ele>14.666666666666668</ele><time>2026-05-01T14:07:19Z</time></trkpt><trkpt lat="43.68404986226249" lon="10.623119286201891"><ele>14.333333333333334</ele><time>2026-05-01T14:07:20Z</time></trkpt><trkpt lat="43.68411735102219" lon="10.622932066811158"><ele>14.0</ele><time>2026-05-01T14:07:21Z</time></trkpt><trkpt lat="43.684188885961355" lon="10.622738737535734"><ele>13.333333333333334</ele><time>2026-05-01T14:07:22Z</time></trkpt><trkpt lat="43.6842587233367" lon="10.622539425456925"><ele>12.666666666666668</ele><time>2026-05-01T14:07:23Z</time></trkpt><trkpt lat="43.684329547943825" lon="10.622338164591545"><ele>12.0</ele><time>2026-05-01T14:07:24Z</time></trkpt><trkpt lat="43.684405128487256" lon="10.622127553872813"><ele>12.666666666666668</ele><time>2026-05-01T14:07:25Z</time></trkpt><trkpt lat="43.684483367810806" lon="10.621909091322088"><ele>13.333333333333334</ele><time>2026-05-01T14:07:26Z</time></trkpt><trkpt lat="43.68456386525536" lon="10.621682961586115"><ele>14.0</ele><time>2026-05-01T14:07:27Z</time></trkpt><trkpt lat="43.68464419187504" lon="10.621450894661166"><ele>14.0</ele><time>2026-05-01T14:07:28Z</time></trkpt><trkpt lat="43.68472449877886" lon="10.621220943091277"><ele>14.0</ele><time>2026-05-01T14:07:29Z</time></trkpt><trkpt lat="43.684807536535544" lon="10.62099698699863"><ele>14.0</ele><time>2026-05-01T14:07:30Z</time></trkpt><trkpt lat="43.68489261710159" lon="10.620770842444545"><ele>14.0</ele><time>2026-05-01T14:07:31Z</time></trkpt><trkpt lat="43.684979806015384" lon="10.620546334682565"><ele>14.0</ele><time>2026-05-01T14:07:32Z</time></trkpt><trkpt lat="43.68506685606944" lon="10.62032713877757"><ele>14.0</ele><time>2026-05-01T14:07:33Z</time></trkpt><trkpt lat="43.68515024093858" lon="10.62011309818196"><ele>14.0</ele><time>2026-05-01T14:07:34Z</time></trkpt><trkpt lat="43.68521975649905" lon="10.619932370279063"><ele>13.999999999999998</ele><time>2026-05-01T14:07:35Z</time></trkpt><trkpt lat="43.6852676077745" lon="10.61980790199068"><ele>13.999999999999998</ele><time>2026-05-01T14:07:36Z</time></trkpt><trkpt lat="43.685314151630486" lon="10.619694866336172"><ele>14.0</ele><time>2026-05-01T14:07:38Z</time></trkpt><trkpt lat="43.68536219139461" lon="10.619609738880314"><ele>14.0</ele><time>2026-05-01T14:08:12Z</time></trkpt><trkpt lat="43.68540107068355" lon="10.619510115475599"><ele>14.0</ele><time>2026-05-01T14:08:13Z</time></trkpt><trkpt lat="43.68544875282559" lon="10.619390473393926"><ele>14.0</ele><time>2026-05-01T14:08:14Z</time></trkpt><trkpt lat="43.685495158617364" lon="10.619262151803174"><ele>14.0</ele><time>2026-05-01T14:08:15Z</time></trkpt><trkpt lat="43.68555180299013" lon="10.61911363504474"><ele>14.0</ele><time>2026-05-01T14:08:16Z</time></trkpt><trkpt lat="43.68561154675139" lon="10.618952336569995"><ele>14.0</ele><time>2026-05-01T14:08:17Z</time></trkpt><trkpt lat="43.685671787104226" lon="10.618784558539641"><ele>14.0</ele><time>2026-05-01T14:08:18Z</time></trkpt><trkpt lat="43.6857354889561" lon="10.618604075578713"><ele>14.0</ele><time>2026-05-01T14:08:19Z</time></trkpt><trkpt lat="43.68580520989022" lon="10.618414112678733"><ele>14.0</ele><time>2026-05-01T14:08:20Z</time></trkpt><trkpt lat="43.685877465508334" lon="10.618212628144995"><ele>13.333333333333334</ele><time>2026-05-01T14:08:21Z</time></trkpt><trkpt lat="43.685951734955786" lon="10.618012936723328"><ele>12.666666666666668</ele><time>2026-05-01T14:08:22Z</time></trkpt><trkpt lat="43.686027909334086" lon="10.617805412827453"><ele>12.0</ele><time>2026-05-01T14:08:23Z</time></trkpt><trkpt lat="43.68610654653568" lon="10.617588993002816"><ele>11.666666666666666</ele><time>2026-05-01T14:08:24Z</time></trkpt><trkpt lat="43.68618583366728" lon="10.617361092619651"><ele>11.333333333333332</ele><time>2026-05-01T14:08:25Z</time></trkpt><trkpt lat="43.68626199819906" lon="10.61712455432561"><ele>11.0</ele><time>2026-05-01T14:08:26Z</time></trkpt><trkpt lat="43.686331867781995" lon="10.616887708948047"><ele>11.0</ele><time>2026-05-01T14:08:27Z</time></trkpt><trkpt lat="43.686399346622416" lon="10.616637568299431"><ele>11.0</ele><time>2026-05-01T14:08:28Z</time></trkpt><trkpt lat="43.68646265059999" lon="10.616379050994334"><ele>11.0</ele><time>2026-05-01T14:08:29Z</time></trkpt><trkpt lat="43.68652306101624" lon="10.61611204621599"><ele>11.333333333333332</ele><time>2026-05-01T14:08:30Z</time></trkpt><trkpt lat="43.68657907123144" lon="10.615838248432865"><ele>11.666666666666666</ele><time>2026-05-01T14:08:31Z</time></trkpt><trkpt lat="43.68662976072532" lon="10.615559094003064"><ele>12.0</ele><time>2026-05-01T14:08:32Z</time></trkpt><trkpt lat="43.686672636949666" lon="10.615274561050864"><ele>12.333333333333332</ele><time>2026-05-01T14:08:33Z</time></trkpt><trkpt lat="43.686708669056024" lon="10.61498058819563"><ele>12.666666666666666</ele><time>2026-05-01T14:08:34Z</time></trkpt><trkpt lat="43.68674174257205" lon="10.614683341202275"><ele>13.0</ele><time>2026-05-01T14:08:35Z</time></trkpt><trkpt lat="43.68676777733472" lon="10.61438191086281"><ele>12.0</ele><time>2026-05-01T14:08:36Z</time></trkpt><trkpt lat="43.68678385811405" lon="10.614082164598793"><ele>11.0</ele><time>2026-05-01T14:08:37Z</time></trkpt><trkpt lat="43.68679295317362" lon="10.613778869821717"><ele>10.0</ele><time>2026-05-01T14:08:38Z</time></trkpt><trkpt lat="43.68679603207412" lon="10.613475130196624"><ele>10.0</ele><time>2026-05-01T14:08:39Z</time></trkpt><trkpt lat="43.686792683984024" lon="10.613170693519137"><ele>10.0</ele><time>2026-05-01T14:08:40Z</time></trkpt><trkpt lat="43.68677965720612" lon="10.612864263433119"><ele>10.0</ele><time>2026-05-01T14:08:41Z</time></trkpt><trkpt lat="43.68675683556773" lon="10.61255762591354"><ele>10.0</ele><time>2026-05-01T14:08:42Z</time></trkpt><trkpt lat="43.686730609573964" lon="10.61225412422624"><ele>10.0</ele><time>2026-05-01T14:08:43Z</time></trkpt><trkpt lat="43.686697340985745" lon="10.611946915261857"><ele>10.0</ele><time>2026-05-01T14:08:44Z</time></trkpt><trkpt lat="43.68665709131008" lon="10.611642071538357"><ele>10.0</ele><time>2026-05-01T14:08:45Z</time></trkpt><trkpt lat="43.68661366074106" lon="10.611337959445356"><ele>10.0</ele><time>2026-05-01T14:08:46Z</time></trkpt><trkpt lat="43.6865703632527" lon="10.611044612143301"><ele>10.0</ele><time>2026-05-01T14:08:47Z</time></trkpt><trkpt lat="43.68652428904131" lon="10.61075660608402"><ele>10.0</ele><time>2026-05-01T14:08:47.999Z</time></trkpt><trkpt lat="43.686481210925514" lon="10.610476038909413"><ele>10.0</ele><time>2026-05-01T14:08:48.999Z</time></trkpt><trkpt lat="43.68643862174479" lon="10.610208982032965"><ele>10.0</ele><time>2026-05-01T14:08:49.999Z</time></trkpt><trkpt lat="43.686398200571766" lon="10.609959045019442"><ele>10.0</ele><time>2026-05-01T14:08:50.999Z</time></trkpt><trkpt lat="43.68636160017668" lon="10.60973365907209"><ele>10.0</ele><time>2026-05-01T14:08:51.999Z</time></trkpt><trkpt lat="43.686325908727" lon="10.609527436805525"><ele>10.0</ele><time>2026-05-01T14:08:52.999Z</time></trkpt><trkpt lat="43.686295970424005" lon="10.609345107942005"><ele>10.0</ele><time>2026-05-01T14:08:53.999Z</time></trkpt><trkpt lat="43.68626870155243" lon="10.609180518872394"><ele>10.0</ele><time>2026-05-01T14:08:54.999Z</time></trkpt><trkpt lat="43.68624602923307" lon="10.609037469498134"><ele>10.0</ele><time>2026-05-01T14:08:55.999Z</time></trkpt><trkpt lat="43.686226597757184" lon="10.608913125069433"><ele>10.0</ele><time>2026-05-01T14:08:56.999Z</time></trkpt><trkpt lat="43.68620945590075" lon="10.608801579866412"><ele>10.0</ele><time>2026-05-01T14:08:57.999Z</time></trkpt><trkpt lat="43.6861932402186" lon="10.608710749083425"><ele>10.4</ele><time>2026-05-01T14:08:58.999Z</time></trkpt><trkpt lat="43.68617420348531" lon="10.608599945341904"><ele>10.8</ele><time>2026-05-01T14:09:00.999Z</time></trkpt><trkpt lat="43.68617112885542" lon="10.608459591765396"><ele>11.2</ele><time>2026-05-01T14:09:19Z</time></trkpt><trkpt lat="43.68615583760917" lon="10.608363635869111"><ele>11.6</ele><time>2026-05-01T14:09:20Z</time></trkpt><trkpt lat="43.686131999993655" lon="10.608242948717624"><ele>12.0</ele><time>2026-05-01T14:09:21Z</time></trkpt><trkpt lat="43.686108736273034" lon="10.60810140449069"><ele>11.75</ele><time>2026-05-01T14:09:22Z</time></trkpt><trkpt lat="43.686085131399985" lon="10.607951295610322"><ele>11.5</ele><time>2026-05-01T14:09:23Z</time></trkpt><trkpt lat="43.686057053216075" lon="10.607783148891874"><ele>11.25</ele><time>2026-05-01T14:09:24Z</time></trkpt><trkpt lat="43.68602756801456" lon="10.607600326193946"><ele>11.0</ele><time>2026-05-01T14:09:25Z</time></trkpt><trkpt lat="43.68599903825217" lon="10.607411062773195"><ele>11.0</ele><time>2026-05-01T14:09:26Z</time></trkpt><trkpt lat="43.685966740696834" lon="10.607218218757438"><ele>11.0</ele><time>2026-05-01T14:09:27Z</time></trkpt><trkpt lat="43.68593528290333" lon="10.607014928635957"><ele>11.0</ele><time>2026-05-01T14:09:28Z</time></trkpt><trkpt lat="43.685903199186484" lon="10.606801295185582"><ele>11.333333333333332</ele><time>2026-05-01T14:09:29Z</time></trkpt><trkpt lat="43.685869428417746" lon="10.606582293800786"><ele>11.666666666666666</ele><time>2026-05-01T14:09:30Z</time></trkpt><trkpt lat="43.68583221215685" lon="10.606357720201448"><ele>12.0</ele><time>2026-05-01T14:09:31Z</time></trkpt><trkpt lat="43.685792376046685" lon="10.606126733377906"><ele>12.666666666666668</ele><time>2026-05-01T14:09:32Z</time></trkpt><trkpt lat="43.68575436897281" lon="10.605891705622703"><ele>13.333333333333334</ele><time>2026-05-01T14:09:33Z</time></trkpt><trkpt lat="43.685714274699734" lon="10.60565096895971"><ele>14.0</ele><time>2026-05-01T14:09:34Z</time></trkpt><trkpt lat="43.68567248120136" lon="10.605404949342423"><ele>13.333333333333334</ele><time>2026-05-01T14:09:35Z</time></trkpt><trkpt lat="43.685630436740915" lon="10.605151338077384"><ele>12.666666666666668</ele><time>2026-05-01T14:09:36Z</time></trkpt><trkpt lat="43.68558821747684" lon="10.604891959232718"><ele>12.0</ele><time>2026-05-01T14:09:37Z</time></trkpt><trkpt lat="43.6855480243725" lon="10.604642049503115"><ele>11.666666666666666</ele><time>2026-05-01T14:09:38Z</time></trkpt><trkpt lat="43.68550787960026" lon="10.604390164322876"><ele>11.333333333333332</ele><time>2026-05-01T14:09:39Z</time></trkpt><trkpt lat="43.68546703575085" lon="10.604132552960582"><ele>11.0</ele><time>2026-05-01T14:09:40Z</time></trkpt><trkpt lat="43.68542468296095" lon="10.603876243504054"><ele>11.0</ele><time>2026-05-01T14:09:41Z</time></trkpt><trkpt lat="43.68538743570142" lon="10.60361638709112"><ele>11.0</ele><time>2026-05-01T14:09:42Z</time></trkpt><trkpt lat="43.68534734019825" lon="10.603353043588003"><ele>11.0</ele><time>2026-05-01T14:09:43Z</time></trkpt><trkpt lat="43.68530617083237" lon="10.60308734797848"><ele>11.333333333333332</ele><time>2026-05-01T14:09:44Z</time></trkpt><trkpt lat="43.685266076481064" lon="10.602820397496215"><ele>11.666666666666666</ele><time>2026-05-01T14:09:45Z</time></trkpt><trkpt lat="43.68522924707338" lon="10.602557921225879"><ele>12.0</ele><time>2026-05-01T14:09:46Z</time></trkpt><trkpt lat="43.68519513284245" lon="10.602297548265739"><ele>13.666666666666668</ele><time>2026-05-01T14:09:47Z</time></trkpt><trkpt lat="43.68516685021501" lon="10.60203329518496"><ele>15.333333333333334</ele><time>2026-05-01T14:09:48Z</time></trkpt><trkpt lat="43.68514533612925" lon="10.601766140288074"><ele>17.0</ele><time>2026-05-01T14:09:49Z</time></trkpt><trkpt lat="43.68512639125335" lon="10.601498575442502"><ele>17.0</ele><time>2026-05-01T14:09:50Z</time></trkpt><trkpt lat="43.685112165433466" lon="10.60122864737205"><ele>17.0</ele><time>2026-05-01T14:09:51Z</time></trkpt><trkpt lat="43.68510459870471" lon="10.600955285263922"><ele>17.0</ele><time>2026-05-01T14:09:52Z</time></trkpt><trkpt lat="43.685101667483444" lon="10.60068129228827"><ele>16.0</ele><time>2026-05-01T14:09:53Z</time></trkpt><trkpt lat="43.68510247089845" lon="10.600405733839645"><ele>15.0</ele><time>2026-05-01T14:09:54Z</time></trkpt><trkpt lat="43.685109221032654" lon="10.600128256408103"><ele>14.0</ele><time>2026-05-01T14:09:55Z</time></trkpt><trkpt lat="43.68512270206897" lon="10.59984629816356"><ele>14.0</ele><time>2026-05-01T14:09:56Z</time></trkpt><trkpt lat="43.68513566432891" lon="10.599558905880762"><ele>14.0</ele><time>2026-05-01T14:09:57Z</time></trkpt><trkpt lat="43.685153362062245" lon="10.599279136727317"><ele>14.0</ele><time>2026-05-01T14:09:58Z</time></trkpt><trkpt lat="43.685176279573284" lon="10.59899411199942"><ele>14.0</ele><time>2026-05-01T14:09:59Z</time></trkpt><trkpt lat="43.685198538302046" lon="10.598705031716854"><ele>14.0</ele><time>2026-05-01T14:10:00Z</time></trkpt><trkpt lat="43.685224423340344" lon="10.598409072281306"><ele>14.0</ele><time>2026-05-01T14:10:01Z</time></trkpt><trkpt lat="43.68525093282495" lon="10.59812107664046"><ele>13.333333333333334</ele><time>2026-05-01T14:10:02Z</time></trkpt><trkpt lat="43.68527415340927" lon="10.597846216563028"><ele>12.666666666666668</ele><time>2026-05-01T14:10:03Z</time></trkpt><trkpt lat="43.685299367799" lon="10.597563834375606"><ele>12.0</ele><time>2026-05-01T14:10:04Z</time></trkpt><trkpt lat="43.68532010844676" lon="10.597281200108288"><ele>12.0</ele><time>2026-05-01T14:10:05Z</time></trkpt><trkpt lat="43.68534664898521" lon="10.597005236783557"><ele>12.0</ele><time>2026-05-01T14:10:06Z</time></trkpt><trkpt lat="43.685377435895745" lon="10.596727858260799"><ele>12.0</ele><time>2026-05-01T14:10:07Z</time></trkpt><trkpt lat="43.68541175134786" lon="10.596453397631523"><ele>12.333333333333332</ele><time>2026-05-01T14:10:08Z</time></trkpt><trkpt lat="43.68546045250058" lon="10.596184060649161"><ele>12.666666666666666</ele><time>2026-05-01T14:10:09Z</time></trkpt><trkpt lat="43.68552324841244" lon="10.595925574310394"><ele>13.0</ele><time>2026-05-01T14:10:10Z</time></trkpt><trkpt lat="43.68559296922838" lon="10.595667075572452"><ele>14.0</ele><time>2026-05-01T14:10:11Z</time></trkpt><trkpt lat="43.68567177364476" lon="10.595413547463773"><ele>15.0</ele><time>2026-05-01T14:10:12Z</time></trkpt><trkpt lat="43.68576064114688" lon="10.59514521289661"><ele>16.0</ele><time>2026-05-01T14:10:13Z</time></trkpt><trkpt lat="43.68585038631114" lon="10.594881521060763"><ele>16.0</ele><time>2026-05-01T14:10:14Z</time></trkpt><trkpt lat="43.68594459198838" lon="10.594612510410878"><ele>16.0</ele><time>2026-05-01T14:10:15Z</time></trkpt><trkpt lat="43.68603635841781" lon="10.594340526262569"><ele>16.0</ele><time>2026-05-01T14:10:16Z</time></trkpt><trkpt lat="43.68612885649074" lon="10.594068870720456"><ele>15.666666666666666</ele><time>2026-05-01T14:10:17Z</time></trkpt><trkpt lat="43.6862216797517" lon="10.593799033400867"><ele>15.333333333333332</ele><time>2026-05-01T14:10:18Z</time></trkpt><trkpt lat="43.68631293418197" lon="10.593529802664898"><ele>15.0</ele><time>2026-05-01T14:10:19Z</time></trkpt><trkpt lat="43.686402889799886" lon="10.593257091281826"><ele>14.666666666666668</ele><time>2026-05-01T14:10:20Z</time></trkpt><trkpt lat="43.686493556227745" lon="10.592985600088069"><ele>14.333333333333334</ele><time>2026-05-01T14:10:21Z</time></trkpt><trkpt lat="43.686579943301766" lon="10.59271302156644"><ele>14.0</ele><time>2026-05-01T14:10:22Z</time></trkpt><trkpt lat="43.686667137253544" lon="10.592454893977994"><ele>13.666666666666668</ele><time>2026-05-01T14:10:23Z</time></trkpt><trkpt lat="43.686747994598655" lon="10.59220875451379"><ele>13.333333333333332</ele><time>2026-05-01T14:10:24Z</time></trkpt><trkpt lat="43.686833876655186" lon="10.591952541836585"><ele>13.0</ele><time>2026-05-01T14:10:25Z</time></trkpt><trkpt lat="43.68691990848171" lon="10.591695720981273"><ele>12.666666666666666</ele><time>2026-05-01T14:10:26Z</time></trkpt><trkpt lat="43.68699903457714" lon="10.5914364160338"><ele>12.333333333333332</ele><time>2026-05-01T14:10:27Z</time></trkpt><trkpt lat="43.687072747468775" lon="10.59117648026535"><ele>12.0</ele><time>2026-05-01T14:10:28Z</time></trkpt><trkpt lat="43.68714081172886" lon="10.590914610967332"><ele>12.0</ele><time>2026-05-01T14:10:29Z</time></trkpt><trkpt lat="43.687204505067534" lon="10.590645293231505"><ele>12.0</ele><time>2026-05-01T14:10:29.999Z</time></trkpt><trkpt lat="43.68726536644643" lon="10.590374065026552"><ele>12.0</ele><time>2026-05-01T14:10:30.999Z</time></trkpt><trkpt lat="43.687320561822524" lon="10.590093357247053"><ele>12.333333333333332</ele><time>2026-05-01T14:10:31.999Z</time></trkpt><trkpt lat="43.687372402932105" lon="10.589807179264351"><ele>12.666666666666666</ele><time>2026-05-01T14:10:32.999Z</time></trkpt><trkpt lat="43.687417737472444" lon="10.589513681388718"><ele>13.0</ele><time>2026-05-01T14:10:33.999Z</time></trkpt><trkpt lat="43.687452852377795" lon="10.589246171213127"><ele>13.0</ele><time>2026-05-01T14:10:34.999Z</time></trkpt><trkpt lat="43.68748131776293" lon="10.588984304169186"><ele>13.0</ele><time>2026-05-01T14:10:35.999Z</time></trkpt><trkpt lat="43.68750930216516" lon="10.588732768619726"><ele>13.0</ele><time>2026-05-01T14:10:36.999Z</time></trkpt><trkpt lat="43.68753780480618" lon="10.588475653284883"><ele>13.333333333333332</ele><time>2026-05-01T14:10:37.999Z</time></trkpt><trkpt lat="43.687562261147505" lon="10.588241500051156"><ele>13.666666666666668</ele><time>2026-05-01T14:10:38.999Z</time></trkpt><trkpt lat="43.687591242992504" lon="10.588013692231916"><ele>14.0</ele><time>2026-05-01T14:10:39.999Z</time></trkpt><trkpt lat="43.68762491753636" lon="10.587779165446245"><ele>14.0</ele><time>2026-05-01T14:10:40.999Z</time></trkpt><trkpt lat="43.68765269847217" lon="10.587556810470195"><ele>14.0</ele><time>2026-05-01T14:10:41.999Z</time></trkpt><trkpt lat="43.6876789721558" lon="10.58734665957943"><ele>14.0</ele><time>2026-05-01T14:10:42.999Z</time></trkpt><trkpt lat="43.687693615179256" lon="10.587164546536327"><ele>13.6</ele><time>2026-05-01T14:10:43.999Z</time></trkpt><trkpt lat="43.68772025928093" lon="10.586988476683873"><ele>13.2</ele><time>2026-05-01T14:10:44.999Z</time></trkpt><trkpt lat="43.6877410927969" lon="10.586834563109932"><ele>12.799999999999999</ele><time>2026-05-01T14:10:45.999Z</time></trkpt><trkpt lat="43.68777407164948" lon="10.586705581622615"><ele>12.399999999999999</ele><time>2026-05-01T14:10:46.999Z</time></trkpt><trkpt lat="43.68781401875125" lon="10.586608734545486"><ele>12.0</ele><time>2026-05-01T14:10:47.999Z</time></trkpt><trkpt lat="43.687858624646815" lon="10.5865347344822"><ele>12.0</ele><time>2026-05-01T14:10:48.999Z</time></trkpt><trkpt lat="43.687889564107785" lon="10.586456283248484"><ele>12.0</ele><time>2026-05-01T14:10:49.999Z</time></trkpt><trkpt lat="43.68788869974606" lon="10.5863590093185"><ele>12.0</ele><time>2026-05-01T14:10:50.999Z</time></trkpt><trkpt lat="43.68786769129413" lon="10.58624091307483"><ele>12.0</ele><time>2026-05-01T14:10:51.999Z</time></trkpt><trkpt lat="43.68785603719671" lon="10.586093177768815"><ele>12.0</ele><time>2026-05-01T14:10:52.999Z</time></trkpt><trkpt lat="43.68785720955971" lon="10.585928119942787"><ele>12.0</ele><time>2026-05-01T14:10:53.999Z</time></trkpt><trkpt lat="43.68786114309818" lon="10.585743906694029"><ele>12.0</ele><time>2026-05-01T14:10:54.999Z</time></trkpt><trkpt lat="43.68786209032265" lon="10.585564323903377"><ele>12.0</ele><time>2026-05-01T14:10:55.999Z</time></trkpt><trkpt lat="43.68786711113939" lon="10.585394135632196"><ele>12.0</ele><time>2026-05-01T14:10:56.999Z</time></trkpt><trkpt lat="43.687872476690266" lon="10.585240255324308"><ele>11.4</ele><time>2026-05-01T14:10:57.999Z</time></trkpt><trkpt lat="43.68787888457363" lon="10.585078088222081"><ele>10.799999999999999</ele><time>2026-05-01T14:10:58.999Z</time></trkpt><trkpt lat="43.687888011647736" lon="10.58492164489809"><ele>10.2</ele><time>2026-05-01T14:10:59.999Z</time></trkpt><trkpt lat="43.68789494812744" lon="10.584781379137464"><ele>9.6</ele><time>2026-05-01T14:11:00.999Z</time></trkpt><trkpt lat="43.68789964441706" lon="10.584669640907139"><ele>9.0</ele><time>2026-05-01T14:11:01.999Z</time></trkpt><trkpt lat="43.68790715234599" lon="10.584569154368493"><ele>9.8</ele><time>2026-05-01T14:11:02.999Z</time></trkpt><trkpt lat="43.68792129698217" lon="10.584461052925526"><ele>10.600000000000001</ele><time>2026-05-01T14:11:03.999Z</time></trkpt><trkpt lat="43.68794408844439" lon="10.58432831641784"><ele>11.4</ele><time>2026-05-01T14:11:04.999Z</time></trkpt><trkpt lat="43.68797836067341" lon="10.584182330008383"><ele>12.200000000000001</ele><time>2026-05-01T14:11:05.999Z</time></trkpt><trkpt lat="43.68801866058745" lon="10.584021938059955"><ele>13.0</ele><time>2026-05-01T14:11:06.999Z</time></trkpt><trkpt lat="43.688055333271606" lon="10.583846654747118"><ele>13.5</ele><time>2026-05-01T14:11:07.999Z</time></trkpt><trkpt lat="43.688088955718825" lon="10.583663470248828"><ele>14.0</ele><time>2026-05-01T14:11:08.999Z</time></trkpt><trkpt lat="43.688120412213266" lon="10.583476358277158"><ele>14.5</ele><time>2026-05-01T14:11:10Z</time></trkpt><trkpt lat="43.68814623438069" lon="10.58328832733596"><ele>15.0</ele><time>2026-05-01T14:11:11Z</time></trkpt><trkpt lat="43.68816885998138" lon="10.583088936128465"><ele>15.0</ele><time>2026-05-01T14:11:12Z</time></trkpt><trkpt lat="43.68819055124334" lon="10.58288242336915"><ele>15.0</ele><time>2026-05-01T14:11:13Z</time></trkpt><trkpt lat="43.68821332617182" lon="10.582671385151903"><ele>15.0</ele><time>2026-05-01T14:11:14Z</time></trkpt><trkpt lat="43.68823686732175" lon="10.582457340298292"><ele>15.666666666666668</ele><time>2026-05-01T14:11:15Z</time></trkpt><trkpt lat="43.68826277473763" lon="10.5822379485756"><ele>16.333333333333336</ele><time>2026-05-01T14:11:16Z</time></trkpt><trkpt lat="43.688287396487944" lon="10.582024921065248"><ele>17.0</ele><time>2026-05-01T14:11:17Z</time></trkpt><trkpt lat="43.68831002919008" lon="10.581829047828084"><ele>17.0</ele><time>2026-05-01T14:11:18Z</time></trkpt><trkpt lat="43.68832684302111" lon="10.58164068886976"><ele>17.0</ele><time>2026-05-01T14:11:19Z</time></trkpt><trkpt lat="43.68832131677308" lon="10.581463237001289"><ele>17.0</ele><time>2026-05-01T14:11:20Z</time></trkpt><trkpt lat="43.68827772286625" lon="10.581304150781921"><ele>17.0</ele><time>2026-05-01T14:11:21Z</time></trkpt><trkpt lat="43.688200239594174" lon="10.581156828299639"><ele>17.0</ele><time>2026-05-01T14:11:22Z</time></trkpt><trkpt lat="43.68810817059909" lon="10.581019187622003"><ele>17.0</ele><time>2026-05-01T14:11:23Z</time></trkpt><trkpt lat="43.68800729072441" lon="10.580872730661932"><ele>17.0</ele><time>2026-05-01T14:11:24Z</time></trkpt><trkpt lat="43.68790734850025" lon="10.580714390814776"><ele>17.0</ele><time>2026-05-01T14:11:25Z</time></trkpt><trkpt lat="43.687801119837474" lon="10.580547240353795"><ele>16.333333333333336</ele><time>2026-05-01T14:11:26Z</time></trkpt><trkpt lat="43.68769482709243" lon="10.580379103298736"><ele>15.666666666666668</ele><time>2026-05-01T14:11:27Z</time></trkpt><trkpt lat="43.68759196683546" lon="10.580217917490174"><ele>15.0</ele><time>2026-05-01T14:11:28Z</time></trkpt><trkpt lat="43.687487595431094" lon="10.58005267774012"><ele>15.0</ele><time>2026-05-01T14:11:29Z</time></trkpt><trkpt lat="43.68738383201582" lon="10.57989413771408"><ele>15.0</ele><time>2026-05-01T14:11:30Z</time></trkpt><trkpt lat="43.687288188301814" lon="10.579754503905443"><ele>15.0</ele><time>2026-05-01T14:11:31Z</time></trkpt><trkpt lat="43.68718516459373" lon="10.579637106092465"><ele>15.0</ele><time>2026-05-01T14:11:32Z</time></trkpt><trkpt lat="43.68707908162928" lon="10.579538427139036"><ele>14.8</ele><time>2026-05-01T14:11:33Z</time></trkpt><trkpt lat="43.686979558373906" lon="10.579454911041761"><ele>14.6</ele><time>2026-05-01T14:11:34Z</time></trkpt><trkpt lat="43.68689459220513" lon="10.57935602573116"><ele>14.399999999999999</ele><time>2026-05-01T14:11:35Z</time></trkpt><trkpt lat="43.686806731870654" lon="10.579280211755636"><ele>14.2</ele><time>2026-05-01T14:11:36Z</time></trkpt><trkpt lat="43.686716985228976" lon="10.57920085150894"><ele>14.0</ele><time>2026-05-01T14:11:37Z</time></trkpt><trkpt lat="43.686615358754544" lon="10.579135685694542"><ele>14.0</ele><time>2026-05-01T14:11:38Z</time></trkpt><trkpt lat="43.686514510912765" lon="10.579044315299496"><ele>14.0</ele><time>2026-05-01T14:11:39Z</time></trkpt><trkpt lat="43.68641109305785" lon="10.57894956501433"><ele>14.0</ele><time>2026-05-01T14:11:40Z</time></trkpt><trkpt lat="43.68629525142707" lon="10.578843000485826"><ele>14.0</ele><time>2026-05-01T14:11:41Z</time></trkpt><trkpt lat="43.68617225089279" lon="10.578732358970623"><ele>14.333333333333334</ele><time>2026-05-01T14:11:42Z</time></trkpt><trkpt lat="43.68604440890483" lon="10.578623762474509"><ele>14.666666666666668</ele><time>2026-05-01T14:11:43Z</time></trkpt><trkpt lat="43.68592079048817" lon="10.57850560046082"><ele>15.0</ele><time>2026-05-01T14:11:44Z</time></trkpt><trkpt lat="43.68578848698349" lon="10.57838343977737"><ele>15.0</ele><time>2026-05-01T14:11:45Z</time></trkpt><trkpt lat="43.68565439322614" lon="10.578270059036697"><ele>15.0</ele><time>2026-05-01T14:11:46Z</time></trkpt><trkpt lat="43.68553159821007" lon="10.578164315494721"><ele>15.0</ele><time>2026-05-01T14:11:47Z</time></trkpt><trkpt lat="43.685427236887236" lon="10.578049252959959"><ele>15.0</ele><time>2026-05-01T14:11:48Z</time></trkpt><trkpt lat="43.685320846358735" lon="10.577952529735844"><ele>15.0</ele><time>2026-05-01T14:11:49Z</time></trkpt><trkpt lat="43.68522317156547" lon="10.577864616370743"><ele>15.0</ele><time>2026-05-01T14:11:50Z</time></trkpt><trkpt lat="43.68512188599036" lon="10.577774816767786"><ele>15.0</ele><time>2026-05-01T14:11:51Z</time></trkpt><trkpt lat="43.685014678456824" lon="10.577678752209165"><ele>15.0</ele><time>2026-05-01T14:11:52Z</time></trkpt><trkpt lat="43.684890036623585" lon="10.577590642894112"><ele>15.0</ele><time>2026-05-01T14:11:53Z</time></trkpt><trkpt lat="43.68476589328416" lon="10.577484913181253"><ele>15.0</ele><time>2026-05-01T14:11:54Z</time></trkpt><trkpt lat="43.68463738228069" lon="10.577369614149013"><ele>15.0</ele><time>2026-05-01T14:11:55Z</time></trkpt><trkpt lat="43.684512843972094" lon="10.577230708665313"><ele>15.0</ele><time>2026-05-01T14:11:56Z</time></trkpt><trkpt lat="43.684378986317135" lon="10.577121298252578"><ele>15.0</ele><time>2026-05-01T14:11:57Z</time></trkpt><trkpt lat="43.684255513460855" lon="10.577018675902751"><ele>15.0</ele><time>2026-05-01T14:11:58Z</time></trkpt><trkpt lat="43.68413442103347" lon="10.576892354145805"><ele>15.0</ele><time>2026-05-01T14:11:59Z</time></trkpt><trkpt lat="43.6840049719035" lon="10.576769760944996"><ele>15.0</ele><time>2026-05-01T14:12:00Z</time></trkpt><trkpt lat="43.68386909081298" lon="10.576644284362969"><ele>15.0</ele><time>2026-05-01T14:12:01Z</time></trkpt><trkpt lat="43.68374189373904" lon="10.576504181002328"><ele>15.0</ele><time>2026-05-01T14:12:02Z</time></trkpt><trkpt lat="43.683629682662556" lon="10.576357011498642"><ele>15.0</ele><time>2026-05-01T14:12:03Z</time></trkpt><trkpt lat="43.68353209614635" lon="10.576196557469448"><ele>15.0</ele><time>2026-05-01T14:12:04Z</time></trkpt><trkpt lat="43.683437331086814" lon="10.576016804754177"><ele>15.0</ele><time>2026-05-01T14:12:05Z</time></trkpt><trkpt lat="43.6833243138774" lon="10.575821421991646"><ele>15.0</ele><time>2026-05-01T14:12:06Z</time></trkpt><trkpt lat="43.683224270578364" lon="10.575626073985463"><ele>15.0</ele><time>2026-05-01T14:12:07Z</time></trkpt><trkpt lat="43.68312005844733" lon="10.575432414722046"><ele>14.666666666666668</ele><time>2026-05-01T14:12:08Z</time></trkpt><trkpt lat="43.683014643236014" lon="10.57523607873594"><ele>14.333333333333334</ele><time>2026-05-01T14:12:09Z</time></trkpt><trkpt lat="43.682912321196646" lon="10.575039805732558"><ele>14.0</ele><time>2026-05-01T14:12:10Z</time></trkpt><trkpt lat="43.68280936069029" lon="10.574840141728753"><ele>14.0</ele><time>2026-05-01T14:12:11Z</time></trkpt><trkpt lat="43.68270492912739" lon="10.574640067905602"><ele>14.0</ele><time>2026-05-01T14:12:12Z</time></trkpt><trkpt lat="43.6825992199748" lon="10.574441917015502"><ele>14.0</ele><time>2026-05-01T14:12:13Z</time></trkpt><trkpt lat="43.68249343977013" lon="10.5742388471034"><ele>14.0</ele><time>2026-05-01T14:12:14Z</time></trkpt><trkpt lat="43.68239106093141" lon="10.574036333157805"><ele>14.0</ele><time>2026-05-01T14:12:15Z</time></trkpt><trkpt lat="43.682293620747735" lon="10.573837758396822"><ele>14.0</ele><time>2026-05-01T14:12:16Z</time></trkpt><trkpt lat="43.68219410554478" lon="10.573641520660304"><ele>13.666666666666668</ele><time>2026-05-01T14:12:17Z</time></trkpt><trkpt lat="43.68210139365598" lon="10.573459389852701"><ele>13.333333333333332</ele><time>2026-05-01T14:12:18Z</time></trkpt><trkpt lat="43.68201158489885" lon="10.573286150614528"><ele>13.0</ele><time>2026-05-01T14:12:19Z</time></trkpt><trkpt lat="43.681931229766754" lon="10.573126890934233"><ele>12.75</ele><time>2026-05-01T14:12:20Z</time></trkpt><trkpt lat="43.68185672903427" lon="10.572982008933868"><ele>12.5</ele><time>2026-05-01T14:12:21Z</time></trkpt><trkpt lat="43.68178680527424" lon="10.572847529641965"><ele>12.25</ele><time>2026-05-01T14:12:22Z</time></trkpt><trkpt lat="43.68171808973197" lon="10.572720261144818"><ele>12.0</ele><time>2026-05-01T14:12:23Z</time></trkpt><trkpt lat="43.68164835102022" lon="10.57258594528039"><ele>12.0</ele><time>2026-05-01T14:12:24Z</time></trkpt><trkpt lat="43.681573822852506" lon="10.57244308236182"><ele>12.0</ele><time>2026-05-01T14:12:25Z</time></trkpt><trkpt lat="43.68149476018353" lon="10.57228958352276"><ele>12.0</ele><time>2026-05-01T14:12:25.999Z</time></trkpt><trkpt lat="43.68141304161222" lon="10.572129474708017"><ele>12.0</ele><time>2026-05-01T14:12:26.999Z</time></trkpt><trkpt lat="43.681329695636464" lon="10.571962126848963"><ele>12.333333333333332</ele><time>2026-05-01T14:12:27.999Z</time></trkpt><trkpt lat="43.68124233464217" lon="10.571784018458986"><ele>12.666666666666666</ele><time>2026-05-01T14:12:28.999Z</time></trkpt><trkpt lat="43.681150317700244" lon="10.571601135071656"><ele>13.0</ele><time>2026-05-01T14:12:29.999Z</time></trkpt><trkpt lat="43.68106284470012" lon="10.571410931071668"><ele>13.0</ele><time>2026-05-01T14:12:30.999Z</time></trkpt><trkpt lat="43.6809822723881" lon="10.571204283896192"><ele>13.0</ele><time>2026-05-01T14:12:31.999Z</time></trkpt><trkpt lat="43.68091267300255" lon="10.570988091893419"><ele>13.0</ele><time>2026-05-01T14:12:32.999Z</time></trkpt><trkpt lat="43.68085111192364" lon="10.570758882236781"><ele>13.0</ele><time>2026-05-01T14:12:33.999Z</time></trkpt><trkpt lat="43.68079947186856" lon="10.57052171163963"><ele>13.0</ele><time>2026-05-01T14:12:34.999Z</time></trkpt><trkpt lat="43.68075966968579" lon="10.570278122094944"><ele>13.0</ele><time>2026-05-01T14:12:35.999Z</time></trkpt><trkpt lat="43.68073048499369" lon="10.570026687631008"><ele>13.0</ele><time>2026-05-01T14:12:36.999Z</time></trkpt><trkpt lat="43.68070374459861" lon="10.569769873795076"><ele>13.0</ele><time>2026-05-01T14:12:37.999Z</time></trkpt><trkpt lat="43.680677210283804" lon="10.569511863286108"><ele>13.0</ele><time>2026-05-01T14:12:38.999Z</time></trkpt><trkpt lat="43.680651042889494" lon="10.56925934891379"><ele>13.0</ele><time>2026-05-01T14:12:39.999Z</time></trkpt><trkpt lat="43.680627288855185" lon="10.56902082479696"><ele>13.0</ele><time>2026-05-01T14:12:40.999Z</time></trkpt><trkpt lat="43.68060178548081" lon="10.568784918395385"><ele>13.0</ele><time>2026-05-01T14:12:41.999Z</time></trkpt><trkpt lat="43.68057617142798" lon="10.568546436854799"><ele>13.0</ele><time>2026-05-01T14:12:42.999Z</time></trkpt><trkpt lat="43.68055287188562" lon="10.5683060552345"><ele>13.0</ele><time>2026-05-01T14:12:43.999Z</time></trkpt><trkpt lat="43.680529213747455" lon="10.568063854857279"><ele>13.0</ele><time>2026-05-01T14:12:44.999Z</time></trkpt><trkpt lat="43.680504018625726" lon="10.567822055168469"><ele>13.0</ele><time>2026-05-01T14:12:45.999Z</time></trkpt><trkpt lat="43.680477980689865" lon="10.567580175431901"><ele>13.0</ele><time>2026-05-01T14:12:46.999Z</time></trkpt><trkpt lat="43.6804545519503" lon="10.567355530686593"><ele>13.0</ele><time>2026-05-01T14:12:47.999Z</time></trkpt><trkpt lat="43.68043577861404" lon="10.567137929425222"><ele>13.333333333333332</ele><time>2026-05-01T14:12:48.999Z</time></trkpt><trkpt lat="43.68042510783433" lon="10.566917772101725"><ele>13.666666666666668</ele><time>2026-05-01T14:12:49.999Z</time></trkpt><trkpt lat="43.6804292912792" lon="10.566697605212868"><ele>14.0</ele><time>2026-05-01T14:12:50.999Z</time></trkpt><trkpt lat="43.68044348562589" lon="10.566471849903648"><ele>14.0</ele><time>2026-05-01T14:12:51.999Z</time></trkpt><trkpt lat="43.680465558015236" lon="10.566246043639818"><ele>14.0</ele><time>2026-05-01T14:12:52.999Z</time></trkpt><trkpt lat="43.68049705905261" lon="10.56601380578917"><ele>14.0</ele><time>2026-05-01T14:12:53.999Z</time></trkpt><trkpt lat="43.68053785405341" lon="10.565781079446449"><ele>14.0</ele><time>2026-05-01T14:12:54.999Z</time></trkpt><trkpt lat="43.680589068566974" lon="10.565546558131587"><ele>14.0</ele><time>2026-05-01T14:12:55.999Z</time></trkpt><trkpt lat="43.68065115197674" lon="10.56531518787106"><ele>14.0</ele><time>2026-05-01T14:12:56.999Z</time></trkpt><trkpt lat="43.6807255682726" lon="10.565102943785016"><ele>14.0</ele><time>2026-05-01T14:12:57.999Z</time></trkpt><trkpt lat="43.68080834527079" lon="10.564889663544326"><ele>14.0</ele><time>2026-05-01T14:12:58.999Z</time></trkpt><trkpt lat="43.68089919385303" lon="10.564682587764551"><ele>14.0</ele><time>2026-05-01T14:12:59.999Z</time></trkpt><trkpt lat="43.68098886274126" lon="10.564472674016628"><ele>13.333333333333334</ele><time>2026-05-01T14:13:00.999Z</time></trkpt><trkpt lat="43.68107523256074" lon="10.564273899799945"><ele>12.666666666666668</ele><time>2026-05-01T14:13:01.999Z</time></trkpt><trkpt lat="43.68116021277227" lon="10.564087150272119"><ele>12.0</ele><time>2026-05-01T14:13:02.999Z</time></trkpt><trkpt lat="43.681238386150746" lon="10.563908652557327"><ele>13.0</ele><time>2026-05-01T14:13:03.999Z</time></trkpt><trkpt lat="43.68131206393505" lon="10.56373073414956"><ele>14.0</ele><time>2026-05-01T14:13:04.999Z</time></trkpt><trkpt lat="43.681386454949056" lon="10.563564934025475"><ele>15.0</ele><time>2026-05-01T14:13:05.999Z</time></trkpt><trkpt lat="43.68146213953696" lon="10.56339662408018"><ele>16.0</ele><time>2026-05-01T14:13:06.999Z</time></trkpt><trkpt lat="43.681540689645814" lon="10.563223910959541"><ele>16.0</ele><time>2026-05-01T14:13:07.999Z</time></trkpt><trkpt lat="43.68162354970742" lon="10.563052090113528"><ele>16.0</ele><time>2026-05-01T14:13:08.999Z</time></trkpt><trkpt lat="43.68171975592027" lon="10.562882264405074"><ele>16.0</ele><time>2026-05-01T14:13:09.999Z</time></trkpt><trkpt lat="43.68182475971348" lon="10.562717992310565"><ele>18.0</ele><time>2026-05-01T14:13:10.999Z</time></trkpt><trkpt lat="43.681932671397554" lon="10.562553964855933"><ele>20.0</ele><time>2026-05-01T14:13:11.999Z</time></trkpt><trkpt lat="43.682042139905874" lon="10.562386650701994"><ele>22.0</ele><time>2026-05-01T14:13:12.999Z</time></trkpt><trkpt lat="43.682152925917485" lon="10.562216475955594"><ele>22.0</ele><time>2026-05-01T14:13:13.999Z</time></trkpt><trkpt lat="43.68226220204364" lon="10.562043393277511"><ele>22.0</ele><time>2026-05-01T14:13:14.999Z</time></trkpt><trkpt lat="43.68237141942198" lon="10.561866867268703"><ele>22.0</ele><time>2026-05-01T14:13:16Z</time></trkpt><trkpt lat="43.682486182666246" lon="10.561691839220297"><ele>20.666666666666664</ele><time>2026-05-01T14:13:17Z</time></trkpt><trkpt lat="43.68259343626084" lon="10.56152520041136"><ele>19.333333333333332</ele><time>2026-05-01T14:13:18Z</time></trkpt><trkpt lat="43.68269876257372" lon="10.561362798745353"><ele>18.0</ele><time>2026-05-01T14:13:19Z</time></trkpt><trkpt lat="43.68280334558062" lon="10.561200315964392"><ele>16.666666666666668</ele><time>2026-05-01T14:13:20Z</time></trkpt><trkpt lat="43.68290410585732" lon="10.561034544558375"><ele>15.333333333333334</ele><time>2026-05-01T14:13:21Z</time></trkpt><trkpt lat="43.682996211297215" lon="10.560870209368824"><ele>14.0</ele><time>2026-05-01T14:13:22Z</time></trkpt><trkpt lat="43.68307712022146" lon="10.560700621655245"><ele>14.0</ele><time>2026-05-01T14:13:23Z</time></trkpt><trkpt lat="43.683151440705934" lon="10.560523171595273"><ele>14.0</ele><time>2026-05-01T14:13:24Z</time></trkpt><trkpt lat="43.68322576311377" lon="10.560343284134378"><ele>14.0</ele><time>2026-05-01T14:13:25Z</time></trkpt><trkpt lat="43.683300009911264" lon="10.560161572120968"><ele>14.0</ele><time>2026-05-01T14:13:26Z</time></trkpt><trkpt lat="43.68337337578817" lon="10.559973932692635"><ele>14.0</ele><time>2026-05-01T14:13:27Z</time></trkpt><trkpt lat="43.68345048163404" lon="10.559783671061034"><ele>14.0</ele><time>2026-05-01T14:13:28Z</time></trkpt><trkpt lat="43.683524515122606" lon="10.559602115314854"><ele>14.0</ele><time>2026-05-01T14:13:29Z</time></trkpt><trkpt lat="43.68359730819985" lon="10.559424529379527"><ele>14.25</ele><time>2026-05-01T14:13:30Z</time></trkpt><trkpt lat="43.68367073972529" lon="10.559241032376185"><ele>14.5</ele><time>2026-05-01T14:13:31Z</time></trkpt><trkpt lat="43.683744905841486" lon="10.55905664655548"><ele>14.75</ele><time>2026-05-01T14:13:32Z</time></trkpt><trkpt lat="43.68381543919535" lon="10.558881283545695"><ele>15.0</ele><time>2026-05-01T14:13:33Z</time></trkpt><trkpt lat="43.68388319525244" lon="10.558702136434771"><ele>15.0</ele><time>2026-05-01T14:13:34Z</time></trkpt><trkpt lat="43.683946539273386" lon="10.558518103365016"><ele>15.0</ele><time>2026-05-01T14:13:35Z</time></trkpt><trkpt lat="43.68400680875459" lon="10.558336565659106"><ele>15.0</ele><time>2026-05-01T14:13:36Z</time></trkpt><trkpt lat="43.684060384581315" lon="10.558153282553688"><ele>15.0</ele><time>2026-05-01T14:13:37Z</time></trkpt><trkpt lat="43.684113012582365" lon="10.557963020130211"><ele>14.0</ele><time>2026-05-01T14:13:38Z</time></trkpt><trkpt lat="43.68416551973196" lon="10.557768188461335"><ele>13.0</ele><time>2026-05-01T14:13:39Z</time></trkpt><trkpt lat="43.684217156367495" lon="10.557572750199407"><ele>12.0</ele><time>2026-05-01T14:13:40Z</time></trkpt><trkpt lat="43.68426501707097" lon="10.557377576064775"><ele>12.0</ele><time>2026-05-01T14:13:41Z</time></trkpt><trkpt lat="43.68430675464674" lon="10.557172377876059"><ele>12.0</ele><time>2026-05-01T14:13:42Z</time></trkpt><trkpt lat="43.68433882617841" lon="10.556958233293734"><ele>12.0</ele><time>2026-05-01T14:13:43Z</time></trkpt><trkpt lat="43.6843668702297" lon="10.556738539602346"><ele>12.25</ele><time>2026-05-01T14:13:44Z</time></trkpt><trkpt lat="43.68439493008791" lon="10.556529879541612"><ele>12.5</ele><time>2026-05-01T14:13:45Z</time></trkpt><trkpt lat="43.68441976948971" lon="10.556332459756813"><ele>12.75</ele><time>2026-05-01T14:13:46Z</time></trkpt><trkpt lat="43.684445297837925" lon="10.556132335247742"><ele>13.0</ele><time>2026-05-01T14:13:47Z</time></trkpt><trkpt lat="43.68447161761653" lon="10.555929308224316"><ele>15.0</ele><time>2026-05-01T14:13:48Z</time></trkpt><trkpt lat="43.68449728831768" lon="10.555719325324688"><ele>17.0</ele><time>2026-05-01T14:13:49Z</time></trkpt><trkpt lat="43.68452393825407" lon="10.555506483201356"><ele>19.0</ele><time>2026-05-01T14:13:50Z</time></trkpt><trkpt lat="43.684550008941" lon="10.555291158105739"><ele>19.0</ele><time>2026-05-01T14:13:51Z</time></trkpt><trkpt lat="43.68457055922303" lon="10.555077157863048"><ele>19.0</ele><time>2026-05-01T14:13:52Z</time></trkpt><trkpt lat="43.68459059500707" lon="10.554874687443625"><ele>19.0</ele><time>2026-05-01T14:13:53Z</time></trkpt><trkpt lat="43.684610879147684" lon="10.554675143914322"><ele>18.0</ele><time>2026-05-01T14:13:54Z</time></trkpt><trkpt lat="43.68463196498035" lon="10.554470908577903"><ele>17.0</ele><time>2026-05-01T14:13:55Z</time></trkpt><trkpt lat="43.68465217445093" lon="10.554260141396089"><ele>16.0</ele><time>2026-05-01T14:13:56Z</time></trkpt><trkpt lat="43.68466458833113" lon="10.554048560537801"><ele>16.0</ele><time>2026-05-01T14:13:57Z</time></trkpt><trkpt lat="43.6846645292753" lon="10.553844928986807"><ele>16.0</ele><time>2026-05-01T14:13:58Z</time></trkpt><trkpt lat="43.68464333117836" lon="10.553645346393335"><ele>16.0</ele><time>2026-05-01T14:13:59Z</time></trkpt><trkpt lat="43.68461196373466" lon="10.553458864249542"><ele>16.0</ele><time>2026-05-01T14:14:00Z</time></trkpt><trkpt lat="43.684573436142216" lon="10.55327253674054"><ele>16.0</ele><time>2026-05-01T14:14:01Z</time></trkpt><trkpt lat="43.684534910836895" lon="10.553082484840607"><ele>16.0</ele><time>2026-05-01T14:14:02Z</time></trkpt><trkpt lat="43.68449945228183" lon="10.552884997157546"><ele>16.0</ele><time>2026-05-01T14:14:03Z</time></trkpt><trkpt lat="43.68446927983675" lon="10.552683023547235"><ele>16.0</ele><time>2026-05-01T14:14:04Z</time></trkpt><trkpt lat="43.68445372517036" lon="10.552471283123003"><ele>15.666666666666666</ele><time>2026-05-01T14:14:05Z</time></trkpt><trkpt lat="43.68446045383021" lon="10.552252996925343"><ele>15.333333333333332</ele><time>2026-05-01T14:14:06Z</time></trkpt><trkpt lat="43.68447366754177" lon="10.55202865698463"><ele>15.0</ele><time>2026-05-01T14:14:07Z</time></trkpt><trkpt lat="43.68448807287276" lon="10.551792761846757"><ele>15.0</ele><time>2026-05-01T14:14:08Z</time></trkpt><trkpt lat="43.68449854102876" lon="10.551572656916582"><ele>15.0</ele><time>2026-05-01T14:14:09Z</time></trkpt><trkpt lat="43.6845080189783" lon="10.55135846735516"><ele>15.0</ele><time>2026-05-01T14:14:10Z</time></trkpt><trkpt lat="43.68451695726236" lon="10.55114145419597"><ele>14.666666666666668</ele><time>2026-05-01T14:14:11Z</time></trkpt><trkpt lat="43.684530707877364" lon="10.550923263591613"><ele>14.333333333333334</ele><time>2026-05-01T14:14:12Z</time></trkpt><trkpt lat="43.68455522164097" lon="10.550704267845202"><ele>14.0</ele><time>2026-05-01T14:14:13Z</time></trkpt><trkpt lat="43.68459372112795" lon="10.550482754380933"><ele>14.333333333333334</ele><time>2026-05-01T14:14:14Z</time></trkpt><trkpt lat="43.68464236057735" lon="10.550253241038448"><ele>14.666666666666668</ele><time>2026-05-01T14:14:15Z</time></trkpt><trkpt lat="43.68469497197077" lon="10.550016924201449"><ele>15.0</ele><time>2026-05-01T14:14:16Z</time></trkpt><trkpt lat="43.684744871891695" lon="10.549797267079864"><ele>15.0</ele><time>2026-05-01T14:14:17Z</time></trkpt><trkpt lat="43.684794889163015" lon="10.549576309449861"><ele>15.0</ele><time>2026-05-01T14:14:18Z</time></trkpt><trkpt lat="43.684849709863705" lon="10.54935009740304"><ele>15.0</ele><time>2026-05-01T14:14:19Z</time></trkpt><trkpt lat="43.684906203039766" lon="10.54911970688476"><ele>15.0</ele><time>2026-05-01T14:14:20Z</time></trkpt><trkpt lat="43.68496554540881" lon="10.548885283523944"><ele>15.0</ele><time>2026-05-01T14:14:21Z</time></trkpt><trkpt lat="43.68502206300387" lon="10.548646264090795"><ele>15.0</ele><time>2026-05-01T14:14:22Z</time></trkpt><trkpt lat="43.68507827839002" lon="10.548404735086878"><ele>14.666666666666668</ele><time>2026-05-01T14:14:23Z</time></trkpt><trkpt lat="43.6851356114523" lon="10.548161876779517"><ele>14.333333333333334</ele><time>2026-05-01T14:14:24Z</time></trkpt><trkpt lat="43.68518695546166" lon="10.547934394704546"><ele>14.0</ele><time>2026-05-01T14:14:25Z</time></trkpt><trkpt lat="43.68523443686781" lon="10.547710354770215"><ele>14.0</ele><time>2026-05-01T14:14:26Z</time></trkpt><trkpt lat="43.685279614705834" lon="10.547499153618226"><ele>14.0</ele><time>2026-05-01T14:14:27Z</time></trkpt><trkpt lat="43.685323530784785" lon="10.547300030234638"><ele>14.0</ele><time>2026-05-01T14:14:28Z</time></trkpt><trkpt lat="43.68536465047777" lon="10.547119055720353"><ele>14.0</ele><time>2026-05-01T14:14:29Z</time></trkpt><trkpt lat="43.68540398284883" lon="10.546963734059991"><ele>14.166666666666668</ele><time>2026-05-01T14:14:30Z</time></trkpt><trkpt lat="43.68543718364875" lon="10.546833475733694"><ele>14.333333333333334</ele><time>2026-05-01T14:14:31Z</time></trkpt><trkpt lat="43.68546237017072" lon="10.546722720199048"><ele>14.5</ele><time>2026-05-01T14:14:32Z</time></trkpt><trkpt lat="43.685480391087" lon="10.546638235374967"><ele>14.666666666666668</ele><time>2026-05-01T14:14:33Z</time></trkpt><trkpt lat="43.68551829213053" lon="10.54651648146997"><ele>14.833333333333334</ele><time>2026-05-01T14:14:35Z</time></trkpt><trkpt lat="43.68557617701615" lon="10.546412400509732"><ele>15.0</ele><time>2026-05-01T14:14:37Z</time></trkpt><trkpt lat="43.68562458505604" lon="10.546341509722708"><ele>15.0</ele><time>2026-05-01T14:14:38Z</time></trkpt><trkpt lat="43.68566254801312" lon="10.546246416343033"><ele>15.0</ele><time>2026-05-01T14:14:39Z</time></trkpt><trkpt lat="43.68568403774745" lon="10.546124670181408"><ele>15.0</ele><time>2026-05-01T14:14:40Z</time></trkpt><trkpt lat="43.685714140175506" lon="10.545989280545909"><ele>15.0</ele><time>2026-05-01T14:14:41Z</time></trkpt><trkpt lat="43.6857677246396" lon="10.545844183413978"><ele>15.0</ele><time>2026-05-01T14:14:42Z</time></trkpt><trkpt lat="43.685831138278445" lon="10.545686980068936"><ele>14.75</ele><time>2026-05-01T14:14:43Z</time></trkpt><trkpt lat="43.6858964528385" lon="10.54553567999522"><ele>14.5</ele><time>2026-05-01T14:14:44Z</time></trkpt><trkpt lat="43.68596839594735" lon="10.545384083954449"><ele>14.25</ele><time>2026-05-01T14:14:45Z</time></trkpt><trkpt lat="43.68603512160299" lon="10.545239130906115"><ele>14.0</ele><time>2026-05-01T14:14:46Z</time></trkpt><trkpt lat="43.68610339789009" lon="10.545096472825719"><ele>14.0</ele><time>2026-05-01T14:14:47Z</time></trkpt><trkpt lat="43.686173666741865" lon="10.544947801945032"><ele>14.0</ele><time>2026-05-01T14:14:48Z</time></trkpt><trkpt lat="43.686244965695295" lon="10.544790715666842"><ele>14.0</ele><time>2026-05-01T14:14:49Z</time></trkpt><trkpt lat="43.68632016020546" lon="10.544631795705502"><ele>14.0</ele><time>2026-05-01T14:14:49.999Z</time></trkpt><trkpt lat="43.68639851490316" lon="10.54446817496195"><ele>13.666666666666668</ele><time>2026-05-01T14:14:50.999Z</time></trkpt><trkpt lat="43.686480702139306" lon="10.544293433763965"><ele>13.333333333333332</ele><time>2026-05-01T14:14:51.999Z</time></trkpt><trkpt lat="43.6865661269362" lon="10.544115232269831"><ele>13.0</ele><time>2026-05-01T14:14:52.999Z</time></trkpt><trkpt lat="43.686652357400256" lon="10.543935884048416"><ele>13.0</ele><time>2026-05-01T14:14:53.999Z</time></trkpt><trkpt lat="43.68673358645918" lon="10.543764160037147"><ele>13.0</ele><time>2026-05-01T14:14:54.999Z</time></trkpt><trkpt lat="43.68681577819526" lon="10.54358858004648"><ele>13.0</ele><time>2026-05-01T14:14:55.999Z</time></trkpt><trkpt lat="43.68690090718755" lon="10.543404468116224"><ele>13.0</ele><time>2026-05-01T14:14:56.999Z</time></trkpt><trkpt lat="43.68697863365855" lon="10.543229606259223"><ele>13.0</ele><time>2026-05-01T14:14:57.999Z</time></trkpt><trkpt lat="43.68705451481766" lon="10.543057805261165"><ele>13.0</ele><time>2026-05-01T14:14:58.999Z</time></trkpt><trkpt lat="43.68712411818474" lon="10.54288713452952"><ele>13.0</ele><time>2026-05-01T14:14:59.999Z</time></trkpt><trkpt lat="43.68718735033978" lon="10.542704532561538"><ele>13.0</ele><time>2026-05-01T14:15:00.999Z</time></trkpt><trkpt lat="43.68724237941755" lon="10.542530233434956"><ele>13.0</ele><time>2026-05-01T14:15:01.999Z</time></trkpt><trkpt lat="43.68729675877232" lon="10.542347884985073"><ele>13.0</ele><time>2026-05-01T14:15:02.999Z</time></trkpt><trkpt lat="43.687344209028296" lon="10.542179717050441"><ele>13.0</ele><time>2026-05-01T14:15:03.999Z</time></trkpt><trkpt lat="43.68738736650571" lon="10.542011358039268"><ele>12.75</ele><time>2026-05-01T14:15:04.999Z</time></trkpt><trkpt lat="43.68742664682857" lon="10.541831572592608"><ele>12.5</ele><time>2026-05-01T14:15:05.999Z</time></trkpt><trkpt lat="43.68746792655355" lon="10.541651472515328"><ele>12.25</ele><time>2026-05-01T14:15:06.999Z</time></trkpt><trkpt lat="43.687508201336314" lon="10.541459070944532"><ele>12.0</ele><time>2026-05-01T14:15:07.999Z</time></trkpt><trkpt lat="43.68754648533489" lon="10.541256632073141"><ele>12.333333333333332</ele><time>2026-05-01T14:15:08.999Z</time></trkpt><trkpt lat="43.687590448092" lon="10.541049165663525"><ele>12.666666666666666</ele><time>2026-05-01T14:15:09.999Z</time></trkpt><trkpt lat="43.68763755705154" lon="10.540836046564788"><ele>13.0</ele><time>2026-05-01T14:15:10.999Z</time></trkpt><trkpt lat="43.68769253223295" lon="10.54062393193187"><ele>13.0</ele><time>2026-05-01T14:15:11.999Z</time></trkpt><trkpt lat="43.687745107171416" lon="10.540419920145483"><ele>13.0</ele><time>2026-05-01T14:15:12.999Z</time></trkpt><trkpt lat="43.68779259272128" lon="10.540212261366287"><ele>13.0</ele><time>2026-05-01T14:15:13.999Z</time></trkpt><trkpt lat="43.68783231370834" lon="10.54000462293352"><ele>15.666666666666666</ele><time>2026-05-01T14:15:14.999Z</time></trkpt><trkpt lat="43.68788349561497" lon="10.539797031656871"><ele>18.333333333333332</ele><time>2026-05-01T14:15:15.999Z</time></trkpt><trkpt lat="43.68793298635199" lon="10.539581731155021"><ele>21.0</ele><time>2026-05-01T14:15:16.999Z</time></trkpt><trkpt lat="43.6879879334716" lon="10.53935533380007"><ele>21.0</ele><time>2026-05-01T14:15:17.999Z</time></trkpt><trkpt lat="43.68803946080096" lon="10.53912597186136"><ele>21.0</ele><time>2026-05-01T14:15:18.999Z</time></trkpt><trkpt lat="43.68809883512304" lon="10.538899557092728"><ele>21.0</ele><time>2026-05-01T14:15:19.999Z</time></trkpt><trkpt lat="43.68815657623006" lon="10.53866469615767"><ele>19.666666666666668</ele><time>2026-05-01T14:15:20.999Z</time></trkpt><trkpt lat="43.68821559752637" lon="10.538422274251667"><ele>18.333333333333336</ele><time>2026-05-01T14:15:22Z</time></trkpt><trkpt lat="43.68827369849808" lon="10.538183187096006"><ele>17.0</ele><time>2026-05-01T14:15:23Z</time></trkpt><trkpt lat="43.68832927835247" lon="10.537949532868172"><ele>16.333333333333336</ele><time>2026-05-01T14:15:24Z</time></trkpt><trkpt lat="43.68837984636994" lon="10.537722972541628"><ele>15.666666666666668</ele><time>2026-05-01T14:15:25Z</time></trkpt><trkpt lat="43.68842915548521" lon="10.537488701211146"><ele>15.0</ele><time>2026-05-01T14:15:26Z</time></trkpt><trkpt lat="43.68848099127261" lon="10.537251296124685"><ele>14.333333333333332</ele><time>2026-05-01T14:15:27Z</time></trkpt><trkpt lat="43.688537652637805" lon="10.537011420164323"><ele>13.666666666666666</ele><time>2026-05-01T14:15:28Z</time></trkpt><trkpt lat="43.68860208882769" lon="10.536772837778326"><ele>13.0</ele><time>2026-05-01T14:15:29Z</time></trkpt><trkpt lat="43.68865283735732" lon="10.536523501749087"><ele>13.0</ele><time>2026-05-01T14:15:30Z</time></trkpt><trkpt lat="43.688708129671525" lon="10.536273862624256"><ele>13.0</ele><time>2026-05-01T14:15:31Z</time></trkpt><trkpt lat="43.68876405305444" lon="10.536020647631947"><ele>13.0</ele><time>2026-05-01T14:15:32Z</time></trkpt><trkpt lat="43.68882219269341" lon="10.535762102865517"><ele>13.0</ele><time>2026-05-01T14:15:33Z</time></trkpt><trkpt lat="43.68888274661625" lon="10.535500717100597"><ele>13.0</ele><time>2026-05-01T14:15:34Z</time></trkpt><trkpt lat="43.6889421939699" lon="10.535238982216814"><ele>13.0</ele><time>2026-05-01T14:15:35Z</time></trkpt><trkpt lat="43.68900198383219" lon="10.534973682039476"><ele>13.0</ele><time>2026-05-01T14:15:36Z</time></trkpt><trkpt lat="43.689060344651715" lon="10.534704553479122"><ele>13.0</ele><time>2026-05-01T14:15:37Z</time></trkpt><trkpt lat="43.6891174739072" lon="10.534443573750224"><ele>13.0</ele><time>2026-05-01T14:15:38Z</time></trkpt><trkpt lat="43.689173640693774" lon="10.534178230713596"><ele>13.0</ele><time>2026-05-01T14:15:39Z</time></trkpt><trkpt lat="43.68923240453728" lon="10.533918580586048"><ele>13.0</ele><time>2026-05-01T14:15:40Z</time></trkpt><trkpt lat="43.689292454671005" lon="10.533659932938743"><ele>13.0</ele><time>2026-05-01T14:15:41Z</time></trkpt><trkpt lat="43.68935184133726" lon="10.533396999476262"><ele>13.0</ele><time>2026-05-01T14:15:42Z</time></trkpt><trkpt lat="43.689409125350736" lon="10.533138245305532"><ele>13.0</ele><time>2026-05-01T14:15:43Z</time></trkpt><trkpt lat="43.689467225655584" lon="10.532899393052602"><ele>13.0</ele><time>2026-05-01T14:15:44Z</time></trkpt><trkpt lat="43.689518967624466" lon="10.532663653398908"><ele>13.0</ele><time>2026-05-01T14:15:45Z</time></trkpt><trkpt lat="43.68957552035562" lon="10.532427019103197"><ele>13.0</ele><time>2026-05-01T14:15:46Z</time></trkpt><trkpt lat="43.68963106675192" lon="10.532186224705603"><ele>13.0</ele><time>2026-05-01T14:15:47Z</time></trkpt><trkpt lat="43.689689544896225" lon="10.531941583479227"><ele>13.666666666666666</ele><time>2026-05-01T14:15:48Z</time></trkpt><trkpt lat="43.68974314557281" lon="10.531691766244649"><ele>14.333333333333332</ele><time>2026-05-01T14:15:49Z</time></trkpt><trkpt lat="43.68979569309329" lon="10.531446533672803"><ele>15.0</ele><time>2026-05-01T14:15:50Z</time></trkpt><trkpt lat="43.6898449890298" lon="10.531218958663827"><ele>15.333333333333332</ele><time>2026-05-01T14:15:51Z</time></trkpt><trkpt lat="43.68989809260093" lon="10.530978570978872"><ele>15.666666666666666</ele><time>2026-05-01T14:15:52Z</time></trkpt><trkpt lat="43.689963528658296" lon="10.530728439768192"><ele>16.0</ele><time>2026-05-01T14:15:53Z</time></trkpt><trkpt lat="43.69002124151619" lon="10.530482167817748"><ele>15.666666666666666</ele><time>2026-05-01T14:15:54Z</time></trkpt><trkpt lat="43.69007790226826" lon="10.530229561738665"><ele>15.333333333333332</ele><time>2026-05-01T14:15:55Z</time></trkpt><trkpt lat="43.69013869814469" lon="10.529977438741884"><ele>15.0</ele><time>2026-05-01T14:15:56Z</time></trkpt><trkpt lat="43.690198142043485" lon="10.529731240534785"><ele>14.666666666666668</ele><time>2026-05-01T14:15:57Z</time></trkpt><trkpt lat="43.69025473029918" lon="10.529488641472861"><ele>14.333333333333334</ele><time>2026-05-01T14:15:58Z</time></trkpt><trkpt lat="43.69031017186938" lon="10.529244934693029"><ele>14.0</ele><time>2026-05-01T14:15:59Z</time></trkpt><trkpt lat="43.69037073114639" lon="10.529008871513915"><ele>15.0</ele><time>2026-05-01T14:16:00Z</time></trkpt><trkpt lat="43.690428094409775" lon="10.528770141317606"><ele>16.0</ele><time>2026-05-01T14:16:01Z</time></trkpt><trkpt lat="43.69049469812162" lon="10.528533387406501"><ele>17.0</ele><time>2026-05-01T14:16:02Z</time></trkpt><trkpt lat="43.69056498162526" lon="10.528297997155194"><ele>17.0</ele><time>2026-05-01T14:16:03Z</time></trkpt><trkpt lat="43.69063663302888" lon="10.528079810194999"><ele>17.0</ele><time>2026-05-01T14:16:04Z</time></trkpt><trkpt lat="43.69071422510196" lon="10.52786732904938"><ele>17.0</ele><time>2026-05-01T14:16:05Z</time></trkpt><trkpt lat="43.69079616485918" lon="10.527648438666297"><ele>17.0</ele><time>2026-05-01T14:16:06Z</time></trkpt><trkpt lat="43.690885039203685" lon="10.527438000752097"><ele>17.0</ele><time>2026-05-01T14:16:07Z</time></trkpt><trkpt lat="43.690968395043456" lon="10.52724705332367"><ele>17.0</ele><time>2026-05-01T14:16:08Z</time></trkpt><trkpt lat="43.691055153918704" lon="10.527057355329017"><ele>17.666666666666668</ele><time>2026-05-01T14:16:09Z</time></trkpt><trkpt lat="43.6911389571232" lon="10.52687392169306"><ele>18.333333333333332</ele><time>2026-05-01T14:16:10Z</time></trkpt><trkpt lat="43.69123358097691" lon="10.526695677043163"><ele>19.0</ele><time>2026-05-01T14:16:11Z</time></trkpt><trkpt lat="43.691347559478224" lon="10.52654024272416"><ele>19.0</ele><time>2026-05-01T14:16:12Z</time></trkpt><trkpt lat="43.691476148143614" lon="10.526389378086616"><ele>19.0</ele><time>2026-05-01T14:16:13Z</time></trkpt><trkpt lat="43.691600700213414" lon="10.526239539389092"><ele>19.0</ele><time>2026-05-01T14:16:14Z</time></trkpt><trkpt lat="43.69172214261691" lon="10.526086284882316"><ele>17.5</ele><time>2026-05-01T14:16:15Z</time></trkpt><trkpt lat="43.6918309170307" lon="10.525936478511372"><ele>16.0</ele><time>2026-05-01T14:16:16Z</time></trkpt><trkpt lat="43.69193195625729" lon="10.525786455958919"><ele>14.5</ele><time>2026-05-01T14:16:17Z</time></trkpt><trkpt lat="43.69202222499915" lon="10.525634546625412"><ele>13.0</ele><time>2026-05-01T14:16:18Z</time></trkpt><trkpt lat="43.69209218004916" lon="10.525475279751296"><ele>15.75</ele><time>2026-05-01T14:16:19Z</time></trkpt><trkpt lat="43.69215117973838" lon="10.525309021398128"><ele>18.5</ele><time>2026-05-01T14:16:20Z</time></trkpt><trkpt lat="43.692213364673506" lon="10.525137342027062"><ele>21.25</ele><time>2026-05-01T14:16:21Z</time></trkpt><trkpt lat="43.692271213720765" lon="10.524962731175398"><ele>24.0</ele><time>2026-05-01T14:16:22Z</time></trkpt><trkpt lat="43.69232760078073" lon="10.524790630392436"><ele>24.0</ele><time>2026-05-01T14:16:23Z</time></trkpt><trkpt lat="43.69238788750873" lon="10.524628572649869"><ele>24.0</ele><time>2026-05-01T14:16:24Z</time></trkpt><trkpt lat="43.69244558292103" lon="10.524454952900342"><ele>24.0</ele><time>2026-05-01T14:16:25Z</time></trkpt><trkpt lat="43.692504058842914" lon="10.52426892910405"><ele>24.0</ele><time>2026-05-01T14:16:26Z</time></trkpt><trkpt lat="43.69256355475177" lon="10.524094052858393"><ele>23.25</ele><time>2026-05-01T14:16:27Z</time></trkpt><trkpt lat="43.6926169163239" lon="10.523926920116256"><ele>22.5</ele><time>2026-05-01T14:16:28Z</time></trkpt><trkpt lat="43.692668619689286" lon="10.52376481040089"><ele>21.75</ele><time>2026-05-01T14:16:29Z</time></trkpt><trkpt lat="43.69271800629316" lon="10.52360510950421"><ele>21.0</ele><time>2026-05-01T14:16:30Z</time></trkpt><trkpt lat="43.692769883019004" lon="10.523453907490289"><ele>20.5</ele><time>2026-05-01T14:16:31Z</time></trkpt><trkpt lat="43.692815152864995" lon="10.52330170239263"><ele>20.0</ele><time>2026-05-01T14:16:32Z</time></trkpt><trkpt lat="43.692865490147355" lon="10.523146648805573"><ele>19.5</ele><time>2026-05-01T14:16:33Z</time></trkpt><trkpt lat="43.69291784696688" lon="10.522984460514829"><ele>19.0</ele><time>2026-05-01T14:16:34Z</time></trkpt><trkpt lat="43.69297497010082" lon="10.522819087127415"><ele>18.5</ele><time>2026-05-01T14:16:35Z</time></trkpt><trkpt lat="43.693033252935194" lon="10.522656445464595"><ele>18.0</ele><time>2026-05-01T14:16:36Z</time></trkpt><trkpt lat="43.693088826388035" lon="10.5225007560286"><ele>17.5</ele><time>2026-05-01T14:16:37Z</time></trkpt><trkpt lat="43.69314032652688" lon="10.522348533752734"><ele>17.0</ele><time>2026-05-01T14:16:38Z</time></trkpt><trkpt lat="43.69319454686066" lon="10.522207686587228"><ele>17.0</ele><time>2026-05-01T14:16:39Z</time></trkpt><trkpt lat="43.69324431116714" lon="10.522065370849283"><ele>17.0</ele><time>2026-05-01T14:16:40Z</time></trkpt><trkpt lat="43.69329705972002" lon="10.521923805515035"><ele>17.0</ele><time>2026-05-01T14:16:41Z</time></trkpt><trkpt lat="43.69335061968366" lon="10.521776010664146"><ele>17.0</ele><time>2026-05-01T14:16:42Z</time></trkpt><trkpt lat="43.69340826861522" lon="10.521621860889319"><ele>16.5</ele><time>2026-05-01T14:16:43Z</time></trkpt><trkpt lat="43.69346633837024" lon="10.521466040192069"><ele>16.0</ele><time>2026-05-01T14:16:44Z</time></trkpt><trkpt lat="43.69353400419934" lon="10.521314054221945"><ele>15.5</ele><time>2026-05-01T14:16:45Z</time></trkpt><trkpt lat="43.693608160694204" lon="10.521183730538624"><ele>15.0</ele><time>2026-05-01T14:16:46Z</time></trkpt><trkpt lat="43.693692938982274" lon="10.521076096485123"><ele>15.0</ele><time>2026-05-01T14:16:47Z</time></trkpt><trkpt lat="43.69379572769775" lon="10.520979600149637"><ele>15.0</ele><time>2026-05-01T14:16:48Z</time></trkpt><trkpt lat="43.69390345535011" lon="10.520875950531927"><ele>15.0</ele><time>2026-05-01T14:16:49Z</time></trkpt><trkpt lat="43.69401724203568" lon="10.520770427991788"><ele>15.0</ele><time>2026-05-01T14:16:49.999Z</time></trkpt><trkpt lat="43.6941294892071" lon="10.520663726673622"><ele>15.0</ele><time>2026-05-01T14:16:50.999Z</time></trkpt><trkpt lat="43.694239954350294" lon="10.520564466427444"><ele>15.0</ele><time>2026-05-01T14:16:51.999Z</time></trkpt><trkpt lat="43.6943483834825" lon="10.520464104052794"><ele>15.0</ele><time>2026-05-01T14:16:52.999Z</time></trkpt><trkpt lat="43.69445310130827" lon="10.520357188239066"><ele>15.0</ele><time>2026-05-01T14:16:53.999Z</time></trkpt><trkpt lat="43.694555074527194" lon="10.520255052956484"><ele>14.5</ele><time>2026-05-01T14:16:54.999Z</time></trkpt><trkpt lat="43.694661345861064" lon="10.520148976170127"><ele>14.0</ele><time>2026-05-01T14:16:55.999Z</time></trkpt><trkpt lat="43.694769226630335" lon="10.52004107934262"><ele>13.5</ele><time>2026-05-01T14:16:56.999Z</time></trkpt><trkpt lat="43.694875873073364" lon="10.519942553696948"><ele>13.0</ele><time>2026-05-01T14:16:57.999Z</time></trkpt><trkpt lat="43.694983490308736" lon="10.519857615201873"><ele>13.0</ele><time>2026-05-01T14:16:58.999Z</time></trkpt><trkpt lat="43.69509669557194" lon="10.519769935257683"><ele>13.0</ele><time>2026-05-01T14:16:59.999Z</time></trkpt><trkpt lat="43.69521077047494" lon="10.519680825477101"><ele>13.0</ele><time>2026-05-01T14:17:00.999Z</time></trkpt><trkpt lat="43.695325490442706" lon="10.519592310853133"><ele>13.0</ele><time>2026-05-01T14:17:01.999Z</time></trkpt><trkpt lat="43.695441305109405" lon="10.519499508985264"><ele>13.25</ele><time>2026-05-01T14:17:02.999Z</time></trkpt><trkpt lat="43.69555880869224" lon="10.51940284028798"><ele>13.5</ele><time>2026-05-01T14:17:03.999Z</time></trkpt><trkpt lat="43.695682887221494" lon="10.519302811591377"><ele>13.75</ele><time>2026-05-01T14:17:04.999Z</time></trkpt><trkpt lat="43.69581476571291" lon="10.51920985574187"><ele>14.0</ele><time>2026-05-01T14:17:05.999Z</time></trkpt><trkpt lat="43.69595838631041" lon="10.519130984531797"><ele>16.333333333333336</ele><time>2026-05-01T14:17:06.999Z</time></trkpt><trkpt lat="43.696109635820655" lon="10.51906956078427"><ele>18.666666666666668</ele><time>2026-05-01T14:17:07.999Z</time></trkpt><trkpt lat="43.696263746519314" lon="10.519009624215501"><ele>21.0</ele><time>2026-05-01T14:17:08.999Z</time></trkpt><trkpt lat="43.696421344724456" lon="10.518942079470794"><ele>21.0</ele><time>2026-05-01T14:17:09.999Z</time></trkpt><trkpt lat="43.69656633885166" lon="10.518863511325474"><ele>21.0</ele><time>2026-05-01T14:17:10.999Z</time></trkpt><trkpt lat="43.696700341558845" lon="10.51877784890929"><ele>21.0</ele><time>2026-05-01T14:17:11.999Z</time></trkpt><trkpt lat="43.69683106106722" lon="10.518681785350187"><ele>20.5</ele><time>2026-05-01T14:17:12.999Z</time></trkpt><trkpt lat="43.69696256492383" lon="10.518579260947325"><ele>20.0</ele><time>2026-05-01T14:17:13.999Z</time></trkpt><trkpt lat="43.69708751381718" lon="10.518467802347583"><ele>19.5</ele><time>2026-05-01T14:17:14.999Z</time></trkpt><trkpt lat="43.69719964894092" lon="10.518358847115017"><ele>19.0</ele><time>2026-05-01T14:17:15.999Z</time></trkpt><trkpt lat="43.6973023877664" lon="10.518249834795064"><ele>19.0</ele><time>2026-05-01T14:17:16.999Z</time></trkpt><trkpt lat="43.69740161421637" lon="10.518147971089936"><ele>19.0</ele><time>2026-05-01T14:17:17.999Z</time></trkpt><trkpt lat="43.697497987864786" lon="10.518050724681641"><ele>19.0</ele><time>2026-05-01T14:17:18.999Z</time></trkpt><trkpt lat="43.697600191991334" lon="10.517950709550016"><ele>19.0</ele><time>2026-05-01T14:17:19.999Z</time></trkpt><trkpt lat="43.69770571292025" lon="10.517846452966351"><ele>18.25</ele><time>2026-05-01T14:17:20.999Z</time></trkpt><trkpt lat="43.69782109444282" lon="10.517743538369176"><ele>17.5</ele><time>2026-05-01T14:17:21.999Z</time></trkpt><trkpt lat="43.6979510569387" lon="10.51765374789318"><ele>16.75</ele><time>2026-05-01T14:17:22.999Z</time></trkpt><trkpt lat="43.69808432726429" lon="10.517563132329869"><ele>16.0</ele><time>2026-05-01T14:17:23.999Z</time></trkpt><trkpt lat="43.69822197990734" lon="10.517461480277051"><ele>16.0</ele><time>2026-05-01T14:17:24.999Z</time></trkpt><trkpt lat="43.69835522171383" lon="10.517340675437108"><ele>16.0</ele><time>2026-05-01T14:17:25.999Z</time></trkpt><trkpt lat="43.69848602055918" lon="10.517212865967105"><ele>16.0</ele><time>2026-05-01T14:17:26.999Z</time></trkpt><trkpt lat="43.69861714620097" lon="10.517077604675322"><ele>16.0</ele><time>2026-05-01T14:17:28Z</time></trkpt><trkpt lat="43.69874317143755" lon="10.516935223500848"><ele>16.0</ele><time>2026-05-01T14:17:29Z</time></trkpt><trkpt lat="43.6988653413675" lon="10.516789744938333"><ele>16.0</ele><time>2026-05-01T14:17:30Z</time></trkpt><trkpt lat="43.698978853137746" lon="10.516638348020525"><ele>16.0</ele><time>2026-05-01T14:17:31Z</time></trkpt><trkpt lat="43.69908033679307" lon="10.516494791502097"><ele>16.0</ele><time>2026-05-01T14:17:32Z</time></trkpt><trkpt lat="43.69917766764256" lon="10.516357214654741"><ele>16.0</ele><time>2026-05-01T14:17:33Z</time></trkpt><trkpt lat="43.699276668306695" lon="10.516227203789278"><ele>16.0</ele><time>2026-05-01T14:17:34Z</time></trkpt><trkpt lat="43.69936861487158" lon="10.516108797295145"><ele>17.200000000000003</ele><time>2026-05-01T14:17:35Z</time></trkpt><trkpt lat="43.69945744011621" lon="10.515989605448123"><ele>18.400000000000002</ele><time>2026-05-01T14:17:36Z</time></trkpt><trkpt lat="43.69953640509376" lon="10.515872985961098"><ele>19.6</ele><time>2026-05-01T14:17:37Z</time></trkpt><trkpt lat="43.69960624771678" lon="10.515767119541513"><ele>20.8</ele><time>2026-05-01T14:17:38Z</time></trkpt><trkpt lat="43.69967229443806" lon="10.515673071291472"><ele>22.0</ele><time>2026-05-01T14:17:39Z</time></trkpt><trkpt lat="43.69975477890009" lon="10.51559209392419"><ele>22.0</ele><time>2026-05-01T14:17:40Z</time></trkpt><trkpt lat="43.69984067292657" lon="10.515533246342411"><ele>22.0</ele><time>2026-05-01T14:17:41Z</time></trkpt><trkpt lat="43.69992044113844" lon="10.515450342376047"><ele>22.0</ele><time>2026-05-01T14:17:42Z</time></trkpt><trkpt lat="43.69998695865966" lon="10.515328820037892"><ele>22.0</ele><time>2026-05-01T14:17:43Z</time></trkpt><trkpt lat="43.700039867412336" lon="10.515188457352192"><ele>22.0</ele><time>2026-05-01T14:17:44Z</time></trkpt><trkpt lat="43.70010492017156" lon="10.515049187901313"><ele>20.75</ele><time>2026-05-01T14:17:45Z</time></trkpt><trkpt lat="43.70020228772807" lon="10.514930946894594"><ele>19.5</ele><time>2026-05-01T14:17:46Z</time></trkpt><trkpt lat="43.70031048021948" lon="10.514822011795099"><ele>18.25</ele><time>2026-05-01T14:17:47Z</time></trkpt><trkpt lat="43.70042298801989" lon="10.514696315890081"><ele>17.0</ele><time>2026-05-01T14:17:48Z</time></trkpt><trkpt lat="43.700534314210195" lon="10.51455449681601"><ele>14.0</ele><time>2026-05-01T14:17:49Z</time></trkpt><trkpt lat="43.70064106990228" lon="10.514411436975273"><ele>11.0</ele><time>2026-05-01T14:17:50Z</time></trkpt><trkpt lat="43.70075423687277" lon="10.514257711250716"><ele>8.0</ele><time>2026-05-01T14:17:51Z</time></trkpt><trkpt lat="43.70087565270904" lon="10.514101470577204"><ele>8.0</ele><time>2026-05-01T14:17:52Z</time></trkpt><trkpt lat="43.70100036502565" lon="10.51393703010773"><ele>8.0</ele><time>2026-05-01T14:17:53Z</time></trkpt><trkpt lat="43.701124288284724" lon="10.51376901760313"><ele>8.0</ele><time>2026-05-01T14:17:54Z</time></trkpt><trkpt lat="43.70125036790753" lon="10.51359902260267"><ele>9.666666666666666</ele><time>2026-05-01T14:17:55Z</time></trkpt><trkpt lat="43.70136731385124" lon="10.51343517820794"><ele>11.333333333333332</ele><time>2026-05-01T14:17:56Z</time></trkpt><trkpt lat="43.701483955217284" lon="10.513265486954339"><ele>13.0</ele><time>2026-05-01T14:17:57Z</time></trkpt><trkpt lat="43.701598706315295" lon="10.513091689872981"><ele>13.0</ele><time>2026-05-01T14:17:58Z</time></trkpt><trkpt lat="43.701705137512036" lon="10.51291465649261"><ele>13.0</ele><time>2026-05-01T14:17:59Z</time></trkpt><trkpt lat="43.70179888103036" lon="10.512727431496529"><ele>13.0</ele><time>2026-05-01T14:18:00Z</time></trkpt><trkpt lat="43.70188930548763" lon="10.512527295981085"><ele>16.333333333333332</ele><time>2026-05-01T14:18:01Z</time></trkpt><trkpt lat="43.70197742413585" lon="10.512317475840273"><ele>19.666666666666668</ele><time>2026-05-01T14:18:02Z</time></trkpt><trkpt lat="43.702059660387896" lon="10.512104232859706"><ele>23.0</ele><time>2026-05-01T14:18:03Z</time></trkpt><trkpt lat="43.70213759683955" lon="10.511881934184075"><ele>23.0</ele><time>2026-05-01T14:18:04Z</time></trkpt><trkpt lat="43.70220573152258" lon="10.511649800257626"><ele>23.0</ele><time>2026-05-01T14:18:05Z</time></trkpt><trkpt lat="43.702263836158046" lon="10.511409792000237"><ele>23.0</ele><time>2026-05-01T14:18:06Z</time></trkpt><trkpt lat="43.702325929042054" lon="10.511170746226009"><ele>22.0</ele><time>2026-05-01T14:18:07Z</time></trkpt><trkpt lat="43.7023937532734" lon="10.510931431704215"><ele>21.0</ele><time>2026-05-01T14:18:08Z</time></trkpt><trkpt lat="43.70245781729149" lon="10.510687641184852"><ele>20.0</ele><time>2026-05-01T14:18:09Z</time></trkpt><trkpt lat="43.70252073182653" lon="10.510463220427383"><ele>17.666666666666668</ele><time>2026-05-01T14:18:10Z</time></trkpt><trkpt lat="43.702583179808975" lon="10.51024283446817"><ele>15.333333333333332</ele><time>2026-05-01T14:18:11Z</time></trkpt><trkpt lat="43.70265229204268" lon="10.510022592661201"><ele>13.0</ele><time>2026-05-01T14:18:12Z</time></trkpt><trkpt lat="43.702738473766914" lon="10.509812480276622"><ele>15.333333333333332</ele><time>2026-05-01T14:18:13Z</time></trkpt><trkpt lat="43.70283282182967" lon="10.509607297735073"><ele>17.666666666666668</ele><time>2026-05-01T14:18:14Z</time></trkpt><trkpt lat="43.70293407917884" lon="10.509405250077664"><ele>20.0</ele><time>2026-05-01T14:18:15Z</time></trkpt><trkpt lat="43.70303061091685" lon="10.509211610864638"><ele>20.0</ele><time>2026-05-01T14:18:16Z</time></trkpt><trkpt lat="43.70312510758311" lon="10.509038685490832"><ele>20.0</ele><time>2026-05-01T14:18:17Z</time></trkpt><trkpt lat="43.703224596722514" lon="10.508872655496969"><ele>20.0</ele><time>2026-05-01T14:18:18Z</time></trkpt><trkpt lat="43.70333510779228" lon="10.50871338995945"><ele>17.666666666666668</ele><time>2026-05-01T14:18:19Z</time></trkpt><trkpt lat="43.70346374822549" lon="10.508566627619404"><ele>15.333333333333332</ele><time>2026-05-01T14:18:20Z</time></trkpt><trkpt lat="43.70359896603179" lon="10.508419862491865"><ele>13.0</ele><time>2026-05-01T14:18:21Z</time></trkpt><trkpt lat="43.70374376960549" lon="10.508270441142782"><ele>13.0</ele><time>2026-05-01T14:18:22Z</time></trkpt><trkpt lat="43.70389470347194" lon="10.508117140386712"><ele>13.0</ele><time>2026-05-01T14:18:23Z</time></trkpt><trkpt lat="43.70404869425338" lon="10.50796321166679"><ele>13.0</ele><time>2026-05-01T14:18:24Z</time></trkpt><trkpt lat="43.70419213670981" lon="10.50781797381168"><ele>12.333333333333332</ele><time>2026-05-01T14:18:25Z</time></trkpt><trkpt lat="43.70433495787536" lon="10.507671872588782"><ele>11.666666666666666</ele><time>2026-05-01T14:18:26Z</time></trkpt><trkpt lat="43.704469084720216" lon="10.507532577623598"><ele>11.0</ele><time>2026-05-01T14:18:27Z</time></trkpt><trkpt lat="43.7045946279386" lon="10.507399390849473"><ele>11.0</ele><time>2026-05-01T14:18:28Z</time></trkpt><trkpt lat="43.704712680730815" lon="10.507266277764183"><ele>11.0</ele><time>2026-05-01T14:18:29Z</time></trkpt><trkpt lat="43.70482422293444" lon="10.50712685243002"><ele>11.0</ele><time>2026-05-01T14:18:30Z</time></trkpt><trkpt lat="43.70492881421632" lon="10.506988962702213"><ele>11.0</ele><time>2026-05-01T14:18:31Z</time></trkpt><trkpt lat="43.70502825002864" lon="10.506857251133095"><ele>10.5</ele><time>2026-05-01T14:18:32Z</time></trkpt><trkpt lat="43.70511955240976" lon="10.506731722284622"><ele>10.0</ele><time>2026-05-01T14:18:33Z</time></trkpt><trkpt lat="43.70520447855548" lon="10.506613990207015"><ele>9.5</ele><time>2026-05-01T14:18:34Z</time></trkpt><trkpt lat="43.70528325198281" lon="10.506505212240226"><ele>9.0</ele><time>2026-05-01T14:18:35Z</time></trkpt><trkpt lat="43.70535521699109" lon="10.50640699743482"><ele>9.8</ele><time>2026-05-01T14:18:36Z</time></trkpt><trkpt lat="43.70542320921535" lon="10.506309684362781"><ele>10.600000000000001</ele><time>2026-05-01T14:18:37Z</time></trkpt><trkpt lat="43.70549783402744" lon="10.506199404439323"><ele>11.4</ele><time>2026-05-01T14:18:38Z</time></trkpt><trkpt lat="43.70557079429245" lon="10.50609681694212"><ele>12.200000000000001</ele><time>2026-05-01T14:18:39Z</time></trkpt><trkpt lat="43.70564282189563" lon="10.505995299831417"><ele>13.0</ele><time>2026-05-01T14:18:40Z</time></trkpt><trkpt lat="43.705721556624134" lon="10.505887364469913"><ele>13.0</ele><time>2026-05-01T14:18:41Z</time></trkpt><trkpt lat="43.705791410360455" lon="10.505794935460248"><ele>13.0</ele><time>2026-05-01T14:18:42Z</time></trkpt><trkpt lat="43.70585778989407" lon="10.50570821303759"><ele>13.0</ele><time>2026-05-01T14:18:43Z</time></trkpt><trkpt lat="43.70592870594682" lon="10.505613616402037"><ele>13.0</ele><time>2026-05-01T14:18:44Z</time></trkpt><trkpt lat="43.70599047677183" lon="10.505534980297936"><ele>13.0</ele><time>2026-05-01T14:18:45Z</time></trkpt><trkpt lat="43.70605151580897" lon="10.50545321328853"><ele>12.833333333333332</ele><time>2026-05-01T14:18:46Z</time></trkpt><trkpt lat="43.70611891123802" lon="10.505374458766267"><ele>12.666666666666666</ele><time>2026-05-01T14:18:47Z</time></trkpt><trkpt lat="43.706177783540575" lon="10.505305081117461"><ele>12.5</ele><time>2026-05-01T14:18:48Z</time></trkpt><trkpt lat="43.70623282656463" lon="10.50523828283818"><ele>12.333333333333332</ele><time>2026-05-01T14:18:49Z</time></trkpt><trkpt lat="43.70629119441514" lon="10.505163618567803"><ele>12.166666666666666</ele><time>2026-05-01T14:18:50Z</time></trkpt><trkpt lat="43.706354134164066" lon="10.505081993556576"><ele>12.0</ele><time>2026-05-01T14:18:51Z</time></trkpt><trkpt lat="43.70641440516436" lon="10.505002658883068"><ele>12.0</ele><time>2026-05-01T14:18:52Z</time></trkpt><trkpt lat="43.70646879242987" lon="10.504925741410393"><ele>12.0</ele><time>2026-05-01T14:18:53Z</time></trkpt><trkpt lat="43.70652782728725" lon="10.504841499406636"><ele>12.0</ele><time>2026-05-01T14:18:54Z</time></trkpt><trkpt lat="43.70659064551555" lon="10.504754173130788"><ele>12.0</ele><time>2026-05-01T14:18:55Z</time></trkpt><trkpt lat="43.7066453773874" lon="10.504671356274187"><ele>12.0</ele><time>2026-05-01T14:18:56Z</time></trkpt><trkpt lat="43.706698251947195" lon="10.504597836326763"><ele>12.0</ele><time>2026-05-01T14:18:57Z</time></trkpt><trkpt lat="43.70674719991311" lon="10.504532777759604"><ele>11.833333333333334</ele><time>2026-05-01T14:18:58Z</time></trkpt><trkpt lat="43.706792660922495" lon="10.504471325605138"><ele>11.666666666666666</ele><time>2026-05-01T14:18:59Z</time></trkpt><trkpt lat="43.70688494874261" lon="10.504350485689974"><ele>11.5</ele><time>2026-05-01T14:19:01Z</time></trkpt><trkpt lat="43.70694341026604" lon="10.504281514635757"><ele>11.333333333333332</ele><time>2026-05-01T14:19:02Z</time></trkpt><trkpt lat="43.70701377066069" lon="10.504213905589795"><ele>11.166666666666666</ele><time>2026-05-01T14:19:03Z</time></trkpt><trkpt lat="43.70709594769128" lon="10.504148808389493"><ele>11.0</ele><time>2026-05-01T14:19:04Z</time></trkpt><trkpt lat="43.70718904102114" lon="10.504093516440806"><ele>11.0</ele><time>2026-05-01T14:19:05Z</time></trkpt><trkpt lat="43.70729780872473" lon="10.50406071333971"><ele>11.0</ele><time>2026-05-01T14:19:05.999Z</time></trkpt><trkpt lat="43.70740639130983" lon="10.504023436641964"><ele>11.0</ele><time>2026-05-01T14:19:06.999Z</time></trkpt><trkpt lat="43.707500926219964" lon="10.503985960148219"><ele>11.0</ele><time>2026-05-01T14:19:07.999Z</time></trkpt><trkpt lat="43.70758677348792" lon="10.503949058063581"><ele>11.0</ele><time>2026-05-01T14:19:08.999Z</time></trkpt><trkpt lat="43.7076624312762" lon="10.503910554757454"><ele>11.0</ele><time>2026-05-01T14:19:09.999Z</time></trkpt><trkpt lat="43.707729448163846" lon="10.50386320125593"><ele>11.0</ele><time>2026-05-01T14:19:10.999Z</time></trkpt><trkpt lat="43.70778281069398" lon="10.503812088419807"><ele>11.0</ele><time>2026-05-01T14:19:11.999Z</time></trkpt><trkpt lat="43.70785158331061" lon="10.503735876924944"><ele>11.0</ele><time>2026-05-01T14:19:13.999Z</time></trkpt><trkpt lat="43.70789526491319" lon="10.503671712634711"><ele>11.0</ele><time>2026-05-01T14:19:15.999Z</time></trkpt><trkpt lat="43.70791059991156" lon="10.503580100478908"><ele>11.0</ele><time>2026-05-01T14:19:16.999Z</time></trkpt><trkpt lat="43.70793792819346" lon="10.503487920314962"><ele>11.0</ele><time>2026-05-01T14:19:17.999Z</time></trkpt><trkpt lat="43.70799202234021" lon="10.503384808275431"><ele>10.75</ele><time>2026-05-01T14:19:18.999Z</time></trkpt><trkpt lat="43.70805485502636" lon="10.503272741028354"><ele>10.5</ele><time>2026-05-01T14:19:19.999Z</time></trkpt><trkpt lat="43.70812574975475" lon="10.503146549795199"><ele>10.25</ele><time>2026-05-01T14:19:20.999Z</time></trkpt><trkpt lat="43.70819518117842" lon="10.503014246786405"><ele>10.0</ele><time>2026-05-01T14:19:21.999Z</time></trkpt><trkpt lat="43.70827051659104" lon="10.502875146229918"><ele>10.0</ele><time>2026-05-01T14:19:22.999Z</time></trkpt><trkpt lat="43.70835050940078" lon="10.502732296673067"><ele>10.0</ele><time>2026-05-01T14:19:23.999Z</time></trkpt><trkpt lat="43.70843203584039" lon="10.502580181842633"><ele>10.0</ele><time>2026-05-01T14:19:24.999Z</time></trkpt><trkpt lat="43.70851482423174" lon="10.502431582256"><ele>10.0</ele><time>2026-05-01T14:19:25.999Z</time></trkpt><trkpt lat="43.70860238498471" lon="10.50227227522739"><ele>9.25</ele><time>2026-05-01T14:19:26.999Z</time></trkpt><trkpt lat="43.70868798788625" lon="10.50211543052297"><ele>8.5</ele><time>2026-05-01T14:19:27.999Z</time></trkpt><trkpt lat="43.708775695364984" lon="10.50196829298736"><ele>7.75</ele><time>2026-05-01T14:19:28.999Z</time></trkpt><trkpt lat="43.708869743084946" lon="10.50181733736124"><ele>7.0</ele><time>2026-05-01T14:19:29.999Z</time></trkpt><trkpt lat="43.708970046883294" lon="10.501669098592116"><ele>6.333333333333334</ele><time>2026-05-01T14:19:30.999Z</time></trkpt><trkpt lat="43.70907508799763" lon="10.501523305889826"><ele>5.666666666666667</ele><time>2026-05-01T14:19:31.999Z</time></trkpt><trkpt lat="43.70918898608172" lon="10.501385136406629"><ele>5.0</ele><time>2026-05-01T14:19:32.999Z</time></trkpt><trkpt lat="43.70931370387992" lon="10.501262575373783"><ele>4.666666666666667</ele><time>2026-05-01T14:19:34Z</time></trkpt><trkpt lat="43.70945223660547" lon="10.501169613686056"><ele>4.333333333333333</ele><time>2026-05-01T14:19:35Z</time></trkpt><trkpt lat="43.70960314831301" lon="10.501094832699302"><ele>4.0</ele><time>2026-05-01T14:19:36Z</time></trkpt><trkpt lat="43.70975783933081" lon="10.501013254516065"><ele>4.0</ele><time>2026-05-01T14:19:37Z</time></trkpt><trkpt lat="43.70991136977979" lon="10.50093067802664"><ele>4.0</ele><time>2026-05-01T14:19:38Z</time></trkpt><trkpt lat="43.710056280755964" lon="10.500854514547413"><ele>4.0</ele><time>2026-05-01T14:19:39Z</time></trkpt><trkpt lat="43.710190974941185" lon="10.500781919726986"><ele>4.5</ele><time>2026-05-01T14:19:40Z</time></trkpt><trkpt lat="43.71032248733768" lon="10.50070813475976"><ele>5.0</ele><time>2026-05-01T14:19:41Z</time></trkpt><trkpt lat="43.71045660315558" lon="10.500624909719779"><ele>5.5</ele><time>2026-05-01T14:19:42Z</time></trkpt><trkpt lat="43.710570299315556" lon="10.500530445673931"><ele>6.0</ele><time>2026-05-01T14:19:43Z</time></trkpt><trkpt lat="43.71066975588088" lon="10.500428336832687"><ele>6.0</ele><time>2026-05-01T14:19:44Z</time></trkpt><trkpt lat="43.710758517073735" lon="10.500328569976336"><ele>6.0</ele><time>2026-05-01T14:19:45Z</time></trkpt><trkpt lat="43.710851411570395" lon="10.500253327753672"><ele>6.0</ele><time>2026-05-01T14:19:46Z</time></trkpt><trkpt lat="43.71092899442966" lon="10.500171385414115"><ele>6.0</ele><time>2026-05-01T14:19:47Z</time></trkpt><trkpt lat="43.71099246425769" lon="10.500089322721571"><ele>6.0</ele><time>2026-05-01T14:19:48Z</time></trkpt><trkpt lat="43.711077413277636" lon="10.500048931281937"><ele>5.8</ele><time>2026-05-01T14:19:49Z</time></trkpt><trkpt lat="43.711140522048446" lon="10.499982368523641"><ele>5.6</ele><time>2026-05-01T14:19:50Z</time></trkpt><trkpt lat="43.71120353055839" lon="10.499920846649582"><ele>5.4</ele><time>2026-05-01T14:19:51Z</time></trkpt><trkpt lat="43.711290227463785" lon="10.499947347365886"><ele>5.2</ele><time>2026-05-01T14:19:52Z</time></trkpt><trkpt lat="43.7113784807734" lon="10.49991554631814"><ele>5.0</ele><time>2026-05-01T14:19:54Z</time></trkpt><trkpt lat="43.71140241861528" lon="10.499716595499635"><ele>5.0</ele><time>2026-05-01T14:19:56Z</time></trkpt><trkpt lat="43.71146646119298" lon="10.499651121118582"><ele>5.0</ele><time>2026-05-01T14:19:57Z</time></trkpt><trkpt lat="43.71156539942004" lon="10.499548832363114"><ele>5.0</ele><time>2026-05-01T14:19:58Z</time></trkpt><trkpt lat="43.71167098552709" lon="10.499437237328273"><ele>5.0</ele><time>2026-05-01T14:19:59Z</time></trkpt><trkpt lat="43.7117617445409" lon="10.49934489631207"><ele>5.0</ele><time>2026-05-01T14:20:00Z</time></trkpt><trkpt lat="43.71186707964592" lon="10.499238599958806"><ele>5.0</ele><time>2026-05-01T14:20:01Z</time></trkpt><trkpt lat="43.711967608004905" lon="10.49913492838773"><ele>5.0</ele><time>2026-05-01T14:20:02Z</time></trkpt><trkpt lat="43.71205187802707" lon="10.499048289094729"><ele>5.0</ele><time>2026-05-01T14:20:03Z</time></trkpt><trkpt lat="43.71213513556185" lon="10.498963860319057"><ele>5.0</ele><time>2026-05-01T14:20:04Z</time></trkpt><trkpt lat="43.71223487679455" lon="10.49886183598352"><ele>5.0</ele><time>2026-05-01T14:20:05Z</time></trkpt><trkpt lat="43.71234289688744" lon="10.498748748521983"><ele>5.0</ele><time>2026-05-01T14:20:06Z</time></trkpt><trkpt lat="43.7124457231681" lon="10.498638417713375"><ele>5.0</ele><time>2026-05-01T14:20:07Z</time></trkpt><trkpt lat="43.7125331204161" lon="10.49854337786419"><ele>5.0</ele><time>2026-05-01T14:20:08Z</time></trkpt><trkpt lat="43.71259754087167" lon="10.49846602607103"><ele>5.0</ele><time>2026-05-01T14:20:09Z</time></trkpt><trkpt lat="43.7126472707213" lon="10.498390615377971"><ele>5.0</ele><time>2026-05-01T14:20:10Z</time></trkpt><trkpt lat="43.71269750179025" lon="10.498314995134809"><ele>5.0</ele><time>2026-05-01T14:20:11Z</time></trkpt><trkpt lat="43.712739149264195" lon="10.498242038696953"><ele>5.0</ele><time>2026-05-01T14:20:12Z</time></trkpt><trkpt lat="43.712779935609795" lon="10.498168639132139"><ele>5.0</ele><time>2026-05-01T14:20:13Z</time></trkpt><trkpt lat="43.71283012332763" lon="10.498069550865408"><ele>5.0</ele><time>2026-05-01T14:20:15Z</time></trkpt><trkpt lat="43.713213217634" lon="10.498339158010614"><ele>5.0</ele><time>2026-05-01T14:20:25Z</time></trkpt><trkpt lat="43.71331060116709" lon="10.498407002945042"><ele>5.0</ele><time>2026-05-01T14:20:26Z</time></trkpt><trkpt lat="43.71342208357227" lon="10.498457229955877"><ele>5.0</ele><time>2026-05-01T14:20:27Z</time></trkpt><trkpt lat="43.71350989832534" lon="10.49852476096392"><ele>5.0</ele><time>2026-05-01T14:20:28Z</time></trkpt><trkpt lat="43.7136120534375" lon="10.498598581233772"><ele>5.0</ele><time>2026-05-01T14:20:29Z</time></trkpt><trkpt lat="43.71373103016451" lon="10.498681323945956"><ele>5.0</ele><time>2026-05-01T14:20:30Z</time></trkpt><trkpt lat="43.7138481071826" lon="10.498762436894037"><ele>5.0</ele><time>2026-05-01T14:20:31Z</time></trkpt><trkpt lat="43.713985419673485" lon="10.498863001128603"><ele>5.0</ele><time>2026-05-01T14:20:32Z</time></trkpt><trkpt lat="43.71411546784266" lon="10.49896272186539"><ele>5.0</ele><time>2026-05-01T14:20:33Z</time></trkpt><trkpt lat="43.71425086893314" lon="10.49903418180742"><ele>5.0</ele><time>2026-05-01T14:20:34Z</time></trkpt><trkpt lat="43.71434424504614" lon="10.499126315915547"><ele>5.0</ele><time>2026-05-01T14:20:35Z</time></trkpt><trkpt lat="43.71442048082709" lon="10.499175561783531"><ele>5.0</ele><time>2026-05-01T14:20:36Z</time></trkpt><trkpt lat="43.71452136295155" lon="10.499217268640246"><ele>5.0</ele><time>2026-05-01T14:20:38Z</time></trkpt><trkpt lat="43.71457372317223" lon="10.4992745510786"><ele>5.0</ele><time>2026-05-01T14:20:50Z</time></trkpt><trkpt lat="43.714659504355325" lon="10.499133293271562"><ele>5.0</ele><time>2026-05-01T14:20:52Z</time></trkpt><trkpt lat="43.7146806642349" lon="10.499000519754665"><ele>5.0</ele><time>2026-05-01T14:20:53Z</time></trkpt><trkpt lat="43.714728138500156" lon="10.49886706991728"><ele>5.0</ele><time>2026-05-01T14:20:54Z</time></trkpt><trkpt lat="43.71479698090281" lon="10.498712513731324"><ele>5.0</ele><time>2026-05-01T14:20:55Z</time></trkpt><trkpt lat="43.71488740954133" lon="10.49853587355929"><ele>5.0</ele><time>2026-05-01T14:20:56Z</time></trkpt><trkpt lat="43.71499180753537" lon="10.498370587519648"><ele>5.0</ele><time>2026-05-01T14:20:57Z</time></trkpt><trkpt lat="43.71509233174987" lon="10.498202487816462"><ele>5.0</ele><time>2026-05-01T14:20:58Z</time></trkpt><trkpt lat="43.71519563761923" lon="10.498025546427883"><ele>5.0</ele><time>2026-05-01T14:20:59Z</time></trkpt><trkpt lat="43.71529993115738" lon="10.497843065819081"><ele>5.0</ele><time>2026-05-01T14:21:00Z</time></trkpt><trkpt lat="43.71541268597248" lon="10.497663283372711"><ele>5.0</ele><time>2026-05-01T14:21:01Z</time></trkpt><trkpt lat="43.715525423316386" lon="10.497480342031325"><ele>5.0</ele><time>2026-05-01T14:21:02Z</time></trkpt><trkpt lat="43.715637406138335" lon="10.497297273686748"><ele>5.0</ele><time>2026-05-01T14:21:03Z</time></trkpt><trkpt lat="43.71575029758408" lon="10.497107392086914"><ele>5.0</ele><time>2026-05-01T14:21:04Z</time></trkpt><trkpt lat="43.71586046148066" lon="10.496909125333614"><ele>4.666666666666667</ele><time>2026-05-01T14:21:05Z</time></trkpt><trkpt lat="43.71596076737689" lon="10.496697574235725"><ele>4.333333333333333</ele><time>2026-05-01T14:21:06Z</time></trkpt><trkpt lat="43.71605849372329" lon="10.496476768721022"><ele>4.0</ele><time>2026-05-01T14:21:06.999Z</time></trkpt><trkpt lat="43.71617557845397" lon="10.496266398880316"><ele>3.6666666666666665</ele><time>2026-05-01T14:21:07.999Z</time></trkpt><trkpt lat="43.71628426792234" lon="10.496048045989044"><ele>3.333333333333333</ele><time>2026-05-01T14:21:08.999Z</time></trkpt><trkpt lat="43.71640529210759" lon="10.49583365862151"><ele>3.0</ele><time>2026-05-01T14:21:09.999Z</time></trkpt><trkpt lat="43.71651932515375" lon="10.49564682604719"><ele>3.0</ele><time>2026-05-01T14:21:10.999Z</time></trkpt><trkpt lat="43.71663786835882" lon="10.495434620480166"><ele>3.0</ele><time>2026-05-01T14:21:11.999Z</time></trkpt><trkpt lat="43.71675433909301" lon="10.495230302232734"><ele>3.0</ele><time>2026-05-01T14:21:12.999Z</time></trkpt><trkpt lat="43.716864929820396" lon="10.495047195034639"><ele>3.0</ele><time>2026-05-01T14:21:13.999Z</time></trkpt><trkpt lat="43.7169721055196" lon="10.494845961442788"><ele>3.0</ele><time>2026-05-01T14:21:14.999Z</time></trkpt><trkpt lat="43.7170856737661" lon="10.494647824886657"><ele>3.0</ele><time>2026-05-01T14:21:15.999Z</time></trkpt><trkpt lat="43.717200219116236" lon="10.49444006306126"><ele>3.0</ele><time>2026-05-01T14:21:16.999Z</time></trkpt><trkpt lat="43.71732069718506" lon="10.494235373990795"><ele>3.0</ele><time>2026-05-01T14:21:17.999Z</time></trkpt><trkpt lat="43.717438786854665" lon="10.494047244335025"><ele>3.0</ele><time>2026-05-01T14:21:18.999Z</time></trkpt><trkpt lat="43.71756899830821" lon="10.493857191113664"><ele>3.0</ele><time>2026-05-01T14:21:19.999Z</time></trkpt><trkpt lat="43.71770946102351" lon="10.493676699573577"><ele>3.0</ele><time>2026-05-01T14:21:20.999Z</time></trkpt><trkpt lat="43.7178595789309" lon="10.493500879535887"><ele>3.0</ele><time>2026-05-01T14:21:21.999Z</time></trkpt><trkpt lat="43.71801436177314" lon="10.49332502398166"><ele>3.0</ele><time>2026-05-01T14:21:22.999Z</time></trkpt><trkpt lat="43.718174737785674" lon="10.493149404832636"><ele>3.0</ele><time>2026-05-01T14:21:23.999Z</time></trkpt><trkpt lat="43.71833641050058" lon="10.49299338334082"><ele>3.0</ele><time>2026-05-01T14:21:24.999Z</time></trkpt><trkpt lat="43.71850420497291" lon="10.492840786081546"><ele>3.333333333333333</ele><time>2026-05-01T14:21:25.999Z</time></trkpt><trkpt lat="43.71867802449453" lon="10.49271339084549"><ele>3.6666666666666665</ele><time>2026-05-01T14:21:26.999Z</time></trkpt><trkpt lat="43.718853017294215" lon="10.492592046072309"><ele>4.0</ele><time>2026-05-01T14:21:27.999Z</time></trkpt><trkpt lat="43.719023080428265" lon="10.492480357477538"><ele>4.0</ele><time>2026-05-01T14:21:28.999Z</time></trkpt><trkpt lat="43.71919231554582" lon="10.492368350611684"><ele>4.0</ele><time>2026-05-01T14:21:29.999Z</time></trkpt><trkpt lat="43.71935979080753" lon="10.49225869572036"><ele>4.0</ele><time>2026-05-01T14:21:30.999Z</time></trkpt><trkpt lat="43.719526111763855" lon="10.492148380594834"><ele>4.0</ele><time>2026-05-01T14:21:31.999Z</time></trkpt><trkpt lat="43.71969360225071" lon="10.492045334046571"><ele>4.0</ele><time>2026-05-01T14:21:32.999Z</time></trkpt><trkpt lat="43.7198630009869" lon="10.491940538526437"><ele>4.0</ele><time>2026-05-01T14:21:33.999Z</time></trkpt><trkpt lat="43.72003461711109" lon="10.491834907207615"><ele>4.0</ele><time>2026-05-01T14:21:34.999Z</time></trkpt><trkpt lat="43.72019624618989" lon="10.491733451604437"><ele>4.0</ele><time>2026-05-01T14:21:35.999Z</time></trkpt><trkpt lat="43.72035081859789" lon="10.491632812093227"><ele>4.0</ele><time>2026-05-01T14:21:36.999Z</time></trkpt><trkpt lat="43.7204964527065" lon="10.491534993044008"><ele>4.0</ele><time>2026-05-01T14:21:37.999Z</time></trkpt><trkpt lat="43.72064264716559" lon="10.491439400804513"><ele>4.0</ele><time>2026-05-01T14:21:38.999Z</time></trkpt><trkpt lat="43.72079278064816" lon="10.491341495394858"><ele>4.0</ele><time>2026-05-01T14:21:40Z</time></trkpt><trkpt lat="43.72093645455958" lon="10.491251391965893"><ele>3.0</ele><time>2026-05-01T14:21:41Z</time></trkpt><trkpt lat="43.721078167536554" lon="10.491162964602552"><ele>2.0</ele><time>2026-05-01T14:21:42Z</time></trkpt><trkpt lat="43.721221200491975" lon="10.49107044356614"><ele>1.0</ele><time>2026-05-01T14:21:43Z</time></trkpt><trkpt lat="43.721350673091365" lon="10.490988813123916"><ele>1.0</ele><time>2026-05-01T14:21:44Z</time></trkpt><trkpt lat="43.7214692953327" lon="10.490911988578675"><ele>1.0</ele><time>2026-05-01T14:21:45Z</time></trkpt><trkpt lat="43.721584817686676" lon="10.490838311287852"><ele>1.0</ele><time>2026-05-01T14:21:46Z</time></trkpt><trkpt lat="43.72169396001572" lon="10.490770735649155"><ele>1.0</ele><time>2026-05-01T14:21:47Z</time></trkpt><trkpt lat="43.72179582633724" lon="10.490700501590547"><ele>1.0</ele><time>2026-05-01T14:21:48Z</time></trkpt><trkpt lat="43.72188862564303" lon="10.490625110126718"><ele>1.0</ele><time>2026-05-01T14:21:49Z</time></trkpt><trkpt lat="43.72197103663328" lon="10.490551089088713"><ele>1.0</ele><time>2026-05-01T14:21:50Z</time></trkpt><trkpt lat="43.72204886462064" lon="10.490477056254253"><ele>1.0</ele><time>2026-05-01T14:21:51Z</time></trkpt><trkpt lat="43.722107385078026" lon="10.490407354292191"><ele>1.0</ele><time>2026-05-01T14:21:52Z</time></trkpt><trkpt lat="43.72219319159483" lon="10.490312577709167"><ele>1.4</ele><time>2026-05-01T14:21:54Z</time></trkpt><trkpt lat="43.72224219939332" lon="10.49022263001437"><ele>1.8</ele><time>2026-05-01T14:21:55Z</time></trkpt><trkpt lat="43.722266439616476" lon="10.490065102326701"><ele>2.1999999999999997</ele><time>2026-05-01T14:21:57Z</time></trkpt><trkpt lat="43.72226592232553" lon="10.489974153641963"><ele>2.6</ele><time>2026-05-01T14:21:58Z</time></trkpt><trkpt lat="43.72228899931812" lon="10.489849749119273"><ele>3.0</ele><time>2026-05-01T14:21:59Z</time></trkpt><trkpt lat="43.722243433183806" lon="10.489733565670202"><ele>3.333333333333333</ele><time>2026-05-01T14:22:01Z</time></trkpt><trkpt lat="43.722254903713825" lon="10.48956362663313"><ele>3.6666666666666665</ele><time>2026-05-01T14:22:03Z</time></trkpt><trkpt lat="43.72227165611037" lon="10.489415991719369"><ele>4.0</ele><time>2026-05-01T14:22:05Z</time></trkpt><trkpt lat="43.72272683417891" lon="10.489234970779044"><ele>3.833333333333333</ele><time>2026-05-01T14:22:06Z</time></trkpt><trkpt lat="43.722763493349746" lon="10.489141311101289"><ele>3.6666666666666665</ele><time>2026-05-01T14:22:07Z</time></trkpt><trkpt lat="43.722806525476074" lon="10.489050215349145"><ele>3.5</ele><time>2026-05-01T14:22:08Z</time></trkpt><trkpt lat="43.72285106980708" lon="10.488953093952452"><ele>3.333333333333333</ele><time>2026-05-01T14:22:09Z</time></trkpt><trkpt lat="43.72289647056076" lon="10.488846719129805"><ele>3.1666666666666665</ele><time>2026-05-01T14:22:10Z</time></trkpt><trkpt lat="43.72293532908111" lon="10.48875688606534"><ele>3.0</ele><time>2026-05-01T14:22:11Z</time></trkpt><trkpt lat="43.722970117706204" lon="10.488681250324248"><ele>3.0</ele><time>2026-05-01T14:22:12Z</time></trkpt><trkpt lat="43.72302903611043" lon="10.488542896507893"><ele>3.0</ele><time>2026-05-01T14:22:14Z</time></trkpt><trkpt lat="43.72309465663917" lon="10.4883891721783"><ele>3.0</ele><time>2026-05-01T14:22:16Z</time></trkpt><trkpt lat="43.72312932873926" lon="10.488308883740904"><ele>3.0</ele><time>2026-05-01T14:22:17Z</time></trkpt><trkpt lat="43.72318454989125" lon="10.488181251872712"><ele>3.0</ele><time>2026-05-01T14:22:19Z</time></trkpt><trkpt lat="43.72323206611199" lon="10.48807646734525"><ele>3.0</ele><time>2026-05-01T14:22:21Z</time></trkpt><trkpt lat="43.723281105077255" lon="10.488000352130541"><ele>3.0</ele><time>2026-05-01T14:22:26Z</time></trkpt><trkpt lat="43.723314684528134" lon="10.48792139710914"><ele>3.0</ele><time>2026-05-01T14:22:28Z</time></trkpt><trkpt lat="43.72334395669571" lon="10.487796596769128"><ele>3.0</ele><time>2026-05-01T14:22:32Z</time></trkpt><trkpt lat="43.72340539204655" lon="10.48767074666488"><ele>3.0</ele><time>2026-05-01T14:22:34Z</time></trkpt><trkpt lat="43.72344850396979" lon="10.487571196949217"><ele>3.0</ele><time>2026-05-01T14:22:35Z</time></trkpt><trkpt lat="43.72349199817731" lon="10.487468049668019"><ele>3.0</ele><time>2026-05-01T14:22:36Z</time></trkpt><trkpt lat="43.723547193161075" lon="10.48734366767637"><ele>3.0</ele><time>2026-05-01T14:22:37Z</time></trkpt><trkpt lat="43.723605658221686" lon="10.487205925913806"><ele>3.0</ele><time>2026-05-01T14:22:38Z</time></trkpt><trkpt lat="43.72367022284737" lon="10.48706241651857"><ele>3.0</ele><time>2026-05-01T14:22:39Z</time></trkpt><trkpt lat="43.72373189413811" lon="10.486918764592104"><ele>3.0</ele><time>2026-05-01T14:22:40Z</time></trkpt><trkpt lat="43.72378990137726" lon="10.48678130176746"><ele>3.0</ele><time>2026-05-01T14:22:41Z</time></trkpt><trkpt lat="43.723852899181324" lon="10.486638972907091"><ele>3.0</ele><time>2026-05-01T14:22:42Z</time></trkpt><trkpt lat="43.723909003739294" lon="10.486511951092869"><ele>3.0</ele><time>2026-05-01T14:22:43Z</time></trkpt><trkpt lat="43.72396070376567" lon="10.486384996123334"><ele>3.0</ele><time>2026-05-01T14:22:44Z</time></trkpt><trkpt lat="43.724006653740055" lon="10.48627751823313"><ele>3.0</ele><time>2026-05-01T14:22:45Z</time></trkpt><trkpt lat="43.724059621878304" lon="10.486157587026224"><ele>3.0</ele><time>2026-05-01T14:22:46Z</time></trkpt><trkpt lat="43.72411008405773" lon="10.486025947574447"><ele>3.0</ele><time>2026-05-01T14:22:47Z</time></trkpt><trkpt lat="43.724162912669065" lon="10.485904392101325"><ele>3.0</ele><time>2026-05-01T14:22:48Z</time></trkpt><trkpt lat="43.7242069027756" lon="10.4858072584652"><ele>3.0</ele><time>2026-05-01T14:22:49Z</time></trkpt><trkpt lat="43.724248419176334" lon="10.485700819661064"><ele>3.0</ele><time>2026-05-01T14:22:50Z</time></trkpt><trkpt lat="43.72429026029765" lon="10.485593366489365"><ele>3.0</ele><time>2026-05-01T14:22:51Z</time></trkpt><trkpt lat="43.724334338603896" lon="10.485488797930463"><ele>3.0</ele><time>2026-05-01T14:22:52Z</time></trkpt><trkpt lat="43.7243764611728" lon="10.485392799434035"><ele>3.0</ele><time>2026-05-01T14:22:53Z</time></trkpt><trkpt lat="43.724423055511586" lon="10.485297499507535"><ele>3.0</ele><time>2026-05-01T14:22:54Z</time></trkpt><trkpt lat="43.72447425997825" lon="10.485193837467657"><ele>3.0</ele><time>2026-05-01T14:22:55Z</time></trkpt><trkpt lat="43.72452815117038" lon="10.485117322319688"><ele>2.8333333333333335</ele><time>2026-05-01T14:22:56Z</time></trkpt><trkpt lat="43.72458605492721" lon="10.485041431491966"><ele>2.6666666666666665</ele><time>2026-05-01T14:22:57Z</time></trkpt><trkpt lat="43.72465033009014" lon="10.484973334815502"><ele>2.5</ele><time>2026-05-01T14:22:58Z</time></trkpt><trkpt lat="43.72472738133169" lon="10.484900363928354"><ele>2.333333333333333</ele><time>2026-05-01T14:22:59Z</time></trkpt><trkpt lat="43.72480265093706" lon="10.484833450327013"><ele>2.1666666666666665</ele><time>2026-05-01T14:23:00Z</time></trkpt><trkpt lat="43.724876458611924" lon="10.484766585246188"><ele>2.0</ele><time>2026-05-01T14:23:01Z</time></trkpt><trkpt lat="43.7249472525215" lon="10.484706459498536"><ele>1.9999999999999998</ele><time>2026-05-01T14:23:01.999Z</time></trkpt><trkpt lat="43.72501760922439" lon="10.484646019947077"><ele>2.0</ele><time>2026-05-01T14:23:02.999Z</time></trkpt><trkpt lat="43.725086242653255" lon="10.484587753102492"><ele>2.0</ele><time>2026-05-01T14:23:03.999Z</time></trkpt><trkpt lat="43.7251503789172" lon="10.484530919669254"><ele>2.0</ele><time>2026-05-01T14:23:04.999Z</time></trkpt><trkpt lat="43.725229098330146" lon="10.484453708663793"><ele>1.9999999999999998</ele><time>2026-05-01T14:23:05.999Z</time></trkpt><trkpt lat="43.72530655666376" lon="10.484364002867238"><ele>2.0</ele><time>2026-05-01T14:23:06.999Z</time></trkpt><trkpt lat="43.725367066025775" lon="10.484257371615952"><ele>2.2</ele><time>2026-05-01T14:23:07.999Z</time></trkpt><trkpt lat="43.72542375386291" lon="10.48413443465831"><ele>2.4000000000000004</ele><time>2026-05-01T14:23:08.999Z</time></trkpt><trkpt lat="43.725473304531604" lon="10.483995538722226"><ele>2.5999999999999996</ele><time>2026-05-01T14:23:09.999Z</time></trkpt><trkpt lat="43.72551957938255" lon="10.483868987902914"><ele>2.8</ele><time>2026-05-01T14:23:10.999Z</time></trkpt><trkpt lat="43.72556622379985" lon="10.483742470624634"><ele>3.0</ele><time>2026-05-01T14:23:11.999Z</time></trkpt><trkpt lat="43.72562476214316" lon="10.483601701249679"><ele>3.0</ele><time>2026-05-01T14:23:12.999Z</time></trkpt><trkpt lat="43.72567036882424" lon="10.48349068145958"><ele>3.0</ele><time>2026-05-01T14:23:13.999Z</time></trkpt><trkpt lat="43.72571568311436" lon="10.48338608220197"><ele>3.0</ele><time>2026-05-01T14:23:14.999Z</time></trkpt><trkpt lat="43.72576133081042" lon="10.483286136676229"><ele>3.0</ele><time>2026-05-01T14:23:15.999Z</time></trkpt><trkpt lat="43.72580378760965" lon="10.483184458880565"><ele>3.0</ele><time>2026-05-01T14:23:16.999Z</time></trkpt><trkpt lat="43.72584571745045" lon="10.48309355225605"><ele>3.0</ele><time>2026-05-01T14:23:17.999Z</time></trkpt><trkpt lat="43.72589256708223" lon="10.48298836698662"><ele>2.8</ele><time>2026-05-01T14:23:18.999Z</time></trkpt><trkpt lat="43.725946456624875" lon="10.482867301285443"><ele>2.5999999999999996</ele><time>2026-05-01T14:23:19.999Z</time></trkpt><trkpt lat="43.726001115183124" lon="10.482755167786042"><ele>2.4000000000000004</ele><time>2026-05-01T14:23:20.999Z</time></trkpt><trkpt lat="43.72604867964132" lon="10.482658592374516"><ele>2.2</ele><time>2026-05-01T14:23:21.999Z</time></trkpt><trkpt lat="43.726107577996366" lon="10.482540874807441"><ele>2.0</ele><time>2026-05-01T14:23:22.999Z</time></trkpt><trkpt lat="43.72615765680629" lon="10.48242747590296"><ele>2.0</ele><time>2026-05-01T14:23:23.999Z</time></trkpt><trkpt lat="43.72620635505166" lon="10.48231292202497"><ele>2.0</ele><time>2026-05-01T14:23:24.999Z</time></trkpt><trkpt lat="43.726265923741906" lon="10.482177921533271"><ele>2.0</ele><time>2026-05-01T14:23:25.999Z</time></trkpt><trkpt lat="43.726322194406855" lon="10.482053380581258"><ele>2.0</ele><time>2026-05-01T14:23:26.999Z</time></trkpt><trkpt lat="43.726374721570785" lon="10.481934828677227"><ele>2.0</ele><time>2026-05-01T14:23:27.999Z</time></trkpt><trkpt lat="43.726418093715765" lon="10.481828471899346"><ele>1.9999999999999998</ele><time>2026-05-01T14:23:28.999Z</time></trkpt><trkpt lat="43.7264595239607" lon="10.481729089506999"><ele>2.0</ele><time>2026-05-01T14:23:29.999Z</time></trkpt><trkpt lat="43.72649660600587" lon="10.481643558435978"><ele>2.0</ele><time>2026-05-01T14:23:30.999Z</time></trkpt><trkpt lat="43.72653325295897" lon="10.481561951866656"><ele>2.0</ele><time>2026-05-01T14:23:31.999Z</time></trkpt><trkpt lat="43.726569701946914" lon="10.481472034066078"><ele>1.9999999999999998</ele><time>2026-05-01T14:23:32.999Z</time></trkpt><trkpt lat="43.72663280247253" lon="10.481319959652655"><ele>2.0</ele><time>2026-05-01T14:23:34.999Z</time></trkpt><trkpt lat="43.726666345678694" lon="10.481233624547997"><ele>1.8</ele><time>2026-05-01T14:23:35.999Z</time></trkpt><trkpt lat="43.726722807072015" lon="10.481096977980338"><ele>1.6</ele><time>2026-05-01T14:23:37.999Z</time></trkpt><trkpt lat="43.726785018510135" lon="10.48094400004061"><ele>1.4000000000000001</ele><time>2026-05-01T14:23:39.999Z</time></trkpt><trkpt lat="43.726818269573904" lon="10.480858808696071"><ele>1.2000000000000002</ele><time>2026-05-01T14:23:40.999Z</time></trkpt><trkpt lat="43.726852366568444" lon="10.480778070381774"><ele>1.0</ele><time>2026-05-01T14:23:41.999Z</time></trkpt><trkpt lat="43.72690530267675" lon="10.480628152024424"><ele>0.9999999999999999</ele><time>2026-05-01T14:23:43.999Z</time></trkpt><trkpt lat="43.7269605818772" lon="10.48050145452173"><ele>1.0</ele><time>2026-05-01T14:23:46Z</time></trkpt><trkpt lat="43.726988093756546" lon="10.480409062730235"><ele>1.0</ele><time>2026-05-01T14:23:47Z</time></trkpt><trkpt lat="43.72702020930878" lon="10.480327028845712"><ele>1.0</ele><time>2026-05-01T14:23:48Z</time></trkpt><trkpt lat="43.727052848118944" lon="10.480242959791141"><ele>0.9999999999999999</ele><time>2026-05-01T14:23:49Z</time></trkpt><trkpt lat="43.7271040071092" lon="10.480106957640634"><ele>1.0</ele><time>2026-05-01T14:23:51Z</time></trkpt><trkpt lat="43.72714049315298" lon="10.480010029046765"><ele>1.1666666666666665</ele><time>2026-05-01T14:23:52Z</time></trkpt><trkpt lat="43.72718529172195" lon="10.47990179112715"><ele>1.3333333333333333</ele><time>2026-05-01T14:23:53Z</time></trkpt><trkpt lat="43.727220689871324" lon="10.479811738518173"><ele>1.5</ele><time>2026-05-01T14:23:54Z</time></trkpt><trkpt lat="43.727268186780584" lon="10.47969011639595"><ele>1.6666666666666665</ele><time>2026-05-01T14:23:55Z</time></trkpt><trkpt lat="43.72729960906545" lon="10.479596617090946"><ele>1.8333333333333333</ele><time>2026-05-01T14:23:56Z</time></trkpt><trkpt lat="43.72733017522128" lon="10.479509274685343"><ele>2.0</ele><time>2026-05-01T14:23:57Z</time></trkpt><trkpt lat="43.72736527552781" lon="10.479436454338643"><ele>1.9999999999999998</ele><time>2026-05-01T14:23:58Z</time></trkpt><trkpt lat="43.72739665411018" lon="10.479356331812586"><ele>2.0</ele><time>2026-05-01T14:23:59Z</time></trkpt><trkpt lat="43.72743111131459" lon="10.479262982523183"><ele>2.0</ele><time>2026-05-01T14:24:00Z</time></trkpt><trkpt lat="43.727468402818076" lon="10.479164106579791"><ele>2.0</ele><time>2026-05-01T14:24:01Z</time></trkpt><trkpt lat="43.7275338658611" lon="10.478999584004187"><ele>1.9999999999999998</ele><time>2026-05-01T14:24:03Z</time></trkpt><trkpt lat="43.727575411178684" lon="10.478894169944928"><ele>2.0</ele><time>2026-05-01T14:24:04Z</time></trkpt><trkpt lat="43.72762400820459" lon="10.478770182652816"><ele>2.0</ele><time>2026-05-01T14:24:05Z</time></trkpt><trkpt lat="43.727665511262906" lon="10.478655386333976"><ele>2.0</ele><time>2026-05-01T14:24:06Z</time></trkpt><trkpt lat="43.72771600286972" lon="10.478530033861894"><ele>2.0</ele><time>2026-05-01T14:24:07Z</time></trkpt><trkpt lat="43.727765451500574" lon="10.478401426754571"><ele>2.0</ele><time>2026-05-01T14:24:08Z</time></trkpt><trkpt lat="43.727820392115234" lon="10.478261617407965"><ele>2.0</ele><time>2026-05-01T14:24:09Z</time></trkpt><trkpt lat="43.72787489485689" lon="10.478121371383054"><ele>2.0</ele><time>2026-05-01T14:24:10Z</time></trkpt><trkpt lat="43.72792449388539" lon="10.477993437468292"><ele>2.0</ele><time>2026-05-01T14:24:11Z</time></trkpt><trkpt lat="43.72796605820814" lon="10.477881935195933"><ele>2.0</ele><time>2026-05-01T14:24:12Z</time></trkpt><trkpt lat="43.72800908688679" lon="10.477768677106978"><ele>2.0</ele><time>2026-05-01T14:24:13Z</time></trkpt><trkpt lat="43.72805257935815" lon="10.477657680964663"><ele>2.0</ele><time>2026-05-01T14:24:14Z</time></trkpt><trkpt lat="43.728087477475924" lon="10.477563818275984"><ele>1.8333333333333333</ele><time>2026-05-01T14:24:15Z</time></trkpt><trkpt lat="43.72812954865496" lon="10.477463114209963"><ele>1.6666666666666665</ele><time>2026-05-01T14:24:16Z</time></trkpt><trkpt lat="43.728169601613295" lon="10.477352867829271"><ele>1.5</ele><time>2026-05-01T14:24:17Z</time></trkpt><trkpt lat="43.72821382767358" lon="10.477235956968793"><ele>1.3333333333333333</ele><time>2026-05-01T14:24:18Z</time></trkpt><trkpt lat="43.72825919313662" lon="10.47711254696344"><ele>1.1666666666666665</ele><time>2026-05-01T14:24:19Z</time></trkpt><trkpt lat="43.72829542687638" lon="10.477020474342698"><ele>1.0</ele><time>2026-05-01T14:24:20Z</time></trkpt><trkpt lat="43.7283465870918" lon="10.476894263038991"><ele>1.0</ele><time>2026-05-01T14:24:21Z</time></trkpt><trkpt lat="43.72838666316946" lon="10.476780413422283"><ele>1.0</ele><time>2026-05-01T14:24:22Z</time></trkpt><trkpt lat="43.728430880719735" lon="10.476661775526603"><ele>1.0</ele><time>2026-05-01T14:24:23Z</time></trkpt><trkpt lat="43.728480360993075" lon="10.476535783919818"><ele>1.0</ele><time>2026-05-01T14:24:24Z</time></trkpt><trkpt lat="43.72852624799405" lon="10.476417371505852"><ele>1.0</ele><time>2026-05-01T14:24:25Z</time></trkpt><trkpt lat="43.72857345793881" lon="10.47630079104124"><ele>0.8</ele><time>2026-05-01T14:24:26Z</time></trkpt><trkpt lat="43.72860620920383" lon="10.476196996521976"><ele>0.6000000000000001</ele><time>2026-05-01T14:24:27Z</time></trkpt><trkpt lat="43.72865389525796" lon="10.476080247233869"><ele>0.4</ele><time>2026-05-01T14:24:28Z</time></trkpt><trkpt lat="43.72870022848926" lon="10.47595865991961"><ele>0.2</ele><time>2026-05-01T14:24:29Z</time></trkpt><trkpt lat="43.72874909872835" lon="10.475829311815858"><ele>0.0</ele><time>2026-05-01T14:24:30Z</time></trkpt><trkpt lat="43.72878723199813" lon="10.475722694711665"><ele>0.0</ele><time>2026-05-01T14:24:31Z</time></trkpt><trkpt lat="43.72883367976665" lon="10.475609555893445"><ele>0.0</ele><time>2026-05-01T14:24:32Z</time></trkpt><trkpt lat="43.72886415843278" lon="10.475517357852866"><ele>0.0</ele><time>2026-05-01T14:24:33Z</time></trkpt><trkpt lat="43.72888779497495" lon="10.475435857692469"><ele>0.0</ele><time>2026-05-01T14:24:34Z</time></trkpt><trkpt lat="43.72892248308227" lon="10.475322908802536"><ele>0.0</ele><time>2026-05-01T14:24:37Z</time></trkpt><trkpt lat="43.72897398834485" lon="10.475251224635462"><ele>0.0</ele><time>2026-05-01T14:24:39Z</time></trkpt><trkpt lat="43.728998288954344" lon="10.475142543534854"><ele>0.16666666666666666</ele><time>2026-05-01T14:25:11Z</time></trkpt><trkpt lat="43.72904752154637" lon="10.475081953305375"><ele>0.3333333333333333</ele><time>2026-05-01T14:25:12Z</time></trkpt><trkpt lat="43.72909112502456" lon="10.475000431606812"><ele>0.5</ele><time>2026-05-01T14:25:13Z</time></trkpt><trkpt lat="43.729137756906816" lon="10.474909768354475"><ele>0.6666666666666666</ele><time>2026-05-01T14:25:14Z</time></trkpt><trkpt lat="43.729184692974535" lon="10.474805208582012"><ele>0.8333333333333333</ele><time>2026-05-01T14:25:15Z</time></trkpt><trkpt lat="43.72923676886057" lon="10.47467994971704"><ele>1.0</ele><time>2026-05-01T14:25:16Z</time></trkpt><trkpt lat="43.72928919699346" lon="10.47454665918315"><ele>1.0</ele><time>2026-05-01T14:25:17Z</time></trkpt><trkpt lat="43.7293352029672" lon="10.47443788093731"><ele>1.0</ele><time>2026-05-01T14:25:17.999Z</time></trkpt><trkpt lat="43.72939913570541" lon="10.474286715970583"><ele>1.0</ele><time>2026-05-01T14:25:18.999Z</time></trkpt><trkpt lat="43.729453732038195" lon="10.474121790162394"><ele>1.0</ele><time>2026-05-01T14:25:19.999Z</time></trkpt><trkpt lat="43.72952933611953" lon="10.473940375127084"><ele>0.8</ele><time>2026-05-01T14:25:20.999Z</time></trkpt><trkpt lat="43.72960026576342" lon="10.47377834936245"><ele>0.6000000000000001</ele><time>2026-05-01T14:25:21.999Z</time></trkpt><trkpt lat="43.729656693999424" lon="10.473654100623433"><ele>0.4</ele><time>2026-05-01T14:25:22.999Z</time></trkpt><trkpt lat="43.729709043057106" lon="10.473534318805612"><ele>0.2</ele><time>2026-05-01T14:25:23.999Z</time></trkpt><trkpt lat="43.72975518862677" lon="10.473427041028925"><ele>0.0</ele><time>2026-05-01T14:25:24.999Z</time></trkpt><trkpt lat="43.72980427074418" lon="10.473313472671256"><ele>0.16666666666666666</ele><time>2026-05-01T14:25:25.999Z</time></trkpt><trkpt lat="43.729859150252516" lon="10.473218987693274"><ele>0.3333333333333333</ele><time>2026-05-01T14:25:26.999Z</time></trkpt><trkpt lat="43.729892062316104" lon="10.47310230161963"><ele>0.5</ele><time>2026-05-01T14:25:27.999Z</time></trkpt><trkpt lat="43.72994240740103" lon="10.472996599101405"><ele>0.6666666666666666</ele><time>2026-05-01T14:25:28.999Z</time></trkpt><trkpt lat="43.729979381476326" lon="10.472908465740133"><ele>0.8333333333333333</ele><time>2026-05-01T14:25:29.999Z</time></trkpt><trkpt lat="43.73002049883015" lon="10.472821132925425"><ele>1.0</ele><time>2026-05-01T14:25:30.999Z</time></trkpt><trkpt lat="43.73007376607443" lon="10.472693556681143"><ele>0.9999999999999999</ele><time>2026-05-01T14:25:32.999Z</time></trkpt><trkpt lat="43.73012161023537" lon="10.472578867892446"><ele>1.0</ele><time>2026-05-01T14:25:34.999Z</time></trkpt><trkpt lat="43.730162841390694" lon="10.472474933375256"><ele>1.0</ele><time>2026-05-01T14:25:36.999Z</time></trkpt><trkpt lat="43.73019575878715" lon="10.472395623407978"><ele>1.0</ele><time>2026-05-01T14:25:38.999Z</time></trkpt><trkpt lat="43.730252758366944" lon="10.472281372219967"><ele>0.9999999999999999</ele><time>2026-05-01T14:25:41.999Z</time></trkpt><trkpt lat="43.73030014027278" lon="10.47219879950168"><ele>1.0</ele><time>2026-05-01T14:25:43.999Z</time></trkpt><trkpt lat="43.73034074226365" lon="10.47209577900373"><ele>1.0</ele><time>2026-05-01T14:25:45.999Z</time></trkpt><trkpt lat="43.73039513041097" lon="10.471953849887273"><ele>1.0</ele><time>2026-05-01T14:25:47.999Z</time></trkpt><trkpt lat="43.73045689285991" lon="10.471823272021199"><ele>1.0</ele><time>2026-05-01T14:25:49.999Z</time></trkpt><trkpt lat="43.730494471683755" lon="10.471740000874792"><ele>1.0</ele><time>2026-05-01T14:25:50.999Z</time></trkpt><trkpt lat="43.73054157000463" lon="10.471616098552259"><ele>1.0</ele><time>2026-05-01T14:25:53Z</time></trkpt><trkpt lat="43.730574735794924" lon="10.471511868378366"><ele>1.0</ele><time>2026-05-01T14:25:55Z</time></trkpt><trkpt lat="43.730609434283295" lon="10.471421015439853"><ele>1.0</ele><time>2026-05-01T14:25:56Z</time></trkpt><trkpt lat="43.73060123443631" lon="10.4713055640848"><ele>1.0</ele><time>2026-05-01T14:25:57Z</time></trkpt><trkpt lat="43.73061837622051" lon="10.471186753957399"><ele>1.0</ele><time>2026-05-01T14:25:58Z</time></trkpt><trkpt lat="43.7307532088538" lon="10.471086809510737"><ele>1.0</ele><time>2026-05-01T14:25:59Z</time></trkpt><trkpt lat="43.73081529886597" lon="10.470957050236862"><ele>1.3333333333333333</ele><time>2026-05-01T14:26:00Z</time></trkpt><trkpt lat="43.730877626398296" lon="10.470822048003583"><ele>1.6666666666666665</ele><time>2026-05-01T14:26:01Z</time></trkpt><trkpt lat="43.73071423892473" lon="10.4706116777908"><ele>2.0</ele><time>2026-05-01T14:26:02Z</time></trkpt><trkpt lat="43.73075399196693" lon="10.470463577558085"><ele>1.5</ele><time>2026-05-01T14:26:03Z</time></trkpt><trkpt lat="43.73109834968116" lon="10.470391274734075"><ele>1.0</ele><time>2026-05-01T14:26:04Z</time></trkpt><trkpt lat="43.731177997146325" lon="10.470250068825635"><ele>1.0</ele><time>2026-05-01T14:26:05Z</time></trkpt><trkpt lat="43.73126951628652" lon="10.470073475052592"><ele>1.0</ele><time>2026-05-01T14:26:06Z</time></trkpt><trkpt lat="43.731348175414354" lon="10.469922409762265"><ele>1.0</ele><time>2026-05-01T14:26:07Z</time></trkpt><trkpt lat="43.73142783726848" lon="10.469762493783405"><ele>1.0</ele><time>2026-05-01T14:26:08Z</time></trkpt><trkpt lat="43.731501549658205" lon="10.469624391474726"><ele>1.0</ele><time>2026-05-01T14:26:09Z</time></trkpt><trkpt lat="43.731564495263406" lon="10.4694966399719"><ele>1.0</ele><time>2026-05-01T14:26:10Z</time></trkpt><trkpt lat="43.73162882173475" lon="10.469366334135737"><ele>1.0</ele><time>2026-05-01T14:26:11Z</time></trkpt><trkpt lat="43.731696200350775" lon="10.469224488786388"><ele>1.0</ele><time>2026-05-01T14:26:12Z</time></trkpt><trkpt lat="43.73176454330338" lon="10.469073086519096"><ele>1.0</ele><time>2026-05-01T14:26:13Z</time></trkpt><trkpt lat="43.73182536258928" lon="10.468923482131874"><ele>1.0</ele><time>2026-05-01T14:26:14Z</time></trkpt><trkpt lat="43.7318882926357" lon="10.468763756029523"><ele>1.0</ele><time>2026-05-01T14:26:15Z</time></trkpt><trkpt lat="43.73194645726544" lon="10.468609343898901"><ele>1.0</ele><time>2026-05-01T14:26:16Z</time></trkpt><trkpt lat="43.7319964653607" lon="10.468451709934675"><ele>1.0</ele><time>2026-05-01T14:26:17Z</time></trkpt><trkpt lat="43.732039243956336" lon="10.46830339614177"><ele>1.0</ele><time>2026-05-01T14:26:18Z</time></trkpt><trkpt lat="43.73208190358123" lon="10.468173770218366"><ele>1.0</ele><time>2026-05-01T14:26:19Z</time></trkpt><trkpt lat="43.73212357140525" lon="10.468049435565119"><ele>1.0</ele><time>2026-05-01T14:26:20Z</time></trkpt><trkpt lat="43.732184086334435" lon="10.46791788688763"><ele>1.0</ele><time>2026-05-01T14:26:21Z</time></trkpt><trkpt lat="43.7322629772914" lon="10.46777098445424"><ele>1.0</ele><time>2026-05-01T14:26:22Z</time></trkpt><trkpt lat="43.73235208526286" lon="10.46763488149239"><ele>1.0</ele><time>2026-05-01T14:26:23Z</time></trkpt><trkpt lat="43.73243416380282" lon="10.467502592805497"><ele>1.0</ele><time>2026-05-01T14:26:24Z</time></trkpt><trkpt lat="43.732519962923554" lon="10.467361767818824"><ele>1.0</ele><time>2026-05-01T14:26:25Z</time></trkpt><trkpt lat="43.73260802745572" lon="10.467225797214908"><ele>1.0</ele><time>2026-05-01T14:26:26Z</time></trkpt><trkpt lat="43.732695967210354" lon="10.467078091450725"><ele>1.0</ele><time>2026-05-01T14:26:27Z</time></trkpt><trkpt lat="43.73278633382763" lon="10.466940857419676"><ele>1.0</ele><time>2026-05-01T14:26:28Z</time></trkpt><trkpt lat="43.73288179089531" lon="10.466798100055426"><ele>1.0</ele><time>2026-05-01T14:26:29Z</time></trkpt><trkpt lat="43.73297129787273" lon="10.46664943040644"><ele>1.0</ele><time>2026-05-01T14:26:30Z</time></trkpt><trkpt lat="43.73305704423108" lon="10.466494085630535"><ele>1.0</ele><time>2026-05-01T14:26:31Z</time></trkpt><trkpt lat="43.73313239187983" lon="10.466349235551508"><ele>1.0</ele><time>2026-05-01T14:26:32Z</time></trkpt><trkpt lat="43.73320451483527" lon="10.466214849638408"><ele>1.0</ele><time>2026-05-01T14:26:33Z</time></trkpt><trkpt lat="43.73327840241328" lon="10.466080246617771"><ele>1.0</ele><time>2026-05-01T14:26:34Z</time></trkpt><trkpt lat="43.73334586439607" lon="10.465960271606718"><ele>1.0</ele><time>2026-05-01T14:26:35Z</time></trkpt><trkpt lat="43.73341394172859" lon="10.465831501681182"><ele>1.0</ele><time>2026-05-01T14:26:36Z</time></trkpt><trkpt lat="43.733479585733086" lon="10.465706461187397"><ele>1.0</ele><time>2026-05-01T14:26:37Z</time></trkpt><trkpt lat="43.733536159808146" lon="10.465580191888602"><ele>1.0</ele><time>2026-05-01T14:26:38Z</time></trkpt><trkpt lat="43.73359572201532" lon="10.465453065902329"><ele>0.75</ele><time>2026-05-01T14:26:39Z</time></trkpt><trkpt lat="43.73367617422145" lon="10.465311177663223"><ele>0.5</ele><time>2026-05-01T14:26:40Z</time></trkpt><trkpt lat="43.73374691354877" lon="10.46517391160817"><ele>0.25</ele><time>2026-05-01T14:26:41Z</time></trkpt><trkpt lat="43.73382302272114" lon="10.465029134088287"><ele>0.0</ele><time>2026-05-01T14:26:42Z</time></trkpt><trkpt lat="43.733893996869185" lon="10.46488430289515"><ele>0.0</ele><time>2026-05-01T14:26:43Z</time></trkpt><trkpt lat="43.733959143449844" lon="10.464743914292168"><ele>0.0</ele><time>2026-05-01T14:26:44Z</time></trkpt><trkpt lat="43.73403112360224" lon="10.464600984438228"><ele>0.0</ele><time>2026-05-01T14:26:45Z</time></trkpt><trkpt lat="43.734107201680274" lon="10.464453112425808"><ele>0.0</ele><time>2026-05-01T14:26:46Z</time></trkpt><trkpt lat="43.73418603579947" lon="10.464304997441138"><ele>0.2</ele><time>2026-05-01T14:26:47Z</time></trkpt><trkpt lat="43.734247668324954" lon="10.464174429623489"><ele>0.4</ele><time>2026-05-01T14:26:48Z</time></trkpt><trkpt lat="43.73431393260314" lon="10.464043144571178"><ele>0.6000000000000001</ele><time>2026-05-01T14:26:49Z</time></trkpt><trkpt lat="43.734377760183854" lon="10.46391531009128"><ele>0.8</ele><time>2026-05-01T14:26:50Z</time></trkpt><trkpt lat="43.734433668296425" lon="10.463810885649563"><ele>1.0</ele><time>2026-05-01T14:26:51Z</time></trkpt><trkpt lat="43.734488319918235" lon="10.463705264679588"><ele>1.2000000000000002</ele><time>2026-05-01T14:26:52Z</time></trkpt><trkpt lat="43.73454081392326" lon="10.46359155620552"><ele>1.4000000000000001</ele><time>2026-05-01T14:26:53Z</time></trkpt><trkpt lat="43.734601264441025" lon="10.463468312737294"><ele>1.6</ele><time>2026-05-01T14:26:54Z</time></trkpt><trkpt lat="43.734668326908675" lon="10.463345025413108"><ele>1.8</ele><time>2026-05-01T14:26:55Z</time></trkpt><trkpt lat="43.734727865559385" lon="10.463230597837628"><ele>2.0</ele><time>2026-05-01T14:26:56Z</time></trkpt><trkpt lat="43.73478897872793" lon="10.463099354988927"><ele>2.0</ele><time>2026-05-01T14:26:57Z</time></trkpt><trkpt lat="43.73485549737103" lon="10.462960134037008"><ele>2.0</ele><time>2026-05-01T14:26:58Z</time></trkpt><trkpt lat="43.73491920057599" lon="10.46283560317822"><ele>2.0</ele><time>2026-05-01T14:26:59Z</time></trkpt><trkpt lat="43.73498127201178" lon="10.46271449339201"><ele>2.0</ele><time>2026-05-01T14:27:00Z</time></trkpt><trkpt lat="43.735044143749995" lon="10.462587770123164"><ele>2.0</ele><time>2026-05-01T14:27:01Z</time></trkpt><trkpt lat="43.73510976668887" lon="10.462458036269899"><ele>1.75</ele><time>2026-05-01T14:27:02Z</time></trkpt><trkpt lat="43.73517901872601" lon="10.462323873525046"><ele>1.5</ele><time>2026-05-01T14:27:03Z</time></trkpt><trkpt lat="43.73524094580502" lon="10.462186046913661"><ele>1.25</ele><time>2026-05-01T14:27:04Z</time></trkpt><trkpt lat="43.735307116439984" lon="10.462055780642743"><ele>1.0</ele><time>2026-05-01T14:27:05Z</time></trkpt><trkpt lat="43.73537994708102" lon="10.461908206185422"><ele>0.75</ele><time>2026-05-01T14:27:06Z</time></trkpt><trkpt lat="43.73544407513907" lon="10.4617737158365"><ele>0.5</ele><time>2026-05-01T14:27:07Z</time></trkpt><trkpt lat="43.73550996675168" lon="10.461635259382726"><ele>0.25</ele><time>2026-05-01T14:27:08Z</time></trkpt><trkpt lat="43.735570889464775" lon="10.46150382897058"><ele>0.0</ele><time>2026-05-01T14:27:09Z</time></trkpt><trkpt lat="43.73562891050996" lon="10.461372534651819"><ele>0.0</ele><time>2026-05-01T14:27:10Z</time></trkpt><trkpt lat="43.73569341969298" lon="10.461244106686932"><ele>0.0</ele><time>2026-05-01T14:27:11Z</time></trkpt><trkpt lat="43.735743448083504" lon="10.461109269206384"><ele>0.0</ele><time>2026-05-01T14:27:12Z</time></trkpt><trkpt lat="43.73579841687799" lon="10.460965030658805"><ele>0.0</ele><time>2026-05-01T14:27:13Z</time></trkpt><trkpt lat="43.735837809196724" lon="10.46085517131694"><ele>0.0</ele><time>2026-05-01T14:27:14Z</time></trkpt><trkpt lat="43.73586706770076" lon="10.460760109957677"><ele>0.0</ele><time>2026-05-01T14:27:15Z</time></trkpt><trkpt lat="43.73588918304224" lon="10.46065532627572"><ele>0.0</ele><time>2026-05-01T14:27:16Z</time></trkpt><trkpt lat="43.735909818693116" lon="10.460565093102062"><ele>0.0</ele><time>2026-05-01T14:27:17Z</time></trkpt><trkpt lat="43.73595940880588" lon="10.46042038032976"><ele>0.0</ele><time>2026-05-01T14:27:19Z</time></trkpt><trkpt lat="43.73601809016892" lon="10.460236237831776"><ele>0.0</ele><time>2026-05-01T14:27:21Z</time></trkpt><trkpt lat="43.736052222257776" lon="10.460123412579009"><ele>0.16666666666666666</ele><time>2026-05-01T14:27:22Z</time></trkpt><trkpt lat="43.73607606904249" lon="10.459993984732769"><ele>0.3333333333333333</ele><time>2026-05-01T14:27:23Z</time></trkpt><trkpt lat="43.73609238665124" lon="10.459878761623939"><ele>0.5</ele><time>2026-05-01T14:27:24Z</time></trkpt><trkpt lat="43.7361063287315" lon="10.459781326910457"><ele>0.6666666666666666</ele><time>2026-05-01T14:27:25Z</time></trkpt><trkpt lat="43.736122633923735" lon="10.45968635223792"><ele>0.8333333333333333</ele><time>2026-05-01T14:27:26Z</time></trkpt><trkpt lat="43.736136113739796" lon="10.459598155359485"><ele>1.0</ele><time>2026-05-01T14:27:27Z</time></trkpt><trkpt lat="43.73615686628807" lon="10.459441566319718"><ele>0.9999999999999999</ele><time>2026-05-01T14:27:29Z</time></trkpt><trkpt lat="43.73617334942184" lon="10.45934383886917"><ele>1.0</ele><time>2026-05-01T14:27:30Z</time></trkpt><trkpt lat="43.73619144478367" lon="10.45923245710963"><ele>1.0</ele><time>2026-05-01T14:27:31Z</time></trkpt><trkpt lat="43.73621317846686" lon="10.459108747548129"><ele>1.0</ele><time>2026-05-01T14:27:31.999Z</time></trkpt><trkpt lat="43.73623263943735" lon="10.458994692186106"><ele>0.9999999999999999</ele><time>2026-05-01T14:27:32.999Z</time></trkpt><trkpt lat="43.73625158728782" lon="10.458885154711561"><ele>1.0</ele><time>2026-05-01T14:27:33.999Z</time></trkpt><trkpt lat="43.736269548435224" lon="10.458769997994365"><ele>1.2000000000000002</ele><time>2026-05-01T14:27:34.999Z</time></trkpt><trkpt lat="43.73628772312638" lon="10.458631061564867"><ele>1.4000000000000001</ele><time>2026-05-01T14:27:35.999Z</time></trkpt><trkpt lat="43.736326448243275" lon="10.45849492730482"><ele>1.6</ele><time>2026-05-01T14:27:36.999Z</time></trkpt><trkpt lat="43.73634690643322" lon="10.45836034223059"><ele>1.8</ele><time>2026-05-01T14:27:37.999Z</time></trkpt><trkpt lat="43.736368537250065" lon="10.458201561520278"><ele>2.0</ele><time>2026-05-01T14:27:38.999Z</time></trkpt><trkpt lat="43.73637135241605" lon="10.45803361773024"><ele>1.75</ele><time>2026-05-01T14:27:39.999Z</time></trkpt><trkpt lat="43.73640610801005" lon="10.457865036964144"><ele>1.5</ele><time>2026-05-01T14:27:40.999Z</time></trkpt><trkpt lat="43.736421019881384" lon="10.457695809767854"><ele>1.25</ele><time>2026-05-01T14:27:41.999Z</time></trkpt><trkpt lat="43.73641742050442" lon="10.45752324291713"><ele>1.0</ele><time>2026-05-01T14:27:42.999Z</time></trkpt><trkpt lat="43.736428169221135" lon="10.457374663383424"><ele>1.0</ele><time>2026-05-01T14:27:43.999Z</time></trkpt><trkpt lat="43.73643728264977" lon="10.457202577050866"><ele>1.0</ele><time>2026-05-01T14:27:44.999Z</time></trkpt><trkpt lat="43.736445610789204" lon="10.4570256615014"><ele>1.0</ele><time>2026-05-01T14:27:45.999Z</time></trkpt><trkpt lat="43.736448895809424" lon="10.456842333005815"><ele>1.0</ele><time>2026-05-01T14:27:46.999Z</time></trkpt><trkpt lat="43.73645985396588" lon="10.456658224819392"><ele>1.0</ele><time>2026-05-01T14:27:47.999Z</time></trkpt><trkpt lat="43.736464857350676" lon="10.45647540414801"><ele>1.0</ele><time>2026-05-01T14:27:48.999Z</time></trkpt><trkpt lat="43.736469220343025" lon="10.456285903255887"><ele>1.0</ele><time>2026-05-01T14:27:49.999Z</time></trkpt><trkpt lat="43.736467877643946" lon="10.456041612318675"><ele>1.0</ele><time>2026-05-01T14:27:50.999Z</time></trkpt><trkpt lat="43.7364690900897" lon="10.455832489027147"><ele>1.0</ele><time>2026-05-01T14:27:51.999Z</time></trkpt><trkpt lat="43.736466996380926" lon="10.45561368505755"><ele>1.0</ele><time>2026-05-01T14:27:52.999Z</time></trkpt><trkpt lat="43.73646343074696" lon="10.455394048665829"><ele>1.0</ele><time>2026-05-01T14:27:53.999Z</time></trkpt><trkpt lat="43.73646468020673" lon="10.455193888580103"><ele>1.0</ele><time>2026-05-01T14:27:54.999Z</time></trkpt><trkpt lat="43.73645649374687" lon="10.455026156196386"><ele>1.0</ele><time>2026-05-01T14:27:55.999Z</time></trkpt><trkpt lat="43.73645041157197" lon="10.454871838520623"><ele>1.0</ele><time>2026-05-01T14:27:56.999Z</time></trkpt><trkpt lat="43.73644756529063" lon="10.454730152888095"><ele>1.0</ele><time>2026-05-01T14:27:58Z</time></trkpt><trkpt lat="43.73644463008039" lon="10.454598147239551"><ele>1.0</ele><time>2026-05-01T14:27:59Z</time></trkpt><trkpt lat="43.73644130369281" lon="10.454476433889482"><ele>1.0</ele><time>2026-05-01T14:28:00Z</time></trkpt><trkpt lat="43.73643420340967" lon="10.454342588751423"><ele>1.0</ele><time>2026-05-01T14:28:01Z</time></trkpt><trkpt lat="43.73643103847533" lon="10.45420398126867"><ele>1.0</ele><time>2026-05-01T14:28:02Z</time></trkpt><trkpt lat="43.73642518826163" lon="10.454053455223905"><ele>1.0</ele><time>2026-05-01T14:28:03Z</time></trkpt><trkpt lat="43.73641808955027" lon="10.453904749182977"><ele>1.0</ele><time>2026-05-01T14:28:04Z</time></trkpt><trkpt lat="43.7364102536669" lon="10.453757491586908"><ele>1.0</ele><time>2026-05-01T14:28:05Z</time></trkpt><trkpt lat="43.736389958471285" lon="10.453606820316315"><ele>1.0</ele><time>2026-05-01T14:28:06Z</time></trkpt><trkpt lat="43.736393344329684" lon="10.453453093591717"><ele>1.0</ele><time>2026-05-01T14:28:07Z</time></trkpt><trkpt lat="43.736381850180386" lon="10.453285966050691"><ele>1.0</ele><time>2026-05-01T14:28:08Z</time></trkpt><trkpt lat="43.736367133924766" lon="10.453114103725154"><ele>1.0</ele><time>2026-05-01T14:28:09Z</time></trkpt><trkpt lat="43.73635226684458" lon="10.452950467073293"><ele>1.0</ele><time>2026-05-01T14:28:10Z</time></trkpt><trkpt lat="43.736325851903445" lon="10.45279839366913"><ele>1.0</ele><time>2026-05-01T14:28:11Z</time></trkpt><trkpt lat="43.73631964993879" lon="10.452625137528914"><ele>1.0</ele><time>2026-05-01T14:28:12Z</time></trkpt><trkpt lat="43.73631490811568" lon="10.452474071396207"><ele>0.9999999999999999</ele><time>2026-05-01T14:28:13Z</time></trkpt><trkpt lat="43.73630533175841" lon="10.452338699308614"><ele>1.0</ele><time>2026-05-01T14:28:14Z</time></trkpt><trkpt lat="43.73631684796958" lon="10.452192094437489"><ele>1.0</ele><time>2026-05-01T14:28:15Z</time></trkpt><trkpt lat="43.73631485471661" lon="10.4520728054786"><ele>1.0</ele><time>2026-05-01T14:28:16Z</time></trkpt><trkpt lat="43.736313406737025" lon="10.451966678578085"><ele>0.9999999999999999</ele><time>2026-05-01T14:28:17Z</time></trkpt><trkpt lat="43.73631219979849" lon="10.451878218292125"><ele>1.0</ele><time>2026-05-01T14:28:19Z</time></trkpt><trkpt lat="43.73629450261008" lon="10.451793152519006"><ele>1.0</ele><time>2026-05-01T14:28:22Z</time></trkpt><trkpt lat="43.7362974880757" lon="10.45167965686676"><ele>1.0</ele><time>2026-05-01T14:28:24Z</time></trkpt><trkpt lat="43.736292465565896" lon="10.451483323167746"><ele>1.0</ele><time>2026-05-01T14:28:26Z</time></trkpt><trkpt lat="43.736286020649004" lon="10.451355816539882"><ele>1.0</ele><time>2026-05-01T14:28:27Z</time></trkpt><trkpt lat="43.736280263177626" lon="10.451203175844253"><ele>1.0</ele><time>2026-05-01T14:28:28Z</time></trkpt><trkpt lat="43.73627238640289" lon="10.450998292010857"><ele>1.0</ele><time>2026-05-01T14:28:29Z</time></trkpt><trkpt lat="43.73626581310057" lon="10.450729118225661"><ele>1.0</ele><time>2026-05-01T14:28:30Z</time></trkpt><trkpt lat="43.73625515537453" lon="10.450433661880094"><ele>1.0</ele><time>2026-05-01T14:28:31Z</time></trkpt><trkpt lat="43.73624415614718" lon="10.450189673826396"><ele>0.5</ele><time>2026-05-01T14:28:32Z</time></trkpt><trkpt lat="43.73623664641948" lon="10.449998368258706"><ele>0.0</ele><time>2026-05-01T14:28:33Z</time></trkpt><trkpt lat="43.73623073551945" lon="10.449809027369554"><ele>-0.5</ele><time>2026-05-01T14:28:34Z</time></trkpt><trkpt lat="43.73622334558784" lon="10.44963861449009"><ele>-1.0</ele><time>2026-05-01T14:28:35Z</time></trkpt><trkpt lat="43.73621637313088" lon="10.4494833565501"><ele>-1.0</ele><time>2026-05-01T14:28:36Z</time></trkpt><trkpt lat="43.73621464973356" lon="10.449318451047251"><ele>-1.0</ele><time>2026-05-01T14:28:37Z</time></trkpt><trkpt lat="43.73620813274438" lon="10.449143796423849"><ele>-1.0</ele><time>2026-05-01T14:28:38Z</time></trkpt><trkpt lat="43.73620277341061" lon="10.449001681215806"><ele>-1.0</ele><time>2026-05-01T14:28:39Z</time></trkpt><trkpt lat="43.73619669102471" lon="10.448871482062836"><ele>-1.0</ele><time>2026-05-01T14:28:40Z</time></trkpt><trkpt lat="43.73619092527767" lon="10.448754809104853"><ele>-0.8</ele><time>2026-05-01T14:28:41Z</time></trkpt><trkpt lat="43.736184780942246" lon="10.448632452498899"><ele>-0.6000000000000001</ele><time>2026-05-01T14:28:42Z</time></trkpt><trkpt lat="43.73618198250869" lon="10.44848099671458"><ele>-0.4</ele><time>2026-05-01T14:28:43Z</time></trkpt><trkpt lat="43.73618191032467" lon="10.448323998379552"><ele>-0.2</ele><time>2026-05-01T14:28:44Z</time></trkpt><trkpt lat="43.73619191309295" lon="10.448164550236436"><ele>0.0</ele><time>2026-05-01T14:28:45Z</time></trkpt><trkpt lat="43.736198025685084" lon="10.448013883198943"><ele>0.0</ele><time>2026-05-01T14:28:46Z</time></trkpt><trkpt lat="43.73620196744398" lon="10.447883574915602"><ele>0.0</ele><time>2026-05-01T14:28:47Z</time></trkpt><trkpt lat="43.73620380154369" lon="10.447767638910019"><ele>0.0</ele><time>2026-05-01T14:28:48Z</time></trkpt><trkpt lat="43.736205096473434" lon="10.447664895204747"><ele>0.0</ele><time>2026-05-01T14:28:49Z</time></trkpt><trkpt lat="43.736208048726205" lon="10.447565330608436"><ele>0.0</ele><time>2026-05-01T14:28:50Z</time></trkpt><trkpt lat="43.73620526627693" lon="10.447466487181126"><ele>0.0</ele><time>2026-05-01T14:28:51Z</time></trkpt><trkpt lat="43.73621011084633" lon="10.447371254142173"><ele>0.0</ele><time>2026-05-01T14:28:52Z</time></trkpt><trkpt lat="43.73621197112861" lon="10.447208103595212"><ele>0.0</ele><time>2026-05-01T14:28:54Z</time></trkpt><trkpt lat="43.73622032517707" lon="10.4470840968395"><ele>0.0</ele><time>2026-05-01T14:28:56Z</time></trkpt><trkpt lat="43.73622792841696" lon="10.446954556805517"><ele>0.0</ele><time>2026-05-01T14:28:58Z</time></trkpt><trkpt lat="43.736241040099245" lon="10.446845707200461"><ele>0.0</ele><time>2026-05-01T14:29:00Z</time></trkpt><trkpt lat="43.736243019020165" lon="10.44672176567073"><ele>0.2</ele><time>2026-05-01T14:29:13Z</time></trkpt><trkpt lat="43.73613896406302" lon="10.4465900593319"><ele>0.4</ele><time>2026-05-01T14:29:15Z</time></trkpt><trkpt lat="43.73607750410939" lon="10.446514663146727"><ele>0.6000000000000001</ele><time>2026-05-01T14:29:16Z</time></trkpt><trkpt lat="43.736027751554424" lon="10.446404007821084"><ele>0.8</ele><time>2026-05-01T14:29:17Z</time></trkpt><trkpt lat="43.735967743553445" lon="10.446307260880918"><ele>1.0</ele><time>2026-05-01T14:29:18Z</time></trkpt><trkpt lat="43.735894761661065" lon="10.446206778088785"><ele>1.2000000000000002</ele><time>2026-05-01T14:29:19Z</time></trkpt><trkpt lat="43.73582995325403" lon="10.446107131448825"><ele>1.4000000000000001</ele><time>2026-05-01T14:29:20Z</time></trkpt><trkpt lat="43.73577015125814" lon="10.445997012829165"><ele>1.6</ele><time>2026-05-01T14:29:21Z</time></trkpt><trkpt lat="43.73569324291503" lon="10.445904261599921"><ele>1.8</ele><time>2026-05-01T14:29:22Z</time></trkpt><trkpt lat="43.735622496447895" lon="10.445797008549574"><ele>2.0</ele><time>2026-05-01T14:29:23Z</time></trkpt><trkpt lat="43.73554968610709" lon="10.445685193888307"><ele>2.0</ele><time>2026-05-01T14:29:24Z</time></trkpt><trkpt lat="43.7354769926854" lon="10.445574639242363"><ele>2.0</ele><time>2026-05-01T14:29:25Z</time></trkpt><trkpt lat="43.73541599698889" lon="10.445451116328874"><ele>2.0</ele><time>2026-05-01T14:29:26Z</time></trkpt><trkpt lat="43.73534777284281" lon="10.44534553293023"><ele>2.0</ele><time>2026-05-01T14:29:27Z</time></trkpt><trkpt lat="43.73529192648059" lon="10.445257599827118"><ele>2.0</ele><time>2026-05-01T14:29:28Z</time></trkpt><trkpt lat="43.735244343450766" lon="10.44517687602422"><ele>1.6</ele><time>2026-05-01T14:29:29Z</time></trkpt><trkpt lat="43.73518083374102" lon="10.445077273961664"><ele>1.2000000000000002</ele><time>2026-05-01T14:29:30Z</time></trkpt><trkpt lat="43.73510823499421" lon="10.444960907028337"><ele>0.8</ele><time>2026-05-01T14:29:31Z</time></trkpt><trkpt lat="43.735034728526685" lon="10.44485267516687"><ele>0.4</ele><time>2026-05-01T14:29:32Z</time></trkpt><trkpt lat="43.7349782179606" lon="10.444767306618523"><ele>0.0</ele><time>2026-05-01T14:29:33Z</time></trkpt><trkpt lat="43.73492335356534" lon="10.444691272305057"><ele>0.16666666666666666</ele><time>2026-05-01T14:29:34Z</time></trkpt><trkpt lat="43.734876915523955" lon="10.44462279686331"><ele>0.3333333333333333</ele><time>2026-05-01T14:29:35Z</time></trkpt><trkpt lat="43.734814550443005" lon="10.444529194971569"><ele>0.5</ele><time>2026-05-01T14:29:37Z</time></trkpt><trkpt lat="43.734771094256594" lon="10.444465967773617"><ele>0.6666666666666666</ele><time>2026-05-01T14:30:02.999Z</time></trkpt><trkpt lat="43.73472359774526" lon="10.444390173333977"><ele>0.8333333333333333</ele><time>2026-05-01T14:30:05Z</time></trkpt><trkpt lat="43.73467924238322" lon="10.444286407375325"><ele>1.0</ele><time>2026-05-01T14:30:25Z</time></trkpt><trkpt lat="43.734588337855065" lon="10.444181517006252"><ele>1.0</ele><time>2026-05-01T14:30:26Z</time></trkpt><trkpt lat="43.73450233012228" lon="10.444092569045509"><ele>1.0</ele><time>2026-05-01T14:30:27Z</time></trkpt><trkpt lat="43.734461223736815" lon="10.443904242452495"><ele>1.0</ele><time>2026-05-01T14:30:28Z</time></trkpt><trkpt lat="43.73437328289928" lon="10.443784678570328"><ele>1.0</ele><time>2026-05-01T14:30:29Z</time></trkpt><trkpt lat="43.73426243307521" lon="10.443637347304662"><ele>1.25</ele><time>2026-05-01T14:30:30Z</time></trkpt><trkpt lat="43.73415039937072" lon="10.443476532399574"><ele>1.5</ele><time>2026-05-01T14:30:31Z</time></trkpt><trkpt lat="43.73405325043689" lon="10.443336017477437"><ele>1.75</ele><time>2026-05-01T14:30:32Z</time></trkpt><trkpt lat="43.733965196055685" lon="10.443212178701295"><ele>2.0</ele><time>2026-05-01T14:30:33Z</time></trkpt><trkpt lat="43.733872713708564" lon="10.443085080292512"><ele>1.75</ele><time>2026-05-01T14:30:34Z</time></trkpt><trkpt lat="43.733778527606866" lon="10.442947289295933"><ele>1.5</ele><time>2026-05-01T14:30:35Z</time></trkpt><trkpt lat="43.733684270023126" lon="10.442801716601794"><ele>1.25</ele><time>2026-05-01T14:30:36Z</time></trkpt><trkpt lat="43.73358693903884" lon="10.442648104016994"><ele>1.0</ele><time>2026-05-01T14:30:37Z</time></trkpt><trkpt lat="43.7334854758324" lon="10.442494159537329"><ele>0.75</ele><time>2026-05-01T14:30:38Z</time></trkpt><trkpt lat="43.733392328393506" lon="10.442350127224012"><ele>0.5</ele><time>2026-05-01T14:30:39Z</time></trkpt><trkpt lat="43.73329269012043" lon="10.442193495643709"><ele>0.25</ele><time>2026-05-01T14:30:40Z</time></trkpt><trkpt lat="43.7331920824855" lon="10.442036020148635"><ele>0.0</ele><time>2026-05-01T14:30:41Z</time></trkpt><trkpt lat="43.733087860278786" lon="10.441878659577633"><ele>0.0</ele><time>2026-05-01T14:30:42Z</time></trkpt><trkpt lat="43.73299152438114" lon="10.441734363185313"><ele>0.0</ele><time>2026-05-01T14:30:43Z</time></trkpt><trkpt lat="43.73290756012499" lon="10.441598547748578"><ele>0.0</ele><time>2026-05-01T14:30:44Z</time></trkpt><trkpt lat="43.7328300612695" lon="10.441466859615117"><ele>0.0</ele><time>2026-05-01T14:30:45Z</time></trkpt><trkpt lat="43.73274458126022" lon="10.44133972190788"><ele>0.0</ele><time>2026-05-01T14:30:46Z</time></trkpt><trkpt lat="43.732658973573834" lon="10.441209217260745"><ele>0.0</ele><time>2026-05-01T14:30:47Z</time></trkpt><trkpt lat="43.73258045032625" lon="10.441092019139722"><ele>0.0</ele><time>2026-05-01T14:30:48Z</time></trkpt><trkpt lat="43.73250620746416" lon="10.440977893535669"><ele>0.0</ele><time>2026-05-01T14:30:49Z</time></trkpt><trkpt lat="43.732430451000084" lon="10.4408630461042"><ele>0.0</ele><time>2026-05-01T14:30:50Z</time></trkpt><trkpt lat="43.73234951981343" lon="10.440740700510336"><ele>0.0</ele><time>2026-05-01T14:30:51Z</time></trkpt><trkpt lat="43.73226552067306" lon="10.440614676800697"><ele>0.0</ele><time>2026-05-01T14:30:52Z</time></trkpt><trkpt lat="43.7321805329391" lon="10.440480917323345"><ele>0.0</ele><time>2026-05-01T14:30:53Z</time></trkpt><trkpt lat="43.732092854838534" lon="10.440346376749748"><ele>0.0</ele><time>2026-05-01T14:30:54Z</time></trkpt><trkpt lat="43.73201436619182" lon="10.440228757395536"><ele>0.0</ele><time>2026-05-01T14:30:55Z</time></trkpt><trkpt lat="43.73194604948606" lon="10.440130287322807"><ele>0.0</ele><time>2026-05-01T14:30:56Z</time></trkpt><trkpt lat="43.73188817010453" lon="10.440029763055456"><ele>0.0</ele><time>2026-05-01T14:30:57Z</time></trkpt><trkpt lat="43.73183147528853" lon="10.439937559975387"><ele>0.0</ele><time>2026-05-01T14:30:58Z</time></trkpt><trkpt lat="43.73177634301474" lon="10.439849826837387"><ele>0.0</ele><time>2026-05-01T14:30:59Z</time></trkpt><trkpt lat="43.73172414924995" lon="10.439768504466747"><ele>0.0</ele><time>2026-05-01T14:31:00Z</time></trkpt><trkpt lat="43.73167544831829" lon="10.439693674829035"><ele>0.0</ele><time>2026-05-01T14:31:01Z</time></trkpt><trkpt lat="43.73163103574905" lon="10.439621645783866"><ele>0.0</ele><time>2026-05-01T14:31:02Z</time></trkpt><trkpt lat="43.73156107262277" lon="10.43951562198792"><ele>0.0</ele><time>2026-05-01T14:31:04Z</time></trkpt><trkpt lat="43.73151432821722" lon="10.43944479717119"><ele>0.0</ele><time>2026-05-01T14:31:06Z</time></trkpt><trkpt lat="43.7314546116772" lon="10.439356838233365"><ele>0.0</ele><time>2026-05-01T14:31:11Z</time></trkpt><trkpt lat="43.731411606863674" lon="10.439288888283684"><ele>0.0</ele><time>2026-05-01T14:31:13Z</time></trkpt><trkpt lat="43.73135088542506" lon="10.439177744692838"><ele>0.0</ele><time>2026-05-01T14:31:16Z</time></trkpt><trkpt lat="43.73126807129485" lon="10.439076184460845"><ele>0.0</ele><time>2026-05-01T14:31:18Z</time></trkpt><trkpt lat="43.73122453166425" lon="10.43900233427611"><ele>0.0</ele><time>2026-05-01T14:31:19Z</time></trkpt><trkpt lat="43.731174414128006" lon="10.43893181384288"><ele>0.0</ele><time>2026-05-01T14:31:20Z</time></trkpt><trkpt lat="43.731121375008286" lon="10.438851639167245"><ele>0.0</ele><time>2026-05-01T14:31:21Z</time></trkpt><trkpt lat="43.73106246686348" lon="10.438761996420284"><ele>0.0</ele><time>2026-05-01T14:31:22Z</time></trkpt><trkpt lat="43.730998368627965" lon="10.438663967665315"><ele>0.0</ele><time>2026-05-01T14:31:23Z</time></trkpt><trkpt lat="43.73092980764323" lon="10.438553345496118"><ele>0.0</ele><time>2026-05-01T14:31:24Z</time></trkpt><trkpt lat="43.73086535137688" lon="10.438455530420114"><ele>0.0</ele><time>2026-05-01T14:31:25Z</time></trkpt><trkpt lat="43.730799175240335" lon="10.438354497066392"><ele>0.3333333333333333</ele><time>2026-05-01T14:31:26Z</time></trkpt><trkpt lat="43.730738366438935" lon="10.438258208954387"><ele>0.6666666666666666</ele><time>2026-05-01T14:31:27Z</time></trkpt><trkpt lat="43.73068780435974" lon="10.438151111713502"><ele>1.0</ele><time>2026-05-01T14:31:28Z</time></trkpt><trkpt lat="43.73062673765214" lon="10.438059491189847"><ele>1.3333333333333333</ele><time>2026-05-01T14:31:29Z</time></trkpt><trkpt lat="43.730570857154746" lon="10.437972060862492"><ele>1.6666666666666665</ele><time>2026-05-01T14:31:30Z</time></trkpt><trkpt lat="43.73051378552745" lon="10.437889435024926"><ele>2.0</ele><time>2026-05-01T14:31:31Z</time></trkpt><trkpt lat="43.73045882390326" lon="10.437801856569054"><ele>1.9999999999999998</ele><time>2026-05-01T14:31:32Z</time></trkpt><trkpt lat="43.73041066926145" lon="10.437703428274816"><ele>2.0</ele><time>2026-05-01T14:31:33Z</time></trkpt><trkpt lat="43.730376918561504" lon="10.437616161156395"><ele>2.0</ele><time>2026-05-01T14:31:34Z</time></trkpt><trkpt lat="43.730344027746035" lon="10.437537116674783"><ele>2.0</ele><time>2026-05-01T14:31:35Z</time></trkpt><trkpt lat="43.73028840949389" lon="10.437404776234589"><ele>1.9999999999999998</ele><time>2026-05-01T14:31:37Z</time></trkpt><trkpt lat="43.73024656515286" lon="10.437298311411775"><ele>2.0</ele><time>2026-05-01T14:31:39Z</time></trkpt><trkpt lat="43.73022101689401" lon="10.4372116155319"><ele>1.8</ele><time>2026-05-01T14:32:55Z</time></trkpt><trkpt lat="43.730160337257445" lon="10.437100130692883"><ele>1.6</ele><time>2026-05-01T14:32:57Z</time></trkpt><trkpt lat="43.73009707295877" lon="10.4370252173401"><ele>1.4000000000000001</ele><time>2026-05-01T14:32:58Z</time></trkpt><trkpt lat="43.730015884235584" lon="10.436950092011072"><ele>1.2000000000000002</ele><time>2026-05-01T14:32:59Z</time></trkpt><trkpt lat="43.72992962534769" lon="10.436872068599232"><ele>1.0</ele><time>2026-05-01T14:33:00Z</time></trkpt><trkpt lat="43.72983641552575" lon="10.43678414214019"><ele>1.0</ele><time>2026-05-01T14:33:01Z</time></trkpt><trkpt lat="43.72974492338437" lon="10.436679574299138"><ele>1.0</ele><time>2026-05-01T14:33:02Z</time></trkpt><trkpt lat="43.72965748691688" lon="10.436565822891879"><ele>1.0</ele><time>2026-05-01T14:33:03Z</time></trkpt><trkpt lat="43.72957434942408" lon="10.43643685545576"><ele>1.0</ele><time>2026-05-01T14:33:04Z</time></trkpt><trkpt lat="43.72949191180559" lon="10.436301856829584"><ele>1.0</ele><time>2026-05-01T14:33:05Z</time></trkpt><trkpt lat="43.72940786557258" lon="10.436159420063712"><ele>1.0</ele><time>2026-05-01T14:33:06Z</time></trkpt><trkpt lat="43.729331011320376" lon="10.436029787115913"><ele>1.0</ele><time>2026-05-01T14:33:07Z</time></trkpt><trkpt lat="43.72925963644718" lon="10.43591210009573"><ele>1.0</ele><time>2026-05-01T14:33:08Z</time></trkpt><trkpt lat="43.72919727278257" lon="10.435802045568709"><ele>0.75</ele><time>2026-05-01T14:33:09Z</time></trkpt><trkpt lat="43.72912352121592" lon="10.43568010848502"><ele>0.5</ele><time>2026-05-01T14:33:10Z</time></trkpt><trkpt lat="43.729046658438065" lon="10.435544897777293"><ele>0.25</ele><time>2026-05-01T14:33:11Z</time></trkpt><trkpt lat="43.728963784791986" lon="10.435398591424173"><ele>0.0</ele><time>2026-05-01T14:33:12Z</time></trkpt><trkpt lat="43.728875580895924" lon="10.435244861018317"><ele>0.0</ele><time>2026-05-01T14:33:13Z</time></trkpt><trkpt lat="43.728783697185314" lon="10.43508902821083"><ele>0.0</ele><time>2026-05-01T14:33:14Z</time></trkpt><trkpt lat="43.728695212046944" lon="10.434933430281912"><ele>0.0</ele><time>2026-05-01T14:33:15Z</time></trkpt><trkpt lat="43.72860290774223" lon="10.434774278614274"><ele>0.0</ele><time>2026-05-01T14:33:16Z</time></trkpt><trkpt lat="43.72850927552692" lon="10.434610370053855"><ele>0.6666666666666666</ele><time>2026-05-01T14:33:17Z</time></trkpt><trkpt lat="43.72841523614636" lon="10.434439732872157"><ele>1.3333333333333333</ele><time>2026-05-01T14:33:18Z</time></trkpt><trkpt lat="43.72831452820267" lon="10.434270936454313"><ele>2.0</ele><time>2026-05-01T14:33:19Z</time></trkpt><trkpt lat="43.72821994925749" lon="10.43411274277159"><ele>2.0</ele><time>2026-05-01T14:33:20Z</time></trkpt><trkpt lat="43.72812394730899" lon="10.433956696593434"><ele>2.0</ele><time>2026-05-01T14:33:21Z</time></trkpt><trkpt lat="43.728023814566534" lon="10.433800971255382"><ele>2.0</ele><time>2026-05-01T14:33:22Z</time></trkpt><trkpt lat="43.72793549409979" lon="10.433641131293987"><ele>2.0</ele><time>2026-05-01T14:33:23Z</time></trkpt><trkpt lat="43.72784027458527" lon="10.433505038025316"><ele>1.75</ele><time>2026-05-01T14:33:24Z</time></trkpt><trkpt lat="43.72773997666323" lon="10.433393446522016"><ele>1.5</ele><time>2026-05-01T14:33:25Z</time></trkpt><trkpt lat="43.72764824736303" lon="10.433265950298843"><ele>1.25</ele><time>2026-05-01T14:33:26Z</time></trkpt><trkpt lat="43.727569817584104" lon="10.433127711242971"><ele>1.0</ele><time>2026-05-01T14:33:27Z</time></trkpt><trkpt lat="43.72748965151278" lon="10.433012797679137"><ele>1.3333333333333333</ele><time>2026-05-01T14:33:28Z</time></trkpt><trkpt lat="43.72741765841747" lon="10.432904743671441"><ele>1.6666666666666665</ele><time>2026-05-01T14:33:29Z</time></trkpt><trkpt lat="43.727357804105004" lon="10.432813423135892"><ele>2.0</ele><time>2026-05-01T14:33:30Z</time></trkpt><trkpt lat="43.72731337549322" lon="10.432740629429084"><ele>2.3333333333333335</ele><time>2026-05-01T14:33:31Z</time></trkpt><trkpt lat="43.72725943937582" lon="10.432622844293238"><ele>2.6666666666666665</ele><time>2026-05-01T14:33:33Z</time></trkpt><trkpt lat="43.72721538224561" lon="10.43255460501615"><ele>3.0</ele><time>2026-05-01T14:33:35Z</time></trkpt><trkpt lat="43.72714574802959" lon="10.43251729085724"><ele>3.0</ele><time>2026-05-01T14:42:13.999Z</time></trkpt><trkpt lat="43.72705521701905" lon="10.432416410964494"><ele>3.0</ele><time>2026-05-01T14:42:16.999Z</time></trkpt><trkpt lat="43.726973686344714" lon="10.432291006903911"><ele>3.0</ele><time>2026-05-01T14:42:18.999Z</time></trkpt><trkpt lat="43.726913897454835" lon="10.432204939169711"><ele>3.0</ele><time>2026-05-01T14:42:19.999Z</time></trkpt><trkpt lat="43.72683972401674" lon="10.432103597735919"><ele>3.0</ele><time>2026-05-01T14:42:20.999Z</time></trkpt><trkpt lat="43.72676252548286" lon="10.432000939689182"><ele>2.5</ele><time>2026-05-01T14:42:21.999Z</time></trkpt><trkpt lat="43.72667774857312" lon="10.431883911700593"><ele>2.0</ele><time>2026-05-01T14:42:22.999Z</time></trkpt><trkpt lat="43.726585471049106" lon="10.431755102354877"><ele>1.5</ele><time>2026-05-01T14:42:23.999Z</time></trkpt><trkpt lat="43.7264911807328" lon="10.431621086502277"><ele>1.0</ele><time>2026-05-01T14:42:24.999Z</time></trkpt><trkpt lat="43.72638793489261" lon="10.431480528116701"><ele>1.0</ele><time>2026-05-01T14:42:25.999Z</time></trkpt><trkpt lat="43.726283800504866" lon="10.4313338639919"><ele>1.0</ele><time>2026-05-01T14:42:26.999Z</time></trkpt><trkpt lat="43.726174694266106" lon="10.43118207689216"><ele>1.0</ele><time>2026-05-01T14:42:27.999Z</time></trkpt><trkpt lat="43.72606262004275" lon="10.431023706326224"><ele>1.0</ele><time>2026-05-01T14:42:28.999Z</time></trkpt><trkpt lat="43.725954837302375" lon="10.43086179603697"><ele>1.0</ele><time>2026-05-01T14:42:29.999Z</time></trkpt><trkpt lat="43.725844032911375" lon="10.43069631711624"><ele>1.0</ele><time>2026-05-01T14:42:30.999Z</time></trkpt><trkpt lat="43.72573519383468" lon="10.430522467978834"><ele>1.0</ele><time>2026-05-01T14:42:31.999Z</time></trkpt><trkpt lat="43.725625225363096" lon="10.430343750568916"><ele>1.0</ele><time>2026-05-01T14:42:32.999Z</time></trkpt><trkpt lat="43.72551531301719" lon="10.430168840110804"><ele>1.0</ele><time>2026-05-01T14:42:33.999Z</time></trkpt><trkpt lat="43.72541206938895" lon="10.430013921460246"><ele>1.0</ele><time>2026-05-01T14:42:34.999Z</time></trkpt><trkpt lat="43.72531088184605" lon="10.429853847824"><ele>1.0</ele><time>2026-05-01T14:42:35.999Z</time></trkpt><trkpt lat="43.72520898036738" lon="10.429688992175121"><ele>1.0</ele><time>2026-05-01T14:42:36.999Z</time></trkpt><trkpt lat="43.72510352920814" lon="10.42952595859557"><ele>1.0</ele><time>2026-05-01T14:42:37.999Z</time></trkpt><trkpt lat="43.724997559799576" lon="10.429358874913454"><ele>1.0</ele><time>2026-05-01T14:42:38.999Z</time></trkpt><trkpt lat="43.72488983251445" lon="10.429188231901792"><ele>1.0</ele><time>2026-05-01T14:42:40Z</time></trkpt><trkpt lat="43.72478144224388" lon="10.42901682668201"><ele>1.0</ele><time>2026-05-01T14:42:41Z</time></trkpt><trkpt lat="43.72467130053315" lon="10.428843432743534"><ele>1.0</ele><time>2026-05-01T14:42:42Z</time></trkpt><trkpt lat="43.724571434955934" lon="10.428675532033175"><ele>1.0</ele><time>2026-05-01T14:42:43Z</time></trkpt><trkpt lat="43.72447034125354" lon="10.428509401067137"><ele>1.0</ele><time>2026-05-01T14:42:44Z</time></trkpt><trkpt lat="43.72436779802865" lon="10.428349078009873"><ele>1.0</ele><time>2026-05-01T14:42:45Z</time></trkpt><trkpt lat="43.72426656794159" lon="10.428191776818323"><ele>1.0</ele><time>2026-05-01T14:42:46Z</time></trkpt><trkpt lat="43.72417435767045" lon="10.428044719795045"><ele>1.0</ele><time>2026-05-01T14:42:47Z</time></trkpt><trkpt lat="43.72409433900376" lon="10.427915035769209"><ele>1.0</ele><time>2026-05-01T14:42:48Z</time></trkpt><trkpt lat="43.72401950151345" lon="10.427796546318326"><ele>1.0</ele><time>2026-05-01T14:42:49Z</time></trkpt><trkpt lat="43.723952831053715" lon="10.427704749771037"><ele>1.0</ele><time>2026-05-01T14:42:50Z</time></trkpt><trkpt lat="43.723890880576505" lon="10.42762312879106"><ele>1.0</ele><time>2026-05-01T14:42:51Z</time></trkpt><trkpt lat="43.72382664384823" lon="10.427528039306207"><ele>1.0</ele><time>2026-05-01T14:42:52Z</time></trkpt><trkpt lat="43.72377117548276" lon="10.427469439213336"><ele>0.9999999999999999</ele><time>2026-05-01T14:42:53Z</time></trkpt><trkpt lat="43.72371624294593" lon="10.427399755924473"><ele>1.0</ele><time>2026-05-01T14:42:54Z</time></trkpt><trkpt lat="43.72365939348805" lon="10.42734989397533"><ele>1.0</ele><time>2026-05-01T14:42:55Z</time></trkpt><trkpt lat="43.7235847220064" lon="10.427228873300821"><ele>1.0</ele><time>2026-05-01T14:42:57Z</time></trkpt><trkpt lat="43.72351442313041" lon="10.427100413726754"><ele>0.9999999999999999</ele><time>2026-05-01T14:42:59Z</time></trkpt><trkpt lat="43.72347138898163" lon="10.427030798518121"><ele>1.0</ele><time>2026-05-01T14:43:00Z</time></trkpt><trkpt lat="43.72342486938349" lon="10.426953933812642"><ele>1.2000000000000002</ele><time>2026-05-01T14:43:01Z</time></trkpt><trkpt lat="43.7233963587522" lon="10.426867996052678"><ele>1.4000000000000001</ele><time>2026-05-01T14:43:02Z</time></trkpt><trkpt lat="43.72331709744216" lon="10.426746429869139"><ele>1.6</ele><time>2026-05-01T14:43:04Z</time></trkpt><trkpt lat="43.72324569780697" lon="10.42663807575932"><ele>1.8</ele><time>2026-05-01T14:43:06Z</time></trkpt><trkpt lat="43.72318681220313" lon="10.426592833773098"><ele>2.0</ele><time>2026-05-01T14:43:07Z</time></trkpt><trkpt lat="43.72307538837465" lon="10.426557843895104"><ele>2.0</ele><time>2026-05-01T14:43:09Z</time></trkpt><trkpt lat="43.72298804783133" lon="10.426531697799897"><ele>2.0</ele><time>2026-05-01T14:43:11Z</time></trkpt><trkpt lat="43.72286961072062" lon="10.426530560096124"><ele>2.0</ele><time>2026-05-01T14:43:13Z</time></trkpt><trkpt lat="43.72280513481606" lon="10.426443277013838"><ele>2.0</ele><time>2026-05-01T14:43:15Z</time></trkpt><trkpt lat="43.72274295043238" lon="10.426314524055933"><ele>2.0</ele><time>2026-05-01T14:43:17Z</time></trkpt><trkpt lat="43.72270340834642" lon="10.426156597344589"><ele>1.8333333333333333</ele><time>2026-05-01T14:43:19Z</time></trkpt><trkpt lat="43.72269761785211" lon="10.426061354649828"><ele>1.6666666666666665</ele><time>2026-05-01T14:43:20Z</time></trkpt><trkpt lat="43.72268809670536" lon="10.42594228043344"><ele>1.5</ele><time>2026-05-01T14:43:21Z</time></trkpt><trkpt lat="43.7226802158065" lon="10.425820655350192"><ele>1.3333333333333333</ele><time>2026-05-01T14:43:22Z</time></trkpt><trkpt lat="43.72267254755988" lon="10.42569739801721"><ele>1.1666666666666665</ele><time>2026-05-01T14:43:23Z</time></trkpt><trkpt lat="43.72266328685364" lon="10.425587088824521"><ele>1.0</ele><time>2026-05-01T14:43:24Z</time></trkpt><trkpt lat="43.72265506921611" lon="10.425472066447034"><ele>1.0</ele><time>2026-05-01T14:43:25Z</time></trkpt><trkpt lat="43.722648234704295" lon="10.425351460512179"><ele>1.0</ele><time>2026-05-01T14:43:26Z</time></trkpt><trkpt lat="43.722632055994865" lon="10.425220539658758"><ele>1.0</ele><time>2026-05-01T14:43:27Z</time></trkpt><trkpt lat="43.72260671341639" lon="10.425086966975641"><ele>1.0</ele><time>2026-05-01T14:43:28Z</time></trkpt><trkpt lat="43.72255551277083" lon="10.424953384796243"><ele>1.0</ele><time>2026-05-01T14:43:29Z</time></trkpt><trkpt lat="43.72249578529461" lon="10.424820525308846"><ele>1.0</ele><time>2026-05-01T14:43:30Z</time></trkpt><trkpt lat="43.72242912160063" lon="10.424692287884504"><ele>1.0</ele><time>2026-05-01T14:43:31Z</time></trkpt><trkpt lat="43.72235423487276" lon="10.424561629975313"><ele>1.0</ele><time>2026-05-01T14:43:32Z</time></trkpt><trkpt lat="43.722280442416434" lon="10.424421857367635"><ele>1.0</ele><time>2026-05-01T14:43:33Z</time></trkpt><trkpt lat="43.72220413595833" lon="10.424277620748766"><ele>1.5</ele><time>2026-05-01T14:43:34Z</time></trkpt><trkpt lat="43.72212148395798" lon="10.424119140903528"><ele>2.0</ele><time>2026-05-01T14:43:35Z</time></trkpt><trkpt lat="43.7220337170534" lon="10.423962604141462"><ele>2.5</ele><time>2026-05-01T14:43:36Z</time></trkpt><trkpt lat="43.72194738893763" lon="10.42380557635"><ele>3.0</ele><time>2026-05-01T14:43:37Z</time></trkpt><trkpt lat="43.721863535001994" lon="10.423664299408813"><ele>3.0</ele><time>2026-05-01T14:43:38Z</time></trkpt><trkpt lat="43.72177802636144" lon="10.423535025977834"><ele>3.0</ele><time>2026-05-01T14:43:39Z</time></trkpt><trkpt lat="43.72169396524907" lon="10.423406502238791"><ele>3.0</ele><time>2026-05-01T14:43:40Z</time></trkpt><trkpt lat="43.72160949351503" lon="10.423279287099255"><ele>3.0</ele><time>2026-05-01T14:43:41Z</time></trkpt><trkpt lat="43.72152803086927" lon="10.42315545434444"><ele>3.0</ele><time>2026-05-01T14:43:41.999Z</time></trkpt><trkpt lat="43.721446025491005" lon="10.423027880063412"><ele>3.0</ele><time>2026-05-01T14:43:42.999Z</time></trkpt><trkpt lat="43.7213647382387" lon="10.422906112654491"><ele>3.0</ele><time>2026-05-01T14:43:43.999Z</time></trkpt><trkpt lat="43.721287021760176" lon="10.422792406430194"><ele>3.0</ele><time>2026-05-01T14:43:44.999Z</time></trkpt><trkpt lat="43.72121110455542" lon="10.422663019079996"><ele>3.25</ele><time>2026-05-01T14:43:45.999Z</time></trkpt><trkpt lat="43.72112653833484" lon="10.422531492768446"><ele>3.5</ele><time>2026-05-01T14:43:46.999Z</time></trkpt><trkpt lat="43.721048366972546" lon="10.422407739398675"><ele>3.75</ele><time>2026-05-01T14:43:47.999Z</time></trkpt><trkpt lat="43.72097582475221" lon="10.422291503976831"><ele>4.0</ele><time>2026-05-01T14:43:48.999Z</time></trkpt><trkpt lat="43.720916263818346" lon="10.422185226089237"><ele>3.6666666666666665</ele><time>2026-05-01T14:43:49.999Z</time></trkpt><trkpt lat="43.72086704693286" lon="10.42208641374633"><ele>3.333333333333333</ele><time>2026-05-01T14:43:50.999Z</time></trkpt><trkpt lat="43.72083153647846" lon="10.421987802816867"><ele>3.0</ele><time>2026-05-01T14:43:51.999Z</time></trkpt><trkpt lat="43.720804945749016" lon="10.42189032051608"><ele>2.6666666666666665</ele><time>2026-05-01T14:43:52.999Z</time></trkpt><trkpt lat="43.72076007392773" lon="10.421828862550381"><ele>2.333333333333333</ele><time>2026-05-01T14:43:53.999Z</time></trkpt><trkpt lat="43.72071794171089" lon="10.42175785308929"><ele>2.0</ele><time>2026-05-01T14:43:54.999Z</time></trkpt><trkpt lat="43.72068601914324" lon="10.421658208799641"><ele>2.0</ele><time>2026-05-01T14:43:55.999Z</time></trkpt><trkpt lat="43.72059850676671" lon="10.421616226094915"><ele>2.0</ele><time>2026-05-01T14:43:56.999Z</time></trkpt><trkpt lat="43.72051988056791" lon="10.42156939992056"><ele>2.0</ele><time>2026-05-01T14:43:57.999Z</time></trkpt><trkpt lat="43.720437729272106" lon="10.421480747715028"><ele>2.0</ele><time>2026-05-01T14:43:58.999Z</time></trkpt><trkpt lat="43.72035988906591" lon="10.42136664966974"><ele>2.0</ele><time>2026-05-01T14:43:59.999Z</time></trkpt><trkpt lat="43.72027527949979" lon="10.421247440898808"><ele>2.2</ele><time>2026-05-01T14:44:00.999Z</time></trkpt><trkpt lat="43.720197521368206" lon="10.42114230600543"><ele>2.4000000000000004</ele><time>2026-05-01T14:44:01.999Z</time></trkpt><trkpt lat="43.7201222733787" lon="10.421041087237068"><ele>2.5999999999999996</ele><time>2026-05-01T14:44:02.999Z</time></trkpt><trkpt lat="43.72004293138872" lon="10.420933371770039"><ele>2.8</ele><time>2026-05-01T14:44:03.999Z</time></trkpt><trkpt lat="43.71997317274526" lon="10.420842007614494"><ele>3.0</ele><time>2026-05-01T14:44:04.999Z</time></trkpt><trkpt lat="43.71991007656247" lon="10.420759931481026"><ele>3.0</ele><time>2026-05-01T14:44:05.999Z</time></trkpt><trkpt lat="43.71984459810384" lon="10.42067943945848"><ele>3.0</ele><time>2026-05-01T14:44:06.999Z</time></trkpt><trkpt lat="43.71977963474572" lon="10.420578603977011"><ele>3.0</ele><time>2026-05-01T14:44:07.999Z</time></trkpt><trkpt lat="43.719695650692124" lon="10.420505926182527"><ele>3.0</ele><time>2026-05-01T14:44:08.999Z</time></trkpt><trkpt lat="43.71955930725086" lon="10.42038252578156"><ele>3.0</ele><time>2026-05-01T14:44:10.999Z</time></trkpt><trkpt lat="43.71950043259454" lon="10.420320015864332"><ele>3.0</ele><time>2026-05-01T14:44:11.999Z</time></trkpt><trkpt lat="43.71944117410299" lon="10.420275591615203"><ele>3.0</ele><time>2026-05-01T14:44:12.999Z</time></trkpt><trkpt lat="43.71938371785613" lon="10.420228954356363"><ele>3.0</ele><time>2026-05-01T14:44:13.999Z</time></trkpt><trkpt lat="43.71928011945156" lon="10.420123558480592"><ele>3.0</ele><time>2026-05-01T14:44:15.999Z</time></trkpt><trkpt lat="43.71923004398025" lon="10.420038308971803"><ele>3.0</ele><time>2026-05-01T14:44:17.999Z</time></trkpt><trkpt lat="43.71919217714324" lon="10.419953888758853"><ele>3.0</ele><time>2026-05-01T14:44:21.999Z</time></trkpt><trkpt lat="43.719170491699145" lon="10.419819740257362"><ele>2.8333333333333335</ele><time>2026-05-01T14:44:23.999Z</time></trkpt><trkpt lat="43.71916050447337" lon="10.419686146001496"><ele>2.6666666666666665</ele><time>2026-05-01T14:44:25.999Z</time></trkpt><trkpt lat="43.719146360328644" lon="10.419600737680625"><ele>2.5</ele><time>2026-05-01T14:44:26.999Z</time></trkpt><trkpt lat="43.71908968817873" lon="10.419442251005995"><ele>2.333333333333333</ele><time>2026-05-01T14:44:28.999Z</time></trkpt><trkpt lat="43.71904248603781" lon="10.419363930206696"><ele>2.1666666666666665</ele><time>2026-05-01T14:44:29.999Z</time></trkpt><trkpt lat="43.71899240098764" lon="10.419285031098344"><ele>2.0</ele><time>2026-05-01T14:44:30.999Z</time></trkpt><trkpt lat="43.71891881180252" lon="10.41920318227375"><ele>2.0</ele><time>2026-05-01T14:44:31.999Z</time></trkpt><trkpt lat="43.71883458622786" lon="10.419112458100258"><ele>2.0</ele><time>2026-05-01T14:44:32.999Z</time></trkpt><trkpt lat="43.718743791210656" lon="10.419001565182374"><ele>2.0</ele><time>2026-05-01T14:44:33.999Z</time></trkpt><trkpt lat="43.71864837261286" lon="10.418880324409184"><ele>2.0</ele><time>2026-05-01T14:44:34.999Z</time></trkpt><trkpt lat="43.71855187204133" lon="10.418744386158892"><ele>2.5</ele><time>2026-05-01T14:44:35.999Z</time></trkpt><trkpt lat="43.71846746413673" lon="10.418612731555607"><ele>3.0</ele><time>2026-05-01T14:44:36.999Z</time></trkpt><trkpt lat="43.7183853059897" lon="10.418480417610908"><ele>3.5</ele><time>2026-05-01T14:44:37.999Z</time></trkpt><trkpt lat="43.71830434254817" lon="10.418352611216525"><ele>4.0</ele><time>2026-05-01T14:44:38.999Z</time></trkpt><trkpt lat="43.71822673371457" lon="10.418228227902137"><ele>4.0</ele><time>2026-05-01T14:44:39.999Z</time></trkpt><trkpt lat="43.71815219142469" lon="10.418106542218581"><ele>4.0</ele><time>2026-05-01T14:44:40.999Z</time></trkpt><trkpt lat="43.718087653109244" lon="10.417999910645253"><ele>4.0</ele><time>2026-05-01T14:44:41.999Z</time></trkpt><trkpt lat="43.71802247686218" lon="10.417896785937083"><ele>4.0</ele><time>2026-05-01T14:44:42.999Z</time></trkpt><trkpt lat="43.71795693713619" lon="10.417790216822173"><ele>4.0</ele><time>2026-05-01T14:44:43.999Z</time></trkpt><trkpt lat="43.71789354032839" lon="10.417682440480236"><ele>4.0</ele><time>2026-05-01T14:44:44.999Z</time></trkpt><trkpt lat="43.71782501525616" lon="10.417564479932071"><ele>4.0</ele><time>2026-05-01T14:44:45.998Z</time></trkpt><trkpt lat="43.71775094894305" lon="10.41744060153194"><ele>4.0</ele><time>2026-05-01T14:44:46.998Z</time></trkpt><trkpt lat="43.717675867676036" lon="10.41731590863827"><ele>4.0</ele><time>2026-05-01T14:44:47.998Z</time></trkpt><trkpt lat="43.717605737169755" lon="10.417196883557265"><ele>3.8000000000000003</ele><time>2026-05-01T14:44:48.998Z</time></trkpt><trkpt lat="43.717538003560314" lon="10.417077392453539"><ele>3.6000000000000005</ele><time>2026-05-01T14:44:49.998Z</time></trkpt><trkpt lat="43.717463106351516" lon="10.416961615704594"><ele>3.4</ele><time>2026-05-01T14:44:50.999Z</time></trkpt><trkpt lat="43.71738444221991" lon="10.416852107061379"><ele>3.2</ele><time>2026-05-01T14:44:51.999Z</time></trkpt><trkpt lat="43.71730759457914" lon="10.41673326113629"><ele>3.0</ele><time>2026-05-01T14:44:52.999Z</time></trkpt><trkpt lat="43.71723335779241" lon="10.416618109474435"><ele>3.0</ele><time>2026-05-01T14:44:53.999Z</time></trkpt><trkpt lat="43.71716930463487" lon="10.416506586481091"><ele>3.0</ele><time>2026-05-01T14:44:54.999Z</time></trkpt><trkpt lat="43.717100353330956" lon="10.416391517630382"><ele>3.0</ele><time>2026-05-01T14:44:55.999Z</time></trkpt><trkpt lat="43.71702353393203" lon="10.416269521584749"><ele>3.0</ele><time>2026-05-01T14:44:56.999Z</time></trkpt><trkpt lat="43.716949946299614" lon="10.416162214890797"><ele>3.0</ele><time>2026-05-01T14:44:57.999Z</time></trkpt><trkpt lat="43.71686604405169" lon="10.416046054369275"><ele>3.0</ele><time>2026-05-01T14:44:58.999Z</time></trkpt><trkpt lat="43.716782593789105" lon="10.415920945607812"><ele>3.0</ele><time>2026-05-01T14:44:59.999Z</time></trkpt><trkpt lat="43.71669455936785" lon="10.415790804018352"><ele>3.0</ele><time>2026-05-01T14:45:00.999Z</time></trkpt><trkpt lat="43.71660894690673" lon="10.415667109988162"><ele>3.0</ele><time>2026-05-01T14:45:01.999Z</time></trkpt><trkpt lat="43.71653772004581" lon="10.415556584976065"><ele>2.8</ele><time>2026-05-01T14:45:02.999Z</time></trkpt><trkpt lat="43.716469120693226" lon="10.415456793087973"><ele>2.5999999999999996</ele><time>2026-05-01T14:45:03.999Z</time></trkpt><trkpt lat="43.716403571908046" lon="10.415343694440084"><ele>2.4000000000000004</ele><time>2026-05-01T14:45:04.999Z</time></trkpt><trkpt lat="43.71634087659747" lon="10.41525190034035"><ele>2.2</ele><time>2026-05-01T14:45:05.999Z</time></trkpt><trkpt lat="43.716272970003914" lon="10.415152464628939"><ele>2.0</ele><time>2026-05-01T14:45:06.999Z</time></trkpt><trkpt lat="43.716208436255364" lon="10.415049549088252"><ele>2.0</ele><time>2026-05-01T14:45:07.999Z</time></trkpt><trkpt lat="43.716157764912964" lon="10.4149594927981"><ele>2.0</ele><time>2026-05-01T14:45:08.999Z</time></trkpt><trkpt lat="43.71612145572392" lon="10.414866525489343"><ele>2.0</ele><time>2026-05-01T14:45:09.999Z</time></trkpt><trkpt lat="43.716086896870415" lon="10.414745460059242"><ele>2.0</ele><time>2026-05-01T14:45:10.999Z</time></trkpt><trkpt lat="43.71605610778122" lon="10.414609397043064"><ele>2.0</ele><time>2026-05-01T14:45:11.999Z</time></trkpt><trkpt lat="43.71602038235146" lon="10.41445959481495"><ele>2.5</ele><time>2026-05-01T14:45:12.999Z</time></trkpt><trkpt lat="43.71598732781598" lon="10.414294294301435"><ele>3.0</ele><time>2026-05-01T14:45:13.999Z</time></trkpt><trkpt lat="43.715950085987835" lon="10.414124299143962"><ele>3.5</ele><time>2026-05-01T14:45:14.999Z</time></trkpt><trkpt lat="43.71591403003547" lon="10.413966857241142"><ele>4.0</ele><time>2026-05-01T14:45:15.999Z</time></trkpt><trkpt lat="43.71587823045303" lon="10.41381009404232"><ele>4.0</ele><time>2026-05-01T14:45:16.999Z</time></trkpt><trkpt lat="43.71585469176731" lon="10.413667263848883"><ele>4.0</ele><time>2026-05-01T14:45:17.999Z</time></trkpt><trkpt lat="43.71582292113469" lon="10.413520528003637"><ele>4.0</ele><time>2026-05-01T14:45:18.999Z</time></trkpt><trkpt lat="43.71578933749301" lon="10.41337330244779"><ele>4.0</ele><time>2026-05-01T14:45:19.999Z</time></trkpt><trkpt lat="43.71574590730731" lon="10.413218170148122"><ele>4.0</ele><time>2026-05-01T14:45:20.999Z</time></trkpt><trkpt lat="43.71570691531741" lon="10.413062896763417"><ele>4.0</ele><time>2026-05-01T14:45:21.999Z</time></trkpt><trkpt lat="43.71566704440075" lon="10.412917670483088"><ele>4.0</ele><time>2026-05-01T14:45:22.999Z</time></trkpt><trkpt lat="43.71563165080717" lon="10.412791257564164"><ele>4.0</ele><time>2026-05-01T14:45:23.999Z</time></trkpt><trkpt lat="43.715600461413864" lon="10.412676417708587"><ele>4.0</ele><time>2026-05-01T14:45:24.999Z</time></trkpt><trkpt lat="43.71556842645341" lon="10.412561672614622"><ele>4.0</ele><time>2026-05-01T14:45:25.999Z</time></trkpt><trkpt lat="43.71553628532104" lon="10.412423640989457"><ele>4.0</ele><time>2026-05-01T14:45:26.999Z</time></trkpt><trkpt lat="43.71550712289982" lon="10.412276964451337"><ele>4.0</ele><time>2026-05-01T14:45:27.999Z</time></trkpt><trkpt lat="43.71547545241738" lon="10.41212366490871"><ele>4.0</ele><time>2026-05-01T14:45:28.999Z</time></trkpt><trkpt lat="43.715447503854705" lon="10.411976063278896"><ele>4.0</ele><time>2026-05-01T14:45:29.999Z</time></trkpt><trkpt lat="43.71542229341306" lon="10.411840601878998"><ele>4.0</ele><time>2026-05-01T14:45:30.999Z</time></trkpt><trkpt lat="43.715397626868864" lon="10.411701428566943"><ele>4.0</ele><time>2026-05-01T14:45:31.999Z</time></trkpt><trkpt lat="43.715355564273665" lon="10.411572305255827"><ele>4.0</ele><time>2026-05-01T14:45:32.999Z</time></trkpt><trkpt lat="43.71532852306517" lon="10.411433029699095"><ele>4.0</ele><time>2026-05-01T14:45:33.999Z</time></trkpt><trkpt lat="43.715290406487625" lon="10.411268827132027"><ele>4.0</ele><time>2026-05-01T14:45:34.999Z</time></trkpt><trkpt lat="43.71525403563637" lon="10.411111750921666"><ele>4.6</ele><time>2026-05-01T14:45:35.999Z</time></trkpt><trkpt lat="43.71522109419421" lon="10.41096941078009"><ele>5.2</ele><time>2026-05-01T14:45:36.999Z</time></trkpt><trkpt lat="43.715188490318305" lon="10.410830200793177"><ele>5.799999999999999</ele><time>2026-05-01T14:45:37.999Z</time></trkpt><trkpt lat="43.71515581471952" lon="10.410685768570087"><ele>6.3999999999999995</ele><time>2026-05-01T14:45:38.999Z</time></trkpt><trkpt lat="43.71512569458488" lon="10.410552754899888"><ele>7.0</ele><time>2026-05-01T14:45:39.999Z</time></trkpt><trkpt lat="43.71509650026915" lon="10.410422627705637"><ele>7.199999999999999</ele><time>2026-05-01T14:45:40.999Z</time></trkpt><trkpt lat="43.7150651612307" lon="10.410297138338384"><ele>7.3999999999999995</ele><time>2026-05-01T14:45:41.999Z</time></trkpt><trkpt lat="43.71503488971967" lon="10.410170348866414"><ele>7.6000000000000005</ele><time>2026-05-01T14:45:42.999Z</time></trkpt><trkpt lat="43.71499571808557" lon="10.41006195289749"><ele>7.800000000000001</ele><time>2026-05-01T14:45:43.999Z</time></trkpt><trkpt lat="43.7149729882513" lon="10.409936987567995"><ele>8.0</ele><time>2026-05-01T14:45:44.999Z</time></trkpt><trkpt lat="43.714950698142054" lon="10.409829485903954"><ele>7.999999999999999</ele><time>2026-05-01T14:45:45.999Z</time></trkpt><trkpt lat="43.7149286675852" lon="10.409727389012192"><ele>8.0</ele><time>2026-05-01T14:45:46.999Z</time></trkpt><trkpt lat="43.71490568333794" lon="10.409629336634369"><ele>8.0</ele><time>2026-05-01T14:45:47.999Z</time></trkpt><trkpt lat="43.71488378741725" lon="10.409540090485965"><ele>8.0</ele><time>2026-05-01T14:45:48.999Z</time></trkpt><trkpt lat="43.71484642665361" lon="10.409381178561407"><ele>7.999999999999999</ele><time>2026-05-01T14:45:50.999Z</time></trkpt><trkpt lat="43.714823516955086" lon="10.409255758406864"><ele>8.0</ele><time>2026-05-01T14:45:52.999Z</time></trkpt><trkpt lat="43.714793658291846" lon="10.409153902125665"><ele>7.999999999999999</ele><time>2026-05-01T14:45:54.999Z</time></trkpt><trkpt lat="43.71477874916073" lon="10.40903769983561"><ele>8.0</ele><time>2026-05-01T14:46:00.999Z</time></trkpt><trkpt lat="43.71476920726737" lon="10.408917864692507"><ele>8.0</ele><time>2026-05-01T14:46:02.999Z</time></trkpt><trkpt lat="43.714698800425296" lon="10.408884215721752"><ele>8.0</ele><time>2026-05-01T14:46:03.999Z</time></trkpt><trkpt lat="43.71462053742641" lon="10.408876975655012"><ele>7.999999999999999</ele><time>2026-05-01T14:46:04.999Z</time></trkpt><trkpt lat="43.71454393070906" lon="10.408847529535766"><ele>8.0</ele><time>2026-05-01T14:46:05.999Z</time></trkpt><trkpt lat="43.71446630871878" lon="10.4088158680728"><ele>8.166666666666666</ele><time>2026-05-01T14:46:06.999Z</time></trkpt><trkpt lat="43.7143888044222" lon="10.408765223551177"><ele>8.333333333333332</ele><time>2026-05-01T14:46:07.999Z</time></trkpt><trkpt lat="43.714311832020144" lon="10.40872960557215"><ele>8.5</ele><time>2026-05-01T14:46:08.999Z</time></trkpt><trkpt lat="43.71425106961226" lon="10.408698932710097"><ele>8.666666666666666</ele><time>2026-05-01T14:46:09.999Z</time></trkpt><trkpt lat="43.71414296292726" lon="10.408644360233252"><ele>8.833333333333334</ele><time>2026-05-01T14:46:11.999Z</time></trkpt><trkpt lat="43.7140568126943" lon="10.408580812920322"><ele>9.0</ele><time>2026-05-01T14:46:13.999Z</time></trkpt><trkpt lat="43.71399607177296" lon="10.408530644570284"><ele>9.0</ele><time>2026-05-01T14:46:15.999Z</time></trkpt><trkpt lat="43.71393278571333" lon="10.408482106291931"><ele>9.0</ele><time>2026-05-01T14:46:17.999Z</time></trkpt><trkpt lat="43.713854540920515" lon="10.40860948746497"><ele>9.0</ele><time>2026-05-01T14:46:19.999Z</time></trkpt><trkpt lat="43.7138336029477" lon="10.408699978967853"><ele>9.0</ele><time>2026-05-01T14:46:20.999Z</time></trkpt><trkpt lat="43.71378813498042" lon="10.408773938017175"><ele>9.0</ele><time>2026-05-01T14:46:21.999Z</time></trkpt><trkpt lat="43.71372491280532" lon="10.408855977255351"><ele>9.0</ele><time>2026-05-01T14:46:22.999Z</time></trkpt><trkpt lat="43.71365962461921" lon="10.4089478086257"><ele>8.8</ele><time>2026-05-01T14:46:23.999Z</time></trkpt><trkpt lat="43.71358931155809" lon="10.409028651288814"><ele>8.600000000000001</ele><time>2026-05-01T14:46:24.999Z</time></trkpt><trkpt lat="43.71350670798507" lon="10.409113118288364"><ele>8.4</ele><time>2026-05-01T14:46:25.999Z</time></trkpt><trkpt lat="43.713418883128114" lon="10.409195665852884"><ele>8.200000000000001</ele><time>2026-05-01T14:46:26.999Z</time></trkpt><trkpt lat="43.7133287919225" lon="10.40926305771519"><ele>8.0</ele><time>2026-05-01T14:46:27.999Z</time></trkpt><trkpt lat="43.713241568823825" lon="10.409319001626924"><ele>7.4</ele><time>2026-05-01T14:46:28.999Z</time></trkpt><trkpt lat="43.71314337720325" lon="10.409370130447195"><ele>6.800000000000001</ele><time>2026-05-01T14:46:29.999Z</time></trkpt><trkpt lat="43.71304155465793" lon="10.409417354228328"><ele>6.2</ele><time>2026-05-01T14:46:30.999Z</time></trkpt><trkpt lat="43.71293804297121" lon="10.409455612045518"><ele>5.6</ele><time>2026-05-01T14:46:31.999Z</time></trkpt><trkpt lat="43.71282732295873" lon="10.409475179406494"><ele>5.0</ele><time>2026-05-01T14:46:32.999Z</time></trkpt><trkpt lat="43.71271042790634" lon="10.409485850776372"><ele>5.0</ele><time>2026-05-01T14:46:33.999Z</time></trkpt><trkpt lat="43.71258764914055" lon="10.409486537509778"><ele>5.0</ele><time>2026-05-01T14:46:34.999Z</time></trkpt><trkpt lat="43.71246177989157" lon="10.409487363565699"><ele>5.0</ele><time>2026-05-01T14:46:35.999Z</time></trkpt><trkpt lat="43.712331580710384" lon="10.409487990169557"><ele>5.0</ele><time>2026-05-01T14:46:36.999Z</time></trkpt><trkpt lat="43.712209574433864" lon="10.409488270411476"><ele>5.0</ele><time>2026-05-01T14:46:37.999Z</time></trkpt><trkpt lat="43.71209214103972" lon="10.40949010816667"><ele>5.0</ele><time>2026-05-01T14:46:38.999Z</time></trkpt><trkpt lat="43.71197563836223" lon="10.409489307563293"><ele>5.0</ele><time>2026-05-01T14:46:39.999Z</time></trkpt><trkpt lat="43.71186400811719" lon="10.409492819982665"><ele>5.0</ele><time>2026-05-01T14:46:40.999Z</time></trkpt><trkpt lat="43.711754508726976" lon="10.409485306161775"><ele>5.25</ele><time>2026-05-01T14:46:41.999Z</time></trkpt><trkpt lat="43.711644047383295" lon="10.409485836237817"><ele>5.5</ele><time>2026-05-01T14:46:42.999Z</time></trkpt><trkpt lat="43.71153081369789" lon="10.409485051015828"><ele>5.75</ele><time>2026-05-01T14:46:43.999Z</time></trkpt><trkpt lat="43.71141307249618" lon="10.409487960257804"><ele>6.0</ele><time>2026-05-01T14:46:44.999Z</time></trkpt><trkpt lat="43.711301688232176" lon="10.409480978621266"><ele>6.0</ele><time>2026-05-01T14:46:45.999Z</time></trkpt><trkpt lat="43.71119408684405" lon="10.409474731730361"><ele>6.0</ele><time>2026-05-01T14:46:46.999Z</time></trkpt><trkpt lat="43.711093667419505" lon="10.409473939063771"><ele>6.0</ele><time>2026-05-01T14:46:47.999Z</time></trkpt><trkpt lat="43.71098110589033" lon="10.409467731251116"><ele>6.0</ele><time>2026-05-01T14:46:48.999Z</time></trkpt><trkpt lat="43.71086791618308" lon="10.409463179895948"><ele>6.0</ele><time>2026-05-01T14:46:49.999Z</time></trkpt><trkpt lat="43.71075558148157" lon="10.409455172960092"><ele>5.8</ele><time>2026-05-01T14:46:50.999Z</time></trkpt><trkpt lat="43.710643090232544" lon="10.409446539082376"><ele>5.6</ele><time>2026-05-01T14:46:51.999Z</time></trkpt><trkpt lat="43.71053792010402" lon="10.409437884679276"><ele>5.4</ele><time>2026-05-01T14:46:52.999Z</time></trkpt><trkpt lat="43.71044188098658" lon="10.409428052187309"><ele>5.2</ele><time>2026-05-01T14:46:53.999Z</time></trkpt><trkpt lat="43.71035562369824" lon="10.409420321543701"><ele>5.0</ele><time>2026-05-01T14:46:54.999Z</time></trkpt><trkpt lat="43.71027829171219" lon="10.409412644641497"><ele>4.8</ele><time>2026-05-01T14:46:55.999Z</time></trkpt><trkpt lat="43.71021283590444" lon="10.409403479613214"><ele>4.6</ele><time>2026-05-01T14:46:56.999Z</time></trkpt><trkpt lat="43.710107120806065" lon="10.409363914660691"><ele>4.4</ele><time>2026-05-01T14:46:58.999Z</time></trkpt><trkpt lat="43.71004289997619" lon="10.40929674676591"><ele>4.2</ele><time>2026-05-01T14:47:00.999Z</time></trkpt><trkpt lat="43.71002536176011" lon="10.40911644054538"><ele>4.0</ele><time>2026-05-01T14:47:02.999Z</time></trkpt><trkpt lat="43.71003395657114" lon="10.409012078503935"><ele>4.0</ele><time>2026-05-01T14:47:03.999Z</time></trkpt><trkpt lat="43.71003929578632" lon="10.408894743856479"><ele>4.0</ele><time>2026-05-01T14:47:04.999Z</time></trkpt><trkpt lat="43.71004510563418" lon="10.408765717416895"><ele>4.0</ele><time>2026-05-01T14:47:05.999Z</time></trkpt><trkpt lat="43.71004664001975" lon="10.408631734891381"><ele>4.0</ele><time>2026-05-01T14:47:06.999Z</time></trkpt><trkpt lat="43.71005099106334" lon="10.40848675313419"><ele>4.0</ele><time>2026-05-01T14:47:07.999Z</time></trkpt><trkpt lat="43.71005642941011" lon="10.408338838087063"><ele>3.4999999999999996</ele><time>2026-05-01T14:47:08.999Z</time></trkpt><trkpt lat="43.710067028514565" lon="10.408207857345406"><ele>3.0</ele><time>2026-05-01T14:47:09.999Z</time></trkpt><trkpt lat="43.7100727498236" lon="10.408081397211717"><ele>2.5</ele><time>2026-05-01T14:47:10.999Z</time></trkpt><trkpt lat="43.71008094992099" lon="10.407972440942112"><ele>2.0</ele><time>2026-05-01T14:47:11.999Z</time></trkpt><trkpt lat="43.71009733740651" lon="10.407850215340964"><ele>1.5</ele><time>2026-05-01T14:47:13.999Z</time></trkpt><trkpt lat="43.71013366755612" lon="10.407741960755468"><ele>1.0</ele><time>2026-05-01T14:47:18.999Z</time></trkpt><trkpt lat="43.710207280797924" lon="10.407619794488328"><ele>2.6</ele><time>2026-05-01T14:47:20.999Z</time></trkpt><trkpt lat="43.71018192121763" lon="10.407523577894885"><ele>4.2</ele><time>2026-05-01T14:47:21.999Z</time></trkpt><trkpt lat="43.71012565202479" lon="10.407419433595974"><ele>5.800000000000001</ele><time>2026-05-01T14:47:23.999Z</time></trkpt><trkpt lat="43.71010777091" lon="10.40722982397915"><ele>7.4</ele><time>2026-05-01T14:47:25.999Z</time></trkpt><trkpt lat="43.71011147770521" lon="10.407124737362862"><ele>9.0</ele><time>2026-05-01T14:47:26.999Z</time></trkpt><trkpt lat="43.71010684026645" lon="10.407026421823872"><ele>9.0</ele><time>2026-05-01T14:47:27.999Z</time></trkpt><trkpt lat="43.710130983801484" lon="10.40693929962185"><ele>9.0</ele><time>2026-05-01T14:47:28.999Z</time></trkpt><trkpt lat="43.710124112641964" lon="10.406826938863187"><ele>9.0</ele><time>2026-05-01T14:47:29.999Z</time></trkpt><trkpt lat="43.71012880850063" lon="10.406702389805815"><ele>9.0</ele><time>2026-05-01T14:47:30.999Z</time></trkpt><trkpt lat="43.710134653593414" lon="10.40657379258416"><ele>9.0</ele><time>2026-05-01T14:47:31.999Z</time></trkpt><trkpt lat="43.710142404805374" lon="10.406447914150228"><ele>9.0</ele><time>2026-05-01T14:47:32.999Z</time></trkpt><trkpt lat="43.71014913324012" lon="10.406335170043633"><ele>8.666666666666666</ele><time>2026-05-01T14:47:33.999Z</time></trkpt><trkpt lat="43.7101547773533" lon="10.406207922392234"><ele>8.333333333333334</ele><time>2026-05-01T14:47:34.999Z</time></trkpt><trkpt lat="43.71016127021392" lon="10.406089337345927"><ele>8.0</ele><time>2026-05-01T14:47:35.999Z</time></trkpt><trkpt lat="43.71016669789065" lon="10.405987157109754"><ele>7.666666666666667</ele><time>2026-05-01T14:47:36.999Z</time></trkpt><trkpt lat="43.710173745671305" lon="10.405894434863017"><ele>7.333333333333334</ele><time>2026-05-01T14:47:37.999Z</time></trkpt><trkpt lat="43.7101843211944" lon="10.405808259449007"><ele>7.0</ele><time>2026-05-01T14:47:38.999Z</time></trkpt><trkpt lat="43.71024367395545" lon="10.405665021109376"><ele>7.000000000000001</ele><time>2026-05-01T14:47:40.999Z</time></trkpt><trkpt lat="43.71028247474496" lon="10.405584268585"><ele>7.0</ele><time>2026-05-01T14:47:41.999Z</time></trkpt><trkpt lat="43.71036382428122" lon="10.405540267217898"><ele>7.0</ele><time>2026-05-01T14:47:42.999Z</time></trkpt><trkpt lat="43.7104247462667" lon="10.405483353537228"><ele>7.0</ele><time>2026-05-01T14:47:43.999Z</time></trkpt><trkpt lat="43.71046790615932" lon="10.40533566399049"><ele>7.000000000000001</ele><time>2026-05-01T14:47:45.999Z</time></trkpt><trkpt lat="43.710462118616775" lon="10.40524154729791"><ele>7.0</ele><time>2026-05-01T14:47:46.999Z</time></trkpt><trkpt lat="43.71027710367061" lon="10.405206197830406"><ele>6.714285714285714</ele><time>2026-05-01T14:47:48.999Z</time></trkpt><trkpt lat="43.710205433779336" lon="10.405237648132026"><ele>6.428571428571429</ele><time>2026-05-01T14:47:49.999Z</time></trkpt><trkpt lat="43.7101341808007" lon="10.405247819619946"><ele>6.142857142857142</ele><time>2026-05-01T14:47:50.999Z</time></trkpt><trkpt lat="43.710062237799626" lon="10.405225506206502"><ele>5.857142857142858</ele><time>2026-05-01T14:47:51.999Z</time></trkpt><trkpt lat="43.70999396191907" lon="10.405174236741606"><ele>5.571428571428571</ele><time>2026-05-01T14:47:52.999Z</time></trkpt><trkpt lat="43.70993423793235" lon="10.405142336267206"><ele>5.285714285714286</ele><time>2026-05-01T14:47:53.999Z</time></trkpt><trkpt lat="43.70986866707503" lon="10.405097231607048"><ele>5.0</ele><time>2026-05-01T14:47:54.999Z</time></trkpt><trkpt lat="43.70979910726534" lon="10.405050020097764"><ele>5.0</ele><time>2026-05-01T14:47:55.999Z</time></trkpt><trkpt lat="43.70970790986183" lon="10.404949958664941"><ele>5.0</ele><time>2026-05-01T14:47:57.999Z</time></trkpt><trkpt lat="43.7097098405528" lon="10.404765029433594"><ele>5.0</ele><time>2026-05-01T14:47:59.999Z</time></trkpt><trkpt lat="43.70973195294521" lon="10.404653575546234"><ele>5.0</ele><time>2026-05-01T14:48:00.999Z</time></trkpt><trkpt lat="43.709751211202374" lon="10.404527285117931"><ele>5.0</ele><time>2026-05-01T14:48:01.999Z</time></trkpt><trkpt lat="43.70977101712841" lon="10.404389062952154"><ele>5.0</ele><time>2026-05-01T14:48:02.999Z</time></trkpt><trkpt lat="43.70979180563976" lon="10.404238430298989"><ele>5.0</ele><time>2026-05-01T14:48:03.999Z</time></trkpt><trkpt lat="43.709808177322564" lon="10.404071061094964"><ele>5.0</ele><time>2026-05-01T14:48:04.999Z</time></trkpt><trkpt lat="43.70981972326871" lon="10.403910357496411"><ele>5.0</ele><time>2026-05-01T14:48:05.999Z</time></trkpt><trkpt lat="43.70984228608463" lon="10.403742194675976"><ele>5.0</ele><time>2026-05-01T14:48:06.999Z</time></trkpt><trkpt lat="43.70986837420086" lon="10.403575167728748"><ele>5.0</ele><time>2026-05-01T14:48:07.999Z</time></trkpt><trkpt lat="43.70988823482223" lon="10.40342815088498"><ele>5.0</ele><time>2026-05-01T14:48:08.999Z</time></trkpt><trkpt lat="43.70990725662468" lon="10.40328895820349"><ele>5.0</ele><time>2026-05-01T14:48:09.999Z</time></trkpt><trkpt lat="43.709921866180906" lon="10.403152296855039"><ele>5.0</ele><time>2026-05-01T14:48:10.999Z</time></trkpt><trkpt lat="43.7099306122648" lon="10.403018422082212"><ele>5.8</ele><time>2026-05-01T14:48:11.999Z</time></trkpt><trkpt lat="43.70994831700613" lon="10.402886983693275"><ele>6.6</ele><time>2026-05-01T14:48:12.999Z</time></trkpt><trkpt lat="43.70996944949865" lon="10.402748396329105"><ele>7.4</ele><time>2026-05-01T14:48:13.999Z</time></trkpt><trkpt lat="43.70998487789573" lon="10.402607131164665"><ele>8.2</ele><time>2026-05-01T14:48:14.999Z</time></trkpt><trkpt lat="43.70999657795626" lon="10.402464088384574"><ele>9.0</ele><time>2026-05-01T14:48:15.999Z</time></trkpt><trkpt lat="43.7100061589909" lon="10.402309814817103"><ele>8.75</ele><time>2026-05-01T14:48:16.999Z</time></trkpt><trkpt lat="43.70999461466082" lon="10.402148136522907"><ele>8.5</ele><time>2026-05-01T14:48:17.999Z</time></trkpt><trkpt lat="43.709996691069925" lon="10.40198340977957"><ele>8.25</ele><time>2026-05-01T14:48:18.999Z</time></trkpt><trkpt lat="43.70999117549879" lon="10.401808507303125"><ele>8.0</ele><time>2026-05-01T14:48:19.999Z</time></trkpt><trkpt lat="43.70998949725726" lon="10.401633944619192"><ele>8.0</ele><time>2026-05-01T14:48:20.999Z</time></trkpt><trkpt lat="43.709990341255676" lon="10.401475300133013"><ele>8.0</ele><time>2026-05-01T14:48:21.999Z</time></trkpt><trkpt lat="43.70998748744433" lon="10.401314324424765"><ele>8.0</ele><time>2026-05-01T14:48:22.999Z</time></trkpt><trkpt lat="43.70998348688343" lon="10.401171825748191"><ele>8.0</ele><time>2026-05-01T14:48:23.999Z</time></trkpt><trkpt lat="43.709980310496725" lon="10.401029290416119"><ele>8.0</ele><time>2026-05-01T14:48:24.999Z</time></trkpt><trkpt lat="43.709977609001236" lon="10.400878967230636"><ele>7.833333333333333</ele><time>2026-05-01T14:48:25.999Z</time></trkpt><trkpt lat="43.70997370163634" lon="10.40074382426751"><ele>7.666666666666666</ele><time>2026-05-01T14:48:26.999Z</time></trkpt><trkpt lat="43.70997376359838" lon="10.400615257592994"><ele>7.5</ele><time>2026-05-01T14:48:27.999Z</time></trkpt><trkpt lat="43.709973733070115" lon="10.40049680736166"><ele>7.333333333333334</ele><time>2026-05-01T14:48:28.999Z</time></trkpt><trkpt lat="43.70996786402801" lon="10.400376146303117"><ele>7.166666666666667</ele><time>2026-05-01T14:48:29.999Z</time></trkpt><trkpt lat="43.7099725261415" lon="10.40026151546804"><ele>7.0</ele><time>2026-05-01T14:48:30.999Z</time></trkpt><trkpt lat="43.70996869546374" lon="10.400154991144937"><ele>7.333333333333334</ele><time>2026-05-01T14:48:31.999Z</time></trkpt><trkpt lat="43.7099624535122" lon="10.400049646186993"><ele>7.666666666666667</ele><time>2026-05-01T14:48:32.999Z</time></trkpt><trkpt lat="43.70995731470089" lon="10.399932273650476"><ele>8.0</ele><time>2026-05-01T14:48:33.999Z</time></trkpt><trkpt lat="43.709958413190435" lon="10.399810741926293"><ele>8.333333333333334</ele><time>2026-05-01T14:48:34.999Z</time></trkpt><trkpt lat="43.70996116206423" lon="10.399678879169949"><ele>8.666666666666666</ele><time>2026-05-01T14:48:35.999Z</time></trkpt><trkpt lat="43.70996037995125" lon="10.39954572553507"><ele>9.0</ele><time>2026-05-01T14:48:36.999Z</time></trkpt><trkpt lat="43.70995989203107" lon="10.399423888739639"><ele>9.0</ele><time>2026-05-01T14:48:37.999Z</time></trkpt><trkpt lat="43.70996267059066" lon="10.399311626442673"><ele>9.0</ele><time>2026-05-01T14:48:38.999Z</time></trkpt><trkpt lat="43.70996017001912" lon="10.399205370879386"><ele>9.0</ele><time>2026-05-01T14:48:39.999Z</time></trkpt><trkpt lat="43.70996634201788" lon="10.399087402679648"><ele>9.0</ele><time>2026-05-01T14:48:40.999Z</time></trkpt><trkpt lat="43.70997623112028" lon="10.398965505990114"><ele>9.0</ele><time>2026-05-01T14:48:41.999Z</time></trkpt><trkpt lat="43.709982833541936" lon="10.398845157330248"><ele>9.0</ele><time>2026-05-01T14:48:42.999Z</time></trkpt><trkpt lat="43.709987763856" lon="10.398735155158363"><ele>9.000000000000002</ele><time>2026-05-01T14:48:43.999Z</time></trkpt><trkpt lat="43.709992697141345" lon="10.398626707858464"><ele>9.0</ele><time>2026-05-01T14:48:44.999Z</time></trkpt><trkpt lat="43.71000498889025" lon="10.398516617809927"><ele>9.0</ele><time>2026-05-01T14:48:45.999Z</time></trkpt><trkpt lat="43.71002517979285" lon="10.398419153981164"><ele>9.0</ele><time>2026-05-01T14:48:46.999Z</time></trkpt><trkpt lat="43.71003895167954" lon="10.398328881287682"><ele>9.0</ele><time>2026-05-01T14:48:47.999Z</time></trkpt><trkpt lat="43.710054607621224" lon="10.39823400812593"><ele>9.000000000000002</ele><time>2026-05-01T14:48:48.999Z</time></trkpt><trkpt lat="43.71007813158588" lon="10.398134401368607"><ele>9.0</ele><time>2026-05-01T14:48:49.999Z</time></trkpt><trkpt lat="43.71010841174082" lon="10.398052614146033"><ele>8.8</ele><time>2026-05-01T14:48:50.999Z</time></trkpt><trkpt lat="43.71018389600401" lon="10.397918851346265"><ele>8.600000000000001</ele><time>2026-05-01T14:48:52.999Z</time></trkpt><trkpt lat="43.710252505105686" lon="10.39780264189313"><ele>8.4</ele><time>2026-05-01T14:48:54.999Z</time></trkpt><trkpt lat="43.71024444813626" lon="10.397664654373205"><ele>8.200000000000001</ele><time>2026-05-01T14:48:56.999Z</time></trkpt><trkpt lat="43.71020213865868" lon="10.397593752938981"><ele>8.0</ele><time>2026-05-01T14:48:57.999Z</time></trkpt><trkpt lat="43.71016374437834" lon="10.397432129043516"><ele>7.999999999999999</ele><time>2026-05-01T14:48:59.999Z</time></trkpt><trkpt lat="43.71017274585112" lon="10.397340059733029"><ele>8.0</ele><time>2026-05-01T14:49:00.999Z</time></trkpt><trkpt lat="43.710188847402385" lon="10.39723985094723"><ele>8.0</ele><time>2026-05-01T14:49:01.999Z</time></trkpt><trkpt lat="43.71020361694317" lon="10.397132679007306"><ele>8.0</ele><time>2026-05-01T14:49:02.999Z</time></trkpt><trkpt lat="43.71022025631463" lon="10.397016090791517"><ele>7.999999999999999</ele><time>2026-05-01T14:49:03.999Z</time></trkpt><trkpt lat="43.71025359019335" lon="10.396902422565834"><ele>8.0</ele><time>2026-05-01T14:49:04.999Z</time></trkpt><trkpt lat="43.710263439753824" lon="10.396778995393205"><ele>7.2</ele><time>2026-05-01T14:49:05.999Z</time></trkpt><trkpt lat="43.71027889958791" lon="10.396663845756548"><ele>6.4</ele><time>2026-05-01T14:49:06.999Z</time></trkpt><trkpt lat="43.710290663979315" lon="10.396571459406207"><ele>5.6000000000000005</ele><time>2026-05-01T14:49:07.999Z</time></trkpt><trkpt lat="43.71032401933496" lon="10.396418136011224"><ele>4.800000000000001</ele><time>2026-05-01T14:49:10Z</time></trkpt><trkpt lat="43.710343815295275" lon="10.396265839270969"><ele>4.0</ele><time>2026-05-01T14:49:12Z</time></trkpt><trkpt lat="43.71036473229962" lon="10.396121465269918"><ele>3.8000000000000003</ele><time>2026-05-01T14:49:14Z</time></trkpt><trkpt lat="43.710392120407114" lon="10.39597755566172"><ele>3.6000000000000005</ele><time>2026-05-01T14:49:16Z</time></trkpt><trkpt lat="43.71043485219821" lon="10.395842618962236"><ele>3.4</ele><time>2026-05-01T14:49:18Z</time></trkpt><trkpt lat="43.71044852702722" lon="10.395696795740715"><ele>3.2</ele><time>2026-05-01T14:49:20Z</time></trkpt><trkpt lat="43.710443763023505" lon="10.395609260059738"><ele>3.0</ele><time>2026-05-01T14:49:21Z</time></trkpt><trkpt lat="43.710443790111455" lon="10.395510535139172"><ele>3.1428571428571423</ele><time>2026-05-01T14:49:22Z</time></trkpt><trkpt lat="43.71045501806291" lon="10.395423775848037"><ele>3.2857142857142856</ele><time>2026-05-01T14:49:23Z</time></trkpt><trkpt lat="43.71047103926378" lon="10.395323136051424"><ele>3.4285714285714284</ele><time>2026-05-01T14:49:24Z</time></trkpt><trkpt lat="43.71048536490844" lon="10.395237160642848"><ele>3.571428571428571</ele><time>2026-05-01T14:49:25Z</time></trkpt><trkpt lat="43.71049958700801" lon="10.395150009103132"><ele>3.714285714285714</ele><time>2026-05-01T14:49:26Z</time></trkpt><trkpt lat="43.7105197432732" lon="10.395046307203545"><ele>3.8571428571428568</ele><time>2026-05-01T14:49:27Z</time></trkpt><trkpt lat="43.71053303592093" lon="10.394944202710215"><ele>4.0</ele><time>2026-05-01T14:49:28Z</time></trkpt><trkpt lat="43.710550260355376" lon="10.394847583161157"><ele>3.9999999999999996</ele><time>2026-05-01T14:49:29Z</time></trkpt><trkpt lat="43.71056656684301" lon="10.39475136875393"><ele>4.0</ele><time>2026-05-01T14:49:30Z</time></trkpt><trkpt lat="43.71058450826268" lon="10.394590662061523"><ele>4.0</ele><time>2026-05-01T14:49:32Z</time></trkpt><trkpt lat="43.71059205738586" lon="10.39449456636933"><ele>4.0</ele><time>2026-05-01T14:49:33Z</time></trkpt><trkpt lat="43.71059693995456" lon="10.394404170341847"><ele>3.9999999999999996</ele><time>2026-05-01T14:49:34Z</time></trkpt><trkpt lat="43.710600493484996" lon="10.394236557545703"><ele>4.0</ele><time>2026-05-01T14:49:36Z</time></trkpt><trkpt lat="43.71060070299813" lon="10.3941333916102"><ele>4.333333333333333</ele><time>2026-05-01T14:49:37Z</time></trkpt><trkpt lat="43.71060072775341" lon="10.394012064307704"><ele>4.666666666666666</ele><time>2026-05-01T14:49:38Z</time></trkpt><trkpt lat="43.71060275963115" lon="10.393881309873002"><ele>5.0</ele><time>2026-05-01T14:49:39Z</time></trkpt><trkpt lat="43.71060364947585" lon="10.393768172333878"><ele>5.333333333333333</ele><time>2026-05-01T14:49:40Z</time></trkpt><trkpt lat="43.71060405215593" lon="10.393647250468886"><ele>5.666666666666667</ele><time>2026-05-01T14:49:41Z</time></trkpt><trkpt lat="43.71060388601179" lon="10.393514878163316"><ele>6.0</ele><time>2026-05-01T14:49:42Z</time></trkpt><trkpt lat="43.71060665058041" lon="10.393385223996242"><ele>6.166666666666667</ele><time>2026-05-01T14:49:43Z</time></trkpt><trkpt lat="43.7106070362253" lon="10.393269832636467"><ele>6.333333333333334</ele><time>2026-05-01T14:49:44Z</time></trkpt><trkpt lat="43.710605293673176" lon="10.393150390354888"><ele>6.5</ele><time>2026-05-01T14:49:45Z</time></trkpt><trkpt lat="43.71060552564817" lon="10.39304635878221"><ele>6.666666666666667</ele><time>2026-05-01T14:49:46Z</time></trkpt><trkpt lat="43.71060549992323" lon="10.39293212368079"><ele>6.833333333333334</ele><time>2026-05-01T14:49:47Z</time></trkpt><trkpt lat="43.71060676483113" lon="10.392809175415866"><ele>7.0</ele><time>2026-05-01T14:49:48Z</time></trkpt><trkpt lat="43.71060741070349" lon="10.392698166417798"><ele>7.000000000000001</ele><time>2026-05-01T14:49:49Z</time></trkpt><trkpt lat="43.71060875740553" lon="10.392596100198647"><ele>7.0</ele><time>2026-05-01T14:49:50Z</time></trkpt><trkpt lat="43.7106084628237" lon="10.392486740612652"><ele>7.0</ele><time>2026-05-01T14:49:51Z</time></trkpt><trkpt lat="43.71061063452711" lon="10.39239124453811"><ele>7.0</ele><time>2026-05-01T14:49:52Z</time></trkpt><trkpt lat="43.71061322550924" lon="10.392289958211439"><ele>7.000000000000001</ele><time>2026-05-01T14:49:53Z</time></trkpt><trkpt lat="43.710610848649864" lon="10.392118999915777"><ele>7.0</ele><time>2026-05-01T14:49:55Z</time></trkpt><trkpt lat="43.710617054215916" lon="10.39202577798843"><ele>7.166666666666667</ele><time>2026-05-01T14:49:56Z</time></trkpt><trkpt lat="43.71063088647439" lon="10.391927343430776"><ele>7.333333333333334</ele><time>2026-05-01T14:49:57Z</time></trkpt><trkpt lat="43.71066765177003" lon="10.391835722586102"><ele>7.5</ele><time>2026-05-01T14:49:58Z</time></trkpt><trkpt lat="43.71072135963654" lon="10.39176760632417"><ele>7.666666666666666</ele><time>2026-05-01T14:49:59Z</time></trkpt><trkpt lat="43.7108154186935" lon="10.391690485822785"><ele>7.833333333333333</ele><time>2026-05-01T14:50:01Z</time></trkpt><trkpt lat="43.710894193556406" lon="10.391657746490012"><ele>8.0</ele><time>2026-05-01T14:50:03Z</time></trkpt><trkpt lat="43.71095967115336" lon="10.391623609543942"><ele>8.0</ele><time>2026-05-01T14:50:05Z</time></trkpt><trkpt lat="43.71102702770485" lon="10.391598317152834"><ele>7.999999999999999</ele><time>2026-05-01T14:50:07Z</time></trkpt><trkpt lat="43.711097495361386" lon="10.391586354051983"><ele>8.0</ele><time>2026-05-01T14:50:09Z</time></trkpt><trkpt lat="43.711183864821614" lon="10.391568028093948"><ele>8.0</ele><time>2026-05-01T14:50:11Z</time></trkpt><trkpt lat="43.711249459543254" lon="10.39155755731216"><ele>7.999999999999999</ele><time>2026-05-01T14:50:12Z</time></trkpt><trkpt lat="43.71132062795314" lon="10.391547361229646"><ele>8.0</ele><time>2026-05-01T14:50:13Z</time></trkpt><trkpt lat="43.7113904807256" lon="10.391536323653714"><ele>8.0</ele><time>2026-05-01T14:50:14Z</time></trkpt><trkpt lat="43.71145397627535" lon="10.391542816943865"><ele>8.166666666666666</ele><time>2026-05-01T14:50:15Z</time></trkpt><trkpt lat="43.71157212210947" lon="10.391571820942437"><ele>8.333333333333332</ele><time>2026-05-01T14:50:17Z</time></trkpt><trkpt lat="43.71167173720959" lon="10.391524662125375"><ele>8.5</ele><time>2026-05-01T14:50:19Z</time></trkpt><trkpt lat="43.71168492456214" lon="10.39140173089066"><ele>8.666666666666666</ele><time>2026-05-01T14:50:21Z</time></trkpt><trkpt lat="43.711667449192035" lon="10.391315885910794"><ele>8.833333333333334</ele><time>2026-05-01T14:50:22Z</time></trkpt><trkpt lat="43.711649410429075" lon="10.39122446395821"><ele>9.0</ele><time>2026-05-01T14:50:23Z</time></trkpt><trkpt lat="43.71162774049709" lon="10.39112051760749"><ele>9.0</ele><time>2026-05-01T14:50:24Z</time></trkpt><trkpt lat="43.71160139209955" lon="10.391022240552784"><ele>9.0</ele><time>2026-05-01T14:50:25Z</time></trkpt><trkpt lat="43.71157760520836" lon="10.390933464135461"><ele>9.0</ele><time>2026-05-01T14:50:26Z</time></trkpt><trkpt lat="43.71154945678087" lon="10.39083492386339"><ele>9.0</ele><time>2026-05-01T14:50:27Z</time></trkpt><trkpt lat="43.7115118606994" lon="10.390725645159657"><ele>9.0</ele><time>2026-05-01T14:50:28Z</time></trkpt><trkpt lat="43.711465569359184" lon="10.390612824080568"><ele>9.0</ele><time>2026-05-01T14:50:29Z</time></trkpt><trkpt lat="43.71142639120615" lon="10.390509397235228"><ele>7.8</ele><time>2026-05-01T14:50:30Z</time></trkpt><trkpt lat="43.71138497601387" lon="10.390396640313737"><ele>6.6000000000000005</ele><time>2026-05-01T14:50:31Z</time></trkpt><trkpt lat="43.711339466489804" lon="10.390285558119102"><ele>5.4</ele><time>2026-05-01T14:50:32Z</time></trkpt><trkpt lat="43.711290625276554" lon="10.390162897859117"><ele>4.2</ele><time>2026-05-01T14:50:33Z</time></trkpt><trkpt lat="43.711239848041615" lon="10.39002473661579"><ele>3.0</ele><time>2026-05-01T14:50:34Z</time></trkpt><trkpt lat="43.71119112692633" lon="10.38987737838121"><ele>3.0</ele><time>2026-05-01T14:50:35Z</time></trkpt><trkpt lat="43.71113836879329" lon="10.38972182113617"><ele>3.0</ele><time>2026-05-01T14:50:36Z</time></trkpt><trkpt lat="43.71108563514334" lon="10.38955910282901"><ele>3.0</ele><time>2026-05-01T14:50:37Z</time></trkpt><trkpt lat="43.71103463125879" lon="10.38939469220115"><ele>3.0</ele><time>2026-05-01T14:50:38Z</time></trkpt><trkpt lat="43.71097786484366" lon="10.389228755251567"><ele>3.0</ele><time>2026-05-01T14:50:39Z</time></trkpt><trkpt lat="43.71092717294295" lon="10.389058111813613"><ele>3.0</ele><time>2026-05-01T14:50:40Z</time></trkpt><trkpt lat="43.71087061939864" lon="10.388882363795672"><ele>3.0</ele><time>2026-05-01T14:50:41Z</time></trkpt><trkpt lat="43.710815751645406" lon="10.388711972291043"><ele>3.0</ele><time>2026-05-01T14:50:42Z</time></trkpt><trkpt lat="43.7107685364923" lon="10.388551711999567"><ele>3.0</ele><time>2026-05-01T14:50:43Z</time></trkpt><trkpt lat="43.710719626787316" lon="10.38838116273191"><ele>3.0</ele><time>2026-05-01T14:50:44Z</time></trkpt><trkpt lat="43.71066670128961" lon="10.38821152375657"><ele>3.0</ele><time>2026-05-01T14:50:45Z</time></trkpt><trkpt lat="43.71061761011301" lon="10.388064466001671"><ele>3.0</ele><time>2026-05-01T14:50:46Z</time></trkpt><trkpt lat="43.71056433357736" lon="10.387919398319873"><ele>3.0</ele><time>2026-05-01T14:50:47Z</time></trkpt><trkpt lat="43.71050758195911" lon="10.387773204081242"><ele>3.0</ele><time>2026-05-01T14:50:48Z</time></trkpt><trkpt lat="43.7104446811585" lon="10.38761954627186"><ele>3.0</ele><time>2026-05-01T14:50:49Z</time></trkpt><trkpt lat="43.71038949742487" lon="10.387451578695364"><ele>3.0</ele><time>2026-05-01T14:50:50Z</time></trkpt><trkpt lat="43.71033722815861" lon="10.387277129327515"><ele>3.0</ele><time>2026-05-01T14:50:51Z</time></trkpt><trkpt lat="43.71027665637676" lon="10.387097823679715"><ele>3.0</ele><time>2026-05-01T14:50:52Z</time></trkpt><trkpt lat="43.710221068054" lon="10.386933121785235"><ele>3.0</ele><time>2026-05-01T14:50:53Z</time></trkpt><trkpt lat="43.71017279574552" lon="10.386782349475105"><ele>3.0</ele><time>2026-05-01T14:50:54Z</time></trkpt><trkpt lat="43.7101308876122" lon="10.38664887659437"><ele>3.2</ele><time>2026-05-01T14:50:55Z</time></trkpt><trkpt lat="43.71008492470872" lon="10.386520406346543"><ele>3.4</ele><time>2026-05-01T14:50:56Z</time></trkpt><trkpt lat="43.71004238181725" lon="10.386392813588742"><ele>3.6000000000000005</ele><time>2026-05-01T14:50:57Z</time></trkpt><trkpt lat="43.71000202117431" lon="10.386265079670897"><ele>3.8000000000000003</ele><time>2026-05-01T14:50:58Z</time></trkpt><trkpt lat="43.709969636413355" lon="10.386152246318833"><ele>4.0</ele><time>2026-05-01T14:50:59Z</time></trkpt><trkpt lat="43.70995281908592" lon="10.38605611721336"><ele>4.0</ele><time>2026-05-01T14:51:00Z</time></trkpt><trkpt lat="43.70995370130163" lon="10.385913295655719"><ele>4.0</ele><time>2026-05-01T14:51:02Z</time></trkpt><trkpt lat="43.70997005922298" lon="10.385727616797794"><ele>4.0</ele><time>2026-05-01T14:51:04Z</time></trkpt><trkpt lat="43.71000999622146" lon="10.38562757499935"><ele>4.0</ele><time>2026-05-01T14:51:05Z</time></trkpt><trkpt lat="43.71003426999712" lon="10.385502956256715"><ele>4.0</ele><time>2026-05-01T14:51:06Z</time></trkpt><trkpt lat="43.71005691116459" lon="10.385373707398825"><ele>4.0</ele><time>2026-05-01T14:51:07Z</time></trkpt><trkpt lat="43.7100700941634" lon="10.385242355045897"><ele>4.0</ele><time>2026-05-01T14:51:08Z</time></trkpt><trkpt lat="43.710075898284124" lon="10.385095852275935"><ele>4.0</ele><time>2026-05-01T14:51:09Z</time></trkpt><trkpt lat="43.710077826482966" lon="10.384942541662284"><ele>4.0</ele><time>2026-05-01T14:51:10Z</time></trkpt><trkpt lat="43.71007609323809" lon="10.384777901546508"><ele>4.0</ele><time>2026-05-01T14:51:11Z</time></trkpt><trkpt lat="43.7100759104307" lon="10.384602290598343"><ele>4.0</ele><time>2026-05-01T14:51:12Z</time></trkpt><trkpt lat="43.710085245018085" lon="10.384460564400985"><ele>4.0</ele><time>2026-05-01T14:51:13Z</time></trkpt><trkpt lat="43.710083398507265" lon="10.384337276700611"><ele>4.0</ele><time>2026-05-01T14:51:14Z</time></trkpt><trkpt lat="43.71012708693611" lon="10.384198019401568"><ele>4.0</ele><time>2026-05-01T14:51:16Z</time></trkpt><trkpt lat="43.710241828115336" lon="10.38418597567143"><ele>4.0</ele><time>2026-05-01T14:51:19Z</time></trkpt><trkpt lat="43.710303393948415" lon="10.384263173155526"><ele>3.9999999999999996</ele><time>2026-05-01T14:51:21Z</time></trkpt><trkpt lat="43.710329737058395" lon="10.384440887681858"><ele>4.0</ele><time>2026-05-01T14:51:23Z</time></trkpt><trkpt lat="43.71034307092494" lon="10.38454781804293"><ele>4.0</ele><time>2026-05-01T14:51:24Z</time></trkpt><trkpt lat="43.71035620375602" lon="10.384636865832457"><ele>4.0</ele><time>2026-05-01T14:51:25Z</time></trkpt><trkpt lat="43.710353469381985" lon="10.38474206206894"><ele>3.9999999999999996</ele><time>2026-05-01T14:51:27Z</time></trkpt><trkpt lat="43.710312586428145" lon="10.384813388462321"><ele>4.0</ele><time>2026-05-01T14:51:30Z</time></trkpt><trkpt lat="43.710241387345924" lon="10.384903117167706"><ele>3.9999999999999996</ele><time>2026-05-01T14:51:46Z</time></trkpt><trkpt lat="43.71011667411283" lon="10.384943540413445"><ele>4.0</ele><time>2026-05-01T14:51:48Z</time></trkpt><trkpt lat="43.71004320308786" lon="10.384973564811833"><ele>4.0</ele><time>2026-05-01T14:51:49Z</time></trkpt><trkpt lat="43.70996748418363" lon="10.38499799200675"><ele>4.0</ele><time>2026-05-01T14:51:50Z</time></trkpt><trkpt lat="43.70989415116194" lon="10.385023256231637"><ele>3.9999999999999996</ele><time>2026-05-01T14:51:51Z</time></trkpt><trkpt lat="43.7098238262675" lon="10.385049102818236"><ele>4.0</ele><time>2026-05-01T14:51:52Z</time></trkpt><trkpt lat="43.70975948157983" lon="10.38506964224252"><ele>3.9999999999999996</ele><time>2026-05-01T14:51:53Z</time></trkpt><trkpt lat="43.709686296895015" lon="10.385093875356384"><ele>4.0</ele><time>2026-05-01T14:51:54Z</time></trkpt><trkpt lat="43.709614569165396" lon="10.385114602548848"><ele>4.0</ele><time>2026-05-01T14:51:55Z</time></trkpt><trkpt lat="43.70954924120244" lon="10.385131016796972"><ele>4.0</ele><time>2026-05-01T14:51:56Z</time></trkpt><trkpt lat="43.709486896386224" lon="10.385151837664765"><ele>3.9999999999999996</ele><time>2026-05-01T14:51:57Z</time></trkpt><trkpt lat="43.709391294695344" lon="10.385182498993514"><ele>4.0</ele><time>2026-05-01T14:51:59Z</time></trkpt><trkpt lat="43.70927731119579" lon="10.385209728271652"><ele>3.9999999999999996</ele><time>2026-05-01T14:52:01Z</time></trkpt><trkpt lat="43.709185693386885" lon="10.385238018189341"><ele>4.0</ele><time>2026-05-01T14:52:03Z</time></trkpt><trkpt lat="43.70910245855692" lon="10.385269755259415"><ele>4.0</ele><time>2026-05-01T14:52:05Z</time></trkpt><trkpt lat="43.70901685969477" lon="10.385286480546025"><ele>4.0</ele><time>2026-05-01T14:52:07Z</time></trkpt><trkpt lat="43.70894622264792" lon="10.385270906964736"><ele>3.9999999999999996</ele><time>2026-05-01T14:52:09Z</time></trkpt><trkpt lat="43.70887990321758" lon="10.385236588601709"><ele>4.0</ele><time>2026-05-01T14:52:11Z</time></trkpt><trkpt lat="43.7087964954669" lon="10.385150308405239"><ele>4.0</ele><time>2026-05-01T14:52:13Z</time></trkpt><trkpt lat="43.70875623055817" lon="10.385066639939335"><ele>4.0</ele><time>2026-05-01T14:52:14Z</time></trkpt><trkpt lat="43.70872771591803" lon="10.384957002769687"><ele>4.0</ele><time>2026-05-01T14:52:15Z</time></trkpt><trkpt lat="43.70869343043827" lon="10.384830521200895"><ele>4.0</ele><time>2026-05-01T14:52:16Z</time></trkpt><trkpt lat="43.708650080436676" lon="10.38469976130721"><ele>4.0</ele><time>2026-05-01T14:52:17Z</time></trkpt><trkpt lat="43.70860245494407" lon="10.38455959731301"><ele>4.25</ele><time>2026-05-01T14:52:18Z</time></trkpt><trkpt lat="43.70855365880652" lon="10.384408690211899"><ele>4.5</ele><time>2026-05-01T14:52:19Z</time></trkpt><trkpt lat="43.70849789301789" lon="10.384248750245343"><ele>4.75</ele><time>2026-05-01T14:52:20Z</time></trkpt><trkpt lat="43.7084407919443" lon="10.384086943634928"><ele>5.0</ele><time>2026-05-01T14:52:21Z</time></trkpt><trkpt lat="43.708381861908954" lon="10.38391834361606"><ele>4.5</ele><time>2026-05-01T14:52:22Z</time></trkpt><trkpt lat="43.7083242590776" lon="10.383742437258821"><ele>4.0</ele><time>2026-05-01T14:52:23Z</time></trkpt><trkpt lat="43.70826132729874" lon="10.383566199870014"><ele>3.5</ele><time>2026-05-01T14:52:24Z</time></trkpt><trkpt lat="43.70819546573934" lon="10.38339168222991"><ele>3.0</ele><time>2026-05-01T14:52:25Z</time></trkpt><trkpt lat="43.708129202154254" lon="10.383236008698619"><ele>3.0</ele><time>2026-05-01T14:52:26Z</time></trkpt><trkpt lat="43.708066364343324" lon="10.383097384381198"><ele>3.0</ele><time>2026-05-01T14:52:27Z</time></trkpt><trkpt lat="43.70800228774615" lon="10.382974420720682"><ele>3.0</ele><time>2026-05-01T14:52:28Z</time></trkpt><trkpt lat="43.707939956190266" lon="10.382850627792529"><ele>3.0</ele><time>2026-05-01T14:52:29Z</time></trkpt><trkpt lat="43.70787480378585" lon="10.382722445348428"><ele>3.0</ele><time>2026-05-01T14:52:30Z</time></trkpt><trkpt lat="43.70780286262824" lon="10.382588854571848"><ele>3.0</ele><time>2026-05-01T14:52:31Z</time></trkpt><trkpt lat="43.707724265742385" lon="10.38245638738288"><ele>3.0</ele><time>2026-05-01T14:52:32Z</time></trkpt><trkpt lat="43.70764890021639" lon="10.382317384346763"><ele>3.0</ele><time>2026-05-01T14:52:33Z</time></trkpt><trkpt lat="43.70757678565121" lon="10.38217159040455"><ele>2.5</ele><time>2026-05-01T14:52:34Z</time></trkpt><trkpt lat="43.70752110220452" lon="10.382018927488737"><ele>2.0</ele><time>2026-05-01T14:52:35Z</time></trkpt><trkpt lat="43.70748428090892" lon="10.38186392330346"><ele>1.5</ele><time>2026-05-01T14:52:36Z</time></trkpt><trkpt lat="43.707483185208595" lon="10.381714372050451"><ele>1.0</ele><time>2026-05-01T14:52:37Z</time></trkpt><trkpt lat="43.7075125718634" lon="10.381581712592068"><ele>1.0</ele><time>2026-05-01T14:52:38Z</time></trkpt><trkpt lat="43.707549704472825" lon="10.381446786939078"><ele>1.0</ele><time>2026-05-01T14:52:39Z</time></trkpt><trkpt lat="43.70758389494504" lon="10.381305648337285"><ele>1.0</ele><time>2026-05-01T14:52:40Z</time></trkpt><trkpt lat="43.707621200637" lon="10.381181605454687"><ele>1.0</ele><time>2026-05-01T14:52:41Z</time></trkpt><trkpt lat="43.707667266935786" lon="10.381068188773199"><ele>1.0</ele><time>2026-05-01T14:52:42Z</time></trkpt><trkpt lat="43.707721976424324" lon="10.380962104575667"><ele>1.0</ele><time>2026-05-01T14:52:43Z</time></trkpt><trkpt lat="43.70777068179181" lon="10.380856331959812"><ele>1.0</ele><time>2026-05-01T14:52:44Z</time></trkpt><trkpt lat="43.70779237623211" lon="10.380736497540314"><ele>1.0</ele><time>2026-05-01T14:52:45Z</time></trkpt><trkpt lat="43.70778939977984" lon="10.380626638176762"><ele>1.0</ele><time>2026-05-01T14:52:46Z</time></trkpt><trkpt lat="43.70777436282498" lon="10.38052948824476"><ele>1.0</ele><time>2026-05-01T14:52:47Z</time></trkpt><trkpt lat="43.70774985074994" lon="10.380360263007535"><ele>1.25</ele><time>2026-05-01T14:52:49Z</time></trkpt><trkpt lat="43.7076559599847" lon="10.380278516510463"><ele>1.5</ele><time>2026-05-01T14:52:51Z</time></trkpt><trkpt lat="43.707566998967756" lon="10.380360831484737"><ele>1.75</ele><time>2026-05-01T14:52:53Z</time></trkpt><trkpt lat="43.70758855023427" lon="10.380506289783524"><ele>2.0</ele><time>2026-05-01T14:52:55Z</time></trkpt><trkpt lat="43.7076972009863" lon="10.380607592660622"><ele>1.6666666666666665</ele><time>2026-05-01T14:52:57Z</time></trkpt><trkpt lat="43.70773502928224" lon="10.380690189850107"><ele>1.3333333333333333</ele><time>2026-05-01T14:52:58Z</time></trkpt><trkpt lat="43.70773632377153" lon="10.380860940055499"><ele>1.0</ele><time>2026-05-01T14:53:00Z</time></trkpt><trkpt lat="43.70770642252764" lon="10.380942016217212"><ele>0.6666666666666666</ele><time>2026-05-01T14:53:01Z</time></trkpt><trkpt lat="43.70765387144837" lon="10.381026873142815"><ele>0.3333333333333333</ele><time>2026-05-01T14:53:02Z</time></trkpt><trkpt lat="43.70760074041092" lon="10.381142789026246"><ele>0.0</ele><time>2026-05-01T14:53:03Z</time></trkpt><trkpt lat="43.707557549074856" lon="10.381288044171702"><ele>0.25</ele><time>2026-05-01T14:53:04Z</time></trkpt><trkpt lat="43.70751710463241" lon="10.381459740821658"><ele>0.5</ele><time>2026-05-01T14:53:05Z</time></trkpt><trkpt lat="43.70748201053433" lon="10.3816291138498"><ele>0.75</ele><time>2026-05-01T14:53:06Z</time></trkpt><trkpt lat="43.707465006149675" lon="10.381781388947646"><ele>1.0</ele><time>2026-05-01T14:53:07Z</time></trkpt><trkpt lat="43.707503600904694" lon="10.382062716238897"><ele>1.2000000000000002</ele><time>2026-05-01T14:53:09Z</time></trkpt><trkpt lat="43.70755291489576" lon="10.382187636994729"><ele>1.4000000000000001</ele><time>2026-05-01T14:53:10Z</time></trkpt><trkpt lat="43.70760401466682" lon="10.382297906239112"><ele>1.6</ele><time>2026-05-01T14:53:11Z</time></trkpt><trkpt lat="43.70766354019392" lon="10.382383548687574"><ele>1.8</ele><time>2026-05-01T14:53:12Z</time></trkpt><trkpt lat="43.70771852129529" lon="10.38247029985637"><ele>2.0</ele><time>2026-05-01T14:53:13Z</time></trkpt><trkpt lat="43.70776744822441" lon="10.382565502079993"><ele>1.9999999999999998</ele><time>2026-05-01T14:53:14Z</time></trkpt><trkpt lat="43.70780679087944" lon="10.382653410633525"><ele>2.0</ele><time>2026-05-01T14:53:15Z</time></trkpt><trkpt lat="43.70782236824002" lon="10.38273947481776"><ele>2.0</ele><time>2026-05-01T14:53:16Z</time></trkpt><trkpt lat="43.707857830022675" lon="10.382876984989483"><ele>2.0</ele><time>2026-05-01T14:53:18Z</time></trkpt><trkpt lat="43.707931031835294" lon="10.382836343748343"><ele>1.9999999999999998</ele><time>2026-05-01T14:53:20Z</time></trkpt><trkpt lat="43.70791459278386" lon="10.382711270819486"><ele>2.0</ele><time>2026-05-01T14:53:22Z</time></trkpt><trkpt lat="43.70785586306931" lon="10.382645523360171"><ele>2.0</ele><time>2026-05-01T14:53:23Z</time></trkpt><trkpt lat="43.70779870055321" lon="10.382572291759407"><ele>2.0</ele><time>2026-05-01T14:53:24Z</time></trkpt><trkpt lat="43.70773977126865" lon="10.382464458654745"><ele>2.0</ele><time>2026-05-01T14:53:25Z</time></trkpt><trkpt lat="43.70767111753535" lon="10.382341931418122"><ele>2.0</ele><time>2026-05-01T14:53:26Z</time></trkpt><trkpt lat="43.70760034528902" lon="10.382201405524507"><ele>2.0</ele><time>2026-05-01T14:53:27Z</time></trkpt><trkpt lat="43.70753319380039" lon="10.382049061730095"><ele>1.75</ele><time>2026-05-01T14:53:28Z</time></trkpt><trkpt lat="43.7074948205203" lon="10.381874699244081"><ele>1.5</ele><time>2026-05-01T14:53:29Z</time></trkpt><trkpt lat="43.707495745597434" lon="10.381716346285309"><ele>1.25</ele><time>2026-05-01T14:53:30Z</time></trkpt><trkpt lat="43.70751930890756" lon="10.381575637838642"><ele>1.0</ele><time>2026-05-01T14:53:31Z</time></trkpt><trkpt lat="43.70755613528905" lon="10.381427240725236"><ele>0.8</ele><time>2026-05-01T14:53:32Z</time></trkpt><trkpt lat="43.70759329388325" lon="10.381274350813046"><ele>0.6000000000000001</ele><time>2026-05-01T14:53:33Z</time></trkpt><trkpt lat="43.70763716908966" lon="10.381140557693051"><ele>0.4</ele><time>2026-05-01T14:53:34Z</time></trkpt><trkpt lat="43.70768941541334" lon="10.3810185387629"><ele>0.2</ele><time>2026-05-01T14:53:35Z</time></trkpt><trkpt lat="43.7077410794427" lon="10.380909130129462"><ele>0.0</ele><time>2026-05-01T14:53:36Z</time></trkpt><trkpt lat="43.70777724494144" lon="10.38079869455127"><ele>0.14285714285714285</ele><time>2026-05-01T14:53:37Z</time></trkpt><trkpt lat="43.70779009482517" lon="10.380683548578737"><ele>0.2857142857142857</ele><time>2026-05-01T14:53:38Z</time></trkpt><trkpt lat="43.70778033592115" lon="10.380574234867115"><ele>0.42857142857142855</ele><time>2026-05-01T14:53:39Z</time></trkpt><trkpt lat="43.70777166730274" lon="10.380475606286781"><ele>0.5714285714285714</ele><time>2026-05-01T14:53:40Z</time></trkpt><trkpt lat="43.70775983412379" lon="10.380381484890252"><ele>0.7142857142857142</ele><time>2026-05-01T14:53:41Z</time></trkpt><trkpt lat="43.70771703404359" lon="10.380309658945649"><ele>0.8571428571428571</ele><time>2026-05-01T14:53:42Z</time></trkpt><trkpt lat="43.707656210999424" lon="10.38028218124543"><ele>1.0</ele><time>2026-05-01T14:53:43Z</time></trkpt><trkpt lat="43.70759579970793" lon="10.380307620430154"><ele>1.1666666666666665</ele><time>2026-05-01T14:53:44Z</time></trkpt><trkpt lat="43.70755317078432" lon="10.380390707406775"><ele>1.3333333333333333</ele><time>2026-05-01T14:53:45Z</time></trkpt><trkpt lat="43.70753396912973" lon="10.380491576205358"><ele>1.5</ele><time>2026-05-01T14:53:46Z</time></trkpt><trkpt lat="43.70754176890295" lon="10.380593087037955"><ele>1.6666666666666665</ele><time>2026-05-01T14:53:47Z</time></trkpt><trkpt lat="43.70746596660908" lon="10.380702032425427"><ele>1.8333333333333333</ele><time>2026-05-01T14:53:48Z</time></trkpt><trkpt lat="43.707438576069805" lon="10.380824332429603"><ele>2.0</ele><time>2026-05-01T14:53:49Z</time></trkpt><trkpt lat="43.707420869796266" lon="10.380952573504075"><ele>1.6666666666666665</ele><time>2026-05-01T14:53:50Z</time></trkpt><trkpt lat="43.7074063860537" lon="10.381071818137984"><ele>1.3333333333333333</ele><time>2026-05-01T14:53:51Z</time></trkpt><trkpt lat="43.707371331790085" lon="10.381161079699165"><ele>1.0</ele><time>2026-05-01T14:53:52Z</time></trkpt><trkpt lat="43.7073347833146" lon="10.381290193245867"><ele>0.6666666666666666</ele><time>2026-05-01T14:53:54Z</time></trkpt><trkpt lat="43.70721914673392" lon="10.381296119574937"><ele>0.3333333333333333</ele><time>2026-05-01T14:53:56Z</time></trkpt><trkpt lat="43.70715460941374" lon="10.38127884903497"><ele>0.0</ele><time>2026-05-01T14:53:57Z</time></trkpt><trkpt lat="43.70707997217641" lon="10.381244908285582"><ele>0.0</ele><time>2026-05-01T14:53:59Z</time></trkpt><trkpt lat="43.70698827298058" lon="10.381199969647133"><ele>0.0</ele><time>2026-05-01T14:54:02Z</time></trkpt><trkpt lat="43.70692078730501" lon="10.38123236606524"><ele>0.0</ele><time>2026-05-01T14:54:04Z</time></trkpt><trkpt lat="43.70682419148827" lon="10.381243087962613"><ele>0.0</ele><time>2026-05-01T14:54:06Z</time></trkpt><trkpt lat="43.70674417646585" lon="10.381239139638627"><ele>0.0</ele><time>2026-05-01T14:54:07Z</time></trkpt><trkpt lat="43.70665121871697" lon="10.381234256141516"><ele>0.0</ele><time>2026-05-01T14:54:08Z</time></trkpt><trkpt lat="43.706547078246864" lon="10.381226917882424"><ele>0.25</ele><time>2026-05-01T14:54:09Z</time></trkpt><trkpt lat="43.70642490831606" lon="10.381212539394893"><ele>0.5</ele><time>2026-05-01T14:54:10Z</time></trkpt><trkpt lat="43.70628789434392" lon="10.381197936531112"><ele>0.75</ele><time>2026-05-01T14:54:11Z</time></trkpt><trkpt lat="43.70614964300788" lon="10.381181065933882"><ele>1.0</ele><time>2026-05-01T14:54:12Z</time></trkpt><trkpt lat="43.70601768748251" lon="10.381166426493369"><ele>1.25</ele><time>2026-05-01T14:54:13Z</time></trkpt><trkpt lat="43.705893298013876" lon="10.381150570352155"><ele>1.5</ele><time>2026-05-01T14:54:14Z</time></trkpt><trkpt lat="43.7057745143575" lon="10.381134068217598"><ele>1.75</ele><time>2026-05-01T14:54:15Z</time></trkpt><trkpt lat="43.705654101113666" lon="10.381121564511888"><ele>2.0</ele><time>2026-05-01T14:54:16Z</time></trkpt><trkpt lat="43.705533071190956" lon="10.381107137534274"><ele>2.0</ele><time>2026-05-01T14:54:17Z</time></trkpt><trkpt lat="43.705412484664265" lon="10.381095023178657"><ele>2.0</ele><time>2026-05-01T14:54:18Z</time></trkpt><trkpt lat="43.70528709931195" lon="10.38107435217541"><ele>2.0</ele><time>2026-05-01T14:54:19Z</time></trkpt><trkpt lat="43.70516935465521" lon="10.38103757864777"><ele>2.0</ele><time>2026-05-01T14:54:20Z</time></trkpt><trkpt lat="43.705068088366254" lon="10.38102291719095"><ele>1.6</ele><time>2026-05-01T14:54:21Z</time></trkpt><trkpt lat="43.70496516095201" lon="10.381007564893833"><ele>1.2000000000000002</ele><time>2026-05-01T14:54:22Z</time></trkpt><trkpt lat="43.70485732625235" lon="10.38099280555797"><ele>0.8</ele><time>2026-05-01T14:54:23Z</time></trkpt><trkpt lat="43.70476703464118" lon="10.380982229337262"><ele>0.4</ele><time>2026-05-01T14:54:24Z</time></trkpt><trkpt lat="43.70468131998257" lon="10.380972189210336"><ele>0.0</ele><time>2026-05-01T14:54:25Z</time></trkpt><trkpt lat="43.704598970975255" lon="10.380984260682675"><ele>0.0</ele><time>2026-05-01T14:54:26Z</time></trkpt><trkpt lat="43.70452548788606" lon="10.380976984790514"><ele>0.0</ele><time>2026-05-01T14:54:27Z</time></trkpt><trkpt lat="43.70444450450936" lon="10.380945114754548"><ele>0.0</ele><time>2026-05-01T14:54:28Z</time></trkpt><trkpt lat="43.70435976054863" lon="10.380917018952442"><ele>0.0</ele><time>2026-05-01T14:54:29Z</time></trkpt><trkpt lat="43.70427544722923" lon="10.3808723622138"><ele>0.0</ele><time>2026-05-01T14:54:30Z</time></trkpt><trkpt lat="43.70417632186879" lon="10.380837531872729"><ele>0.0</ele><time>2026-05-01T14:54:31Z</time></trkpt><trkpt lat="43.70408380076256" lon="10.380800775913853"><ele>0.25</ele><time>2026-05-01T14:54:32Z</time></trkpt><trkpt lat="43.7039830757403" lon="10.380758876610486"><ele>0.5</ele><time>2026-05-01T14:54:33Z</time></trkpt><trkpt lat="43.703853338836744" lon="10.380746498065164"><ele>0.75</ele><time>2026-05-01T14:54:34Z</time></trkpt><trkpt lat="43.70369077301629" lon="10.380771521944792"><ele>1.0</ele><time>2026-05-01T14:54:35Z</time></trkpt><trkpt lat="43.70347897497284" lon="10.380762283299742"><ele>1.0</ele><time>2026-05-01T14:54:36Z</time></trkpt><trkpt lat="43.703233962218974" lon="10.380708000412438"><ele>1.0</ele><time>2026-05-01T14:54:37Z</time></trkpt><trkpt lat="43.70296365934939" lon="10.380661623385128"><ele>0.0</ele><time>2026-05-01T14:54:38Z</time></trkpt><trkpt lat="43.70270063015539" lon="10.380622496435716"><ele>-1.0</ele><time>2026-05-01T14:54:39Z</time></trkpt><trkpt lat="43.70246570179203" lon="10.38060104271575"><ele>-1.0</ele><time>2026-05-01T14:54:40Z</time></trkpt><trkpt lat="43.702228141121715" lon="10.380581585712626"><ele>-1.0</ele><time>2026-05-01T14:54:41Z</time></trkpt><trkpt lat="43.701991059530584" lon="10.380572762134861"><ele>-1.0</ele><time>2026-05-01T14:54:42Z</time></trkpt><trkpt lat="43.70177900059608" lon="10.380544390292181"><ele>-1.0</ele><time>2026-05-01T14:54:43Z</time></trkpt><trkpt lat="43.70156391150972" lon="10.380490996000058"><ele>-1.0</ele><time>2026-05-01T14:54:44Z</time></trkpt><trkpt lat="43.70137213066639" lon="10.380463397146086"><ele>-0.6666666666666666</ele><time>2026-05-01T14:54:45Z</time></trkpt><trkpt lat="43.70120749490337" lon="10.380446540260376"><ele>-0.3333333333333333</ele><time>2026-05-01T14:54:46Z</time></trkpt><trkpt lat="43.70105016131994" lon="10.380450541342716"><ele>0.0</ele><time>2026-05-01T14:54:47Z</time></trkpt><trkpt lat="43.70089955446303" lon="10.380432059135991"><ele>0.0</ele><time>2026-05-01T14:54:48Z</time></trkpt><trkpt lat="43.700730444594626" lon="10.380394293305287"><ele>0.0</ele><time>2026-05-01T14:54:49Z</time></trkpt><trkpt lat="43.70055409078787" lon="10.380325628411246"><ele>0.0</ele><time>2026-05-01T14:54:50Z</time></trkpt><trkpt lat="43.700375420098844" lon="10.38027412800845"><ele>0.0</ele><time>2026-05-01T14:54:51Z</time></trkpt><trkpt lat="43.70019500385607" lon="10.380255885634293"><ele>0.0</ele><time>2026-05-01T14:54:52Z</time></trkpt><trkpt lat="43.699986137191225" lon="10.380250564520196"><ele>0.0</ele><time>2026-05-01T14:54:53Z</time></trkpt><trkpt lat="43.69980883892844" lon="10.380204445783244"><ele>0.0</ele><time>2026-05-01T14:54:54Z</time></trkpt><trkpt lat="43.699642462622045" lon="10.380212946173584"><ele>0.0</ele><time>2026-05-01T14:54:55Z</time></trkpt><trkpt lat="43.69947387682224" lon="10.38020927765824"><ele>0.0</ele><time>2026-05-01T14:54:56Z</time></trkpt><trkpt lat="43.699314776604815" lon="10.380196112827777"><ele>-0.3333333333333333</ele><time>2026-05-01T14:54:57Z</time></trkpt><trkpt lat="43.6991573000332" lon="10.380195441208521"><ele>-0.6666666666666666</ele><time>2026-05-01T14:54:58Z</time></trkpt><trkpt lat="43.69899980092174" lon="10.38018719171799"><ele>-1.0</ele><time>2026-05-01T14:54:59Z</time></trkpt><trkpt lat="43.69883959373588" lon="10.380172278483194"><ele>-1.0</ele><time>2026-05-01T14:55:00Z</time></trkpt><trkpt lat="43.698667777148906" lon="10.380175467134086"><ele>-1.0</ele><time>2026-05-01T14:55:01Z</time></trkpt><trkpt lat="43.698490148806734" lon="10.38015073853014"><ele>-1.0</ele><time>2026-05-01T14:55:02Z</time></trkpt><trkpt lat="43.69832529693483" lon="10.380095655703807"><ele>-1.3333333333333333</ele><time>2026-05-01T14:55:03Z</time></trkpt><trkpt lat="43.69814053707185" lon="10.380065357669976"><ele>-1.6666666666666665</ele><time>2026-05-01T14:55:04Z</time></trkpt><trkpt lat="43.697939976847366" lon="10.380053834183855"><ele>-2.0</ele><time>2026-05-01T14:55:05Z</time></trkpt><trkpt lat="43.69773067203079" lon="10.380038404534172"><ele>-2.0</ele><time>2026-05-01T14:55:06Z</time></trkpt><trkpt lat="43.69750896235633" lon="10.38001485113188"><ele>-2.0</ele><time>2026-05-01T14:55:07Z</time></trkpt><trkpt lat="43.69728517037145" lon="10.379986160630345"><ele>-2.0</ele><time>2026-05-01T14:55:08Z</time></trkpt><trkpt lat="43.6970845345632" lon="10.379962628026703"><ele>-1.6666666666666665</ele><time>2026-05-01T14:55:09Z</time></trkpt><trkpt lat="43.69687443037146" lon="10.379938399621095"><ele>-1.3333333333333333</ele><time>2026-05-01T14:55:10Z</time></trkpt><trkpt lat="43.69666046442259" lon="10.379914113648333"><ele>-1.0</ele><time>2026-05-01T14:55:11Z</time></trkpt><trkpt lat="43.69645013268509" lon="10.379893236514125"><ele>-1.0</ele><time>2026-05-01T14:55:12Z</time></trkpt><trkpt lat="43.696241053778" lon="10.379873685622968"><ele>-1.0</ele><time>2026-05-01T14:55:13Z</time></trkpt><trkpt lat="43.69601264492724" lon="10.379852486985296"><ele>-1.0</ele><time>2026-05-01T14:55:14Z</time></trkpt><trkpt lat="43.69579782208563" lon="10.379830227561676"><ele>-1.0</ele><time>2026-05-01T14:55:15Z</time></trkpt><trkpt lat="43.695582880238284" lon="10.379802978732132"><ele>-1.0</ele><time>2026-05-01T14:55:16.001Z</time></trkpt><trkpt lat="43.695360449855215" lon="10.379776644993722"><ele>-1.0</ele><time>2026-05-01T14:55:17.001Z</time></trkpt><trkpt lat="43.6951354226179" lon="10.37975021150667"><ele>-1.0</ele><time>2026-05-01T14:55:18.001Z</time></trkpt><trkpt lat="43.694915895459815" lon="10.37972360865079"><ele>-1.0</ele><time>2026-05-01T14:55:19.001Z</time></trkpt><trkpt lat="43.69469640546046" lon="10.37969806414816"><ele>-1.0</ele><time>2026-05-01T14:55:20.001Z</time></trkpt><trkpt lat="43.69447591208125" lon="10.37967504120288"><ele>-1.5</ele><time>2026-05-01T14:55:21.001Z</time></trkpt><trkpt lat="43.69421523417227" lon="10.379647005100594"><ele>-2.0</ele><time>2026-05-01T14:55:22.001Z</time></trkpt><trkpt lat="43.69398710511931" lon="10.37961848599344"><ele>-2.0</ele><time>2026-05-01T14:55:23.001Z</time></trkpt><trkpt lat="43.6937734860607" lon="10.37959158914445"><ele>-2.0</ele><time>2026-05-01T14:55:24.001Z</time></trkpt><trkpt lat="43.69357121236813" lon="10.379569898050436"><ele>-2.0</ele><time>2026-05-01T14:55:25.001Z</time></trkpt><trkpt lat="43.69334542610435" lon="10.379554116442943"><ele>-2.0</ele><time>2026-05-01T14:55:26.001Z</time></trkpt><trkpt lat="43.69314090891235" lon="10.379534181858272"><ele>-2.0</ele><time>2026-05-01T14:55:27.001Z</time></trkpt><trkpt lat="43.6929298720425" lon="10.379511489356188"><ele>-2.0</ele><time>2026-05-01T14:55:28.001Z</time></trkpt><trkpt lat="43.692727564730774" lon="10.379489735511692"><ele>-2.0</ele><time>2026-05-01T14:55:29.001Z</time></trkpt><trkpt lat="43.692526708568415" lon="10.379463381917438"><ele>-2.0</ele><time>2026-05-01T14:55:30.001Z</time></trkpt><trkpt lat="43.69231702181493" lon="10.379422721590043"><ele>-2.0</ele><time>2026-05-01T14:55:31.001Z</time></trkpt><trkpt lat="43.69211399265015" lon="10.379377261809275"><ele>-2.0</ele><time>2026-05-01T14:55:32.001Z</time></trkpt><trkpt lat="43.69192648507582" lon="10.379330298745296"><ele>-2.0</ele><time>2026-05-01T14:55:33.001Z</time></trkpt><trkpt lat="43.6917469661364" lon="10.379276385463987"><ele>-2.0</ele><time>2026-05-01T14:55:34.001Z</time></trkpt><trkpt lat="43.69156679299024" lon="10.379212919210008"><ele>-1.3333333333333333</ele><time>2026-05-01T14:55:35.001Z</time></trkpt><trkpt lat="43.69139167878492" lon="10.379136044956184"><ele>-0.6666666666666666</ele><time>2026-05-01T14:55:36Z</time></trkpt><trkpt lat="43.69120957004071" lon="10.379050400103827"><ele>0.0</ele><time>2026-05-01T14:55:37Z</time></trkpt><trkpt lat="43.69103246507853" lon="10.378967108509189"><ele>0.3333333333333333</ele><time>2026-05-01T14:55:38Z</time></trkpt><trkpt lat="43.690851550962584" lon="10.37888344096377"><ele>0.6666666666666666</ele><time>2026-05-01T14:55:39Z</time></trkpt><trkpt lat="43.69066941832089" lon="10.37880235338784"><ele>1.0</ele><time>2026-05-01T14:55:40Z</time></trkpt><trkpt lat="43.690486871465225" lon="10.378710617326643"><ele>0.0</ele><time>2026-05-01T14:55:41Z</time></trkpt><trkpt lat="43.69031640388882" lon="10.378622861240647"><ele>-1.0</ele><time>2026-05-01T14:55:42Z</time></trkpt><trkpt lat="43.6901549913969" lon="10.378544395220741"><ele>-2.0</ele><time>2026-05-01T14:55:43Z</time></trkpt><trkpt lat="43.689988493397834" lon="10.378464791565547"><ele>-2.0</ele><time>2026-05-01T14:55:44Z</time></trkpt><trkpt lat="43.689823732665495" lon="10.378387843389529"><ele>-2.0</ele><time>2026-05-01T14:55:45Z</time></trkpt><trkpt lat="43.68964986396032" lon="10.378314009584143"><ele>-2.0</ele><time>2026-05-01T14:55:46Z</time></trkpt><trkpt lat="43.68945933371096" lon="10.37823478527586"><ele>-1.0</ele><time>2026-05-01T14:55:47Z</time></trkpt><trkpt lat="43.68923929802902" lon="10.37812586948637"><ele>0.0</ele><time>2026-05-01T14:55:48Z</time></trkpt><trkpt lat="43.68903387258495" lon="10.378024864262775"><ele>-0.3333333333333333</ele><time>2026-05-01T14:55:49Z</time></trkpt><trkpt lat="43.6888336240774" lon="10.377932946696848"><ele>-0.6666666666666666</ele><time>2026-05-01T14:55:50Z</time></trkpt><trkpt lat="43.688653350059916" lon="10.377853239213296"><ele>-1.0</ele><time>2026-05-01T14:55:51Z</time></trkpt><trkpt lat="43.68847861551125" lon="10.377775981010954"><ele>-2.0</ele><time>2026-05-01T14:55:52Z</time></trkpt><trkpt lat="43.68830394221863" lon="10.377698749892984"><ele>-3.0</ele><time>2026-05-01T14:55:53Z</time></trkpt><trkpt lat="43.68813473167552" lon="10.377620333567307"><ele>-4.0</ele><time>2026-05-01T14:55:54Z</time></trkpt><trkpt lat="43.68795699527153" lon="10.377537452962674"><ele>-4.0</ele><time>2026-05-01T14:55:55Z</time></trkpt><trkpt lat="43.687774971818826" lon="10.377452574236612"><ele>-4.0</ele><time>2026-05-01T14:55:56Z</time></trkpt><trkpt lat="43.687598559040545" lon="10.377370310482835"><ele>-4.0</ele><time>2026-05-01T14:55:57Z</time></trkpt><trkpt lat="43.687417613827705" lon="10.377285933205599"><ele>-3.333333333333333</ele><time>2026-05-01T14:55:58Z</time></trkpt><trkpt lat="43.68722881854762" lon="10.377199169686609"><ele>-2.6666666666666665</ele><time>2026-05-01T14:55:59Z</time></trkpt><trkpt lat="43.68701263367346" lon="10.377100499106033"><ele>-2.0</ele><time>2026-05-01T14:56:00Z</time></trkpt><trkpt lat="43.6868077686497" lon="10.377006995125361"><ele>-2.0</ele><time>2026-05-01T14:56:01Z</time></trkpt><trkpt lat="43.686580026833" lon="10.37690304976269"><ele>-2.0</ele><time>2026-05-01T14:56:02Z</time></trkpt><trkpt lat="43.68636107082638" lon="10.376803114411267"><ele>-2.0</ele><time>2026-05-01T14:56:03Z</time></trkpt><trkpt lat="43.68612899168153" lon="10.376697189418234"><ele>-2.0</ele><time>2026-05-01T14:56:04Z</time></trkpt><trkpt lat="43.685905065545924" lon="10.376594985607206"><ele>-2.0</ele><time>2026-05-01T14:56:05Z</time></trkpt><trkpt lat="43.68570066181902" lon="10.376499694485338"><ele>-2.0</ele><time>2026-05-01T14:56:06Z</time></trkpt><trkpt lat="43.68550607328836" lon="10.376408670172202"><ele>-2.0</ele><time>2026-05-01T14:56:07Z</time></trkpt><trkpt lat="43.68531103914777" lon="10.376317861659235"><ele>-1.6666666666666665</ele><time>2026-05-01T14:56:08Z</time></trkpt><trkpt lat="43.685118486488" lon="10.376229947863663"><ele>-1.3333333333333333</ele><time>2026-05-01T14:56:09Z</time></trkpt><trkpt lat="43.68491560065738" lon="10.376134387136766"><ele>-1.0</ele><time>2026-05-01T14:56:10Z</time></trkpt><trkpt lat="43.6847331471729" lon="10.376046595711031"><ele>-1.0</ele><time>2026-05-01T14:56:11Z</time></trkpt><trkpt lat="43.68453777173374" lon="10.3759573190334"><ele>-1.0</ele><time>2026-05-01T14:56:12Z</time></trkpt><trkpt lat="43.68434088274495" lon="10.375868323786815"><ele>-1.0</ele><time>2026-05-01T14:56:13Z</time></trkpt><trkpt lat="43.68415329719665" lon="10.375783533754165"><ele>-1.0</ele><time>2026-05-01T14:56:14Z</time></trkpt><trkpt lat="43.683950277958346" lon="10.375689813380562"><ele>-1.0</ele><time>2026-05-01T14:56:15Z</time></trkpt><trkpt lat="43.683740583457336" lon="10.375589831179154"><ele>-1.0</ele><time>2026-05-01T14:56:16Z</time></trkpt><trkpt lat="43.683554446714105" lon="10.375504505162777"><ele>-1.0</ele><time>2026-05-01T14:56:17Z</time></trkpt><trkpt lat="43.68337227952146" lon="10.37542179040304"><ele>-1.0</ele><time>2026-05-01T14:56:18Z</time></trkpt><trkpt lat="43.683192706846434" lon="10.375340033353694"><ele>-1.0</ele><time>2026-05-01T14:56:19Z</time></trkpt><trkpt lat="43.68301323923048" lon="10.37525763756233"><ele>-1.0</ele><time>2026-05-01T14:56:20Z</time></trkpt><trkpt lat="43.68284691619595" lon="10.375180437141639"><ele>-1.0</ele><time>2026-05-01T14:56:21Z</time></trkpt><trkpt lat="43.68269471519517" lon="10.375109654411208"><ele>-1.0</ele><time>2026-05-01T14:56:22Z</time></trkpt><trkpt lat="43.682556431569864" lon="10.375045344105795"><ele>-0.75</ele><time>2026-05-01T14:56:23Z</time></trkpt><trkpt lat="43.68242363368897" lon="10.374983585007294"><ele>-0.5</ele><time>2026-05-01T14:56:24Z</time></trkpt><trkpt lat="43.68230636438937" lon="10.374929047651198"><ele>-0.25</ele><time>2026-05-01T14:56:25Z</time></trkpt><trkpt lat="43.68219533228789" lon="10.374877841656557"><ele>0.0</ele><time>2026-05-01T14:56:26Z</time></trkpt><trkpt lat="43.68208339797855" lon="10.374827087225064"><ele>0.0</ele><time>2026-05-01T14:56:27Z</time></trkpt><trkpt lat="43.68197273976625" lon="10.374776911407054"><ele>0.0</ele><time>2026-05-01T14:56:28Z</time></trkpt><trkpt lat="43.68187083475032" lon="10.374729555992587"><ele>0.0</ele><time>2026-05-01T14:56:29Z</time></trkpt><trkpt lat="43.68177024745392" lon="10.37468201693183"><ele>0.0</ele><time>2026-05-01T14:56:30Z</time></trkpt><trkpt lat="43.68166447833504" lon="10.37463202885306"><ele>0.0</ele><time>2026-05-01T14:56:31Z</time></trkpt><trkpt lat="43.68155352845921" lon="10.374579592263572"><ele>-0.4</ele><time>2026-05-01T14:56:32Z</time></trkpt><trkpt lat="43.681445961872654" lon="10.374529989331702"><ele>-0.8</ele><time>2026-05-01T14:56:33Z</time></trkpt><trkpt lat="43.68135015891473" lon="10.37448594513721"><ele>-1.2000000000000002</ele><time>2026-05-01T14:56:34Z</time></trkpt><trkpt lat="43.681261746939676" lon="10.37444529885097"><ele>-1.6</ele><time>2026-05-01T14:56:35Z</time></trkpt><trkpt lat="43.68118191338784" lon="10.37440859634365"><ele>-2.0</ele><time>2026-05-01T14:56:36Z</time></trkpt><trkpt lat="43.68111477342987" lon="10.374376765820054"><ele>-1.6</ele><time>2026-05-01T14:56:37Z</time></trkpt><trkpt lat="43.681026953137334" lon="10.37435832710187"><ele>-1.2000000000000002</ele><time>2026-05-01T14:56:39Z</time></trkpt><trkpt lat="43.680972716455805" lon="10.3743111566425"><ele>-0.8</ele><time>2026-05-01T14:57:22.001Z</time></trkpt><trkpt lat="43.68088247884449" lon="10.37427028510263"><ele>-0.4</ele><time>2026-05-01T14:57:49.001Z</time></trkpt><trkpt lat="43.68074819115037" lon="10.374216930649927"><ele>0.0</ele><time>2026-05-01T14:57:51.001Z</time></trkpt><trkpt lat="43.68061501548525" lon="10.374163880003735"><ele>0.0</ele><time>2026-05-01T14:57:52.001Z</time></trkpt><trkpt lat="43.68050859021555" lon="10.37411986461618"><ele>0.0</ele><time>2026-05-01T14:57:53.001Z</time></trkpt><trkpt lat="43.68040788160057" lon="10.374073333132552"><ele>0.0</ele><time>2026-05-01T14:57:54.001Z</time></trkpt><trkpt lat="43.680285977667715" lon="10.374017114898681"><ele>0.0</ele><time>2026-05-01T14:57:55.001Z</time></trkpt><trkpt lat="43.680147459794235" lon="10.373978676946646"><ele>-0.25</ele><time>2026-05-01T14:57:56.001Z</time></trkpt><trkpt lat="43.68000730608579" lon="10.373896802801534"><ele>-0.5</ele><time>2026-05-01T14:57:57.001Z</time></trkpt><trkpt lat="43.67986680180078" lon="10.373838411064664"><ele>-0.75</ele><time>2026-05-01T14:57:58.001Z</time></trkpt><trkpt lat="43.67973324278647" lon="10.373782905684191"><ele>-1.0</ele><time>2026-05-01T14:57:59.001Z</time></trkpt><trkpt lat="43.67959046237978" lon="10.373747305100276"><ele>-1.25</ele><time>2026-05-01T14:58:00.001Z</time></trkpt><trkpt lat="43.679466982088314" lon="10.373671231858287"><ele>-1.5</ele><time>2026-05-01T14:58:01.001Z</time></trkpt><trkpt lat="43.679334947426796" lon="10.373615296575306"><ele>-1.75</ele><time>2026-05-01T14:58:02Z</time></trkpt><trkpt lat="43.67919759939594" lon="10.373557110340771"><ele>-2.0</ele><time>2026-05-01T14:58:03Z</time></trkpt><trkpt lat="43.679067268614794" lon="10.373502525800566"><ele>-2.0</ele><time>2026-05-01T14:58:04Z</time></trkpt><trkpt lat="43.67893285305605" lon="10.373446600600454"><ele>-2.0</ele><time>2026-05-01T14:58:05Z</time></trkpt><trkpt lat="43.678783602393075" lon="10.373407856340759"><ele>-2.0</ele><time>2026-05-01T14:58:06Z</time></trkpt><trkpt lat="43.67864529706291" lon="10.373324953225815"><ele>-2.0</ele><time>2026-05-01T14:58:07Z</time></trkpt><trkpt lat="43.67849882342056" lon="10.37326122250089"><ele>-1.5</ele><time>2026-05-01T14:58:08Z</time></trkpt><trkpt lat="43.678368301037075" lon="10.373204430616479"><ele>-1.0</ele><time>2026-05-01T14:58:09Z</time></trkpt><trkpt lat="43.678250799000395" lon="10.373153304293734"><ele>-0.5</ele><time>2026-05-01T14:58:10Z</time></trkpt><trkpt lat="43.67813459193332" lon="10.373124976152656"><ele>0.0</ele><time>2026-05-01T14:58:11Z</time></trkpt><trkpt lat="43.67801974693726" lon="10.373061173234172"><ele>0.0</ele><time>2026-05-01T14:58:12Z</time></trkpt><trkpt lat="43.67788581615057" lon="10.373007661094787"><ele>0.0</ele><time>2026-05-01T14:58:13Z</time></trkpt><trkpt lat="43.67774419178218" lon="10.372946823108261"><ele>0.0</ele><time>2026-05-01T14:58:14Z</time></trkpt><trkpt lat="43.67759154434152" lon="10.372881249739134"><ele>0.0</ele><time>2026-05-01T14:58:15Z</time></trkpt><trkpt lat="43.677426869085274" lon="10.372810509539082"><ele>-0.3333333333333333</ele><time>2026-05-01T14:58:16Z</time></trkpt><trkpt lat="43.67723235993303" lon="10.37275099414764"><ele>-0.6666666666666666</ele><time>2026-05-01T14:58:17Z</time></trkpt><trkpt lat="43.677025216827076" lon="10.372666402176316"><ele>-1.0</ele><time>2026-05-01T14:58:18Z</time></trkpt><trkpt lat="43.67681643566531" lon="10.37255657533499"><ele>-1.0</ele><time>2026-05-01T14:58:19Z</time></trkpt><trkpt lat="43.67662558564944" lon="10.372474298850879"><ele>-1.0</ele><time>2026-05-01T14:58:20Z</time></trkpt><trkpt lat="43.6764176203113" lon="10.372388673567485"><ele>-1.0</ele><time>2026-05-01T14:58:21Z</time></trkpt><trkpt lat="43.676200535581714" lon="10.372322216412655"><ele>-1.0</ele><time>2026-05-01T14:58:22Z</time></trkpt><trkpt lat="43.67601210932365" lon="10.372244581083626"><ele>-1.0</ele><time>2026-05-01T14:58:23Z</time></trkpt><trkpt lat="43.675812652180205" lon="10.372163630991256"><ele>-1.0</ele><time>2026-05-01T14:58:24Z</time></trkpt><trkpt lat="43.6756146042197" lon="10.372057083115262"><ele>-1.0</ele><time>2026-05-01T14:58:25Z</time></trkpt><trkpt lat="43.67540974866688" lon="10.371970783619028"><ele>-1.0</ele><time>2026-05-01T14:58:26Z</time></trkpt><trkpt lat="43.67521084235348" lon="10.371886990377368"><ele>-1.0</ele><time>2026-05-01T14:58:27Z</time></trkpt><trkpt lat="43.67501100200802" lon="10.371802803592724"><ele>-0.6666666666666666</ele><time>2026-05-01T14:58:28Z</time></trkpt><trkpt lat="43.674812802356186" lon="10.37171930802724"><ele>-0.3333333333333333</ele><time>2026-05-01T14:58:29Z</time></trkpt><trkpt lat="43.674614915091844" lon="10.371636084416972"><ele>0.0</ele><time>2026-05-01T14:58:30Z</time></trkpt><trkpt lat="43.67440909341802" lon="10.371550008167036"><ele>0.0</ele><time>2026-05-01T14:58:31Z</time></trkpt><trkpt lat="43.67421007288766" lon="10.371466776226871"><ele>0.0</ele><time>2026-05-01T14:58:32Z</time></trkpt><trkpt lat="43.67400043225645" lon="10.371379102876949"><ele>0.0</ele><time>2026-05-01T14:58:33Z</time></trkpt><trkpt lat="43.67379740597921" lon="10.371294195653311"><ele>-0.6666666666666666</ele><time>2026-05-01T14:58:34Z</time></trkpt><trkpt lat="43.67358944409635" lon="10.371207224348165"><ele>-1.3333333333333333</ele><time>2026-05-01T14:58:35Z</time></trkpt><trkpt lat="43.673386502799055" lon="10.371122354502685"><ele>-2.0</ele><time>2026-05-01T14:58:36Z</time></trkpt><trkpt lat="43.67317865638463" lon="10.371035553726756"><ele>-2.0</ele><time>2026-05-01T14:58:37Z</time></trkpt><trkpt lat="43.67296698116459" lon="10.370947326671326"><ele>-2.0</ele><time>2026-05-01T14:58:38Z</time></trkpt><trkpt lat="43.67274713758494" lon="10.370854327658058"><ele>-2.6666666666666665</ele><time>2026-05-01T14:58:39Z</time></trkpt><trkpt lat="43.67254592954246" lon="10.370767529682954"><ele>-3.333333333333333</ele><time>2026-05-01T14:58:40Z</time></trkpt><trkpt lat="43.67233164204674" lon="10.37067622829198"><ele>-4.0</ele><time>2026-05-01T14:58:41Z</time></trkpt><trkpt lat="43.67211954846882" lon="10.370587118698579"><ele>-3.6666666666666665</ele><time>2026-05-01T14:58:42Z</time></trkpt><trkpt lat="43.671907692831134" lon="10.370502228172512"><ele>-3.333333333333333</ele><time>2026-05-01T14:58:43Z</time></trkpt><trkpt lat="43.671697736909714" lon="10.37041549153007"><ele>-3.0</ele><time>2026-05-01T14:58:44Z</time></trkpt><trkpt lat="43.67148261986138" lon="10.370323775712327"><ele>-3.0</ele><time>2026-05-01T14:58:45Z</time></trkpt><trkpt lat="43.671275566760656" lon="10.370237506815341"><ele>-3.0</ele><time>2026-05-01T14:58:46Z</time></trkpt><trkpt lat="43.67108083619595" lon="10.370156372146324"><ele>-3.0</ele><time>2026-05-01T14:58:47Z</time></trkpt><trkpt lat="43.67090504656532" lon="10.370082568334041"><ele>-3.0</ele><time>2026-05-01T14:58:48Z</time></trkpt><trkpt lat="43.67074137996245" lon="10.370012884346234"><ele>-3.0</ele><time>2026-05-01T14:58:49Z</time></trkpt><trkpt lat="43.67056347722554" lon="10.369937139081458"><ele>-3.0</ele><time>2026-05-01T14:58:50Z</time></trkpt><trkpt lat="43.670373464622756" lon="10.369856344299896"><ele>-3.0</ele><time>2026-05-01T14:58:51Z</time></trkpt><trkpt lat="43.67018820812473" lon="10.369780257790385"><ele>-3.0</ele><time>2026-05-01T14:58:52Z</time></trkpt><trkpt lat="43.669994086514784" lon="10.369699717338401"><ele>-3.0</ele><time>2026-05-01T14:58:53Z</time></trkpt><trkpt lat="43.66978862351401" lon="10.369612694421804"><ele>-2.6666666666666665</ele><time>2026-05-01T14:58:54Z</time></trkpt><trkpt lat="43.66958309415118" lon="10.369526214886882"><ele>-2.333333333333333</ele><time>2026-05-01T14:58:55Z</time></trkpt><trkpt lat="43.66938160879314" lon="10.36944460275632"><ele>-2.0</ele><time>2026-05-01T14:58:56Z</time></trkpt><trkpt lat="43.66917421030388" lon="10.369358229221737"><ele>-1.6666666666666665</ele><time>2026-05-01T14:58:57Z</time></trkpt><trkpt lat="43.66898107263831" lon="10.369275208673296"><ele>-1.3333333333333333</ele><time>2026-05-01T14:58:58Z</time></trkpt><trkpt lat="43.6688050760562" lon="10.369203321792186"><ele>-1.0</ele><time>2026-05-01T14:58:59Z</time></trkpt><trkpt lat="43.66862819915679" lon="10.369131034400263"><ele>-1.0</ele><time>2026-05-01T14:59:00Z</time></trkpt><trkpt lat="43.66844153626878" lon="10.36905020105764"><ele>-1.0</ele><time>2026-05-01T14:59:01Z</time></trkpt><trkpt lat="43.66825538252416" lon="10.368963874837574"><ele>-1.0</ele><time>2026-05-01T14:59:02Z</time></trkpt><trkpt lat="43.66808926069626" lon="10.368886306722299"><ele>-0.5</ele><time>2026-05-01T14:59:03Z</time></trkpt><trkpt lat="43.6679331724995" lon="10.368814780181834"><ele>0.0</ele><time>2026-05-01T14:59:04Z</time></trkpt><trkpt lat="43.66779122349365" lon="10.368750140889567"><ele>0.5</ele><time>2026-05-01T14:59:05Z</time></trkpt><trkpt lat="43.66767370538313" lon="10.368711086158836"><ele>1.0</ele><time>2026-05-01T14:59:06Z</time></trkpt><trkpt lat="43.667569535973705" lon="10.368649193059449"><ele>3.0</ele><time>2026-05-01T14:59:07Z</time></trkpt><trkpt lat="43.66743264190509" lon="10.36858685685578"><ele>5.0</ele><time>2026-05-01T14:59:08Z</time></trkpt><trkpt lat="43.66726210717639" lon="10.368537777326456"><ele>7.0</ele><time>2026-05-01T14:59:09Z</time></trkpt><trkpt lat="43.66708243815124" lon="10.368452202777686"><ele>6.666666666666667</ele><time>2026-05-01T14:59:10Z</time></trkpt><trkpt lat="43.66688766519426" lon="10.368379351744533"><ele>6.333333333333334</ele><time>2026-05-01T14:59:11Z</time></trkpt><trkpt lat="43.66670544935122" lon="10.368298773470356"><ele>6.0</ele><time>2026-05-01T14:59:12Z</time></trkpt><trkpt lat="43.66653282941127" lon="10.368224035981246"><ele>6.0</ele><time>2026-05-01T14:59:13Z</time></trkpt><trkpt lat="43.66636368588455" lon="10.368154059296975"><ele>6.0</ele><time>2026-05-01T14:59:14Z</time></trkpt><trkpt lat="43.66621305888048" lon="10.368092032552008"><ele>6.0</ele><time>2026-05-01T14:59:15Z</time></trkpt><trkpt lat="43.66606898106205" lon="10.368027825081855"><ele>7.75</ele><time>2026-05-01T14:59:16Z</time></trkpt><trkpt lat="43.66594353341169" lon="10.367969583657672"><ele>9.5</ele><time>2026-05-01T14:59:17Z</time></trkpt><trkpt lat="43.66580895091399" lon="10.367911721814723"><ele>11.25</ele><time>2026-05-01T14:59:18Z</time></trkpt><trkpt lat="43.665678240557" lon="10.367856073921883"><ele>13.0</ele><time>2026-05-01T14:59:19Z</time></trkpt><trkpt lat="43.665553233047255" lon="10.367802356557219"><ele>13.0</ele><time>2026-05-01T14:59:20Z</time></trkpt><trkpt lat="43.665421448793595" lon="10.367741036370708"><ele>13.0</ele><time>2026-05-01T14:59:21Z</time></trkpt><trkpt lat="43.66528942631997" lon="10.36769175245832"><ele>13.0</ele><time>2026-05-01T14:59:22Z</time></trkpt><trkpt lat="43.66516081985753" lon="10.367638823036453"><ele>13.0</ele><time>2026-05-01T14:59:23Z</time></trkpt><trkpt lat="43.66503469449766" lon="10.367582244526696"><ele>12.200000000000001</ele><time>2026-05-01T14:59:24Z</time></trkpt><trkpt lat="43.664918404699705" lon="10.3675303958485"><ele>11.4</ele><time>2026-05-01T14:59:25Z</time></trkpt><trkpt lat="43.66480930680009" lon="10.367483678914477"><ele>10.600000000000001</ele><time>2026-05-01T14:59:26Z</time></trkpt><trkpt lat="43.6647035216341" lon="10.36744811781773"><ele>9.8</ele><time>2026-05-01T14:59:27Z</time></trkpt><trkpt lat="43.66460515704385" lon="10.36741019285319"><ele>9.0</ele><time>2026-05-01T14:59:28.001Z</time></trkpt><trkpt lat="43.66451335768409" lon="10.367362556500053"><ele>9.166666666666666</ele><time>2026-05-01T14:59:29.001Z</time></trkpt><trkpt lat="43.66442866808219" lon="10.367316612435562"><ele>9.333333333333334</ele><time>2026-05-01T14:59:30.001Z</time></trkpt><trkpt lat="43.66435221800851" lon="10.367277347922146"><ele>9.5</ele><time>2026-05-01T14:59:31.001Z</time></trkpt><trkpt lat="43.66426720711668" lon="10.36723362332849"><ele>9.666666666666668</ele><time>2026-05-01T14:59:32.001Z</time></trkpt><trkpt lat="43.66419606630213" lon="10.36720097500764"><ele>9.833333333333334</ele><time>2026-05-01T14:59:33.001Z</time></trkpt><trkpt lat="43.66411516263488" lon="10.367159781021405"><ele>10.0</ele><time>2026-05-01T14:59:34.001Z</time></trkpt><trkpt lat="43.66401028140325" lon="10.367114537910263"><ele>10.0</ele><time>2026-05-01T14:59:35.001Z</time></trkpt><trkpt lat="43.663911359401" lon="10.367063584429806"><ele>10.0</ele><time>2026-05-01T14:59:36.001Z</time></trkpt><trkpt lat="43.6638006382825" lon="10.367005563701907"><ele>10.0</ele><time>2026-05-01T14:59:37.001Z</time></trkpt><trkpt lat="43.66368521034741" lon="10.366943089902632"><ele>10.0</ele><time>2026-05-01T14:59:38.001Z</time></trkpt><trkpt lat="43.66355977867645" lon="10.36689342814738"><ele>8.5</ele><time>2026-05-01T14:59:39.001Z</time></trkpt><trkpt lat="43.66343248971382" lon="10.366823949801804"><ele>7.0</ele><time>2026-05-01T14:59:40.001Z</time></trkpt><trkpt lat="43.663317836805014" lon="10.366761229752575"><ele>5.5</ele><time>2026-05-01T14:59:41.001Z</time></trkpt><trkpt lat="43.66319774886322" lon="10.366699579887873"><ele>4.0</ele><time>2026-05-01T14:59:42.001Z</time></trkpt><trkpt lat="43.66307812606528" lon="10.366634990761664"><ele>4.0</ele><time>2026-05-01T14:59:43.001Z</time></trkpt><trkpt lat="43.66295696477934" lon="10.36656887980895"><ele>4.0</ele><time>2026-05-01T14:59:44.001Z</time></trkpt><trkpt lat="43.662852948896386" lon="10.366509043775409"><ele>4.0</ele><time>2026-05-01T14:59:45.001Z</time></trkpt><trkpt lat="43.66275193664938" lon="10.366471686454322"><ele>4.0</ele><time>2026-05-01T14:59:46.001Z</time></trkpt><trkpt lat="43.66265692514391" lon="10.366428414491407"><ele>4.0</ele><time>2026-05-01T14:59:47.001Z</time></trkpt><trkpt lat="43.66258681727765" lon="10.366376736540968"><ele>3.8000000000000003</ele><time>2026-05-01T14:59:48.001Z</time></trkpt><trkpt lat="43.662493933040366" lon="10.366291981004096"><ele>3.6000000000000005</ele><time>2026-05-01T14:59:50.001Z</time></trkpt><trkpt lat="43.66239234992522" lon="10.366237483620589"><ele>3.4</ele><time>2026-05-01T14:59:52.001Z</time></trkpt><trkpt lat="43.662304799578685" lon="10.366201647934128"><ele>3.2</ele><time>2026-05-01T14:59:54.001Z</time></trkpt><trkpt lat="43.662240975744716" lon="10.366175256251774"><ele>3.0</ele><time>2026-05-01T14:59:57.001Z</time></trkpt><trkpt lat="43.66215711313968" lon="10.366136824698868"><ele>3.0</ele><time>2026-05-01T15:00:02Z</time></trkpt><trkpt lat="43.662074023628776" lon="10.36607449034247"><ele>3.0</ele><time>2026-05-01T15:00:39Z</time></trkpt><trkpt lat="43.66200926484857" lon="10.36603953846995"><ele>3.0</ele><time>2026-05-01T15:00:40Z</time></trkpt><trkpt lat="43.6619219946585" lon="10.365954322611145"><ele>3.0</ele><time>2026-05-01T15:00:41Z</time></trkpt><trkpt lat="43.66178499989583" lon="10.365877323927938"><ele>3.0</ele><time>2026-05-01T15:00:42Z</time></trkpt><trkpt lat="43.66167779482269" lon="10.365816752555828"><ele>2.5</ele><time>2026-05-01T15:00:43Z</time></trkpt><trkpt lat="43.661548435053916" lon="10.365743663732461"><ele>2.0</ele><time>2026-05-01T15:00:44Z</time></trkpt><trkpt lat="43.66141230208646" lon="10.36566674800855"><ele>1.5</ele><time>2026-05-01T15:00:45Z</time></trkpt><trkpt lat="43.66127050961502" lon="10.365586634642886"><ele>1.0</ele><time>2026-05-01T15:00:46Z</time></trkpt><trkpt lat="43.661128381017086" lon="10.365506331325108"><ele>0.25</ele><time>2026-05-01T15:00:47Z</time></trkpt><trkpt lat="43.66099323216468" lon="10.365429971629386"><ele>-0.5</ele><time>2026-05-01T15:00:48Z</time></trkpt><trkpt lat="43.660865616915835" lon="10.36535786848305"><ele>-1.25</ele><time>2026-05-01T15:00:49Z</time></trkpt><trkpt lat="43.66074629177665" lon="10.365289655986226"><ele>-2.0</ele><time>2026-05-01T15:00:50Z</time></trkpt><trkpt lat="43.66063251830791" lon="10.365224103817095"><ele>-2.0</ele><time>2026-05-01T15:00:51Z</time></trkpt><trkpt lat="43.66051935302729" lon="10.365158902022536"><ele>-2.0</ele><time>2026-05-01T15:00:52Z</time></trkpt><trkpt lat="43.660400854525506" lon="10.365090627448598"><ele>-2.0</ele><time>2026-05-01T15:00:53Z</time></trkpt><trkpt lat="43.660274421735814" lon="10.36501778140271"><ele>-2.0</ele><time>2026-05-01T15:00:54Z</time></trkpt><trkpt lat="43.66014496771597" lon="10.364943194618975"><ele>-1.75</ele><time>2026-05-01T15:00:55Z</time></trkpt><trkpt lat="43.660010713517075" lon="10.364865842163018"><ele>-1.5</ele><time>2026-05-01T15:00:56Z</time></trkpt><trkpt lat="43.659879529796406" lon="10.36479082635598"><ele>-1.25</ele><time>2026-05-01T15:00:57Z</time></trkpt><trkpt lat="43.65974663203663" lon="10.364738731185607"><ele>-1.0</ele><time>2026-05-01T15:00:58Z</time></trkpt><trkpt lat="43.65962442314386" lon="10.364646685069077"><ele>-1.25</ele><time>2026-05-01T15:00:59Z</time></trkpt><trkpt lat="43.65948887782934" lon="10.364593924529995"><ele>-1.5</ele><time>2026-05-01T15:01:00Z</time></trkpt><trkpt lat="43.65936186965595" lon="10.364500448640769"><ele>-1.75</ele><time>2026-05-01T15:01:01Z</time></trkpt><trkpt lat="43.65922414781298" lon="10.36442439806585"><ele>-2.0</ele><time>2026-05-01T15:01:02Z</time></trkpt><trkpt lat="43.65908430327126" lon="10.364347175323138"><ele>-2.0</ele><time>2026-05-01T15:01:03Z</time></trkpt><trkpt lat="43.65894338084758" lon="10.364268883288638"><ele>-2.0</ele><time>2026-05-01T15:01:04Z</time></trkpt><trkpt lat="43.658805206356554" lon="10.364191591054475"><ele>-2.0</ele><time>2026-05-01T15:01:05Z</time></trkpt><trkpt lat="43.65866804156038" lon="10.364114863572413"><ele>-2.0</ele><time>2026-05-01T15:01:06Z</time></trkpt><trkpt lat="43.65854443863945" lon="10.36404499778042"><ele>-2.0</ele><time>2026-05-01T15:01:07Z</time></trkpt><trkpt lat="43.65842378476008" lon="10.36397521855067"><ele>-2.0</ele><time>2026-05-01T15:01:08Z</time></trkpt><trkpt lat="43.65829426517322" lon="10.363898986398347"><ele>-2.0</ele><time>2026-05-01T15:01:09Z</time></trkpt><trkpt lat="43.65816128933343" lon="10.363819873642775"><ele>-2.0</ele><time>2026-05-01T15:01:10Z</time></trkpt><trkpt lat="43.65802881996818" lon="10.363741230127815"><ele>-2.0</ele><time>2026-05-01T15:01:11Z</time></trkpt><trkpt lat="43.65789525612826" lon="10.363662660986265"><ele>-2.0</ele><time>2026-05-01T15:01:12Z</time></trkpt><trkpt lat="43.657753615555" lon="10.363581549193473"><ele>-2.0</ele><time>2026-05-01T15:01:13Z</time></trkpt><trkpt lat="43.65760845087516" lon="10.363499755773171"><ele>-1.3333333333333333</ele><time>2026-05-01T15:01:14Z</time></trkpt><trkpt lat="43.65745794472733" lon="10.363418976046301"><ele>-0.6666666666666666</ele><time>2026-05-01T15:01:15Z</time></trkpt><trkpt lat="43.65730791577158" lon="10.363338799353071"><ele>0.0</ele><time>2026-05-01T15:01:16Z</time></trkpt><trkpt lat="43.6571724452485" lon="10.363267642509566"><ele>0.0</ele><time>2026-05-01T15:01:17Z</time></trkpt><trkpt lat="43.657032405928156" lon="10.36319408582962"><ele>0.0</ele><time>2026-05-01T15:01:18Z</time></trkpt><trkpt lat="43.65688425043666" lon="10.363116266050872"><ele>0.0</ele><time>2026-05-01T15:01:19Z</time></trkpt><trkpt lat="43.65673447996053" lon="10.363037597969486"><ele>0.5</ele><time>2026-05-01T15:01:20Z</time></trkpt><trkpt lat="43.65659789130114" lon="10.362965853774881"><ele>1.0</ele><time>2026-05-01T15:01:21Z</time></trkpt><trkpt lat="43.65647753304644" lon="10.362902634706192"><ele>1.5</ele><time>2026-05-01T15:01:22Z</time></trkpt><trkpt lat="43.65637182728215" lon="10.362847111949426"><ele>2.0</ele><time>2026-05-01T15:01:23Z</time></trkpt><trkpt lat="43.65625493232226" lon="10.362803123876779"><ele>1.0</ele><time>2026-05-01T15:01:24Z</time></trkpt><trkpt lat="43.656111304479836" lon="10.362710270412194"><ele>0.0</ele><time>2026-05-01T15:01:25Z</time></trkpt><trkpt lat="43.65596130798892" lon="10.362629025035593"><ele>-1.0</ele><time>2026-05-01T15:01:26Z</time></trkpt><trkpt lat="43.65583024280256" lon="10.362577402081001"><ele>-1.0</ele><time>2026-05-01T15:01:27Z</time></trkpt><trkpt lat="43.6557162031544" lon="10.362495262118756"><ele>-1.0</ele><time>2026-05-01T15:01:28Z</time></trkpt><trkpt lat="43.65560879385958" lon="10.36243539684436"><ele>-1.0</ele><time>2026-05-01T15:01:29Z</time></trkpt><trkpt lat="43.65550867286756" lon="10.362379298525925"><ele>-1.0</ele><time>2026-05-01T15:01:30Z</time></trkpt><trkpt lat="43.6554136712554" lon="10.362325076073262"><ele>-1.0</ele><time>2026-05-01T15:01:31Z</time></trkpt><trkpt lat="43.65530375652601" lon="10.362286605169137"><ele>-1.0</ele><time>2026-05-01T15:01:32Z</time></trkpt><trkpt lat="43.65518913429358" lon="10.36219685604172"><ele>-1.0</ele><time>2026-05-01T15:01:33Z</time></trkpt><trkpt lat="43.65506536473411" lon="10.362125884624165"><ele>-1.0</ele><time>2026-05-01T15:01:34.001Z</time></trkpt><trkpt lat="43.65493618813689" lon="10.362051521533596"><ele>-1.25</ele><time>2026-05-01T15:01:35.001Z</time></trkpt><trkpt lat="43.65482503721982" lon="10.361987397090486"><ele>-1.5</ele><time>2026-05-01T15:01:36.001Z</time></trkpt><trkpt lat="43.65472145861019" lon="10.3619276411804"><ele>-1.75</ele><time>2026-05-01T15:01:37.001Z</time></trkpt><trkpt lat="43.654614349342424" lon="10.361865848357906"><ele>-2.0</ele><time>2026-05-01T15:01:38.001Z</time></trkpt><trkpt lat="43.654513181833444" lon="10.361808957579365"><ele>-2.25</ele><time>2026-05-01T15:01:39.001Z</time></trkpt><trkpt lat="43.65440772635951" lon="10.361749760824452"><ele>-2.5</ele><time>2026-05-01T15:01:40.001Z</time></trkpt><trkpt lat="43.65429741885274" lon="10.361687840413108"><ele>-2.75</ele><time>2026-05-01T15:01:41.001Z</time></trkpt><trkpt lat="43.65418091440448" lon="10.361623721322086"><ele>-3.0</ele><time>2026-05-01T15:01:42.001Z</time></trkpt><trkpt lat="43.65406421850359" lon="10.36156019345913"><ele>-3.0</ele><time>2026-05-01T15:01:43.001Z</time></trkpt><trkpt lat="43.65394068043053" lon="10.361517376523578"><ele>-3.0</ele><time>2026-05-01T15:01:44.001Z</time></trkpt><trkpt lat="43.65383358701623" lon="10.361450573656377"><ele>-3.0</ele><time>2026-05-01T15:01:45.001Z</time></trkpt><trkpt lat="43.653735215739935" lon="10.361401335374596"><ele>-3.0</ele><time>2026-05-01T15:01:46.001Z</time></trkpt><trkpt lat="43.65363500788196" lon="10.361346257107234"><ele>-2.75</ele><time>2026-05-01T15:01:47.001Z</time></trkpt><trkpt lat="43.65352949359303" lon="10.361291087196037"><ele>-2.5</ele><time>2026-05-01T15:01:48.001Z</time></trkpt><trkpt lat="43.65342775288072" lon="10.36123805193574"><ele>-2.25</ele><time>2026-05-01T15:01:49.001Z</time></trkpt><trkpt lat="43.65331976928049" lon="10.361184303659753"><ele>-2.0</ele><time>2026-05-01T15:01:50.001Z</time></trkpt><trkpt lat="43.65320793226438" lon="10.361120427599921"><ele>-2.0</ele><time>2026-05-01T15:01:51.001Z</time></trkpt><trkpt lat="43.6530930711916" lon="10.361057946100312"><ele>-2.0</ele><time>2026-05-01T15:01:52.001Z</time></trkpt><trkpt lat="43.65298102969534" lon="10.360993073359381"><ele>-2.0</ele><time>2026-05-01T15:01:53Z</time></trkpt><trkpt lat="43.6528711173537" lon="10.360916566206871"><ele>-2.0</ele><time>2026-05-01T15:01:54Z</time></trkpt><trkpt lat="43.65275247640596" lon="10.360869422464624"><ele>-2.25</ele><time>2026-05-01T15:01:55Z</time></trkpt><trkpt lat="43.65263650302315" lon="10.360806394571657"><ele>-2.5</ele><time>2026-05-01T15:01:56Z</time></trkpt><trkpt lat="43.652528632531705" lon="10.360725829018762"><ele>-2.75</ele><time>2026-05-01T15:01:57Z</time></trkpt><trkpt lat="43.65240983955459" lon="10.360659428648269"><ele>-3.0</ele><time>2026-05-01T15:01:58Z</time></trkpt><trkpt lat="43.65228805322587" lon="10.36059135524006"><ele>-3.0</ele><time>2026-05-01T15:01:59Z</time></trkpt><trkpt lat="43.65217141312102" lon="10.360550441833597"><ele>-3.0</ele><time>2026-05-01T15:02:00Z</time></trkpt><trkpt lat="43.65205257943585" lon="10.360483955095475"><ele>-3.0</ele><time>2026-05-01T15:02:01Z</time></trkpt><trkpt lat="43.6519387480917" lon="10.36039627446797"><ele>-3.0</ele><time>2026-05-01T15:02:02Z</time></trkpt><trkpt lat="43.65181592314038" lon="10.360328095060089"><ele>-3.5</ele><time>2026-05-01T15:02:03Z</time></trkpt><trkpt lat="43.65168576253646" lon="10.360255843706545"><ele>-4.0</ele><time>2026-05-01T15:02:04Z</time></trkpt><trkpt lat="43.65155991220805" lon="10.360185984973496"><ele>-4.5</ele><time>2026-05-01T15:02:05Z</time></trkpt><trkpt lat="43.65142705892373" lon="10.360112238899093"><ele>-5.0</ele><time>2026-05-01T15:02:06Z</time></trkpt><trkpt lat="43.65129421131947" lon="10.360063387875677"><ele>-5.0</ele><time>2026-05-01T15:02:07Z</time></trkpt><trkpt lat="43.65116450247259" lon="10.359991194129087"><ele>-5.0</ele><time>2026-05-01T15:02:08Z</time></trkpt><trkpt lat="43.65103827226703" lon="10.359920559752549"><ele>-5.0</ele><time>2026-05-01T15:02:09Z</time></trkpt><trkpt lat="43.65091091356739" lon="10.359846940316586"><ele>-5.0</ele><time>2026-05-01T15:02:10Z</time></trkpt><trkpt lat="43.650790764533994" lon="10.35976175667532"><ele>-4.5</ele><time>2026-05-01T15:02:11Z</time></trkpt><trkpt lat="43.65067639394541" lon="10.359697950819283"><ele>-4.0</ele><time>2026-05-01T15:02:12Z</time></trkpt><trkpt lat="43.65057202814831" lon="10.359639060453857"><ele>-3.5</ele><time>2026-05-01T15:02:13Z</time></trkpt><trkpt lat="43.65046372165871" lon="10.35957743080078"><ele>-3.0</ele><time>2026-05-01T15:02:14Z</time></trkpt><trkpt lat="43.65035011476333" lon="10.359512261443518"><ele>-2.8</ele><time>2026-05-01T15:02:15Z</time></trkpt><trkpt lat="43.650248233835285" lon="10.359453496386584"><ele>-2.5999999999999996</ele><time>2026-05-01T15:02:16Z</time></trkpt><trkpt lat="43.6501505640732" lon="10.35939716030293"><ele>-2.4000000000000004</ele><time>2026-05-01T15:02:17Z</time></trkpt><trkpt lat="43.65006227981748" lon="10.35934629635458"><ele>-2.2</ele><time>2026-05-01T15:02:18Z</time></trkpt><trkpt lat="43.64996505077004" lon="10.359290361113189"><ele>-2.0</ele><time>2026-05-01T15:02:19Z</time></trkpt><trkpt lat="43.649856742299455" lon="10.359228051902262"><ele>-2.0</ele><time>2026-05-01T15:02:20Z</time></trkpt><trkpt lat="43.64975421741654" lon="10.359169069951628"><ele>-2.0</ele><time>2026-05-01T15:02:21Z</time></trkpt><trkpt lat="43.649650721198405" lon="10.359111166730171"><ele>-2.0</ele><time>2026-05-01T15:02:22Z</time></trkpt><trkpt lat="43.64954033230834" lon="10.359049802230457"><ele>-2.0</ele><time>2026-05-01T15:02:23Z</time></trkpt><trkpt lat="43.64941808943517" lon="10.359003607623668"><ele>-2.0</ele><time>2026-05-01T15:02:24Z</time></trkpt><trkpt lat="43.64929763783456" lon="10.35894117249139"><ele>-2.0</ele><time>2026-05-01T15:02:25Z</time></trkpt><trkpt lat="43.64917177054214" lon="10.35887311685787"><ele>-2.0</ele><time>2026-05-01T15:02:26Z</time></trkpt><trkpt lat="43.64905133227976" lon="10.358806217057179"><ele>-2.0</ele><time>2026-05-01T15:02:27Z</time></trkpt><trkpt lat="43.6489209429798" lon="10.358737436431818"><ele>-2.0</ele><time>2026-05-01T15:02:28Z</time></trkpt><trkpt lat="43.64879284048886" lon="10.358672682536517"><ele>-2.0</ele><time>2026-05-01T15:02:29Z</time></trkpt><trkpt lat="43.648668478850134" lon="10.358605062668284"><ele>-2.0</ele><time>2026-05-01T15:02:30Z</time></trkpt><trkpt lat="43.64854721776846" lon="10.358539149510715"><ele>-2.0</ele><time>2026-05-01T15:02:31Z</time></trkpt><trkpt lat="43.648440545882416" lon="10.358476251954928"><ele>-1.6</ele><time>2026-05-01T15:02:32Z</time></trkpt><trkpt lat="43.64834191049101" lon="10.358426549567657"><ele>-1.2000000000000002</ele><time>2026-05-01T15:02:33Z</time></trkpt><trkpt lat="43.648258607434606" lon="10.358375454891563"><ele>-0.8</ele><time>2026-05-01T15:02:34Z</time></trkpt><trkpt lat="43.64817116337863" lon="10.358326114411206"><ele>-0.4</ele><time>2026-05-01T15:02:35Z</time></trkpt><trkpt lat="43.64809165918101" lon="10.358278999897534"><ele>0.0</ele><time>2026-05-01T15:02:36Z</time></trkpt><trkpt lat="43.6480142979607" lon="10.35823590376201"><ele>0.0</ele><time>2026-05-01T15:02:37Z</time></trkpt><trkpt lat="43.647939697004965" lon="10.358169949841045"><ele>0.0</ele><time>2026-05-01T15:02:38Z</time></trkpt><trkpt lat="43.64786786544194" lon="10.358126536625344"><ele>0.0</ele><time>2026-05-01T15:02:39Z</time></trkpt><trkpt lat="43.647783900729316" lon="10.358075790529023"><ele>0.0</ele><time>2026-05-01T15:02:41Z</time></trkpt><trkpt lat="43.64771132228435" lon="10.358053433201919"><ele>0.0</ele><time>2026-05-01T15:02:43Z</time></trkpt><trkpt lat="43.647630221436565" lon="10.357980048019181"><ele>0.0</ele><time>2026-05-01T15:02:45Z</time></trkpt><trkpt lat="43.64756103727454" lon="10.357936222268464"><ele>0.8333333333333334</ele><time>2026-05-01T15:02:47Z</time></trkpt><trkpt lat="43.64747511881" lon="10.357891513556496"><ele>1.6666666666666667</ele><time>2026-05-01T15:02:50Z</time></trkpt><trkpt lat="43.64740152524591" lon="10.357848674544984"><ele>2.5</ele><time>2026-05-01T15:02:53Z</time></trkpt><trkpt lat="43.64733703571848" lon="10.357791694856639"><ele>3.3333333333333335</ele><time>2026-05-01T15:02:55Z</time></trkpt><trkpt lat="43.647273817801015" lon="10.357755317693622"><ele>4.166666666666667</ele><time>2026-05-01T15:02:57Z</time></trkpt><trkpt lat="43.64718848488183" lon="10.357718547503854"><ele>5.0</ele><time>2026-05-01T15:02:59Z</time></trkpt><trkpt lat="43.64720887865466" lon="10.357554914516381"><ele>5.0</ele><time>2026-05-01T15:03:01Z</time></trkpt><trkpt lat="43.64720684659201" lon="10.357413061242948"><ele>5.0</ele><time>2026-05-01T15:03:02Z</time></trkpt><trkpt lat="43.64720522620632" lon="10.357299945729153"><ele>5.0</ele><time>2026-05-01T15:03:03Z</time></trkpt><trkpt lat="43.64720392686921" lon="10.357209241924497"><ele>5.0</ele><time>2026-05-01T15:03:04Z</time></trkpt><trkpt lat="43.64718696383338" lon="10.35710361650498"><ele>5.0</ele><time>2026-05-01T15:03:05Z</time></trkpt><trkpt lat="43.64718383583815" lon="10.356990268167024"><ele>5.0</ele><time>2026-05-01T15:03:06Z</time></trkpt><trkpt lat="43.64719088438489" lon="10.356894144061611"><ele>4.8</ele><time>2026-05-01T15:03:07Z</time></trkpt><trkpt lat="43.647182440514804" lon="10.356752074549949"><ele>4.6</ele><time>2026-05-01T15:03:09Z</time></trkpt><trkpt lat="43.647174042737646" lon="10.356610780143805"><ele>4.4</ele><time>2026-05-01T15:03:11Z</time></trkpt><trkpt lat="43.64715081177084" lon="10.356500454657144"><ele>4.2</ele><time>2026-05-01T15:03:14Z</time></trkpt><trkpt lat="43.647165193032556" lon="10.356398375389375"><ele>4.0</ele><time>2026-05-01T15:03:18Z</time></trkpt><trkpt lat="43.64713456752548" lon="10.356530382615063"><ele>3.9999999999999996</ele><time>2026-05-01T15:03:25.999Z</time></trkpt><trkpt lat="43.6471495310124" lon="10.356685127075632"><ele>4.0</ele><time>2026-05-01T15:03:27.999Z</time></trkpt><trkpt lat="43.64715582317699" lon="10.356805698111645"><ele>4.0</ele><time>2026-05-01T15:03:29.999Z</time></trkpt><trkpt lat="43.647166393177585" lon="10.356915815969256"><ele>4.0</ele><time>2026-05-01T15:03:31.999Z</time></trkpt><trkpt lat="43.6471738318072" lon="10.357009514594031"><ele>3.9999999999999996</ele><time>2026-05-01T15:03:33.999Z</time></trkpt><trkpt lat="43.64718742608303" lon="10.357100982610673"><ele>4.0</ele><time>2026-05-01T15:03:35.999Z</time></trkpt><trkpt lat="43.64719000357954" lon="10.357211681089403"><ele>4.166666666666666</ele><time>2026-05-01T15:03:40Z</time></trkpt><trkpt lat="43.64719053757993" lon="10.35732960869845"><ele>4.333333333333333</ele><time>2026-05-01T15:03:43Z</time></trkpt><trkpt lat="43.64717347544583" lon="10.357454932708203"><ele>4.5</ele><time>2026-05-01T15:03:45Z</time></trkpt><trkpt lat="43.64716615706438" lon="10.357593936210304"><ele>4.666666666666667</ele><time>2026-05-01T15:03:47Z</time></trkpt><trkpt lat="43.64715822242835" lon="10.35770426993064"><ele>4.833333333333334</ele><time>2026-05-01T15:03:49Z</time></trkpt><trkpt lat="43.64709658998801" lon="10.357757431683831"><ele>5.0</ele><time>2026-05-01T15:04:14Z</time></trkpt><trkpt lat="43.647141466894716" lon="10.357679452876539"><ele>5.0</ele><time>2026-05-01T15:04:29Z</time></trkpt><trkpt lat="43.64716340363616" lon="10.357593590911282"><ele>5.0</ele><time>2026-05-01T15:04:31Z</time></trkpt><trkpt lat="43.647163191817846" lon="10.357457481925907"><ele>5.0</ele><time>2026-05-01T15:04:33Z</time></trkpt><trkpt lat="43.64716329088178" lon="10.357360753789866"><ele>5.0</ele><time>2026-05-01T15:04:34Z</time></trkpt><trkpt lat="43.64715988746678" lon="10.357267892749826"><ele>5.0</ele><time>2026-05-01T15:04:35Z</time></trkpt><trkpt lat="43.64716800558879" lon="10.357122218284466"><ele>5.0</ele><time>2026-05-01T15:04:37Z</time></trkpt><trkpt lat="43.64716199126484" lon="10.356941273899556"><ele>4.833333333333334</ele><time>2026-05-01T15:04:39Z</time></trkpt><trkpt lat="43.647148469485785" lon="10.356846540095296"><ele>4.666666666666667</ele><time>2026-05-01T15:04:40Z</time></trkpt><trkpt lat="43.64713449636533" lon="10.356746701302368"><ele>4.5</ele><time>2026-05-01T15:04:41Z</time></trkpt><trkpt lat="43.647114954669526" lon="10.356584078557718"><ele>4.333333333333333</ele><time>2026-05-01T15:04:43Z</time></trkpt><trkpt lat="43.64711719615123" lon="10.356491781142072"><ele>4.166666666666666</ele><time>2026-05-01T15:04:44Z</time></trkpt><trkpt lat="43.647116734438505" lon="10.356381245447716"><ele>4.0</ele><time>2026-05-01T15:04:45Z</time></trkpt><trkpt lat="43.64710999951466" lon="10.3562603167623"><ele>3.2</ele><time>2026-05-01T15:04:46Z</time></trkpt><trkpt lat="43.64710572906401" lon="10.356144561725733"><ele>2.4000000000000004</ele><time>2026-05-01T15:04:47Z</time></trkpt><trkpt lat="43.64709080704513" lon="10.35603631008155"><ele>1.6</ele><time>2026-05-01T15:04:48Z</time></trkpt><trkpt lat="43.64707933329479" lon="10.355903034928764"><ele>0.8</ele><time>2026-05-01T15:04:49Z</time></trkpt><trkpt lat="43.64706972057122" lon="10.35576799828815"><ele>0.0</ele><time>2026-05-01T15:04:50Z</time></trkpt><trkpt lat="43.64704888126178" lon="10.355627191244668"><ele>-0.3333333333333333</ele><time>2026-05-01T15:04:51Z</time></trkpt><trkpt lat="43.6470446566947" lon="10.35547436915373"><ele>-0.6666666666666666</ele><time>2026-05-01T15:04:52Z</time></trkpt><trkpt lat="43.64702410478602" lon="10.355266630646756"><ele>-1.0</ele><time>2026-05-01T15:04:53Z</time></trkpt><trkpt lat="43.64700615400279" lon="10.355005351371256"><ele>-1.0</ele><time>2026-05-01T15:04:54Z</time></trkpt><trkpt lat="43.64699526544824" lon="10.354795920370204"><ele>-1.0</ele><time>2026-05-01T15:04:55Z</time></trkpt><trkpt lat="43.64700012216522" lon="10.354631109649969"><ele>-1.0</ele><time>2026-05-01T15:04:56Z</time></trkpt><trkpt lat="43.646992420873296" lon="10.354483657617601"><ele>-1.0</ele><time>2026-05-01T15:04:57Z</time></trkpt><trkpt lat="43.64698522492466" lon="10.354356953779256"><ele>-0.9999999999999999</ele><time>2026-05-01T15:04:58Z</time></trkpt><trkpt lat="43.646978003209256" lon="10.354229796204045"><ele>-1.0</ele><time>2026-05-01T15:04:59Z</time></trkpt><trkpt lat="43.64696976023587" lon="10.354084656694543"><ele>-1.0</ele><time>2026-05-01T15:05:00Z</time></trkpt><trkpt lat="43.64696335193493" lon="10.353971821435636"><ele>-1.0</ele><time>2026-05-01T15:05:01Z</time></trkpt><trkpt lat="43.64695734311865" lon="10.353872879314029"><ele>-0.9999999999999999</ele><time>2026-05-01T15:05:02Z</time></trkpt><trkpt lat="43.646951399205335" lon="10.353779387374649"><ele>-1.0</ele><time>2026-05-01T15:05:03Z</time></trkpt><trkpt lat="43.64694428218646" lon="10.353667444242895"><ele>-0.6000000000000001</ele><time>2026-05-01T15:05:03.999Z</time></trkpt><trkpt lat="43.646923192829036" lon="10.353554956200329"><ele>-0.20000000000000007</ele><time>2026-05-01T15:05:04.999Z</time></trkpt><trkpt lat="43.64692172682695" lon="10.353425493611809"><ele>0.20000000000000007</ele><time>2026-05-01T15:05:05.999Z</time></trkpt><trkpt lat="43.64690997315934" lon="10.353302620934272"><ele>0.6000000000000001</ele><time>2026-05-01T15:05:06.999Z</time></trkpt><trkpt lat="43.64690060117988" lon="10.353202352662835"><ele>1.0</ele><time>2026-05-01T15:05:07.999Z</time></trkpt><trkpt lat="43.646888426462766" lon="10.353051585350935"><ele>0.9999999999999999</ele><time>2026-05-01T15:05:09.999Z</time></trkpt><trkpt lat="43.64688109689107" lon="10.352936006294474"><ele>1.0</ele><time>2026-05-01T15:05:11.999Z</time></trkpt><trkpt lat="43.64688383327544" lon="10.352838655415715"><ele>1.0</ele><time>2026-05-01T15:05:15.999Z</time></trkpt><trkpt lat="43.646992651648766" lon="10.352787732472777"><ele>1.0</ele><time>2026-05-01T15:05:17.999Z</time></trkpt><trkpt lat="43.64705745044486" lon="10.352816402829836"><ele>0.9999999999999999</ele><time>2026-05-01T15:05:19.999Z</time></trkpt><trkpt lat="43.64713344512517" lon="10.352788023486092"><ele>1.0</ele><time>2026-05-01T15:05:22.999Z</time></trkpt><trkpt lat="43.64725898909267" lon="10.352771071364774"><ele>1.0</ele><time>2026-05-01T15:05:24.999Z</time></trkpt><trkpt lat="43.64735374037799" lon="10.352765583176382"><ele>1.0</ele><time>2026-05-01T15:05:25.999Z</time></trkpt><trkpt lat="43.64745190166269" lon="10.352751166904046"><ele>1.0</ele><time>2026-05-01T15:05:26.999Z</time></trkpt><trkpt lat="43.647561190092894" lon="10.352732435607114"><ele>1.0</ele><time>2026-05-01T15:05:27.999Z</time></trkpt><trkpt lat="43.64768436010762" lon="10.352706060424186"><ele>1.0</ele><time>2026-05-01T15:05:28.999Z</time></trkpt><trkpt lat="43.64781899143692" lon="10.35268033535688"><ele>1.0</ele><time>2026-05-01T15:05:29.999Z</time></trkpt><trkpt lat="43.6479585741086" lon="10.35266104887636"><ele>1.0</ele><time>2026-05-01T15:05:30.999Z</time></trkpt><trkpt lat="43.64810269482432" lon="10.352630736777403"><ele>1.0</ele><time>2026-05-01T15:05:31.999Z</time></trkpt><trkpt lat="43.6482416964718" lon="10.352616906701469"><ele>1.0</ele><time>2026-05-01T15:05:32.999Z</time></trkpt><trkpt lat="43.648386070190575" lon="10.35261309300815"><ele>1.0</ele><time>2026-05-01T15:05:33.999Z</time></trkpt><trkpt lat="43.64852395554943" lon="10.352585675838979"><ele>1.0</ele><time>2026-05-01T15:05:34.999Z</time></trkpt><trkpt lat="43.64866150795743" lon="10.35256082023221"><ele>1.0</ele><time>2026-05-01T15:05:35.999Z</time></trkpt><trkpt lat="43.64879722080965" lon="10.35253086731609"><ele>1.0</ele><time>2026-05-01T15:05:36.999Z</time></trkpt><trkpt lat="43.648934148150325" lon="10.352505872300624"><ele>1.0</ele><time>2026-05-01T15:05:37.999Z</time></trkpt><trkpt lat="43.64907142477816" lon="10.352488672835198"><ele>1.0</ele><time>2026-05-01T15:05:38.999Z</time></trkpt><trkpt lat="43.64920568298684" lon="10.352476448820978"><ele>1.0</ele><time>2026-05-01T15:05:39.999Z</time></trkpt><trkpt lat="43.64934428691648" lon="10.352455049289617"><ele>1.0</ele><time>2026-05-01T15:05:40.999Z</time></trkpt><trkpt lat="43.64948314607304" lon="10.352432375543405"><ele>1.0</ele><time>2026-05-01T15:05:41.999Z</time></trkpt><trkpt lat="43.64962151595533" lon="10.352407149488235"><ele>1.0</ele><time>2026-05-01T15:05:42.999Z</time></trkpt><trkpt lat="43.649761194389015" lon="10.352386860287078"><ele>1.0</ele><time>2026-05-01T15:05:43.999Z</time></trkpt><trkpt lat="43.64990272383302" lon="10.352363231527859"><ele>1.0</ele><time>2026-05-01T15:05:44.999Z</time></trkpt><trkpt lat="43.6500422326376" lon="10.352341519537122"><ele>1.0</ele><time>2026-05-01T15:05:46Z</time></trkpt><trkpt lat="43.65018256362057" lon="10.35231839451124"><ele>1.0</ele><time>2026-05-01T15:05:47Z</time></trkpt><trkpt lat="43.65032514168153" lon="10.352290839661963"><ele>1.0</ele><time>2026-05-01T15:05:48Z</time></trkpt><trkpt lat="43.650468241505315" lon="10.352261915950603"><ele>1.0</ele><time>2026-05-01T15:05:49Z</time></trkpt><trkpt lat="43.65059976061931" lon="10.352239242821872"><ele>1.25</ele><time>2026-05-01T15:05:50Z</time></trkpt><trkpt lat="43.6507262337233" lon="10.352211980963899"><ele>1.5</ele><time>2026-05-01T15:05:51Z</time></trkpt><trkpt lat="43.65084289600098" lon="10.352186954466568"><ele>1.75</ele><time>2026-05-01T15:05:52Z</time></trkpt><trkpt lat="43.650952218581374" lon="10.352159089359064"><ele>2.0</ele><time>2026-05-01T15:05:53Z</time></trkpt><trkpt lat="43.65105257643906" lon="10.352134067224947"><ele>2.0</ele><time>2026-05-01T15:05:54Z</time></trkpt><trkpt lat="43.65114077419685" lon="10.35211731739527"><ele>2.0</ele><time>2026-05-01T15:05:55Z</time></trkpt><trkpt lat="43.65121166772424" lon="10.35210926990129"><ele>2.0</ele><time>2026-05-01T15:05:56Z</time></trkpt><trkpt lat="43.651324223907736" lon="10.352144268144883"><ele>2.0</ele><time>2026-05-01T15:05:58Z</time></trkpt><trkpt lat="43.65137888195233" lon="10.352284501704704"><ele>2.0</ele><time>2026-05-01T15:06:00Z</time></trkpt><trkpt lat="43.65138969483842" lon="10.352441023545296"><ele>1.8333333333333333</ele><time>2026-05-01T15:06:02Z</time></trkpt><trkpt lat="43.65137030399743" lon="10.352524005552361"><ele>1.6666666666666665</ele><time>2026-05-01T15:06:04Z</time></trkpt><trkpt lat="43.65139734960372" lon="10.352613420976104"><ele>1.5</ele><time>2026-05-01T15:06:08Z</time></trkpt><trkpt lat="43.65153481926679" lon="10.352554429426283"><ele>1.3333333333333333</ele><time>2026-05-01T15:06:09Z</time></trkpt><trkpt lat="43.651600170721274" lon="10.352505081306763"><ele>1.1666666666666665</ele><time>2026-05-01T15:06:10Z</time></trkpt><trkpt lat="43.651684964968794" lon="10.352464068599474"><ele>1.0</ele><time>2026-05-01T15:06:11Z</time></trkpt><trkpt lat="43.651785989129706" lon="10.35241969041322"><ele>1.0</ele><time>2026-05-01T15:06:12Z</time></trkpt><trkpt lat="43.65189972328291" lon="10.352376041535488"><ele>1.0</ele><time>2026-05-01T15:06:13Z</time></trkpt><trkpt lat="43.65202182705523" lon="10.352344368500177"><ele>1.0</ele><time>2026-05-01T15:06:14Z</time></trkpt><trkpt lat="43.652151905923795" lon="10.352316427328784"><ele>1.0</ele><time>2026-05-01T15:06:15Z</time></trkpt><trkpt lat="43.65227888170217" lon="10.352290242272455"><ele>1.0</ele><time>2026-05-01T15:06:16Z</time></trkpt><trkpt lat="43.65239574145274" lon="10.352273913996937"><ele>1.0</ele><time>2026-05-01T15:06:17Z</time></trkpt><trkpt lat="43.652526894389965" lon="10.352246904023813"><ele>1.0</ele><time>2026-05-01T15:06:18Z</time></trkpt><trkpt lat="43.6526739020689" lon="10.35222139823897"><ele>1.0</ele><time>2026-05-01T15:06:19Z</time></trkpt><trkpt lat="43.65282483867881" lon="10.3521852014924"><ele>1.5</ele><time>2026-05-01T15:06:20Z</time></trkpt><trkpt lat="43.65296871399923" lon="10.352155455004038"><ele>2.0</ele><time>2026-05-01T15:06:21Z</time></trkpt><trkpt lat="43.65311633384185" lon="10.352126248480793"><ele>2.5</ele><time>2026-05-01T15:06:22Z</time></trkpt><trkpt lat="43.65326691590623" lon="10.352093064312118"><ele>3.0</ele><time>2026-05-01T15:06:23Z</time></trkpt><trkpt lat="43.653413892228805" lon="10.352064529737643"><ele>3.0</ele><time>2026-05-01T15:06:24Z</time></trkpt><trkpt lat="43.65356512971861" lon="10.352030400241444"><ele>3.0</ele><time>2026-05-01T15:06:25Z</time></trkpt><trkpt lat="43.65371303429677" lon="10.352006135979712"><ele>3.0</ele><time>2026-05-01T15:06:26Z</time></trkpt><trkpt lat="43.653857333803145" lon="10.351978122631829"><ele>3.0</ele><time>2026-05-01T15:06:27Z</time></trkpt><trkpt lat="43.654001247401986" lon="10.351949467909742"><ele>2.6666666666666665</ele><time>2026-05-01T15:06:28Z</time></trkpt><trkpt lat="43.65414762586712" lon="10.351930235112349"><ele>2.333333333333333</ele><time>2026-05-01T15:06:29Z</time></trkpt><trkpt lat="43.654305708568074" lon="10.351896643738097"><ele>2.0</ele><time>2026-05-01T15:06:30Z</time></trkpt><trkpt lat="43.65446113946113" lon="10.351889897221362"><ele>1.3333333333333333</ele><time>2026-05-01T15:06:31Z</time></trkpt><trkpt lat="43.6546113720478" lon="10.351847335939931"><ele>0.6666666666666666</ele><time>2026-05-01T15:06:32Z</time></trkpt><trkpt lat="43.654765812030654" lon="10.351822435764543"><ele>0.0</ele><time>2026-05-01T15:06:33Z</time></trkpt><trkpt lat="43.65491891882407" lon="10.351790593126516"><ele>0.0</ele><time>2026-05-01T15:06:34Z</time></trkpt><trkpt lat="43.65507391179013" lon="10.351757628756735"><ele>0.0</ele><time>2026-05-01T15:06:35Z</time></trkpt><trkpt lat="43.655230148539424" lon="10.35171964308804"><ele>0.0</ele><time>2026-05-01T15:06:36Z</time></trkpt><trkpt lat="43.6553819243367" lon="10.35168526435382"><ele>-0.3333333333333333</ele><time>2026-05-01T15:06:37Z</time></trkpt><trkpt lat="43.65552952310396" lon="10.35166278410272"><ele>-0.6666666666666666</ele><time>2026-05-01T15:06:38Z</time></trkpt><trkpt lat="43.65568421764254" lon="10.351636488377984"><ele>-1.0</ele><time>2026-05-01T15:06:39Z</time></trkpt><trkpt lat="43.655839439967885" lon="10.351608208378606"><ele>-1.0</ele><time>2026-05-01T15:06:40Z</time></trkpt><trkpt lat="43.655993882802264" lon="10.351571130244201"><ele>-1.0</ele><time>2026-05-01T15:06:41Z</time></trkpt><trkpt lat="43.65615422887684" lon="10.35154780353453"><ele>-1.0</ele><time>2026-05-01T15:06:42Z</time></trkpt><trkpt lat="43.65631178475538" lon="10.35152106671002"><ele>-1.0</ele><time>2026-05-01T15:06:43Z</time></trkpt><trkpt lat="43.65646899965259" lon="10.35149322956925"><ele>-1.0</ele><time>2026-05-01T15:06:44Z</time></trkpt><trkpt lat="43.656628442242685" lon="10.351466809058511"><ele>-1.0</ele><time>2026-05-01T15:06:44.999Z</time></trkpt><trkpt lat="43.656802934414195" lon="10.351432007015145"><ele>-1.0</ele><time>2026-05-01T15:06:45.999Z</time></trkpt><trkpt lat="43.65696683605546" lon="10.351400499767484"><ele>-1.0</ele><time>2026-05-01T15:06:46.999Z</time></trkpt><trkpt lat="43.65713196255247" lon="10.35137315060541"><ele>-1.0</ele><time>2026-05-01T15:06:47.999Z</time></trkpt><trkpt lat="43.657301401839995" lon="10.351345275097522"><ele>-0.3333333333333333</ele><time>2026-05-01T15:06:48.999Z</time></trkpt><trkpt lat="43.657475918786744" lon="10.351324990288022"><ele>0.3333333333333333</ele><time>2026-05-01T15:06:49.999Z</time></trkpt><trkpt lat="43.65764373869967" lon="10.3512838396081"><ele>1.0</ele><time>2026-05-01T15:06:50.999Z</time></trkpt><trkpt lat="43.65781050590056" lon="10.351255409398439"><ele>1.0</ele><time>2026-05-01T15:06:51.999Z</time></trkpt><trkpt lat="43.657976437506726" lon="10.351225933094824"><ele>1.0</ele><time>2026-05-01T15:06:52.999Z</time></trkpt><trkpt lat="43.6581453311153" lon="10.35119111633197"><ele>1.0</ele><time>2026-05-01T15:06:53.999Z</time></trkpt><trkpt lat="43.65831341250321" lon="10.351160015703401"><ele>1.0</ele><time>2026-05-01T15:06:54.999Z</time></trkpt><trkpt lat="43.65847439285381" lon="10.351134221461331"><ele>1.0</ele><time>2026-05-01T15:06:55.999Z</time></trkpt><trkpt lat="43.658617483639446" lon="10.351105777988314"><ele>1.0</ele><time>2026-05-01T15:06:56.999Z</time></trkpt><trkpt lat="43.65875258109638" lon="10.351078314606017"><ele>1.0</ele><time>2026-05-01T15:06:57.999Z</time></trkpt><trkpt lat="43.65886655766248" lon="10.351054456669475"><ele>1.1666666666666665</ele><time>2026-05-01T15:06:58.999Z</time></trkpt><trkpt lat="43.658956145066746" lon="10.351039647581658"><ele>1.3333333333333333</ele><time>2026-05-01T15:06:59.999Z</time></trkpt><trkpt lat="43.65905813115284" lon="10.350988128905222"><ele>1.5</ele><time>2026-05-01T15:07:01.999Z</time></trkpt><trkpt lat="43.659089357371144" lon="10.350892518932524"><ele>1.6666666666666665</ele><time>2026-05-01T15:07:03.999Z</time></trkpt><trkpt lat="43.65915116945861" lon="10.350794891490045"><ele>1.8333333333333333</ele><time>2026-05-01T15:07:05.999Z</time></trkpt><trkpt lat="43.65921333863362" lon="10.350739099719538"><ele>2.0</ele><time>2026-05-01T15:07:07.999Z</time></trkpt><trkpt lat="43.65929057662473" lon="10.350703945777118"><ele>2.0</ele><time>2026-05-01T15:07:15.999Z</time></trkpt><trkpt lat="43.65933708923044" lon="10.350797141571997"><ele>2.0</ele><time>2026-05-01T15:07:17.999Z</time></trkpt><trkpt lat="43.65942765467619" lon="10.350822930510388"><ele>2.0</ele><time>2026-05-01T15:07:20.999Z</time></trkpt><trkpt lat="43.659555490533" lon="10.350794966195076"><ele>2.0</ele><time>2026-05-01T15:07:22.999Z</time></trkpt><trkpt lat="43.659636071645586" lon="10.350782159438188"><ele>2.0</ele><time>2026-05-01T15:07:23.999Z</time></trkpt><trkpt lat="43.6597346248392" lon="10.350769232065494"><ele>1.7142857142857142</ele><time>2026-05-01T15:07:24.999Z</time></trkpt><trkpt lat="43.659807364216086" lon="10.350750561480863"><ele>1.4285714285714284</ele><time>2026-05-01T15:07:25.999Z</time></trkpt><trkpt lat="43.659874755255956" lon="10.350742345221041"><ele>1.1428571428571428</ele><time>2026-05-01T15:07:26.999Z</time></trkpt><trkpt lat="43.65994147715348" lon="10.350743946823997"><ele>0.8571428571428571</ele><time>2026-05-01T15:07:27.999Z</time></trkpt><trkpt lat="43.66001201495928" lon="10.350725945291119"><ele>0.5714285714285714</ele><time>2026-05-01T15:07:30.999Z</time></trkpt><trkpt lat="43.660065819572914" lon="10.350680464239456"><ele>0.2857142857142857</ele><time>2026-05-01T15:20:44Z</time></trkpt><trkpt lat="43.6600536060321" lon="10.350590244540323"><ele>0.0</ele><time>2026-05-01T15:20:51Z</time></trkpt><trkpt lat="43.659986882196094" lon="10.35060767924649"><ele>0.0</ele><time>2026-05-01T15:21:19Z</time></trkpt><trkpt lat="43.659844598604145" lon="10.350645086282409"><ele>0.0</ele><time>2026-05-01T15:21:21Z</time></trkpt><trkpt lat="43.65972640952551" lon="10.350663439896564"><ele>0.0</ele><time>2026-05-01T15:21:23Z</time></trkpt><trkpt lat="43.65965626128005" lon="10.350677009038623"><ele>0.0</ele><time>2026-05-01T15:21:24Z</time></trkpt><trkpt lat="43.659591431205236" lon="10.350685678085782"><ele>0.0</ele><time>2026-05-01T15:21:25Z</time></trkpt><trkpt lat="43.65950516647844" lon="10.350719555948558"><ele>0.16666666666666666</ele><time>2026-05-01T15:21:27Z</time></trkpt><trkpt lat="43.65941067874728" lon="10.35076815162098"><ele>0.3333333333333333</ele><time>2026-05-01T15:21:28.999Z</time></trkpt><trkpt lat="43.65932975188263" lon="10.350806035352539"><ele>0.5</ele><time>2026-05-01T15:21:31.999Z</time></trkpt><trkpt lat="43.659241772311184" lon="10.35079520138359"><ele>0.6666666666666666</ele><time>2026-05-01T15:21:33.999Z</time></trkpt><trkpt lat="43.65919683630525" lon="10.350691424641536"><ele>0.8333333333333333</ele><time>2026-05-01T15:21:36.999Z</time></trkpt><trkpt lat="43.65920323240327" lon="10.350594817134775"><ele>1.0</ele><time>2026-05-01T15:21:39.999Z</time></trkpt><trkpt lat="43.65916319885753" lon="10.350508052841397"><ele>1.0</ele><time>2026-05-01T15:21:54.999Z</time></trkpt><trkpt lat="43.659098965618384" lon="10.350481983766121"><ele>1.0</ele><time>2026-05-01T15:21:55.999Z</time></trkpt><trkpt lat="43.659015844690835" lon="10.350489527567422"><ele>1.0</ele><time>2026-05-01T15:21:56.999Z</time></trkpt><trkpt lat="43.65892555728547" lon="10.350511096615525"><ele>1.0</ele><time>2026-05-01T15:21:57.999Z</time></trkpt><trkpt lat="43.658810906149476" lon="10.350539652311488"><ele>1.0</ele><time>2026-05-01T15:21:58.999Z</time></trkpt><trkpt lat="43.658687269580255" lon="10.350567373775066"><ele>1.0</ele><time>2026-05-01T15:21:59.999Z</time></trkpt><trkpt lat="43.658562486239326" lon="10.350595659551797"><ele>1.0</ele><time>2026-05-01T15:22:00.999Z</time></trkpt><trkpt lat="43.658434985328384" lon="10.350617694851708"><ele>1.0</ele><time>2026-05-01T15:22:01.999Z</time></trkpt><trkpt lat="43.658289201841995" lon="10.350648437143741"><ele>1.0</ele><time>2026-05-01T15:22:02.999Z</time></trkpt><trkpt lat="43.658145633951655" lon="10.350676410896826"><ele>1.0</ele><time>2026-05-01T15:22:03.999Z</time></trkpt><trkpt lat="43.65799984626729" lon="10.350710106810963"><ele>1.0</ele><time>2026-05-01T15:22:04.999Z</time></trkpt><trkpt lat="43.6578651385704" lon="10.350722793197255"><ele>1.0</ele><time>2026-05-01T15:22:05.999Z</time></trkpt><trkpt lat="43.65772897038938" lon="10.350749522097347"><ele>1.0</ele><time>2026-05-01T15:22:06.999Z</time></trkpt><trkpt lat="43.65759139786961" lon="10.35078189570299"><ele>1.0</ele><time>2026-05-01T15:22:07.999Z</time></trkpt><trkpt lat="43.65744864566326" lon="10.350799801954079"><ele>1.0</ele><time>2026-05-01T15:22:08.999Z</time></trkpt><trkpt lat="43.657326975188035" lon="10.35082938974212"><ele>1.0</ele><time>2026-05-01T15:22:09.999Z</time></trkpt><trkpt lat="43.657196652672624" lon="10.350858427237645"><ele>1.0</ele><time>2026-05-01T15:22:10.999Z</time></trkpt><trkpt lat="43.65706435675898" lon="10.35088184208727"><ele>1.0</ele><time>2026-05-01T15:22:11.999Z</time></trkpt><trkpt lat="43.656957266976534" lon="10.350905816219658"><ele>1.0</ele><time>2026-05-01T15:22:12.999Z</time></trkpt><trkpt lat="43.65684342513478" lon="10.350932153919892"><ele>1.0</ele><time>2026-05-01T15:22:13.999Z</time></trkpt><trkpt lat="43.65673226052188" lon="10.350949029042283"><ele>1.0</ele><time>2026-05-01T15:22:14.999Z</time></trkpt><trkpt lat="43.65662492410193" lon="10.35097409954919"><ele>1.0</ele><time>2026-05-01T15:22:15.999Z</time></trkpt><trkpt lat="43.656517021731304" lon="10.350991862371728"><ele>0.9999999999999999</ele><time>2026-05-01T15:22:16.999Z</time></trkpt><trkpt lat="43.65642263943796" lon="10.35100500993004"><ele>1.0</ele><time>2026-05-01T15:22:17.999Z</time></trkpt><trkpt lat="43.65633639028751" lon="10.351021120118192"><ele>1.0</ele><time>2026-05-01T15:22:18.999Z</time></trkpt><trkpt lat="43.65625813026603" lon="10.351029605143943"><ele>1.0</ele><time>2026-05-01T15:22:19.999Z</time></trkpt><trkpt lat="43.656153557539945" lon="10.351045964399278"><ele>0.9999999999999999</ele><time>2026-05-01T15:22:21.999Z</time></trkpt><trkpt lat="43.65607917710063" lon="10.35105592344053"><ele>1.0</ele><time>2026-05-01T15:22:23.999Z</time></trkpt><trkpt lat="43.65601658992472" lon="10.351079524117868"><ele>0.8</ele><time>2026-05-01T15:22:26.999Z</time></trkpt><trkpt lat="43.65591518737593" lon="10.351048751400656"><ele>0.6000000000000001</ele><time>2026-05-01T15:22:29.999Z</time></trkpt><trkpt lat="43.655792490092686" lon="10.351028799565562"><ele>0.4</ele><time>2026-05-01T15:22:31.999Z</time></trkpt><trkpt lat="43.65572646634444" lon="10.350954484246968"><ele>0.2</ele><time>2026-05-01T15:22:32.999Z</time></trkpt><trkpt lat="43.65565728936168" lon="10.350878463100443"><ele>0.0</ele><time>2026-05-01T15:22:34Z</time></trkpt><trkpt lat="43.6555904152876" lon="10.350801957446016"><ele>0.0</ele><time>2026-05-01T15:22:35Z</time></trkpt><trkpt lat="43.655506293119366" lon="10.350728929225152"><ele>0.0</ele><time>2026-05-01T15:22:36Z</time></trkpt><trkpt lat="43.655452250304265" lon="10.350601495447112"><ele>0.0</ele><time>2026-05-01T15:22:37Z</time></trkpt><trkpt lat="43.655385545372695" lon="10.350480230068925"><ele>0.0</ele><time>2026-05-01T15:22:38Z</time></trkpt><trkpt lat="43.65532384450199" lon="10.350349286792236"><ele>0.0</ele><time>2026-05-01T15:22:39Z</time></trkpt><trkpt lat="43.655257052029505" lon="10.350218735316188"><ele>0.0</ele><time>2026-05-01T15:22:40Z</time></trkpt><trkpt lat="43.65518795392213" lon="10.350079762620243"><ele>0.0</ele><time>2026-05-01T15:22:41Z</time></trkpt><trkpt lat="43.65511599311985" lon="10.349935008399285"><ele>0.0</ele><time>2026-05-01T15:22:42Z</time></trkpt><trkpt lat="43.655043503022114" lon="10.349787830885026"><ele>0.0</ele><time>2026-05-01T15:22:43Z</time></trkpt><trkpt lat="43.6549700546768" lon="10.3496344253711"><ele>0.25</ele><time>2026-05-01T15:22:44Z</time></trkpt><trkpt lat="43.65489454066708" lon="10.34947782776076"><ele>0.5</ele><time>2026-05-01T15:22:45Z</time></trkpt><trkpt lat="43.65481849833393" lon="10.349318498433028"><ele>0.75</ele><time>2026-05-01T15:22:46Z</time></trkpt><trkpt lat="43.65474280001837" lon="10.349158084386305"><ele>1.0</ele><time>2026-05-01T15:22:47Z</time></trkpt><trkpt lat="43.65466523420498" lon="10.348990460910027"><ele>3.333333333333333</ele><time>2026-05-01T15:22:48Z</time></trkpt><trkpt lat="43.65458583345038" lon="10.348816108385416"><ele>5.666666666666666</ele><time>2026-05-01T15:22:49Z</time></trkpt><trkpt lat="43.65450410238002" lon="10.34863756392827"><ele>8.0</ele><time>2026-05-01T15:22:50Z</time></trkpt><trkpt lat="43.65442207047203" lon="10.348453498572471"><ele>8.25</ele><time>2026-05-01T15:22:51Z</time></trkpt><trkpt lat="43.65434131390667" lon="10.348281152296952"><ele>8.5</ele><time>2026-05-01T15:22:52Z</time></trkpt><trkpt lat="43.654264560338504" lon="10.348114290529647"><ele>8.75</ele><time>2026-05-01T15:22:53Z</time></trkpt><trkpt lat="43.65418511352661" lon="10.347941582367627"><ele>9.0</ele><time>2026-05-01T15:22:54Z</time></trkpt><trkpt lat="43.654107307495494" lon="10.347774170240669"><ele>9.0</ele><time>2026-05-01T15:22:55Z</time></trkpt><trkpt lat="43.6540389392661" lon="10.34762081607159"><ele>9.0</ele><time>2026-05-01T15:22:56Z</time></trkpt><trkpt lat="43.65396782136916" lon="10.347468190017986"><ele>9.0</ele><time>2026-05-01T15:22:57Z</time></trkpt><trkpt lat="43.65390126182334" lon="10.347322037577118"><ele>9.0</ele><time>2026-05-01T15:22:58Z</time></trkpt><trkpt lat="43.65383238412221" lon="10.347176233297953"><ele>9.25</ele><time>2026-05-01T15:22:59Z</time></trkpt><trkpt lat="43.65376482135426" lon="10.347026025877243"><ele>9.5</ele><time>2026-05-01T15:23:00Z</time></trkpt><trkpt lat="43.65370090659677" lon="10.346882982223363"><ele>9.75</ele><time>2026-05-01T15:23:01Z</time></trkpt><trkpt lat="43.653639105228145" lon="10.346745437426003"><ele>10.0</ele><time>2026-05-01T15:23:02Z</time></trkpt><trkpt lat="43.653577782435825" lon="10.346604005189526"><ele>9.5</ele><time>2026-05-01T15:23:03Z</time></trkpt><trkpt lat="43.653518252554775" lon="10.34645980282587"><ele>9.0</ele><time>2026-05-01T15:23:04Z</time></trkpt><trkpt lat="43.65345648345523" lon="10.34631362797966"><ele>8.5</ele><time>2026-05-01T15:23:05Z</time></trkpt><trkpt lat="43.653385608228085" lon="10.34616747383667"><ele>8.0</ele><time>2026-05-01T15:23:06Z</time></trkpt><trkpt lat="43.6533202765274" lon="10.346027604849262"><ele>8.0</ele><time>2026-05-01T15:23:07Z</time></trkpt><trkpt lat="43.65325331825278" lon="10.345892060320036"><ele>8.0</ele><time>2026-05-01T15:23:08Z</time></trkpt><trkpt lat="43.65318146443562" lon="10.345751635220344"><ele>8.0</ele><time>2026-05-01T15:23:09Z</time></trkpt><trkpt lat="43.65311487435809" lon="10.345608341861514"><ele>8.0</ele><time>2026-05-01T15:23:10Z</time></trkpt><trkpt lat="43.65305570237185" lon="10.34547405335961"><ele>8.75</ele><time>2026-05-01T15:23:11Z</time></trkpt><trkpt lat="43.65299073483348" lon="10.345337402790518"><ele>9.5</ele><time>2026-05-01T15:23:12Z</time></trkpt><trkpt lat="43.65292275364559" lon="10.345195487991607"><ele>10.25</ele><time>2026-05-01T15:23:13Z</time></trkpt><trkpt lat="43.65285105303676" lon="10.345045283788858"><ele>11.0</ele><time>2026-05-01T15:23:14Z</time></trkpt><trkpt lat="43.65278480120004" lon="10.344887782939567"><ele>11.0</ele><time>2026-05-01T15:23:15Z</time></trkpt><trkpt lat="43.65272347127028" lon="10.344740603452047"><ele>11.0</ele><time>2026-05-01T15:23:16Z</time></trkpt><trkpt lat="43.65265771194189" lon="10.344594770565745"><ele>11.0</ele><time>2026-05-01T15:23:17Z</time></trkpt><trkpt lat="43.65258901901149" lon="10.344444054925344"><ele>11.0</ele><time>2026-05-01T15:23:18Z</time></trkpt><trkpt lat="43.65251901810014" lon="10.34429917055259"><ele>11.25</ele><time>2026-05-01T15:23:19Z</time></trkpt><trkpt lat="43.65245065176357" lon="10.344150438379376"><ele>11.5</ele><time>2026-05-01T15:23:20Z</time></trkpt><trkpt lat="43.652389147848396" lon="10.344005961633949"><ele>11.75</ele><time>2026-05-01T15:23:21Z</time></trkpt><trkpt lat="43.65232057494798" lon="10.34386176088941"><ele>12.0</ele><time>2026-05-01T15:23:22Z</time></trkpt><trkpt lat="43.652252995917685" lon="10.343716297808266"><ele>12.25</ele><time>2026-05-01T15:23:23Z</time></trkpt><trkpt lat="43.652184799017384" lon="10.34357005183003"><ele>12.5</ele><time>2026-05-01T15:23:23.999Z</time></trkpt><trkpt lat="43.65211789640153" lon="10.343420557036252"><ele>12.75</ele><time>2026-05-01T15:23:24.999Z</time></trkpt><trkpt lat="43.65205125893875" lon="10.343271544098771"><ele>13.0</ele><time>2026-05-01T15:23:25.999Z</time></trkpt><trkpt lat="43.65198926730655" lon="10.343130925095483"><ele>13.0</ele><time>2026-05-01T15:23:26.999Z</time></trkpt><trkpt lat="43.65192386630837" lon="10.34298987461548"><ele>13.0</ele><time>2026-05-01T15:23:27.999Z</time></trkpt><trkpt lat="43.65185824123908" lon="10.34284755963915"><ele>13.0</ele><time>2026-05-01T15:23:28.999Z</time></trkpt><trkpt lat="43.65179251825769" lon="10.342704787931023"><ele>13.0</ele><time>2026-05-01T15:23:29.999Z</time></trkpt><trkpt lat="43.65172636738728" lon="10.342555092710985"><ele>13.0</ele><time>2026-05-01T15:23:30.999Z</time></trkpt><trkpt lat="43.65165985344302" lon="10.342403925699394"><ele>13.0</ele><time>2026-05-01T15:23:31.999Z</time></trkpt><trkpt lat="43.6515920667967" lon="10.342254001327412"><ele>13.0</ele><time>2026-05-01T15:23:32.999Z</time></trkpt><trkpt lat="43.65152487744836" lon="10.342106679292058"><ele>13.0</ele><time>2026-05-01T15:23:33.999Z</time></trkpt><trkpt lat="43.651454400298526" lon="10.341959031792156"><ele>12.5</ele><time>2026-05-01T15:23:34.999Z</time></trkpt><trkpt lat="43.651384962148" lon="10.341808930890577"><ele>12.0</ele><time>2026-05-01T15:23:35.999Z</time></trkpt><trkpt lat="43.651314501926315" lon="10.341656722381677"><ele>11.5</ele><time>2026-05-01T15:23:36.999Z</time></trkpt><trkpt lat="43.65124245575651" lon="10.341498835441177"><ele>11.0</ele><time>2026-05-01T15:23:37.999Z</time></trkpt><trkpt lat="43.65117107826972" lon="10.341342097266498"><ele>10.25</ele><time>2026-05-01T15:23:38.999Z</time></trkpt><trkpt lat="43.651097016429624" lon="10.341180946675625"><ele>9.5</ele><time>2026-05-01T15:23:39.999Z</time></trkpt><trkpt lat="43.651025353734305" lon="10.341022714526574"><ele>8.75</ele><time>2026-05-01T15:23:40.999Z</time></trkpt><trkpt lat="43.650954269385025" lon="10.340866811826238"><ele>8.0</ele><time>2026-05-01T15:23:41.999Z</time></trkpt><trkpt lat="43.65088004768907" lon="10.340704659375135"><ele>8.25</ele><time>2026-05-01T15:23:42.999Z</time></trkpt><trkpt lat="43.650803665113145" lon="10.340540690019424"><ele>8.5</ele><time>2026-05-01T15:23:43.999Z</time></trkpt><trkpt lat="43.65072544108516" lon="10.340370876224688"><ele>8.75</ele><time>2026-05-01T15:23:44.999Z</time></trkpt><trkpt lat="43.650655472715904" lon="10.34020953026823"><ele>9.0</ele><time>2026-05-01T15:23:45.999Z</time></trkpt><trkpt lat="43.65058134341539" lon="10.34004614799478"><ele>9.0</ele><time>2026-05-01T15:23:46.999Z</time></trkpt><trkpt lat="43.65050571236675" lon="10.339882815912516"><ele>9.0</ele><time>2026-05-01T15:23:47.999Z</time></trkpt><trkpt lat="43.65042806544332" lon="10.339719963684978"><ele>9.0</ele><time>2026-05-01T15:23:48.999Z</time></trkpt><trkpt lat="43.65035715246083" lon="10.339562860690709"><ele>9.0</ele><time>2026-05-01T15:23:49.999Z</time></trkpt><trkpt lat="43.650283659994265" lon="10.33940411017301"><ele>9.5</ele><time>2026-05-01T15:23:50.999Z</time></trkpt><trkpt lat="43.65020802929166" lon="10.339236867244079"><ele>10.0</ele><time>2026-05-01T15:23:51.999Z</time></trkpt><trkpt lat="43.6501309839874" lon="10.339066603981944"><ele>10.5</ele><time>2026-05-01T15:23:52.999Z</time></trkpt><trkpt lat="43.65006190946515" lon="10.338907424525111"><ele>11.0</ele><time>2026-05-01T15:23:53.999Z</time></trkpt><trkpt lat="43.64998199816132" lon="10.33874651558137"><ele>11.5</ele><time>2026-05-01T15:23:54.999Z</time></trkpt><trkpt lat="43.6499027268435" lon="10.33858329354906"><ele>12.0</ele><time>2026-05-01T15:23:55.999Z</time></trkpt><trkpt lat="43.6498299564456" lon="10.338415962616955"><ele>12.5</ele><time>2026-05-01T15:23:56.999Z</time></trkpt><trkpt lat="43.6497584153409" lon="10.338252243938324"><ele>13.0</ele><time>2026-05-01T15:23:57.999Z</time></trkpt><trkpt lat="43.6496921238192" lon="10.33809502052884"><ele>13.25</ele><time>2026-05-01T15:23:58.999Z</time></trkpt><trkpt lat="43.64962319790285" lon="10.337950916959736"><ele>13.5</ele><time>2026-05-01T15:23:59.999Z</time></trkpt><trkpt lat="43.64955086133366" lon="10.33780687819829"><ele>13.75</ele><time>2026-05-01T15:24:00.999Z</time></trkpt><trkpt lat="43.64948555390913" lon="10.337666537640441"><ele>14.0</ele><time>2026-05-01T15:24:01.999Z</time></trkpt><trkpt lat="43.64941974109441" lon="10.337515699776986"><ele>13.5</ele><time>2026-05-01T15:24:02.999Z</time></trkpt><trkpt lat="43.649351394028656" lon="10.3373623510218"><ele>13.0</ele><time>2026-05-01T15:24:03.999Z</time></trkpt><trkpt lat="43.649281311025184" lon="10.337207522875232"><ele>12.5</ele><time>2026-05-01T15:24:04.999Z</time></trkpt><trkpt lat="43.64920942028445" lon="10.337051477168396"><ele>12.0</ele><time>2026-05-01T15:24:05.999Z</time></trkpt><trkpt lat="43.649132573098285" lon="10.336886678913757"><ele>12.0</ele><time>2026-05-01T15:24:06.999Z</time></trkpt><trkpt lat="43.649054684129695" lon="10.336719700081293"><ele>12.0</ele><time>2026-05-01T15:24:07.999Z</time></trkpt><trkpt lat="43.64897667544833" lon="10.33654830640316"><ele>12.0</ele><time>2026-05-01T15:24:08.999Z</time></trkpt><trkpt lat="43.64890527494517" lon="10.336386491007358"><ele>12.0</ele><time>2026-05-01T15:24:09.999Z</time></trkpt><trkpt lat="43.64883285085947" lon="10.336225325189787"><ele>11.25</ele><time>2026-05-01T15:24:10.999Z</time></trkpt><trkpt lat="43.64876473341037" lon="10.33607077402099"><ele>10.5</ele><time>2026-05-01T15:24:11.999Z</time></trkpt><trkpt lat="43.64869807079721" lon="10.335919265737008"><ele>9.75</ele><time>2026-05-01T15:24:12.999Z</time></trkpt><trkpt lat="43.648626376204504" lon="10.335763610716153"><ele>9.0</ele><time>2026-05-01T15:24:13.999Z</time></trkpt><trkpt lat="43.648552916935806" lon="10.335604488571173"><ele>9.0</ele><time>2026-05-01T15:24:14.999Z</time></trkpt><trkpt lat="43.64847642672828" lon="10.335438226404978"><ele>9.0</ele><time>2026-05-01T15:24:15.999Z</time></trkpt><trkpt lat="43.64840020485812" lon="10.335272665947029"><ele>9.0</ele><time>2026-05-01T15:24:16.999Z</time></trkpt><trkpt lat="43.64832829653955" lon="10.335105564340786"><ele>9.0</ele><time>2026-05-01T15:24:17.999Z</time></trkpt><trkpt lat="43.6482556952113" lon="10.33494668874107"><ele>9.0</ele><time>2026-05-01T15:24:18.999Z</time></trkpt><trkpt lat="43.64818113857253" lon="10.334785885604607"><ele>9.0</ele><time>2026-05-01T15:24:19.999Z</time></trkpt><trkpt lat="43.6481045033744" lon="10.334621800159518"><ele>9.0</ele><time>2026-05-01T15:24:20.999Z</time></trkpt><trkpt lat="43.64802968515179" lon="10.334458623284602"><ele>9.0</ele><time>2026-05-01T15:24:21.999Z</time></trkpt><trkpt lat="43.64795782011541" lon="10.334298823710112"><ele>8.75</ele><time>2026-05-01T15:24:22.999Z</time></trkpt><trkpt lat="43.64788366194084" lon="10.334131781806505"><ele>8.5</ele><time>2026-05-01T15:24:23.999Z</time></trkpt><trkpt lat="43.64781182566545" lon="10.333967102016802"><ele>8.25</ele><time>2026-05-01T15:24:24.999Z</time></trkpt><trkpt lat="43.647741423682064" lon="10.333808532070092"><ele>8.0</ele><time>2026-05-01T15:24:25.999Z</time></trkpt><trkpt lat="43.64767381756778" lon="10.333660351286639"><ele>8.0</ele><time>2026-05-01T15:24:26.999Z</time></trkpt><trkpt lat="43.64760425418692" lon="10.333520317501282"><ele>8.0</ele><time>2026-05-01T15:24:27.999Z</time></trkpt><trkpt lat="43.64753591731458" lon="10.333375694287335"><ele>8.0</ele><time>2026-05-01T15:24:28.999Z</time></trkpt><trkpt lat="43.647465568781016" lon="10.333225665345518"><ele>8.0</ele><time>2026-05-01T15:24:29.999Z</time></trkpt><trkpt lat="43.647396130249575" lon="10.333065864903968"><ele>8.5</ele><time>2026-05-01T15:24:30.999Z</time></trkpt><trkpt lat="43.64732475267924" lon="10.332896380319903"><ele>9.0</ele><time>2026-05-01T15:24:31.999Z</time></trkpt><trkpt lat="43.64725111577674" lon="10.33273461991943"><ele>9.5</ele><time>2026-05-01T15:24:32.999Z</time></trkpt><trkpt lat="43.64717841740494" lon="10.332570396083266"><ele>10.0</ele><time>2026-05-01T15:24:33.999Z</time></trkpt><trkpt lat="43.64710479143105" lon="10.332403365420534"><ele>10.0</ele><time>2026-05-01T15:24:34.999Z</time></trkpt><trkpt lat="43.64702957281756" lon="10.332243064609877"><ele>10.0</ele><time>2026-05-01T15:24:35.999Z</time></trkpt><trkpt lat="43.64695522616325" lon="10.332078250096396"><ele>10.0</ele><time>2026-05-01T15:24:36.999Z</time></trkpt><trkpt lat="43.64687858950632" lon="10.33191176790966"><ele>10.0</ele><time>2026-05-01T15:24:37.999Z</time></trkpt><trkpt lat="43.646807447084086" lon="10.331745330423221"><ele>10.0</ele><time>2026-05-01T15:24:38.999Z</time></trkpt><trkpt lat="43.64673793478081" lon="10.331588092562766"><ele>10.0</ele><time>2026-05-01T15:24:40Z</time></trkpt><trkpt lat="43.646668019620336" lon="10.33142959463155"><ele>10.0</ele><time>2026-05-01T15:24:41Z</time></trkpt><trkpt lat="43.646598352337136" lon="10.331271413289228"><ele>10.0</ele><time>2026-05-01T15:24:42Z</time></trkpt><trkpt lat="43.64652748426994" lon="10.331123572293134"><ele>10.0</ele><time>2026-05-01T15:24:43Z</time></trkpt><trkpt lat="43.64645461728153" lon="10.330974454397902"><ele>10.0</ele><time>2026-05-01T15:24:44Z</time></trkpt><trkpt lat="43.64638391265628" lon="10.330821259302867"><ele>10.0</ele><time>2026-05-01T15:24:45Z</time></trkpt><trkpt lat="43.64631272624454" lon="10.330669820038604"><ele>10.0</ele><time>2026-05-01T15:24:46Z</time></trkpt><trkpt lat="43.64624631736623" lon="10.330521169116087"><ele>10.0</ele><time>2026-05-01T15:24:47Z</time></trkpt><trkpt lat="43.64617626372953" lon="10.330372119873402"><ele>10.0</ele><time>2026-05-01T15:24:48Z</time></trkpt><trkpt lat="43.64610871110587" lon="10.33022265672177"><ele>10.0</ele><time>2026-05-01T15:24:49Z</time></trkpt><trkpt lat="43.6460388921188" lon="10.330069149616586"><ele>10.0</ele><time>2026-05-01T15:24:50Z</time></trkpt><trkpt lat="43.64596723163043" lon="10.329913040409924"><ele>10.0</ele><time>2026-05-01T15:24:51Z</time></trkpt><trkpt lat="43.645895780886384" lon="10.329754519733847"><ele>10.0</ele><time>2026-05-01T15:24:52Z</time></trkpt><trkpt lat="43.6458228408042" lon="10.329592965769088"><ele>10.0</ele><time>2026-05-01T15:24:53Z</time></trkpt><trkpt lat="43.64575261590536" lon="10.329439353454953"><ele>10.0</ele><time>2026-05-01T15:24:54Z</time></trkpt><trkpt lat="43.64568811181385" lon="10.329284301685176"><ele>10.25</ele><time>2026-05-01T15:24:55Z</time></trkpt><trkpt lat="43.645624004329775" lon="10.329140176966618"><ele>10.5</ele><time>2026-05-01T15:24:56Z</time></trkpt><trkpt lat="43.645557618843725" lon="10.328992660641742"><ele>10.75</ele><time>2026-05-01T15:24:57Z</time></trkpt><trkpt lat="43.645486727111006" lon="10.328843347229402"><ele>11.0</ele><time>2026-05-01T15:24:58Z</time></trkpt><trkpt lat="43.6454152474281" lon="10.328688488690085"><ele>11.0</ele><time>2026-05-01T15:24:59Z</time></trkpt><trkpt lat="43.64534047209449" lon="10.328527959539537"><ele>11.0</ele><time>2026-05-01T15:25:00Z</time></trkpt><trkpt lat="43.645265627547154" lon="10.328363725844378"><ele>11.0</ele><time>2026-05-01T15:25:01Z</time></trkpt><trkpt lat="43.64519778383472" lon="10.328207590607732"><ele>11.0</ele><time>2026-05-01T15:25:02Z</time></trkpt><trkpt lat="43.645131032988914" lon="10.32805069453388"><ele>10.75</ele><time>2026-05-01T15:25:03Z</time></trkpt><trkpt lat="43.645063247371" lon="10.327904991599501"><ele>10.5</ele><time>2026-05-01T15:25:04Z</time></trkpt><trkpt lat="43.64499630282842" lon="10.327753246610245"><ele>10.25</ele><time>2026-05-01T15:25:05Z</time></trkpt><trkpt lat="43.64492428689134" lon="10.327594077673108"><ele>10.0</ele><time>2026-05-01T15:25:06Z</time></trkpt><trkpt lat="43.64484946585834" lon="10.327432851553626"><ele>10.0</ele><time>2026-05-01T15:25:07Z</time></trkpt><trkpt lat="43.64477137449116" lon="10.327269855418661"><ele>10.0</ele><time>2026-05-01T15:25:08Z</time></trkpt><trkpt lat="43.64469613204082" lon="10.327099720322042"><ele>10.0</ele><time>2026-05-01T15:25:09Z</time></trkpt><trkpt lat="43.64461909356792" lon="10.326926662935268"><ele>10.0</ele><time>2026-05-01T15:25:10Z</time></trkpt><trkpt lat="43.644545153293" lon="10.32675965758964"><ele>10.0</ele><time>2026-05-01T15:25:11Z</time></trkpt><trkpt lat="43.644470907454185" lon="10.326600080036581"><ele>10.0</ele><time>2026-05-01T15:25:12Z</time></trkpt><trkpt lat="43.64439608970748" lon="10.326440190614349"><ele>10.0</ele><time>2026-05-01T15:25:13Z</time></trkpt><trkpt lat="43.6443207766843" lon="10.32627791195681"><ele>10.0</ele><time>2026-05-01T15:25:14Z</time></trkpt><trkpt lat="43.644246447713435" lon="10.326115526209119"><ele>9.75</ele><time>2026-05-01T15:25:15Z</time></trkpt><trkpt lat="43.64417213697817" lon="10.325951125810887"><ele>9.5</ele><time>2026-05-01T15:25:16Z</time></trkpt><trkpt lat="43.64409853137473" lon="10.325786961729792"><ele>9.25</ele><time>2026-05-01T15:25:17Z</time></trkpt><trkpt lat="43.64402449966391" lon="10.325621303199593"><ele>9.0</ele><time>2026-05-01T15:25:18Z</time></trkpt><trkpt lat="43.64395271479092" lon="10.325463085825723"><ele>8.75</ele><time>2026-05-01T15:25:19Z</time></trkpt><trkpt lat="43.643878782591905" lon="10.325302226134664"><ele>8.5</ele><time>2026-05-01T15:25:20Z</time></trkpt><trkpt lat="43.64380444721633" lon="10.325139620141439"><ele>8.25</ele><time>2026-05-01T15:25:21Z</time></trkpt><trkpt lat="43.64372890657852" lon="10.324974072815142"><ele>8.0</ele><time>2026-05-01T15:25:22Z</time></trkpt><trkpt lat="43.64365560163568" lon="10.324816317152429"><ele>8.25</ele><time>2026-05-01T15:25:23Z</time></trkpt><trkpt lat="43.64358003471242" lon="10.324654985215615"><ele>8.5</ele><time>2026-05-01T15:25:24Z</time></trkpt><trkpt lat="43.643504236478464" lon="10.324490427215776"><ele>8.75</ele><time>2026-05-01T15:25:25Z</time></trkpt><trkpt lat="43.64342954354776" lon="10.32431965387025"><ele>9.0</ele><time>2026-05-01T15:25:26Z</time></trkpt><trkpt lat="43.643356989844065" lon="10.324156717157148"><ele>9.0</ele><time>2026-05-01T15:25:27Z</time></trkpt><trkpt lat="43.643281868098924" lon="10.323988147382936"><ele>9.0</ele><time>2026-05-01T15:25:27.999Z</time></trkpt><trkpt lat="43.643204423726246" lon="10.323818991913479"><ele>9.0</ele><time>2026-05-01T15:25:28.999Z</time></trkpt><trkpt lat="43.64312459356486" lon="10.323648023384964"><ele>9.0</ele><time>2026-05-01T15:25:29.999Z</time></trkpt><trkpt lat="43.64304736450091" lon="10.323481328482794"><ele>9.0</ele><time>2026-05-01T15:25:30.999Z</time></trkpt><trkpt lat="43.64297527975787" lon="10.323323289891109"><ele>9.0</ele><time>2026-05-01T15:25:31.999Z</time></trkpt><trkpt lat="43.642904724618354" lon="10.323170412581876"><ele>9.0</ele><time>2026-05-01T15:25:32.999Z</time></trkpt><trkpt lat="43.64283456429846" lon="10.323012396570975"><ele>9.0</ele><time>2026-05-01T15:25:33.999Z</time></trkpt><trkpt lat="43.642767504345265" lon="10.322863575395743"><ele>9.25</ele><time>2026-05-01T15:25:34.999Z</time></trkpt><trkpt lat="43.642698475407684" lon="10.322713691773528"><ele>9.5</ele><time>2026-05-01T15:25:35.999Z</time></trkpt><trkpt lat="43.64262777884968" lon="10.322560982911048"><ele>9.75</ele><time>2026-05-01T15:25:36.999Z</time></trkpt><trkpt lat="43.642552490614634" lon="10.322402017669956"><ele>10.0</ele><time>2026-05-01T15:25:37.999Z</time></trkpt><trkpt lat="43.6424742454505" lon="10.322234285671907"><ele>10.666666666666668</ele><time>2026-05-01T15:25:38.999Z</time></trkpt><trkpt lat="43.64239482279545" lon="10.322059252308492"><ele>11.333333333333334</ele><time>2026-05-01T15:25:39.999Z</time></trkpt><trkpt lat="43.64231257645363" lon="10.321879013287546"><ele>12.0</ele><time>2026-05-01T15:25:40.999Z</time></trkpt><trkpt lat="43.642226451634876" lon="10.321691888909015"><ele>12.0</ele><time>2026-05-01T15:25:41.999Z</time></trkpt><trkpt lat="43.642143901428916" lon="10.321503882867248"><ele>12.0</ele><time>2026-05-01T15:25:42.999Z</time></trkpt><trkpt lat="43.64206466097475" lon="10.321325671674764"><ele>12.0</ele><time>2026-05-01T15:25:43.999Z</time></trkpt><trkpt lat="43.641984724016666" lon="10.32114676183378"><ele>11.333333333333334</ele><time>2026-05-01T15:25:44.999Z</time></trkpt><trkpt lat="43.64190278150541" lon="10.32096723311516"><ele>10.666666666666668</ele><time>2026-05-01T15:25:45.999Z</time></trkpt><trkpt lat="43.641822690480744" lon="10.320785189622095"><ele>10.0</ele><time>2026-05-01T15:25:46.999Z</time></trkpt><trkpt lat="43.641744457610976" lon="10.32061549793993"><ele>10.5</ele><time>2026-05-01T15:25:47.999Z</time></trkpt><trkpt lat="43.6416693012689" lon="10.320445335683287"><ele>11.0</ele><time>2026-05-01T15:25:48.999Z</time></trkpt><trkpt lat="43.6415905793765" lon="10.320272440130223"><ele>11.5</ele><time>2026-05-01T15:25:49.999Z</time></trkpt><trkpt lat="43.641508995736096" lon="10.320095943118734"><ele>12.0</ele><time>2026-05-01T15:25:50.999Z</time></trkpt><trkpt lat="43.641424923285676" lon="10.319919605293622"><ele>12.0</ele><time>2026-05-01T15:25:51.999Z</time></trkpt><trkpt lat="43.641342022940314" lon="10.3197408370066"><ele>12.0</ele><time>2026-05-01T15:25:52.999Z</time></trkpt><trkpt lat="43.64126557599748" lon="10.319567993132212"><ele>12.0</ele><time>2026-05-01T15:25:53.999Z</time></trkpt><trkpt lat="43.641186912335144" lon="10.319393570942621"><ele>12.0</ele><time>2026-05-01T15:25:54.999Z</time></trkpt><trkpt lat="43.641110172556004" lon="10.319222877465524"><ele>12.0</ele><time>2026-05-01T15:25:55.999Z</time></trkpt><trkpt lat="43.64103602887166" lon="10.31906020471105"><ele>12.0</ele><time>2026-05-01T15:25:56.999Z</time></trkpt><trkpt lat="43.640961370144474" lon="10.318897001541105"><ele>12.0</ele><time>2026-05-01T15:25:57.999Z</time></trkpt><trkpt lat="43.64088700060411" lon="10.318734787046534"><ele>12.0</ele><time>2026-05-01T15:25:58.999Z</time></trkpt><trkpt lat="43.64081242078253" lon="10.318569501501779"><ele>12.0</ele><time>2026-05-01T15:25:59.999Z</time></trkpt><trkpt lat="43.64073636086139" lon="10.318401947985754"><ele>12.0</ele><time>2026-05-01T15:26:00.999Z</time></trkpt><trkpt lat="43.640663837211584" lon="10.318242649858867"><ele>12.0</ele><time>2026-05-01T15:26:01.999Z</time></trkpt><trkpt lat="43.640591693551606" lon="10.318079870741023"><ele>12.0</ele><time>2026-05-01T15:26:02.999Z</time></trkpt><trkpt lat="43.640515821487334" lon="10.317914983259689"><ele>11.75</ele><time>2026-05-01T15:26:03.999Z</time></trkpt><trkpt lat="43.640437110230884" lon="10.317746765448641"><ele>11.5</ele><time>2026-05-01T15:26:04.999Z</time></trkpt><trkpt lat="43.64035888792783" lon="10.317572878962611"><ele>11.25</ele><time>2026-05-01T15:26:05.999Z</time></trkpt><trkpt lat="43.640281500190916" lon="10.317399486050702"><ele>11.0</ele><time>2026-05-01T15:26:06.999Z</time></trkpt><trkpt lat="43.64020738494117" lon="10.317231224746882"><ele>10.666666666666666</ele><time>2026-05-01T15:26:07.999Z</time></trkpt><trkpt lat="43.64012879926492" lon="10.317060732673442"><ele>10.333333333333334</ele><time>2026-05-01T15:26:08.999Z</time></trkpt><trkpt lat="43.640045250943835" lon="10.316882077352698"><ele>10.0</ele><time>2026-05-01T15:26:09.999Z</time></trkpt><trkpt lat="43.63995928910308" lon="10.316691053534853"><ele>10.0</ele><time>2026-05-01T15:26:10.999Z</time></trkpt><trkpt lat="43.63988098803499" lon="10.316514582256405"><ele>10.0</ele><time>2026-05-01T15:26:11.999Z</time></trkpt><trkpt lat="43.63980695642339" lon="10.31634719112971"><ele>10.0</ele><time>2026-05-01T15:26:12.999Z</time></trkpt><trkpt lat="43.63973088488276" lon="10.316174465117847"><ele>10.0</ele><time>2026-05-01T15:26:13.999Z</time></trkpt><trkpt lat="43.639652254144565" lon="10.315999431529125"><ele>10.333333333333334</ele><time>2026-05-01T15:26:14.999Z</time></trkpt><trkpt lat="43.639569713448196" lon="10.31582091236273"><ele>10.666666666666666</ele><time>2026-05-01T15:26:15.999Z</time></trkpt><trkpt lat="43.63948318358734" lon="10.315638676658068"><ele>11.0</ele><time>2026-05-01T15:26:16.999Z</time></trkpt><trkpt lat="43.639401877591624" lon="10.315460663913605"><ele>11.25</ele><time>2026-05-01T15:26:17.999Z</time></trkpt><trkpt lat="43.63932655526956" lon="10.315292206522646"><ele>11.5</ele><time>2026-05-01T15:26:18.999Z</time></trkpt><trkpt lat="43.63924992380928" lon="10.31512154770216"><ele>11.75</ele><time>2026-05-01T15:26:19.999Z</time></trkpt><trkpt lat="43.63917183669609" lon="10.31494740192976"><ele>12.0</ele><time>2026-05-01T15:26:20.999Z</time></trkpt><trkpt lat="43.63909219262337" lon="10.314771584742044"><ele>11.25</ele><time>2026-05-01T15:26:21.999Z</time></trkpt><trkpt lat="43.63901043303584" lon="10.314592761790506"><ele>10.5</ele><time>2026-05-01T15:26:22.999Z</time></trkpt><trkpt lat="43.6389334404355" lon="10.314420083282783"><ele>9.75</ele><time>2026-05-01T15:26:23.999Z</time></trkpt><trkpt lat="43.638856070527105" lon="10.314244562038471"><ele>9.0</ele><time>2026-05-01T15:26:24.999Z</time></trkpt><trkpt lat="43.63877936412048" lon="10.314076594213821"><ele>9.0</ele><time>2026-05-01T15:26:25.999Z</time></trkpt><trkpt lat="43.63870672441814" lon="10.313913504467836"><ele>9.0</ele><time>2026-05-01T15:26:26.999Z</time></trkpt><trkpt lat="43.638634561263416" lon="10.313753685272017"><ele>9.0</ele><time>2026-05-01T15:26:27.999Z</time></trkpt><trkpt lat="43.63856571822385" lon="10.31360169589113"><ele>9.0</ele><time>2026-05-01T15:26:28.999Z</time></trkpt><trkpt lat="43.63849749837641" lon="10.313456610960936"><ele>9.0</ele><time>2026-05-01T15:26:29.999Z</time></trkpt><trkpt lat="43.638432835891386" lon="10.313318938918894"><ele>9.0</ele><time>2026-05-01T15:26:30.999Z</time></trkpt><trkpt lat="43.63836574470836" lon="10.31317794702641"><ele>9.0</ele><time>2026-05-01T15:26:31.999Z</time></trkpt><trkpt lat="43.638299688666464" lon="10.313029268435887"><ele>9.0</ele><time>2026-05-01T15:26:32.999Z</time></trkpt><trkpt lat="43.63822817238976" lon="10.312875309473666"><ele>9.25</ele><time>2026-05-01T15:26:33.999Z</time></trkpt><trkpt lat="43.638156257995" lon="10.312713527423798"><ele>9.5</ele><time>2026-05-01T15:26:34.999Z</time></trkpt><trkpt lat="43.63807919784928" lon="10.312548610286937"><ele>9.75</ele><time>2026-05-01T15:26:35.999Z</time></trkpt><trkpt lat="43.63800611051238" lon="10.312391906128902"><ele>10.0</ele><time>2026-05-01T15:26:36.999Z</time></trkpt><trkpt lat="43.63793809721021" lon="10.31223995534507"><ele>10.5</ele><time>2026-05-01T15:26:37.999Z</time></trkpt><trkpt lat="43.63787416283173" lon="10.312093717182012"><ele>11.0</ele><time>2026-05-01T15:26:38.999Z</time></trkpt><trkpt lat="43.637811119094145" lon="10.311950560383254"><ele>11.5</ele><time>2026-05-01T15:26:39.999Z</time></trkpt><trkpt lat="43.63774572231642" lon="10.31180243617916"><ele>12.0</ele><time>2026-05-01T15:26:40.999Z</time></trkpt><trkpt lat="43.637678259857715" lon="10.31165235085071"><ele>12.0</ele><time>2026-05-01T15:26:41.999Z</time></trkpt><trkpt lat="43.63760802705031" lon="10.311497664925678"><ele>12.0</ele><time>2026-05-01T15:26:42.999Z</time></trkpt><trkpt lat="43.637534602007925" lon="10.311340762043068"><ele>12.0</ele><time>2026-05-01T15:26:43.999Z</time></trkpt><trkpt lat="43.63745778322273" lon="10.311180709855327"><ele>12.0</ele><time>2026-05-01T15:26:44.999Z</time></trkpt><trkpt lat="43.63738203631608" lon="10.311015510560196"><ele>12.25</ele><time>2026-05-01T15:26:46Z</time></trkpt><trkpt lat="43.63730575600173" lon="10.31084689365439"><ele>12.5</ele><time>2026-05-01T15:26:47Z</time></trkpt><trkpt lat="43.63722749172934" lon="10.310677053469824"><ele>12.75</ele><time>2026-05-01T15:26:48Z</time></trkpt><trkpt lat="43.63714891651682" lon="10.310503994464291"><ele>13.0</ele><time>2026-05-01T15:26:49Z</time></trkpt><trkpt lat="43.637069667154776" lon="10.310325173070717"><ele>13.0</ele><time>2026-05-01T15:26:50Z</time></trkpt><trkpt lat="43.636986993759244" lon="10.310143115241168"><ele>13.0</ele><time>2026-05-01T15:26:51Z</time></trkpt><trkpt lat="43.63690229748033" lon="10.309959830837503"><ele>13.0</ele><time>2026-05-01T15:26:52Z</time></trkpt><trkpt lat="43.63682114921671" lon="10.309781694014834"><ele>11.5</ele><time>2026-05-01T15:26:53Z</time></trkpt><trkpt lat="43.63674331323458" lon="10.30961815699581"><ele>10.0</ele><time>2026-05-01T15:26:54Z</time></trkpt><trkpt lat="43.63666509149286" lon="10.309451217021277"><ele>8.5</ele><time>2026-05-01T15:26:55Z</time></trkpt><trkpt lat="43.63658679029424" lon="10.309282398722168"><ele>7.0</ele><time>2026-05-01T15:26:56Z</time></trkpt><trkpt lat="43.63651083101951" lon="10.309109853306005"><ele>7.0</ele><time>2026-05-01T15:26:57Z</time></trkpt><trkpt lat="43.636432340928906" lon="10.308938282802462"><ele>7.0</ele><time>2026-05-01T15:26:58Z</time></trkpt><trkpt lat="43.63635192420928" lon="10.30876601781125"><ele>7.0</ele><time>2026-05-01T15:26:59Z</time></trkpt><trkpt lat="43.636270845086386" lon="10.308592369507677"><ele>7.0</ele><time>2026-05-01T15:27:00Z</time></trkpt><trkpt lat="43.63619231529228" lon="10.308417605245097"><ele>6.75</ele><time>2026-05-01T15:27:01Z</time></trkpt><trkpt lat="43.63611750720682" lon="10.308251330327499"><ele>6.5</ele><time>2026-05-01T15:27:02Z</time></trkpt><trkpt lat="43.63604593789857" lon="10.30809321486512"><ele>6.25</ele><time>2026-05-01T15:27:03Z</time></trkpt><trkpt lat="43.635970112614714" lon="10.307931533880296"><ele>6.0</ele><time>2026-05-01T15:27:04Z</time></trkpt><trkpt lat="43.63589407298864" lon="10.30776697726492"><ele>5.75</ele><time>2026-05-01T15:27:05Z</time></trkpt><trkpt lat="43.63582133228725" lon="10.3076010901899"><ele>5.5</ele><time>2026-05-01T15:27:06Z</time></trkpt><trkpt lat="43.63574940919393" lon="10.307441921304925"><ele>5.25</ele><time>2026-05-01T15:27:07Z</time></trkpt><trkpt lat="43.635675892252976" lon="10.30728092980769"><ele>5.0</ele><time>2026-05-01T15:27:08Z</time></trkpt><trkpt lat="43.635602640322055" lon="10.307116958201538"><ele>4.5</ele><time>2026-05-01T15:27:09Z</time></trkpt><trkpt lat="43.63552841585983" lon="10.306949669146137"><ele>4.0</ele><time>2026-05-01T15:27:10Z</time></trkpt><trkpt lat="43.63545060725057" lon="10.3067871741538"><ele>3.5</ele><time>2026-05-01T15:27:11Z</time></trkpt><trkpt lat="43.63537202361036" lon="10.306624059801601"><ele>3.0</ele><time>2026-05-01T15:27:12Z</time></trkpt><trkpt lat="43.63529754776539" lon="10.30645587073621"><ele>2.75</ele><time>2026-05-01T15:27:13Z</time></trkpt><trkpt lat="43.63522010574993" lon="10.306288356632443"><ele>2.5</ele><time>2026-05-01T15:27:14Z</time></trkpt><trkpt lat="43.63514168275771" lon="10.306118243276156"><ele>2.25</ele><time>2026-05-01T15:27:15Z</time></trkpt><trkpt lat="43.63506754421199" lon="10.305951361974149"><ele>2.0</ele><time>2026-05-01T15:27:16Z</time></trkpt><trkpt lat="43.63499379990266" lon="10.305795531286467"><ele>2.0</ele><time>2026-05-01T15:27:17Z</time></trkpt><trkpt lat="43.634922831632466" lon="10.305642551711104"><ele>2.0</ele><time>2026-05-01T15:27:18Z</time></trkpt><trkpt lat="43.6348553543556" lon="10.305492674742524"><ele>2.0</ele><time>2026-05-01T15:27:19Z</time></trkpt><trkpt lat="43.634789075887326" lon="10.30534837074256"><ele>2.0</ele><time>2026-05-01T15:27:20Z</time></trkpt><trkpt lat="43.63472648100247" lon="10.305207585882785"><ele>1.5</ele><time>2026-05-01T15:27:21Z</time></trkpt><trkpt lat="43.63466429422128" lon="10.305066778351636"><ele>1.0</ele><time>2026-05-01T15:27:22Z</time></trkpt><trkpt lat="43.63460270269653" lon="10.304930309777086"><ele>0.5</ele><time>2026-05-01T15:27:23Z</time></trkpt><trkpt lat="43.6345416624789" lon="10.304793406486603"><ele>0.0</ele><time>2026-05-01T15:27:24Z</time></trkpt><trkpt lat="43.63448019085713" lon="10.304660452043658"><ele>0.8</ele><time>2026-05-01T15:27:25Z</time></trkpt><trkpt lat="43.63441935858649" lon="10.304526631773038"><ele>1.6</ele><time>2026-05-01T15:27:26Z</time></trkpt><trkpt lat="43.63435671375431" lon="10.30439164436426"><ele>2.4000000000000004</ele><time>2026-05-01T15:27:27Z</time></trkpt><trkpt lat="43.634297484213626" lon="10.304256697961218"><ele>3.2</ele><time>2026-05-01T15:27:28Z</time></trkpt><trkpt lat="43.634243358500875" lon="10.30413684644657"><ele>4.0</ele><time>2026-05-01T15:27:29Z</time></trkpt><trkpt lat="43.63419487582619" lon="10.304027968765785"><ele>3.9999999999999996</ele><time>2026-05-01T15:27:30Z</time></trkpt><trkpt lat="43.63415164952058" lon="10.303925471035146"><ele>4.0</ele><time>2026-05-01T15:27:31Z</time></trkpt><trkpt lat="43.634110933063205" lon="10.303828334091277"><ele>4.0</ele><time>2026-05-01T15:27:32Z</time></trkpt><trkpt lat="43.63407309674726" lon="10.303740565041839"><ele>4.0</ele><time>2026-05-01T15:27:33Z</time></trkpt><trkpt lat="43.63403351416387" lon="10.303663496676707"><ele>3.9999999999999996</ele><time>2026-05-01T15:27:34Z</time></trkpt><trkpt lat="43.63399369775258" lon="10.303578691969317"><ele>4.0</ele><time>2026-05-01T15:27:35Z</time></trkpt><trkpt lat="43.63394677645965" lon="10.303493907612417"><ele>3.9999999999999996</ele><time>2026-05-01T15:27:36Z</time></trkpt><trkpt lat="43.633907175650556" lon="10.3034159564805"><ele>4.0</ele><time>2026-05-01T15:27:36.999Z</time></trkpt><trkpt lat="43.63387086406964" lon="10.303333927925658"><ele>4.0</ele><time>2026-05-01T15:27:37.999Z</time></trkpt><trkpt lat="43.633832133518744" lon="10.303242350948297"><ele>4.0</ele><time>2026-05-01T15:27:38.999Z</time></trkpt><trkpt lat="43.633787930884914" lon="10.303146108485329"><ele>3.9999999999999996</ele><time>2026-05-01T15:27:39.999Z</time></trkpt><trkpt lat="43.633743078248344" lon="10.30305374359105"><ele>4.0</ele><time>2026-05-01T15:27:40.999Z</time></trkpt><trkpt lat="43.63369792929876" lon="10.302950091407492"><ele>3.6666666666666665</ele><time>2026-05-01T15:27:41.999Z</time></trkpt><trkpt lat="43.63365500076057" lon="10.302857706750007"><ele>3.333333333333333</ele><time>2026-05-01T15:27:42.999Z</time></trkpt><trkpt lat="43.63361302731542" lon="10.30276286359924"><ele>3.0</ele><time>2026-05-01T15:27:43.999Z</time></trkpt><trkpt lat="43.63356698483501" lon="10.302662011591346"><ele>2.6666666666666665</ele><time>2026-05-01T15:27:44.999Z</time></trkpt><trkpt lat="43.63352047590206" lon="10.302558416203462"><ele>2.333333333333333</ele><time>2026-05-01T15:27:45.999Z</time></trkpt><trkpt lat="43.6334726744761" lon="10.302455149289957"><ele>2.0</ele><time>2026-05-01T15:27:46.999Z</time></trkpt><trkpt lat="43.63342391125732" lon="10.302346301297515"><ele>1.6</ele><time>2026-05-01T15:27:47.999Z</time></trkpt><trkpt lat="43.63337154115199" lon="10.302237927365464"><ele>1.2000000000000002</ele><time>2026-05-01T15:27:48.999Z</time></trkpt><trkpt lat="43.633318901262705" lon="10.302126749904568"><ele>0.8</ele><time>2026-05-01T15:27:49.999Z</time></trkpt><trkpt lat="43.63327150969056" lon="10.302019597134645"><ele>0.4</ele><time>2026-05-01T15:27:50.999Z</time></trkpt><trkpt lat="43.633227330433066" lon="10.301919442820095"><ele>0.0</ele><time>2026-05-01T15:27:51.999Z</time></trkpt><trkpt lat="43.633182109194216" lon="10.301819614138276"><ele>0.0</ele><time>2026-05-01T15:27:52.999Z</time></trkpt><trkpt lat="43.63312685347454" lon="10.301707555391328"><ele>0.0</ele><time>2026-05-01T15:27:53.999Z</time></trkpt><trkpt lat="43.63306356409262" lon="10.301578534558248"><ele>0.0</ele><time>2026-05-01T15:27:54.999Z</time></trkpt><trkpt lat="43.63299614519937" lon="10.301430980550267"><ele>0.0</ele><time>2026-05-01T15:27:55.999Z</time></trkpt><trkpt lat="43.63293559281893" lon="10.301290448417966"><ele>0.0</ele><time>2026-05-01T15:27:56.999Z</time></trkpt><trkpt lat="43.63287112406073" lon="10.301151520470132"><ele>0.0</ele><time>2026-05-01T15:27:57.999Z</time></trkpt><trkpt lat="43.632808968023994" lon="10.301023856731838"><ele>0.0</ele><time>2026-05-01T15:27:58.999Z</time></trkpt><trkpt lat="43.63275917833221" lon="10.300918528791739"><ele>0.0</ele><time>2026-05-01T15:27:59.999Z</time></trkpt><trkpt lat="43.63272037520685" lon="10.300828518447204"><ele>0.0</ele><time>2026-05-01T15:28:00.999Z</time></trkpt><trkpt lat="43.63266289815158" lon="10.300697703285255"><ele>0.2</ele><time>2026-05-01T15:28:02.999Z</time></trkpt><trkpt lat="43.632607612555375" lon="10.300580927749632"><ele>0.4</ele><time>2026-05-01T15:28:04.999Z</time></trkpt><trkpt lat="43.632539015321456" lon="10.300439112866718"><ele>0.6000000000000001</ele><time>2026-05-01T15:28:06.999Z</time></trkpt><trkpt lat="43.632472457095254" lon="10.300290319036337"><ele>0.8</ele><time>2026-05-01T15:28:08.999Z</time></trkpt><trkpt lat="43.63243095729351" lon="10.300204706646994"><ele>1.0</ele><time>2026-05-01T15:28:09.999Z</time></trkpt><trkpt lat="43.63239148305795" lon="10.300109391509931"><ele>0.9999999999999999</ele><time>2026-05-01T15:28:10.999Z</time></trkpt><trkpt lat="43.63234917065299" lon="10.300019854940713"><ele>1.0</ele><time>2026-05-01T15:28:11.999Z</time></trkpt><trkpt lat="43.63231289622421" lon="10.299940722991503"><ele>1.0</ele><time>2026-05-01T15:28:12.999Z</time></trkpt><trkpt lat="43.632278143411845" lon="10.299859894128907"><ele>1.0</ele><time>2026-05-01T15:28:13.999Z</time></trkpt><trkpt lat="43.63223847317511" lon="10.299772321333386"><ele>0.9999999999999999</ele><time>2026-05-01T15:28:14.999Z</time></trkpt><trkpt lat="43.632192848509106" lon="10.299679854859091"><ele>1.0</ele><time>2026-05-01T15:28:15.999Z</time></trkpt><trkpt lat="43.632148000352814" lon="10.2995824309726"><ele>1.1666666666666665</ele><time>2026-05-01T15:28:16.999Z</time></trkpt><trkpt lat="43.63210157452503" lon="10.299480601117555"><ele>1.3333333333333333</ele><time>2026-05-01T15:28:17.999Z</time></trkpt><trkpt lat="43.63205660247514" lon="10.299373626864584"><ele>1.5</ele><time>2026-05-01T15:28:18.999Z</time></trkpt><trkpt lat="43.63200773991053" lon="10.29926893858069"><ele>1.6666666666666665</ele><time>2026-05-01T15:28:19.999Z</time></trkpt><trkpt lat="43.63196544409638" lon="10.299172548777408"><ele>1.8333333333333333</ele><time>2026-05-01T15:28:20.999Z</time></trkpt><trkpt lat="43.6319247691992" lon="10.299083284955968"><ele>2.0</ele><time>2026-05-01T15:28:21.999Z</time></trkpt><trkpt lat="43.63188708700477" lon="10.29899688248893"><ele>2.2857142857142856</ele><time>2026-05-01T15:28:22.999Z</time></trkpt><trkpt lat="43.631848156328815" lon="10.298917460845995"><ele>2.571428571428571</ele><time>2026-05-01T15:28:23.999Z</time></trkpt><trkpt lat="43.631811000440074" lon="10.29883335637662"><ele>2.8571428571428568</ele><time>2026-05-01T15:28:24.999Z</time></trkpt><trkpt lat="43.63176513623154" lon="10.298742701855515"><ele>3.142857142857143</ele><time>2026-05-01T15:28:25.999Z</time></trkpt><trkpt lat="43.63172526745015" lon="10.29865039903604"><ele>3.428571428571428</ele><time>2026-05-01T15:28:26.999Z</time></trkpt><trkpt lat="43.63168788533421" lon="10.298565530171759"><ele>3.714285714285714</ele><time>2026-05-01T15:28:27.999Z</time></trkpt><trkpt lat="43.63165283788331" lon="10.298487352441633"><ele>4.0</ele><time>2026-05-01T15:28:28.999Z</time></trkpt><trkpt lat="43.63162024855308" lon="10.29841025666845"><ele>3.9999999999999996</ele><time>2026-05-01T15:28:29.999Z</time></trkpt><trkpt lat="43.63157967188024" lon="10.298325525477106"><ele>4.0</ele><time>2026-05-01T15:28:30.999Z</time></trkpt><trkpt lat="43.63154008033347" lon="10.298235720544858"><ele>4.0</ele><time>2026-05-01T15:28:31.999Z</time></trkpt><trkpt lat="43.631497180770715" lon="10.298147277767633"><ele>4.0</ele><time>2026-05-01T15:28:32.999Z</time></trkpt><trkpt lat="43.63145820774147" lon="10.298058185327218"><ele>3.9999999999999996</ele><time>2026-05-01T15:28:33.999Z</time></trkpt><trkpt lat="43.63141099688425" lon="10.297955179899816"><ele>4.0</ele><time>2026-05-01T15:28:34.999Z</time></trkpt><trkpt lat="43.63136185239893" lon="10.297851775718565"><ele>4.6</ele><time>2026-05-01T15:28:35.999Z</time></trkpt><trkpt lat="43.63132041627464" lon="10.297756118182404"><ele>5.2</ele><time>2026-05-01T15:28:36.999Z</time></trkpt><trkpt lat="43.631280751445225" lon="10.297671867904349"><ele>5.799999999999999</ele><time>2026-05-01T15:28:37.999Z</time></trkpt><trkpt lat="43.631245703268455" lon="10.29759285026463"><ele>6.3999999999999995</ele><time>2026-05-01T15:28:38.999Z</time></trkpt><trkpt lat="43.63118445610572" lon="10.297455881411155"><ele>7.0</ele><time>2026-05-01T15:28:40.999Z</time></trkpt><trkpt lat="43.63112636512039" lon="10.297319682677562"><ele>7.199999999999999</ele><time>2026-05-01T15:28:42.999Z</time></trkpt><trkpt lat="43.63106303710207" lon="10.297187313584901"><ele>7.3999999999999995</ele><time>2026-05-01T15:28:44.999Z</time></trkpt><trkpt lat="43.63102293958968" lon="10.29710346006168"><ele>7.6000000000000005</ele><time>2026-05-01T15:28:45.999Z</time></trkpt><trkpt lat="43.630979961575505" lon="10.297008947406782"><ele>7.800000000000001</ele><time>2026-05-01T15:28:46.999Z</time></trkpt><trkpt lat="43.63093269552973" lon="10.296903427962262"><ele>8.0</ele><time>2026-05-01T15:28:47.999Z</time></trkpt><trkpt lat="43.630881878553936" lon="10.296791099381295"><ele>8.0</ele><time>2026-05-01T15:28:48.999Z</time></trkpt><trkpt lat="43.630825924544666" lon="10.296674707521722"><ele>8.0</ele><time>2026-05-01T15:28:49.999Z</time></trkpt><trkpt lat="43.630770197287084" lon="10.296545264312321"><ele>8.0</ele><time>2026-05-01T15:28:50.999Z</time></trkpt><trkpt lat="43.63070917788133" lon="10.296413383746307"><ele>8.0</ele><time>2026-05-01T15:28:52Z</time></trkpt><trkpt lat="43.63064505118074" lon="10.296274654447881"><ele>8.0</ele><time>2026-05-01T15:28:53Z</time></trkpt><trkpt lat="43.63058780200382" lon="10.296150741483016"><ele>7.999999999999999</ele><time>2026-05-01T15:28:54Z</time></trkpt><trkpt lat="43.63053576100993" lon="10.2960361137925"><ele>8.0</ele><time>2026-05-01T15:28:55Z</time></trkpt><trkpt lat="43.63048935873356" lon="10.295931976154638"><ele>8.0</ele><time>2026-05-01T15:28:56Z</time></trkpt><trkpt lat="43.63045367456348" lon="10.295846878924026"><ele>8.0</ele><time>2026-05-01T15:28:57Z</time></trkpt><trkpt lat="43.63040654455336" lon="10.295745688614762"><ele>7.999999999999999</ele><time>2026-05-01T15:28:59Z</time></trkpt><trkpt lat="43.63036091307529" lon="10.295658222844802"><ele>8.0</ele><time>2026-05-01T15:29:03Z</time></trkpt><trkpt lat="43.630322412598034" lon="10.295576483943046"><ele>7.833333333333333</ele><time>2026-05-01T15:29:05Z</time></trkpt><trkpt lat="43.63029147715339" lon="10.295494941969245"><ele>7.666666666666666</ele><time>2026-05-01T15:29:08Z</time></trkpt><trkpt lat="43.63027887167939" lon="10.295369296577787"><ele>7.5</ele><time>2026-05-01T15:29:13Z</time></trkpt><trkpt lat="43.630292929173926" lon="10.295259970284468"><ele>7.333333333333334</ele><time>2026-05-01T15:29:16Z</time></trkpt><trkpt lat="43.63024222911338" lon="10.295155421912922"><ele>7.166666666666667</ele><time>2026-05-01T15:29:20Z</time></trkpt><trkpt lat="43.63016894775607" lon="10.295130998325657"><ele>7.0</ele><time>2026-05-01T15:29:22Z</time></trkpt><trkpt lat="43.630090053611966" lon="10.295041100069092"><ele>7.0</ele><time>2026-05-01T15:29:24Z</time></trkpt><trkpt lat="43.63003510304781" lon="10.294936637802184"><ele>6.999999999999999</ele><time>2026-05-01T15:29:26Z</time></trkpt><trkpt lat="43.629983933342835" lon="10.29482657117126"><ele>6.999999999999999</ele><time>2026-05-01T15:29:28Z</time></trkpt><trkpt lat="43.62991573873495" lon="10.29467067778548"><ele>7.0</ele><time>2026-05-01T15:29:30Z</time></trkpt><trkpt lat="43.6298780659066" lon="10.294581841948139"><ele>7.0</ele><time>2026-05-01T15:29:31Z</time></trkpt><trkpt lat="43.6298421227785" lon="10.294497575353423"><ele>7.0</ele><time>2026-05-01T15:29:32Z</time></trkpt><trkpt lat="43.62977232988641" lon="10.294331412552085"><ele>6.999999999999999</ele><time>2026-05-01T15:29:34Z</time></trkpt><trkpt lat="43.629733632971885" lon="10.29425292014811"><ele>6.999999999999999</ele><time>2026-05-01T15:29:35Z</time></trkpt><trkpt lat="43.629668985990975" lon="10.294105932615917"><ele>7.0</ele><time>2026-05-01T15:29:37Z</time></trkpt><trkpt lat="43.62963374928573" lon="10.294027945539202"><ele>7.0</ele><time>2026-05-01T15:29:38Z</time></trkpt><trkpt lat="43.629569600338804" lon="10.29389422188396"><ele>7.000000000000001</ele><time>2026-05-01T15:29:40Z</time></trkpt><trkpt lat="43.62953647811041" lon="10.29381961509423"><ele>7.0</ele><time>2026-05-01T15:29:41Z</time></trkpt><trkpt lat="43.62949603244249" lon="10.293738319934157"><ele>7.0</ele><time>2026-05-01T15:29:42Z</time></trkpt><trkpt lat="43.629459435930265" lon="10.293657291312044"><ele>7.0</ele><time>2026-05-01T15:29:43Z</time></trkpt><trkpt lat="43.62939877329637" lon="10.293529079900512"><ele>7.000000000000001</ele><time>2026-05-01T15:29:45Z</time></trkpt><trkpt lat="43.62932999490644" lon="10.293375885258808"><ele>7.0</ele><time>2026-05-01T15:29:47Z</time></trkpt><trkpt lat="43.62926976005651" lon="10.29324561521904"><ele>6.833333333333334</ele><time>2026-05-01T15:29:49Z</time></trkpt><trkpt lat="43.62923218859327" lon="10.293169940694096"><ele>6.666666666666667</ele><time>2026-05-01T15:29:50Z</time></trkpt><trkpt lat="43.629172094421854" lon="10.293036676793978"><ele>6.5</ele><time>2026-05-01T15:29:52Z</time></trkpt><trkpt lat="43.62913393717757" lon="10.292955201470415"><ele>6.333333333333334</ele><time>2026-05-01T15:29:53Z</time></trkpt><trkpt lat="43.62909215949799" lon="10.292865759846423"><ele>6.166666666666667</ele><time>2026-05-01T15:29:54Z</time></trkpt><trkpt lat="43.629051113663024" lon="10.292781985014443"><ele>6.0</ele><time>2026-05-01T15:29:54.999Z</time></trkpt><trkpt lat="43.62901143093083" lon="10.292701865799787"><ele>5.666666666666667</ele><time>2026-05-01T15:29:55.999Z</time></trkpt><trkpt lat="43.62895033620539" lon="10.292565768273828"><ele>5.333333333333333</ele><time>2026-05-01T15:29:57.999Z</time></trkpt><trkpt lat="43.62890274436287" lon="10.292460504090858"><ele>5.0</ele><time>2026-05-01T15:29:59.999Z</time></trkpt><trkpt lat="43.62886155007255" lon="10.292366346476518"><ele>4.666666666666666</ele><time>2026-05-01T15:30:01.999Z</time></trkpt><trkpt lat="43.62882300460503" lon="10.292281518937072"><ele>4.333333333333333</ele><time>2026-05-01T15:30:03.999Z</time></trkpt><trkpt lat="43.628793642950235" lon="10.29218009908367"><ele>4.0</ele><time>2026-05-01T15:30:05.999Z</time></trkpt><trkpt lat="43.62879118070467" lon="10.292083254247384"><ele>3.9999999999999996</ele><time>2026-05-01T15:30:07.999Z</time></trkpt><trkpt lat="43.628797514532046" lon="10.291971149565798"><ele>4.0</ele><time>2026-05-01T15:30:11.999Z</time></trkpt><trkpt lat="43.62881334956979" lon="10.291855192414596"><ele>4.0</ele><time>2026-05-01T15:30:14.999Z</time></trkpt><trkpt lat="43.628814763830995" lon="10.2917622191851"><ele>4.0</ele><time>2026-05-01T15:30:16.999Z</time></trkpt><trkpt lat="43.62876492166236" lon="10.291683955445041"><ele>3.9999999999999996</ele><time>2026-05-01T15:30:18.999Z</time></trkpt><trkpt lat="43.62868567726467" lon="10.29165819410682"><ele>4.0</ele><time>2026-05-01T15:30:20.999Z</time></trkpt><trkpt lat="43.62862370192351" lon="10.291637366928391"><ele>3.6666666666666665</ele><time>2026-05-01T15:30:25.999Z</time></trkpt><trkpt lat="43.62855384082716" lon="10.291610497046596"><ele>3.333333333333333</ele><time>2026-05-01T15:30:30.999Z</time></trkpt><trkpt lat="43.62847804077669" lon="10.291625264610527"><ele>3.0</ele><time>2026-05-01T15:30:34.999Z</time></trkpt><trkpt lat="43.62839922711028" lon="10.291600786651852"><ele>2.6666666666666665</ele><time>2026-05-01T15:30:36.999Z</time></trkpt><trkpt lat="43.62831740777178" lon="10.291595738133182"><ele>2.333333333333333</ele><time>2026-05-01T15:30:38.999Z</time></trkpt><trkpt lat="43.62822476625983" lon="10.291602375433873"><ele>2.0</ele><time>2026-05-01T15:30:40.999Z</time></trkpt><trkpt lat="43.62815738019644" lon="10.291598561784731"><ele>2.0</ele><time>2026-05-01T15:30:41.999Z</time></trkpt><trkpt lat="43.62808513205977" lon="10.291604476844624"><ele>2.0</ele><time>2026-05-01T15:30:42.999Z</time></trkpt><trkpt lat="43.62795804669707" lon="10.291583772334166"><ele>2.0</ele><time>2026-05-01T15:30:44.999Z</time></trkpt><trkpt lat="43.62785693635404" lon="10.291579495200448"><ele>2.0</ele><time>2026-05-01T15:30:46.999Z</time></trkpt><trkpt lat="43.627779257167425" lon="10.29157620924547"><ele>2.0</ele><time>2026-05-01T15:30:48.999Z</time></trkpt><trkpt lat="43.627668395463836" lon="10.291589716221774"><ele>1.9999999999999998</ele><time>2026-05-01T15:30:50.999Z</time></trkpt><trkpt lat="43.62760338603333" lon="10.291573724508423"><ele>2.0</ele><time>2026-05-01T15:30:51.999Z</time></trkpt><trkpt lat="43.627527750358254" lon="10.291563788032082"><ele>2.0</ele><time>2026-05-01T15:30:52.999Z</time></trkpt><trkpt lat="43.627445082769064" lon="10.291561194545222"><ele>2.0</ele><time>2026-05-01T15:30:53.999Z</time></trkpt><trkpt lat="43.62735866761382" lon="10.291559166275432"><ele>1.9999999999999998</ele><time>2026-05-01T15:30:54.999Z</time></trkpt><trkpt lat="43.62727413332139" lon="10.291553899716597"><ele>2.0</ele><time>2026-05-01T15:30:55.999Z</time></trkpt><trkpt lat="43.62719196053827" lon="10.29155223848541"><ele>2.0</ele><time>2026-05-01T15:30:56.999Z</time></trkpt><trkpt lat="43.62712019018986" lon="10.291550032709345"><ele>1.9999999999999998</ele><time>2026-05-01T15:30:58Z</time></trkpt><trkpt lat="43.627050833764486" lon="10.291551675353793"><ele>2.0</ele><time>2026-05-01T15:30:59Z</time></trkpt><trkpt lat="43.62697322963332" lon="10.291552596791535"><ele>2.0</ele><time>2026-05-01T15:31:00Z</time></trkpt><trkpt lat="43.62689462187494" lon="10.291549071286042"><ele>1.9999999999999998</ele><time>2026-05-01T15:31:01Z</time></trkpt><trkpt lat="43.62682611367326" lon="10.29154600342637"><ele>2.0</ele><time>2026-05-01T15:31:02Z</time></trkpt><trkpt lat="43.626761890788266" lon="10.291543540742902"><ele>2.0</ele><time>2026-05-01T15:31:03Z</time></trkpt><trkpt lat="43.626642585441104" lon="10.29154319623336"><ele>2.333333333333333</ele><time>2026-05-01T15:31:05Z</time></trkpt><trkpt lat="43.62657782535446" lon="10.291544799005024"><ele>2.6666666666666665</ele><time>2026-05-01T15:31:06Z</time></trkpt><trkpt lat="43.62650441362451" lon="10.291545077292197"><ele>3.0</ele><time>2026-05-01T15:31:07Z</time></trkpt><trkpt lat="43.626426867349885" lon="10.291546519617006"><ele>3.333333333333333</ele><time>2026-05-01T15:31:08Z</time></trkpt><trkpt lat="43.626357398933045" lon="10.291522363423905"><ele>3.6666666666666665</ele><time>2026-05-01T15:31:09Z</time></trkpt><trkpt lat="43.62627591150543" lon="10.291520369034421"><ele>4.0</ele><time>2026-05-01T15:31:10Z</time></trkpt><trkpt lat="43.626194505854514" lon="10.291535146951174"><ele>4.333333333333333</ele><time>2026-05-01T15:31:11Z</time></trkpt><trkpt lat="43.626120581655535" lon="10.291531605251496"><ele>4.666666666666666</ele><time>2026-05-01T15:31:12Z</time></trkpt><trkpt lat="43.62604019704753" lon="10.291525008694988"><ele>5.0</ele><time>2026-05-01T15:31:13Z</time></trkpt><trkpt lat="43.62595780185849" lon="10.291521261335731"><ele>5.333333333333333</ele><time>2026-05-01T15:31:14Z</time></trkpt><trkpt lat="43.625882169277276" lon="10.291520559563914"><ele>5.666666666666667</ele><time>2026-05-01T15:31:15Z</time></trkpt><trkpt lat="43.62580814623012" lon="10.291519796678537"><ele>6.0</ele><time>2026-05-01T15:31:16Z</time></trkpt><trkpt lat="43.625730813251664" lon="10.291517700555664"><ele>6.0</ele><time>2026-05-01T15:31:17Z</time></trkpt><trkpt lat="43.625640682853344" lon="10.291512644246605"><ele>6.0</ele><time>2026-05-01T15:31:18Z</time></trkpt><trkpt lat="43.625544948594225" lon="10.291503928846419"><ele>6.0</ele><time>2026-05-01T15:31:19Z</time></trkpt><trkpt lat="43.62544079219657" lon="10.291498144039274"><ele>6.0</ele><time>2026-05-01T15:31:20Z</time></trkpt><trkpt lat="43.62533041126085" lon="10.291492177804024"><ele>6.0</ele><time>2026-05-01T15:31:21Z</time></trkpt><trkpt lat="43.625211386080224" lon="10.291481547054595"><ele>6.5</ele><time>2026-05-01T15:31:22Z</time></trkpt><trkpt lat="43.62509355766555" lon="10.291477266453155"><ele>7.0</ele><time>2026-05-01T15:31:23Z</time></trkpt><trkpt lat="43.62496849144264" lon="10.291472753281864"><ele>7.5</ele><time>2026-05-01T15:31:24Z</time></trkpt><trkpt lat="43.624839609344214" lon="10.291469953722906"><ele>8.0</ele><time>2026-05-01T15:31:25Z</time></trkpt><trkpt lat="43.62470532901401" lon="10.2914697722349"><ele>8.0</ele><time>2026-05-01T15:31:26Z</time></trkpt><trkpt lat="43.62456635115783" lon="10.291467335494765"><ele>8.0</ele><time>2026-05-01T15:31:27Z</time></trkpt><trkpt lat="43.62442717750988" lon="10.291465021554279"><ele>8.0</ele><time>2026-05-01T15:31:28Z</time></trkpt><trkpt lat="43.62428846558479" lon="10.29145901888903"><ele>8.0</ele><time>2026-05-01T15:31:29Z</time></trkpt><trkpt lat="43.62415126642367" lon="10.291453519829734"><ele>8.0</ele><time>2026-05-01T15:31:30Z</time></trkpt><trkpt lat="43.62400927777307" lon="10.291450906807484"><ele>8.0</ele><time>2026-05-01T15:31:31Z</time></trkpt><trkpt lat="43.6238636765009" lon="10.291446065058052"><ele>8.0</ele><time>2026-05-01T15:31:32Z</time></trkpt><trkpt lat="43.62371621061529" lon="10.291440780469099"><ele>8.0</ele><time>2026-05-01T15:31:33Z</time></trkpt><trkpt lat="43.62355519295374" lon="10.291394157938345"><ele>8.0</ele><time>2026-05-01T15:31:34Z</time></trkpt><trkpt lat="43.62340620324149" lon="10.291412860195667"><ele>8.0</ele><time>2026-05-01T15:31:35Z</time></trkpt><trkpt lat="43.62324652800915" lon="10.291411053726915"><ele>8.0</ele><time>2026-05-01T15:31:36Z</time></trkpt><trkpt lat="43.62308475723582" lon="10.291401927513954"><ele>8.0</ele><time>2026-05-01T15:31:37Z</time></trkpt><trkpt lat="43.62292112049938" lon="10.291394466057444"><ele>8.0</ele><time>2026-05-01T15:31:38Z</time></trkpt><trkpt lat="43.622754747318226" lon="10.29139125135057"><ele>8.0</ele><time>2026-05-01T15:31:39Z</time></trkpt><trkpt lat="43.62259220925786" lon="10.291385745020735"><ele>8.0</ele><time>2026-05-01T15:31:40Z</time></trkpt><trkpt lat="43.62243728038894" lon="10.291384782996726"><ele>8.0</ele><time>2026-05-01T15:31:41Z</time></trkpt><trkpt lat="43.62228249392363" lon="10.291381057034512"><ele>8.0</ele><time>2026-05-01T15:31:42Z</time></trkpt><trkpt lat="43.62212725195717" lon="10.29138011124718"><ele>8.0</ele><time>2026-05-01T15:31:43Z</time></trkpt><trkpt lat="43.62196734105891" lon="10.291376521557481"><ele>8.0</ele><time>2026-05-01T15:31:44Z</time></trkpt><trkpt lat="43.62181712834076" lon="10.291371179414549"><ele>8.0</ele><time>2026-05-01T15:31:45Z</time></trkpt><trkpt lat="43.62167413341219" lon="10.291367077607937"><ele>8.0</ele><time>2026-05-01T15:31:46Z</time></trkpt><trkpt lat="43.62153557092709" lon="10.291360768608056"><ele>8.0</ele><time>2026-05-01T15:31:47Z</time></trkpt><trkpt lat="43.62140205346313" lon="10.29136005983069"><ele>8.0</ele><time>2026-05-01T15:31:48Z</time></trkpt><trkpt lat="43.621278761129524" lon="10.291362371898346"><ele>8.0</ele><time>2026-05-01T15:31:49Z</time></trkpt><trkpt lat="43.62116220207573" lon="10.291360348957888"><ele>7.5</ele><time>2026-05-01T15:31:50Z</time></trkpt><trkpt lat="43.621040905620106" lon="10.291352471208299"><ele>7.0</ele><time>2026-05-01T15:31:51Z</time></trkpt><trkpt lat="43.62091601606676" lon="10.29134691893997"><ele>6.5</ele><time>2026-05-01T15:31:52Z</time></trkpt><trkpt lat="43.620786675413996" lon="10.291342378733363"><ele>6.0</ele><time>2026-05-01T15:31:53Z</time></trkpt><trkpt lat="43.620663578378505" lon="10.291336990878689"><ele>6.0</ele><time>2026-05-01T15:31:54Z</time></trkpt><trkpt lat="43.62054751700684" lon="10.291332451220429"><ele>6.0</ele><time>2026-05-01T15:31:55Z</time></trkpt><trkpt lat="43.62043290826586" lon="10.291326484882719"><ele>6.0</ele><time>2026-05-01T15:31:56Z</time></trkpt><trkpt lat="43.620326844873226" lon="10.291322149648526"><ele>6.0</ele><time>2026-05-01T15:31:57Z</time></trkpt><trkpt lat="43.620225180107184" lon="10.291318692153919"><ele>6.0</ele><time>2026-05-01T15:31:58Z</time></trkpt><trkpt lat="43.62012681664978" lon="10.291315945475063"><ele>5.8</ele><time>2026-05-01T15:31:59Z</time></trkpt><trkpt lat="43.62002891099166" lon="10.291311658861122"><ele>5.6</ele><time>2026-05-01T15:31:59.999Z</time></trkpt><trkpt lat="43.61993464513005" lon="10.291308812037075"><ele>5.4</ele><time>2026-05-01T15:32:00.999Z</time></trkpt><trkpt lat="43.6198390293091" lon="10.291306917006837"><ele>5.2</ele><time>2026-05-01T15:32:01.999Z</time></trkpt><trkpt lat="43.619739578142756" lon="10.291302029142248"><ele>5.0</ele><time>2026-05-01T15:32:02.999Z</time></trkpt><trkpt lat="43.61964795273255" lon="10.291297968032433"><ele>5.0</ele><time>2026-05-01T15:32:03.999Z</time></trkpt><trkpt lat="43.61955602965174" lon="10.291297540807028"><ele>5.0</ele><time>2026-05-01T15:32:04.999Z</time></trkpt><trkpt lat="43.619451083904956" lon="10.291294250152562"><ele>5.0</ele><time>2026-05-01T15:32:05.999Z</time></trkpt><trkpt lat="43.61933883198332" lon="10.291286688804961"><ele>5.0</ele><time>2026-05-01T15:32:06.999Z</time></trkpt><trkpt lat="43.61922411131078" lon="10.291290365636788"><ele>5.0</ele><time>2026-05-01T15:32:07.999Z</time></trkpt><trkpt lat="43.61910591332334" lon="10.291264414974295"><ele>5.0</ele><time>2026-05-01T15:32:08.999Z</time></trkpt><trkpt lat="43.61898496789534" lon="10.29126117978436"><ele>5.0</ele><time>2026-05-01T15:32:09.999Z</time></trkpt><trkpt lat="43.6188576900392" lon="10.291257015088927"><ele>5.0</ele><time>2026-05-01T15:32:10.999Z</time></trkpt><trkpt lat="43.61872861899656" lon="10.291252750496202"><ele>5.0</ele><time>2026-05-01T15:32:11.999Z</time></trkpt><trkpt lat="43.61859942101667" lon="10.29124821403143"><ele>5.0</ele><time>2026-05-01T15:32:12.999Z</time></trkpt><trkpt lat="43.618467761733804" lon="10.291244007166338"><ele>5.0</ele><time>2026-05-01T15:32:13.999Z</time></trkpt><trkpt lat="43.61833469506201" lon="10.291239038826022"><ele>5.0</ele><time>2026-05-01T15:32:14.999Z</time></trkpt><trkpt lat="43.618202705376675" lon="10.291233881496533"><ele>5.0</ele><time>2026-05-01T15:32:15.999Z</time></trkpt><trkpt lat="43.618068385036516" lon="10.291228506395239"><ele>5.0</ele><time>2026-05-01T15:32:16.999Z</time></trkpt><trkpt lat="43.61793516953684" lon="10.291224021740014"><ele>5.0</ele><time>2026-05-01T15:32:17.999Z</time></trkpt><trkpt lat="43.617804028037106" lon="10.29121938642408"><ele>5.0</ele><time>2026-05-01T15:32:18.999Z</time></trkpt><trkpt lat="43.617669918631115" lon="10.291214446440282"><ele>5.0</ele><time>2026-05-01T15:32:19.999Z</time></trkpt><trkpt lat="43.61754021923669" lon="10.291209758306373"><ele>5.0</ele><time>2026-05-01T15:32:20.999Z</time></trkpt><trkpt lat="43.617405069607045" lon="10.291204904494318"><ele>5.0</ele><time>2026-05-01T15:32:21.999Z</time></trkpt><trkpt lat="43.617273729143804" lon="10.29120023306135"><ele>5.0</ele><time>2026-05-01T15:32:22.999Z</time></trkpt><trkpt lat="43.61714195807907" lon="10.291195546315045"><ele>5.0</ele><time>2026-05-01T15:32:23.999Z</time></trkpt><trkpt lat="43.61700716038195" lon="10.291203544716337"><ele>5.0</ele><time>2026-05-01T15:32:24.999Z</time></trkpt><trkpt lat="43.61687332600574" lon="10.291201534616278"><ele>5.0</ele><time>2026-05-01T15:32:25.999Z</time></trkpt><trkpt lat="43.616740734024" lon="10.291198607059822"><ele>5.0</ele><time>2026-05-01T15:32:26.999Z</time></trkpt><trkpt lat="43.61660369981218" lon="10.291189756655594"><ele>5.0</ele><time>2026-05-01T15:32:27.999Z</time></trkpt><trkpt lat="43.61646951143674" lon="10.291188874115736"><ele>5.0</ele><time>2026-05-01T15:32:28.999Z</time></trkpt><trkpt lat="43.616332281386626" lon="10.291182842857308"><ele>5.0</ele><time>2026-05-01T15:32:29.999Z</time></trkpt><trkpt lat="43.61619681821275" lon="10.291177737981084"><ele>5.0</ele><time>2026-05-01T15:32:30.999Z</time></trkpt><trkpt lat="43.6160617811055" lon="10.291173031878811"><ele>5.0</ele><time>2026-05-01T15:32:31.999Z</time></trkpt><trkpt lat="43.615923076098056" lon="10.291168462625025"><ele>5.0</ele><time>2026-05-01T15:32:32.999Z</time></trkpt><trkpt lat="43.615785264959364" lon="10.291160750591496"><ele>5.0</ele><time>2026-05-01T15:32:33.999Z</time></trkpt><trkpt lat="43.61564661724742" lon="10.291149196099413"><ele>5.0</ele><time>2026-05-01T15:32:34.999Z</time></trkpt><trkpt lat="43.61550643671204" lon="10.291140737967329"><ele>5.0</ele><time>2026-05-01T15:32:35.999Z</time></trkpt><trkpt lat="43.61536646711166" lon="10.291136439324898"><ele>5.0</ele><time>2026-05-01T15:32:36.999Z</time></trkpt><trkpt lat="43.61522565664697" lon="10.291135492957247"><ele>5.0</ele><time>2026-05-01T15:32:37.999Z</time></trkpt><trkpt lat="43.615083323837375" lon="10.291135542680863"><ele>5.0</ele><time>2026-05-01T15:32:38.999Z</time></trkpt><trkpt lat="43.614939980857876" lon="10.291126613287448"><ele>5.0</ele><time>2026-05-01T15:32:39.999Z</time></trkpt><trkpt lat="43.61479822289684" lon="10.291122330060094"><ele>5.0</ele><time>2026-05-01T15:32:40.999Z</time></trkpt><trkpt lat="43.61465316229275" lon="10.291123698064226"><ele>5.0</ele><time>2026-05-01T15:32:41.999Z</time></trkpt><trkpt lat="43.61450774056407" lon="10.291110201395554"><ele>5.0</ele><time>2026-05-01T15:32:42.999Z</time></trkpt><trkpt lat="43.614360967794994" lon="10.291107000097009"><ele>5.0</ele><time>2026-05-01T15:32:43.999Z</time></trkpt><trkpt lat="43.61421296169778" lon="10.291101525638185"><ele>5.0</ele><time>2026-05-01T15:32:44.999Z</time></trkpt><trkpt lat="43.61406832081374" lon="10.291087711793223"><ele>5.0</ele><time>2026-05-01T15:32:45.999Z</time></trkpt><trkpt lat="43.61392213461702" lon="10.291095828199047"><ele>5.0</ele><time>2026-05-01T15:32:46.999Z</time></trkpt><trkpt lat="43.613775140467304" lon="10.291098080652114"><ele>5.0</ele><time>2026-05-01T15:32:47.999Z</time></trkpt><trkpt lat="43.61362620511258" lon="10.291098311236997"><ele>5.0</ele><time>2026-05-01T15:32:48.999Z</time></trkpt><trkpt lat="43.61347856776781" lon="10.2910978503334"><ele>5.0</ele><time>2026-05-01T15:32:49.999Z</time></trkpt><trkpt lat="43.61333148134638" lon="10.291097264741522"><ele>5.0</ele><time>2026-05-01T15:32:50.999Z</time></trkpt><trkpt lat="43.613187969439586" lon="10.291100238921757"><ele>5.0</ele><time>2026-05-01T15:32:51.999Z</time></trkpt><trkpt lat="43.613058202511326" lon="10.2911073510506"><ele>5.0</ele><time>2026-05-01T15:32:52.999Z</time></trkpt><trkpt lat="43.61293896125793" lon="10.291114741619337"><ele>5.0</ele><time>2026-05-01T15:32:53.999Z</time></trkpt><trkpt lat="43.6128262860807" lon="10.2911210940469"><ele>5.0</ele><time>2026-05-01T15:32:54.999Z</time></trkpt><trkpt lat="43.61271974431499" lon="10.291128836457746"><ele>5.0</ele><time>2026-05-01T15:32:55.999Z</time></trkpt><trkpt lat="43.612618300280744" lon="10.291139298211531"><ele>5.0</ele><time>2026-05-01T15:32:56.999Z</time></trkpt><trkpt lat="43.61252778940736" lon="10.29114858387486"><ele>4.833333333333334</ele><time>2026-05-01T15:32:57.999Z</time></trkpt><trkpt lat="43.612437676940345" lon="10.291156295835117"><ele>4.666666666666667</ele><time>2026-05-01T15:32:58.999Z</time></trkpt><trkpt lat="43.61235665285591" lon="10.291162388301402"><ele>4.5</ele><time>2026-05-01T15:32:59.999Z</time></trkpt><trkpt lat="43.61228216627294" lon="10.29116315391954"><ele>4.333333333333333</ele><time>2026-05-01T15:33:00.999Z</time></trkpt><trkpt lat="43.6122085543302" lon="10.29117151189824"><ele>4.166666666666666</ele><time>2026-05-01T15:33:01.999Z</time></trkpt><trkpt lat="43.61213590796487" lon="10.291182006694125"><ele>4.0</ele><time>2026-05-01T15:33:02.999Z</time></trkpt><trkpt lat="43.612058459969866" lon="10.291199719020911"><ele>4.0</ele><time>2026-05-01T15:33:04Z</time></trkpt><trkpt lat="43.61197663530306" lon="10.291216667788516"><ele>4.0</ele><time>2026-05-01T15:33:05Z</time></trkpt><trkpt lat="43.61188658447208" lon="10.291208734727588"><ele>4.0</ele><time>2026-05-01T15:33:06Z</time></trkpt><trkpt lat="43.611787162351355" lon="10.291217085165808"><ele>4.0</ele><time>2026-05-01T15:33:07Z</time></trkpt><trkpt lat="43.61168837814002" lon="10.291225627331986"><ele>4.0</ele><time>2026-05-01T15:33:08Z</time></trkpt><trkpt lat="43.61160121037116" lon="10.291233164986846"><ele>4.0</ele><time>2026-05-01T15:33:09Z</time></trkpt><trkpt lat="43.61151980277325" lon="10.29124176226863"><ele>3.9999999999999996</ele><time>2026-05-01T15:33:10Z</time></trkpt><trkpt lat="43.61145241698151" lon="10.291249191659578"><ele>4.0</ele><time>2026-05-01T15:33:11Z</time></trkpt><trkpt lat="43.61138760262335" lon="10.291256337534847"><ele>4.0</ele><time>2026-05-01T15:33:12Z</time></trkpt><trkpt lat="43.61132349691139" lon="10.291264905479208"><ele>3.9999999999999996</ele><time>2026-05-01T15:33:13Z</time></trkpt><trkpt lat="43.611253309686546" lon="10.291274568339608"><ele>4.0</ele><time>2026-05-01T15:33:14Z</time></trkpt><trkpt lat="43.6111792814324" lon="10.29130693633974"><ele>4.0</ele><time>2026-05-01T15:33:15Z</time></trkpt><trkpt lat="43.61110637864003" lon="10.291308858349245"><ele>4.2</ele><time>2026-05-01T15:33:16Z</time></trkpt><trkpt lat="43.61099696132858" lon="10.291328240995666"><ele>4.4</ele><time>2026-05-01T15:33:18Z</time></trkpt><trkpt lat="43.610913342987736" lon="10.291340366844146"><ele>4.6</ele><time>2026-05-01T15:33:20Z</time></trkpt><trkpt lat="43.61083065583867" lon="10.291354819644667"><ele>4.8</ele><time>2026-05-01T15:33:22Z</time></trkpt><trkpt lat="43.610711597706945" lon="10.291373445710438"><ele>5.0</ele><time>2026-05-01T15:33:24Z</time></trkpt><trkpt lat="43.61063376178114" lon="10.291386975060655"><ele>5.0</ele><time>2026-05-01T15:33:25Z</time></trkpt><trkpt lat="43.61054519470831" lon="10.291403812379558"><ele>5.0</ele><time>2026-05-01T15:33:26Z</time></trkpt><trkpt lat="43.61046593580589" lon="10.291419249119263"><ele>5.0</ele><time>2026-05-01T15:33:27Z</time></trkpt><trkpt lat="43.61039108147827" lon="10.291432292480158"><ele>5.0</ele><time>2026-05-01T15:33:28Z</time></trkpt><trkpt lat="43.610312951269854" lon="10.291446786724235"><ele>5.0</ele><time>2026-05-01T15:33:29Z</time></trkpt><trkpt lat="43.6102252022131" lon="10.291462344817756"><ele>5.0</ele><time>2026-05-01T15:33:30Z</time></trkpt><trkpt lat="43.61013870941556" lon="10.291480057631022"><ele>4.8</ele><time>2026-05-01T15:33:31Z</time></trkpt><trkpt lat="43.610052121522216" lon="10.291498699309003"><ele>4.6</ele><time>2026-05-01T15:33:32Z</time></trkpt><trkpt lat="43.6099530686807" lon="10.291521210277706"><ele>4.4</ele><time>2026-05-01T15:33:33Z</time></trkpt><trkpt lat="43.60984629514029" lon="10.29152474923095"><ele>4.2</ele><time>2026-05-01T15:33:34Z</time></trkpt><trkpt lat="43.60973175179981" lon="10.291547049416112"><ele>4.0</ele><time>2026-05-01T15:33:35Z</time></trkpt><trkpt lat="43.60961082879485" lon="10.29159384816242"><ele>3.75</ele><time>2026-05-01T15:33:36Z</time></trkpt><trkpt lat="43.6094840693669" lon="10.29160580712099"><ele>3.5</ele><time>2026-05-01T15:33:37Z</time></trkpt><trkpt lat="43.609354134862826" lon="10.291630095648621"><ele>3.25</ele><time>2026-05-01T15:33:38Z</time></trkpt><trkpt lat="43.609223275691384" lon="10.291655879317192"><ele>3.0</ele><time>2026-05-01T15:33:39Z</time></trkpt><trkpt lat="43.60908843726689" lon="10.291683529440874"><ele>3.0</ele><time>2026-05-01T15:33:40Z</time></trkpt><trkpt lat="43.60897365312337" lon="10.291708887635096"><ele>3.0</ele><time>2026-05-01T15:33:41Z</time></trkpt><trkpt lat="43.60886994477523" lon="10.291733003565383"><ele>3.0</ele><time>2026-05-01T15:33:42Z</time></trkpt><trkpt lat="43.608769563749824" lon="10.291759031431411"><ele>3.0</ele><time>2026-05-01T15:33:43Z</time></trkpt><trkpt lat="43.60865669137873" lon="10.291786459899733"><ele>3.0</ele><time>2026-05-01T15:33:44Z</time></trkpt><trkpt lat="43.60853506876389" lon="10.29181367955037"><ele>3.0</ele><time>2026-05-01T15:33:45Z</time></trkpt><trkpt lat="43.60843379415978" lon="10.29184130489986"><ele>3.0</ele><time>2026-05-01T15:33:46Z</time></trkpt><trkpt lat="43.608330126726834" lon="10.291862989974744"><ele>3.0</ele><time>2026-05-01T15:33:47Z</time></trkpt><trkpt lat="43.60822213461832" lon="10.291890692337867"><ele>3.0</ele><time>2026-05-01T15:33:48Z</time></trkpt><trkpt lat="43.608104303922275" lon="10.291895648653643"><ele>3.0</ele><time>2026-05-01T15:33:49Z</time></trkpt><trkpt lat="43.607982469388176" lon="10.291922129812072"><ele>3.0</ele><time>2026-05-01T15:33:50Z</time></trkpt><trkpt lat="43.6078554296964" lon="10.291949742321039"><ele>3.0</ele><time>2026-05-01T15:33:51Z</time></trkpt><trkpt lat="43.607728475041206" lon="10.291977336365607"><ele>3.0</ele><time>2026-05-01T15:33:52Z</time></trkpt><trkpt lat="43.607595267429126" lon="10.292006289474577"><ele>3.0</ele><time>2026-05-01T15:33:53Z</time></trkpt><trkpt lat="43.6074641104039" lon="10.292034796920085"><ele>3.0</ele><time>2026-05-01T15:33:54Z</time></trkpt><trkpt lat="43.60734924456251" lon="10.29205976339145"><ele>3.0</ele><time>2026-05-01T15:33:55Z</time></trkpt><trkpt lat="43.60724342889536" lon="10.292082762787501"><ele>3.0</ele><time>2026-05-01T15:33:56Z</time></trkpt><trkpt lat="43.60715000737742" lon="10.292103068294706"><ele>3.0</ele><time>2026-05-01T15:33:57Z</time></trkpt><trkpt lat="43.60706065993855" lon="10.292122632315499"><ele>3.0</ele><time>2026-05-01T15:33:58Z</time></trkpt><trkpt lat="43.606980977593956" lon="10.292140096410282"><ele>3.0</ele><time>2026-05-01T15:33:59Z</time></trkpt><trkpt lat="43.606895494915214" lon="10.292158831786317"><ele>3.0</ele><time>2026-05-01T15:33:59.999Z</time></trkpt><trkpt lat="43.60679649193616" lon="10.29218053044869"><ele>3.0</ele><time>2026-05-01T15:34:00.999Z</time></trkpt><trkpt lat="43.60669660338099" lon="10.292202423366101"><ele>3.0</ele><time>2026-05-01T15:34:01.999Z</time></trkpt><trkpt lat="43.6065987297429" lon="10.292223736002823"><ele>3.0</ele><time>2026-05-01T15:34:02.999Z</time></trkpt><trkpt lat="43.60650618536189" lon="10.2922437053863"><ele>3.0</ele><time>2026-05-01T15:34:03.999Z</time></trkpt><trkpt lat="43.606425293790664" lon="10.292261200450532"><ele>3.0</ele><time>2026-05-01T15:34:04.999Z</time></trkpt><trkpt lat="43.60634954217461" lon="10.292277583890408"><ele>3.0</ele><time>2026-05-01T15:34:05.999Z</time></trkpt><trkpt lat="43.606267833512746" lon="10.29229525567727"><ele>3.0</ele><time>2026-05-01T15:34:06.999Z</time></trkpt><trkpt lat="43.60617036658447" lon="10.292316335635036"><ele>3.0</ele><time>2026-05-01T15:34:07.999Z</time></trkpt><trkpt lat="43.60606740286426" lon="10.29233860443787"><ele>3.0</ele><time>2026-05-01T15:34:08.999Z</time></trkpt><trkpt lat="43.605960258850814" lon="10.292361777349177"><ele>3.0</ele><time>2026-05-01T15:34:09.999Z</time></trkpt><trkpt lat="43.60586607832334" lon="10.292382146506853"><ele>3.0</ele><time>2026-05-01T15:34:10.999Z</time></trkpt><trkpt lat="43.605788777174105" lon="10.292428391826794"><ele>3.0</ele><time>2026-05-01T15:34:11.999Z</time></trkpt><trkpt lat="43.605666440927486" lon="10.292448012896335"><ele>3.0</ele><time>2026-05-01T15:34:13.999Z</time></trkpt><trkpt lat="43.60553330064626" lon="10.29249017875339"><ele>3.0</ele><time>2026-05-01T15:34:15.999Z</time></trkpt><trkpt lat="43.60544536423994" lon="10.292501196869352"><ele>3.0</ele><time>2026-05-01T15:34:16.999Z</time></trkpt><trkpt lat="43.605355833143406" lon="10.292519494984278"><ele>3.0</ele><time>2026-05-01T15:34:17.999Z</time></trkpt><trkpt lat="43.60526283951148" lon="10.292514047981884"><ele>3.0</ele><time>2026-05-01T15:34:18.999Z</time></trkpt><trkpt lat="43.60516910565586" lon="10.292534622600785"><ele>3.0</ele><time>2026-05-01T15:34:19.999Z</time></trkpt><trkpt lat="43.60507351348667" lon="10.292555605078155"><ele>3.0</ele><time>2026-05-01T15:34:20.999Z</time></trkpt><trkpt lat="43.60498262835067" lon="10.292575554379509"><ele>3.2</ele><time>2026-05-01T15:34:21.999Z</time></trkpt><trkpt lat="43.60488812782669" lon="10.292596297240085"><ele>3.4</ele><time>2026-05-01T15:34:22.999Z</time></trkpt><trkpt lat="43.604789424802625" lon="10.292617962580685"><ele>3.6000000000000005</ele><time>2026-05-01T15:34:23.999Z</time></trkpt><trkpt lat="43.60468865024776" lon="10.29264007529012"><ele>3.8000000000000003</ele><time>2026-05-01T15:34:24.999Z</time></trkpt><trkpt lat="43.60458859706671" lon="10.292661584298926"><ele>4.0</ele><time>2026-05-01T15:34:25.999Z</time></trkpt><trkpt lat="43.60448098663552" lon="10.292684927092285"><ele>4.0</ele><time>2026-05-01T15:34:26.999Z</time></trkpt><trkpt lat="43.60437263949048" lon="10.292708406093848"><ele>4.0</ele><time>2026-05-01T15:34:27.999Z</time></trkpt><trkpt lat="43.604260442870036" lon="10.292753358834597"><ele>4.0</ele><time>2026-05-01T15:34:28.999Z</time></trkpt><trkpt lat="43.60415478657039" lon="10.292765703596979"><ele>4.0</ele><time>2026-05-01T15:34:29.999Z</time></trkpt><trkpt lat="43.60406256783274" lon="10.292787256243054"><ele>4.0</ele><time>2026-05-01T15:34:30.999Z</time></trkpt><trkpt lat="43.60397636827332" lon="10.292806147845923"><ele>3.9999999999999996</ele><time>2026-05-01T15:34:31.999Z</time></trkpt><trkpt lat="43.603891564543225" lon="10.292820363131495"><ele>4.0</ele><time>2026-05-01T15:34:32.999Z</time></trkpt><trkpt lat="43.603818232195984" lon="10.292833641845501"><ele>4.0</ele><time>2026-05-01T15:34:33.999Z</time></trkpt><trkpt lat="43.603699304845634" lon="10.292860743132813"><ele>4.0</ele><time>2026-05-01T15:34:35.999Z</time></trkpt><trkpt lat="43.60363582719974" lon="10.292879641723315"><ele>3.9999999999999996</ele><time>2026-05-01T15:34:36.999Z</time></trkpt><trkpt lat="43.6035676593148" lon="10.292901191658006"><ele>4.0</ele><time>2026-05-01T15:34:37.999Z</time></trkpt><trkpt lat="43.603463132406894" lon="10.292923600721"><ele>3.8000000000000003</ele><time>2026-05-01T15:34:39.999Z</time></trkpt><trkpt lat="43.60336373415424" lon="10.292927129685008"><ele>3.6000000000000005</ele><time>2026-05-01T15:34:41.999Z</time></trkpt><trkpt lat="43.60326080670968" lon="10.292949444807158"><ele>3.4</ele><time>2026-05-01T15:34:43.999Z</time></trkpt><trkpt lat="43.60315280557103" lon="10.292972859958622"><ele>3.2</ele><time>2026-05-01T15:34:45.999Z</time></trkpt><trkpt lat="43.60305435327855" lon="10.292994204837784"><ele>3.0</ele><time>2026-05-01T15:34:47.999Z</time></trkpt><trkpt lat="43.602972713315154" lon="10.293011904753492"><ele>3.0</ele><time>2026-05-01T15:34:49.999Z</time></trkpt><trkpt lat="43.60290591449211" lon="10.293026387053466"><ele>3.0</ele><time>2026-05-01T15:34:51.999Z</time></trkpt><trkpt lat="43.60280242271405" lon="10.29304882453192"><ele>3.0</ele><time>2026-05-01T15:34:53.999Z</time></trkpt><trkpt lat="43.60272924342713" lon="10.29306469014701"><ele>3.0</ele><time>2026-05-01T15:34:54.999Z</time></trkpt><trkpt lat="43.60265453098228" lon="10.293080888148397"><ele>3.0</ele><time>2026-05-01T15:34:55.999Z</time></trkpt><trkpt lat="43.602572733758905" lon="10.293098622149888"><ele>3.0</ele><time>2026-05-01T15:34:56.999Z</time></trkpt><trkpt lat="43.602492171471454" lon="10.293116088405128"><ele>2.9999999999999996</ele><time>2026-05-01T15:34:57.999Z</time></trkpt><trkpt lat="43.60242515856047" lon="10.293130617104772"><ele>3.0</ele><time>2026-05-01T15:34:58.999Z</time></trkpt><trkpt lat="43.60235673557909" lon="10.29314540435429"><ele>3.0</ele><time>2026-05-01T15:34:59.999Z</time></trkpt><trkpt lat="43.60228179304889" lon="10.293161597843762"><ele>3.0</ele><time>2026-05-01T15:35:00.999Z</time></trkpt><trkpt lat="43.60220791336292" lon="10.293177561664928"><ele>3.0</ele><time>2026-05-01T15:35:01.999Z</time></trkpt><trkpt lat="43.60213585356908" lon="10.293193132253306"><ele>2.9999999999999996</ele><time>2026-05-01T15:35:02.999Z</time></trkpt><trkpt lat="43.602063876203445" lon="10.293208685023414"><ele>3.0</ele><time>2026-05-01T15:35:03.999Z</time></trkpt><trkpt lat="43.601979257800565" lon="10.29322696926715"><ele>2.8</ele><time>2026-05-01T15:35:04.999Z</time></trkpt><trkpt lat="43.6018873215159" lon="10.293246834735596"><ele>2.5999999999999996</ele><time>2026-05-01T15:35:05.999Z</time></trkpt><trkpt lat="43.60179091192525" lon="10.293267667073952"><ele>2.4000000000000004</ele><time>2026-05-01T15:35:06.999Z</time></trkpt><trkpt lat="43.601704317556035" lon="10.293286644340146"><ele>2.2</ele><time>2026-05-01T15:35:07.999Z</time></trkpt><trkpt lat="43.60161477699113" lon="10.29330617880259"><ele>2.0</ele><time>2026-05-01T15:35:08.999Z</time></trkpt><trkpt lat="43.601515695191836" lon="10.29332779479395"><ele>1.9999999999999998</ele><time>2026-05-01T15:35:10Z</time></trkpt><trkpt lat="43.60142960749189" lon="10.293346575950853"><ele>2.0</ele><time>2026-05-01T15:35:11Z</time></trkpt><trkpt lat="43.60134523681231" lon="10.293364982508974"><ele>2.0</ele><time>2026-05-01T15:35:12Z</time></trkpt><trkpt lat="43.601251847353986" lon="10.293385356643078"><ele>2.0</ele><time>2026-05-01T15:35:13Z</time></trkpt><trkpt lat="43.60117109980053" lon="10.293402972771034"><ele>1.9999999999999998</ele><time>2026-05-01T15:35:14Z</time></trkpt><trkpt lat="43.60108947292384" lon="10.293442531485193"><ele>2.0</ele><time>2026-05-01T15:35:15Z</time></trkpt><trkpt lat="43.60099018921762" lon="10.293464783608941"><ele>1.9999999999999998</ele><time>2026-05-01T15:35:16Z</time></trkpt><trkpt lat="43.60089106758876" lon="10.293463753750565"><ele>2.0</ele><time>2026-05-01T15:35:17Z</time></trkpt><trkpt lat="43.60080812655346" lon="10.293481467380055"><ele>2.0</ele><time>2026-05-01T15:35:18Z</time></trkpt><trkpt lat="43.600734141083265" lon="10.293497268392043"><ele>2.0</ele><time>2026-05-01T15:35:19Z</time></trkpt><trkpt lat="43.600660121043994" lon="10.293513076760243"><ele>1.9999999999999998</ele><time>2026-05-01T15:35:20Z</time></trkpt><trkpt lat="43.60059615457936" lon="10.293526739844859"><ele>2.0</ele><time>2026-05-01T15:35:21Z</time></trkpt><trkpt lat="43.600466944693814" lon="10.29355524833795"><ele>2.0</ele><time>2026-05-01T15:35:23Z</time></trkpt><trkpt lat="43.600373047611875" lon="10.293575457178903"><ele>2.0</ele><time>2026-05-01T15:35:25Z</time></trkpt><trkpt lat="43.60027350647999" lon="10.293596880722394"><ele>2.0</ele><time>2026-05-01T15:35:27Z</time></trkpt><trkpt lat="43.60020124540418" lon="10.293612432978998"><ele>2.0</ele><time>2026-05-01T15:35:28Z</time></trkpt><trkpt lat="43.60011877063301" lon="10.2936301831799"><ele>2.0</ele><time>2026-05-01T15:35:29Z</time></trkpt><trkpt lat="43.600021011771744" lon="10.29365121653713"><ele>2.4000000000000004</ele><time>2026-05-01T15:35:30Z</time></trkpt><trkpt lat="43.59992048092565" lon="10.293673567819416"><ele>2.8000000000000003</ele><time>2026-05-01T15:35:31Z</time></trkpt><trkpt lat="43.59982391522183" lon="10.293695499697101"><ele>3.2</ele><time>2026-05-01T15:35:32Z</time></trkpt><trkpt lat="43.5997222375124" lon="10.293718421451025"><ele>3.6</ele><time>2026-05-01T15:35:33Z</time></trkpt><trkpt lat="43.59963202982428" lon="10.293739023330247"><ele>4.0</ele><time>2026-05-01T15:35:34Z</time></trkpt><trkpt lat="43.59955101373155" lon="10.293757991277442"><ele>3.333333333333333</ele><time>2026-05-01T15:35:35Z</time></trkpt><trkpt lat="43.59947334637513" lon="10.293776229562697"><ele>2.6666666666666665</ele><time>2026-05-01T15:35:36Z</time></trkpt><trkpt lat="43.59939507327518" lon="10.293794590535786"><ele>2.0</ele><time>2026-05-01T15:35:37Z</time></trkpt><trkpt lat="43.59931320821686" lon="10.293813794113463"><ele>1.3333333333333333</ele><time>2026-05-01T15:35:38Z</time></trkpt><trkpt lat="43.59923502290353" lon="10.293832134529277"><ele>0.6666666666666666</ele><time>2026-05-01T15:35:39Z</time></trkpt><trkpt lat="43.599155165859" lon="10.29385175419736"><ele>0.0</ele><time>2026-05-01T15:35:40Z</time></trkpt><trkpt lat="43.59907282924135" lon="10.293872023611701"><ele>0.0</ele><time>2026-05-01T15:35:41Z</time></trkpt><trkpt lat="43.59898249523167" lon="10.293896200842886"><ele>0.0</ele><time>2026-05-01T15:35:42Z</time></trkpt><trkpt lat="43.59888898395829" lon="10.293922664442697"><ele>0.0</ele><time>2026-05-01T15:35:43Z</time></trkpt><trkpt lat="43.59880299346554" lon="10.293947825055094"><ele>0.0</ele><time>2026-05-01T15:35:44Z</time></trkpt><trkpt lat="43.59870732812326" lon="10.293976758560463"><ele>0.0</ele><time>2026-05-01T15:35:45Z</time></trkpt><trkpt lat="43.598608192784" lon="10.294008462327064"><ele>0.6</ele><time>2026-05-01T15:35:46Z</time></trkpt><trkpt lat="43.598521979927156" lon="10.29405895699413"><ele>1.2</ele><time>2026-05-01T15:35:47Z</time></trkpt><trkpt lat="43.5984387222768" lon="10.294075968499518"><ele>1.7999999999999998</ele><time>2026-05-01T15:35:48Z</time></trkpt><trkpt lat="43.59835982858262" lon="10.29410209470523"><ele>2.4</ele><time>2026-05-01T15:35:49Z</time></trkpt><trkpt lat="43.59824863920589" lon="10.294125525791694"><ele>3.0</ele><time>2026-05-01T15:35:51Z</time></trkpt><trkpt lat="43.59814677185702" lon="10.29415891002331"><ele>3.0</ele><time>2026-05-01T15:35:53Z</time></trkpt><trkpt lat="43.59808382404154" lon="10.294179574541324"><ele>3.0</ele><time>2026-05-01T15:35:54Z</time></trkpt><trkpt lat="43.59801224270306" lon="10.294203148860493"><ele>3.0</ele><time>2026-05-01T15:35:55Z</time></trkpt><trkpt lat="43.59795163870239" lon="10.2942351444542"><ele>3.0</ele><time>2026-05-01T15:35:56Z</time></trkpt><trkpt lat="43.59784707347704" lon="10.29426865355161"><ele>3.0</ele><time>2026-05-01T15:35:58Z</time></trkpt><trkpt lat="43.59774797215207" lon="10.294302503389458"><ele>3.0</ele><time>2026-05-01T15:36:00Z</time></trkpt><trkpt lat="43.59768588239636" lon="10.294326668600853"><ele>3.0</ele><time>2026-05-01T15:36:01Z</time></trkpt><trkpt lat="43.59756029664488" lon="10.294371822676101"><ele>3.0</ele><time>2026-05-01T15:36:03Z</time></trkpt><trkpt lat="43.597481975973956" lon="10.294394209175348"><ele>3.0</ele><time>2026-05-01T15:36:04Z</time></trkpt><trkpt lat="43.59740648587542" lon="10.29442018504448"><ele>3.0</ele><time>2026-05-01T15:36:05Z</time></trkpt><trkpt lat="43.59733184513974" lon="10.29444421154657"><ele>3.0</ele><time>2026-05-01T15:36:06Z</time></trkpt><trkpt lat="43.597264037663905" lon="10.294477888554708"><ele>3.0</ele><time>2026-05-01T15:36:07Z</time></trkpt></trkseg></trk></gpx>